<?xml version='1.0' encoding='UTF-8'?><gpx version="1.1" creator="JPX - https://github.com/jenetics/jpx" xmlns="http://www.topografix.com/GPX/1/1"><trk><trkseg><trkpt lat="48.384904745605965" lon="-0.9885639063785242"><ele>176.0</ele><time>2026-04-08T15:25:27.999Z</time></trkpt><trkpt lat="48.38498432141038" lon="-0.988614193133009"><ele>176.0</ele><time>2026-04-08T15:25:28.999Z</time></trkpt><trkpt lat="48.38505117478383" lon="-0.9886568621160187"><ele>176.0</ele><time>2026-04-08T15:25:29.999Z</time></trkpt><trkpt lat="48.38511354473158" lon="-0.9887044509633608"><ele>176.0</ele><time>2026-04-08T15:25:31Z</time></trkpt><trkpt lat="48.385176888490584" lon="-0.9887514511668812"><ele>176.0</ele><time>2026-04-08T15:25:32Z</time></trkpt><trkpt lat="48.385246237247" lon="-0.9887958404570472"><ele>176.0</ele><time>2026-04-08T15:25:33Z</time></trkpt><trkpt lat="48.38532197662259" lon="-0.9888580836282337"><ele>176.0</ele><time>2026-04-08T15:25:34Z</time></trkpt><trkpt lat="48.38539551734468" lon="-0.9889063786899327"><ele>176.0</ele><time>2026-04-08T15:25:35Z</time></trkpt><trkpt lat="48.38547225324676" lon="-0.988958138434348"><ele>176.0</ele><time>2026-04-08T15:25:36Z</time></trkpt><trkpt lat="48.38555220066027" lon="-0.9890074438262851"><ele>176.0</ele><time>2026-04-08T15:25:37Z</time></trkpt><trkpt lat="48.38563174492989" lon="-0.9890530864330406"><ele>176.0</ele><time>2026-04-08T15:25:38Z</time></trkpt><trkpt lat="48.385712794092726" lon="-0.9890894325025177"><ele>176.0</ele><time>2026-04-08T15:25:39Z</time></trkpt><trkpt lat="48.38579417815056" lon="-0.9891294598789219"><ele>176.5</ele><time>2026-04-08T15:25:40Z</time></trkpt><trkpt lat="48.38587531428735" lon="-0.9891686024697747"><ele>177.0</ele><time>2026-04-08T15:25:41Z</time></trkpt><trkpt lat="48.38595920220164" lon="-0.9892009364253819"><ele>177.5</ele><time>2026-04-08T15:25:42Z</time></trkpt><trkpt lat="48.38604275310566" lon="-0.9892321039076619"><ele>178.0</ele><time>2026-04-08T15:25:43Z</time></trkpt><trkpt lat="48.386115451353156" lon="-0.9892759760788918"><ele>178.5</ele><time>2026-04-08T15:25:44Z</time></trkpt><trkpt lat="48.38620466374653" lon="-0.9892769501854044"><ele>179.0</ele><time>2026-04-08T15:25:45Z</time></trkpt><trkpt lat="48.386292045333825" lon="-0.9892963214834816"><ele>179.39999999999998</ele><time>2026-04-08T15:25:46Z</time></trkpt><trkpt lat="48.38638393480704" lon="-0.9893015549440448"><ele>179.8</ele><time>2026-04-08T15:25:47Z</time></trkpt><trkpt lat="48.38648398529208" lon="-0.9893183991761604"><ele>180.2</ele><time>2026-04-08T15:25:48Z</time></trkpt><trkpt lat="48.386588207829064" lon="-0.9893267603697152"><ele>180.60000000000002</ele><time>2026-04-08T15:25:49Z</time></trkpt><trkpt lat="48.38670214978733" lon="-0.9893293236478039"><ele>181.0</ele><time>2026-04-08T15:25:50Z</time></trkpt><trkpt lat="48.38681155816142" lon="-0.9893293236493391"><ele>181.0</ele><time>2026-04-08T15:25:51Z</time></trkpt><trkpt lat="48.38691785843752" lon="-0.9893285487102234"><ele>181.0</ele><time>2026-04-08T15:25:52Z</time></trkpt><trkpt lat="48.38703454063372" lon="-0.9893267398694161"><ele>181.0</ele><time>2026-04-08T15:25:53Z</time></trkpt><trkpt lat="48.38715425994695" lon="-0.9893230539562011"><ele>181.0</ele><time>2026-04-08T15:25:54Z</time></trkpt><trkpt lat="48.38727599049169" lon="-0.9893139554542758"><ele>181.5</ele><time>2026-04-08T15:25:55Z</time></trkpt><trkpt lat="48.38740262744337" lon="-0.9893044902311295"><ele>182.0</ele><time>2026-04-08T15:25:56Z</time></trkpt><trkpt lat="48.387524534200296" lon="-0.98929537855374"><ele>182.5</ele><time>2026-04-08T15:25:57Z</time></trkpt><trkpt lat="48.38764896433745" lon="-0.9892891078698488"><ele>183.0</ele><time>2026-04-08T15:25:58Z</time></trkpt><trkpt lat="48.38777476052147" lon="-0.9892822999347032"><ele>183.0</ele><time>2026-04-08T15:25:59Z</time></trkpt><trkpt lat="48.38791024892127" lon="-0.9892759064032824"><ele>183.0</ele><time>2026-04-08T15:26:00Z</time></trkpt><trkpt lat="48.388040996315894" lon="-0.9892697365943574"><ele>183.0</ele><time>2026-04-08T15:26:01Z</time></trkpt><trkpt lat="48.388162947118495" lon="-0.9892639818869718"><ele>183.0</ele><time>2026-04-08T15:26:02Z</time></trkpt><trkpt lat="48.38829168051559" lon="-0.9892579071162281"><ele>182.75</ele><time>2026-04-08T15:26:03Z</time></trkpt><trkpt lat="48.38841672644493" lon="-0.9892520046608191"><ele>182.5</ele><time>2026-04-08T15:26:04Z</time></trkpt><trkpt lat="48.38853861309235" lon="-0.9892613665290938"><ele>182.25</ele><time>2026-04-08T15:26:05Z</time></trkpt><trkpt lat="48.38865810574763" lon="-0.9892519013585729"><ele>182.0</ele><time>2026-04-08T15:26:06Z</time></trkpt><trkpt lat="48.38877668739696" lon="-0.9892425614999685"><ele>181.5</ele><time>2026-04-08T15:26:07Z</time></trkpt><trkpt lat="48.38889135261184" lon="-0.9892402436207088"><ele>181.0</ele><time>2026-04-08T15:26:08Z</time></trkpt><trkpt lat="48.389007273363255" lon="-0.9892399906340338"><ele>180.5</ele><time>2026-04-08T15:26:09Z</time></trkpt><trkpt lat="48.38912271264736" lon="-0.9892349240251316"><ele>180.0</ele><time>2026-04-08T15:26:10Z</time></trkpt><trkpt lat="48.389238134801495" lon="-0.9892349094445141"><ele>180.0</ele><time>2026-04-08T15:26:11Z</time></trkpt><trkpt lat="48.389350667654" lon="-0.9892303761336775"><ele>180.0</ele><time>2026-04-08T15:26:12Z</time></trkpt><trkpt lat="48.38946609324749" lon="-0.9892175019567515"><ele>180.0</ele><time>2026-04-08T15:26:13Z</time></trkpt><trkpt lat="48.389585937483176" lon="-0.9892097583390501"><ele>180.0</ele><time>2026-04-08T15:26:14Z</time></trkpt><trkpt lat="48.38970148078241" lon="-0.9892037360892846"><ele>180.25</ele><time>2026-04-08T15:26:15Z</time></trkpt><trkpt lat="48.3898216390333" lon="-0.9892020900635943"><ele>180.5</ele><time>2026-04-08T15:26:16Z</time></trkpt><trkpt lat="48.38994376660042" lon="-0.9891984026387125"><ele>180.75</ele><time>2026-04-08T15:26:17Z</time></trkpt><trkpt lat="48.390069854370644" lon="-0.9891910680280984"><ele>181.0</ele><time>2026-04-08T15:26:18Z</time></trkpt><trkpt lat="48.390204419778065" lon="-0.9891887337155209"><ele>181.0</ele><time>2026-04-08T15:26:19Z</time></trkpt><trkpt lat="48.390345809530444" lon="-0.9891811646904061"><ele>181.0</ele><time>2026-04-08T15:26:20Z</time></trkpt><trkpt lat="48.39049523131984" lon="-0.9891746553118186"><ele>181.0</ele><time>2026-04-08T15:26:21Z</time></trkpt><trkpt lat="48.3906545137609" lon="-0.9891669239050567"><ele>180.33333333333334</ele><time>2026-04-08T15:26:22Z</time></trkpt><trkpt lat="48.39082589369525" lon="-0.9891596842192345"><ele>179.66666666666666</ele><time>2026-04-08T15:26:23Z</time></trkpt><trkpt lat="48.39098966005251" lon="-0.9891579784352835"><ele>179.0</ele><time>2026-04-08T15:26:24Z</time></trkpt><trkpt lat="48.3911553318621" lon="-0.9891540417768101"><ele>179.0</ele><time>2026-04-08T15:26:25Z</time></trkpt><trkpt lat="48.391326107845394" lon="-0.9891439779125191"><ele>179.0</ele><time>2026-04-08T15:26:26Z</time></trkpt><trkpt lat="48.39149992733752" lon="-0.9891303188497097"><ele>179.0</ele><time>2026-04-08T15:26:27Z</time></trkpt><trkpt lat="48.391674490195754" lon="-0.9891236981486795"><ele>179.0</ele><time>2026-04-08T15:26:28Z</time></trkpt><trkpt lat="48.39185969022715" lon="-0.9891143919848853"><ele>179.0</ele><time>2026-04-08T15:26:29Z</time></trkpt><trkpt lat="48.392050635041315" lon="-0.989107051673298"><ele>179.0</ele><time>2026-04-08T15:26:30Z</time></trkpt><trkpt lat="48.39224994368838" lon="-0.9890990819215691"><ele>179.66666666666666</ele><time>2026-04-08T15:26:31Z</time></trkpt><trkpt lat="48.3924556578134" lon="-0.9890859078550099"><ele>180.33333333333334</ele><time>2026-04-08T15:26:32Z</time></trkpt><trkpt lat="48.39266082211029" lon="-0.9890695204103374"><ele>181.0</ele><time>2026-04-08T15:26:33Z</time></trkpt><trkpt lat="48.39286056714844" lon="-0.9890562965240869"><ele>181.33333333333334</ele><time>2026-04-08T15:26:34Z</time></trkpt><trkpt lat="48.393057923659434" lon="-0.9890455480233477"><ele>181.66666666666666</ele><time>2026-04-08T15:26:35Z</time></trkpt><trkpt lat="48.39325984780788" lon="-0.9890327632224896"><ele>182.0</ele><time>2026-04-08T15:26:36Z</time></trkpt><trkpt lat="48.39346315782181" lon="-0.9890212373048061"><ele>182.0</ele><time>2026-04-08T15:26:37Z</time></trkpt><trkpt lat="48.39367103238378" lon="-0.9890096585008741"><ele>182.0</ele><time>2026-04-08T15:26:38Z</time></trkpt><trkpt lat="48.39387743187222" lon="-0.9890002460559592"><ele>182.0</ele><time>2026-04-08T15:26:39Z</time></trkpt><trkpt lat="48.394100006907095" lon="-0.9889948364951776"><ele>180.66666666666666</ele><time>2026-04-08T15:26:40Z</time></trkpt><trkpt lat="48.39431649454486" lon="-0.9889792490137481"><ele>179.33333333333334</ele><time>2026-04-08T15:26:41Z</time></trkpt><trkpt lat="48.394531513530886" lon="-0.9889622594622578"><ele>178.0</ele><time>2026-04-08T15:26:42Z</time></trkpt><trkpt lat="48.39475302290463" lon="-0.988950713340217"><ele>177.0</ele><time>2026-04-08T15:26:43Z</time></trkpt><trkpt lat="48.39497895879977" lon="-0.9889387398095107"><ele>176.0</ele><time>2026-04-08T15:26:44Z</time></trkpt><trkpt lat="48.39519906134052" lon="-0.9889310371906441"><ele>175.0</ele><time>2026-04-08T15:26:45Z</time></trkpt><trkpt lat="48.39541757406255" lon="-0.988919777496262"><ele>175.33333333333334</ele><time>2026-04-08T15:26:46Z</time></trkpt><trkpt lat="48.395630375617976" lon="-0.9889092879598945"><ele>175.66666666666666</ele><time>2026-04-08T15:26:47Z</time></trkpt><trkpt lat="48.39584704938281" lon="-0.988906368473588"><ele>176.0</ele><time>2026-04-08T15:26:48Z</time></trkpt><trkpt lat="48.39605907036018" lon="-0.9889011092304703"><ele>176.0</ele><time>2026-04-08T15:26:49Z</time></trkpt><trkpt lat="48.3962692014907" lon="-0.9888932523147266"><ele>176.0</ele><time>2026-04-08T15:26:50Z</time></trkpt><trkpt lat="48.3964767826574" lon="-0.988885473435528"><ele>176.0</ele><time>2026-04-08T15:26:51Z</time></trkpt><trkpt lat="48.3966812612558" lon="-0.9888855763208861"><ele>176.33333333333331</ele><time>2026-04-08T15:26:52Z</time></trkpt><trkpt lat="48.39688895458052" lon="-0.9888688664812239"><ele>176.66666666666666</ele><time>2026-04-08T15:26:53Z</time></trkpt><trkpt lat="48.39709886281258" lon="-0.9888640623117643"><ele>177.0</ele><time>2026-04-08T15:26:54Z</time></trkpt><trkpt lat="48.3973075847517" lon="-0.9888552348617049"><ele>178.33333333333334</ele><time>2026-04-08T15:26:55Z</time></trkpt><trkpt lat="48.397514337541345" lon="-0.9888532221302859"><ele>179.66666666666669</ele><time>2026-04-08T15:26:56Z</time></trkpt><trkpt lat="48.39772381069705" lon="-0.9888311638458114"><ele>181.0</ele><time>2026-04-08T15:26:57Z</time></trkpt><trkpt lat="48.397932165366484" lon="-0.9888162019327627"><ele>180.0</ele><time>2026-04-08T15:26:58Z</time></trkpt><trkpt lat="48.39813961258492" lon="-0.9888094802065396"><ele>179.0</ele><time>2026-04-08T15:26:59Z</time></trkpt><trkpt lat="48.39834764016598" lon="-0.9888004809159384"><ele>178.0</ele><time>2026-04-08T15:27:00Z</time></trkpt><trkpt lat="48.39855949162051" lon="-0.9887948557984004"><ele>178.0</ele><time>2026-04-08T15:27:01Z</time></trkpt><trkpt lat="48.398772705071174" lon="-0.9887857106546493"><ele>178.0</ele><time>2026-04-08T15:27:02Z</time></trkpt><trkpt lat="48.39898245945689" lon="-0.9887746242145817"><ele>178.0</ele><time>2026-04-08T15:27:03Z</time></trkpt><trkpt lat="48.399194817124936" lon="-0.9887633857835734"><ele>177.66666666666669</ele><time>2026-04-08T15:27:04Z</time></trkpt><trkpt lat="48.399395970226024" lon="-0.9887538704336997"><ele>177.33333333333334</ele><time>2026-04-08T15:27:05Z</time></trkpt><trkpt lat="48.399610515279456" lon="-0.9887356571225246"><ele>177.0</ele><time>2026-04-08T15:27:06Z</time></trkpt><trkpt lat="48.399831908740985" lon="-0.9887195888268027"><ele>176.66666666666666</ele><time>2026-04-08T15:27:07Z</time></trkpt><trkpt lat="48.40004634611197" lon="-0.9887083893108127"><ele>176.33333333333331</ele><time>2026-04-08T15:27:08Z</time></trkpt><trkpt lat="48.400262057286" lon="-0.9886954559245075"><ele>176.0</ele><time>2026-04-08T15:27:09Z</time></trkpt><trkpt lat="48.400473995735304" lon="-0.9886776931435588"><ele>174.66666666666666</ele><time>2026-04-08T15:27:10Z</time></trkpt><trkpt lat="48.400685932927246" lon="-0.9886689226714572"><ele>173.33333333333334</ele><time>2026-04-08T15:27:11Z</time></trkpt><trkpt lat="48.4008980282125" lon="-0.9886637338654304"><ele>172.0</ele><time>2026-04-08T15:27:12Z</time></trkpt><trkpt lat="48.401110389485495" lon="-0.9886585220224553"><ele>172.0</ele><time>2026-04-08T15:27:13Z</time></trkpt><trkpt lat="48.40132103645183" lon="-0.9886521422604027"><ele>172.0</ele><time>2026-04-08T15:27:14Z</time></trkpt><trkpt lat="48.40153167167098" lon="-0.9886406625082684"><ele>172.0</ele><time>2026-04-08T15:27:15Z</time></trkpt><trkpt lat="48.401742945273114" lon="-0.9886331794701473"><ele>170.33333333333334</ele><time>2026-04-08T15:27:16Z</time></trkpt><trkpt lat="48.401956641261435" lon="-0.9886173972962132"><ele>168.66666666666666</ele><time>2026-04-08T15:27:17Z</time></trkpt><trkpt lat="48.40217302120386" lon="-0.9886111402683017"><ele>167.0</ele><time>2026-04-08T15:27:18Z</time></trkpt><trkpt lat="48.40239181073641" lon="-0.9886034392397536"><ele>167.0</ele><time>2026-04-08T15:27:19Z</time></trkpt><trkpt lat="48.40260836662712" lon="-0.988592982257241"><ele>167.0</ele><time>2026-04-08T15:27:20Z</time></trkpt><trkpt lat="48.402819799800405" lon="-0.9885802726193486"><ele>167.0</ele><time>2026-04-08T15:27:21Z</time></trkpt><trkpt lat="48.40303347819611" lon="-0.9885706925486278"><ele>167.0</ele><time>2026-04-08T15:27:22Z</time></trkpt><trkpt lat="48.40324586736965" lon="-0.9885585504940895"><ele>167.0</ele><time>2026-04-08T15:27:23Z</time></trkpt><trkpt lat="48.40345706667934" lon="-0.9885544724206472"><ele>167.0</ele><time>2026-04-08T15:27:24Z</time></trkpt><trkpt lat="48.40366436493787" lon="-0.9885474498514989"><ele>167.66666666666666</ele><time>2026-04-08T15:27:25Z</time></trkpt><trkpt lat="48.403868862448306" lon="-0.988534223944492"><ele>168.33333333333334</ele><time>2026-04-08T15:27:26Z</time></trkpt><trkpt lat="48.40406009476282" lon="-0.9885098069878845"><ele>169.0</ele><time>2026-04-08T15:27:27Z</time></trkpt><trkpt lat="48.40425834120755" lon="-0.9885053631467438"><ele>169.0</ele><time>2026-04-08T15:27:28Z</time></trkpt><trkpt lat="48.404449320433415" lon="-0.9884944812725117"><ele>169.0</ele><time>2026-04-08T15:27:29Z</time></trkpt><trkpt lat="48.40464451063267" lon="-0.9884886792787408"><ele>169.0</ele><time>2026-04-08T15:27:30Z</time></trkpt><trkpt lat="48.404834078218116" lon="-0.9884849905043629"><ele>168.66666666666669</ele><time>2026-04-08T15:27:31Z</time></trkpt><trkpt lat="48.40502501534299" lon="-0.9884537016880425"><ele>168.33333333333334</ele><time>2026-04-08T15:27:32Z</time></trkpt><trkpt lat="48.405216175859735" lon="-0.9884590913583015"><ele>168.0</ele><time>2026-04-08T15:27:33Z</time></trkpt><trkpt lat="48.4054095931919" lon="-0.9884549722646346"><ele>167.66666666666666</ele><time>2026-04-08T15:27:34Z</time></trkpt><trkpt lat="48.40560352800644" lon="-0.9884445924628943"><ele>167.33333333333331</ele><time>2026-04-08T15:27:35Z</time></trkpt><trkpt lat="48.405785786549195" lon="-0.9884383187675392"><ele>167.0</ele><time>2026-04-08T15:27:36Z</time></trkpt><trkpt lat="48.405957502954905" lon="-0.9884327579451229"><ele>167.0</ele><time>2026-04-08T15:27:37Z</time></trkpt><trkpt lat="48.406120890792344" lon="-0.9884189434609592"><ele>167.0</ele><time>2026-04-08T15:27:38Z</time></trkpt><trkpt lat="48.40627536654293" lon="-0.988417504828606"><ele>167.0</ele><time>2026-04-08T15:27:39Z</time></trkpt><trkpt lat="48.40642989014756" lon="-0.9884096466536868"><ele>166.0</ele><time>2026-04-08T15:27:40Z</time></trkpt><trkpt lat="48.40658249762539" lon="-0.9884061933058654"><ele>165.0</ele><time>2026-04-08T15:27:41Z</time></trkpt><trkpt lat="48.40672351729026" lon="-0.9884016360896546"><ele>164.0</ele><time>2026-04-08T15:27:42Z</time></trkpt><trkpt lat="48.40686260665099" lon="-0.9883933438253979"><ele>163.0</ele><time>2026-04-08T15:27:43Z</time></trkpt><trkpt lat="48.406997901771106" lon="-0.988385343013187"><ele>163.0</ele><time>2026-04-08T15:27:44Z</time></trkpt><trkpt lat="48.40712854851684" lon="-0.9883790440230386"><ele>163.0</ele><time>2026-04-08T15:27:45Z</time></trkpt><trkpt lat="48.40724719456852" lon="-0.9883759726954781"><ele>163.0</ele><time>2026-04-08T15:27:46Z</time></trkpt><trkpt lat="48.40735256233815" lon="-0.9883756527671534"><ele>163.0</ele><time>2026-04-08T15:27:47Z</time></trkpt><trkpt lat="48.40745086282765" lon="-0.9883677483055862"><ele>162.83333333333334</ele><time>2026-04-08T15:27:48Z</time></trkpt><trkpt lat="48.40753841125946" lon="-0.9883464414611106"><ele>162.66666666666669</ele><time>2026-04-08T15:27:49Z</time></trkpt><trkpt lat="48.40761910616655" lon="-0.9882896063107992"><ele>162.5</ele><time>2026-04-08T15:27:50Z</time></trkpt><trkpt lat="48.40769215650041" lon="-0.9882204091788326"><ele>162.33333333333334</ele><time>2026-04-08T15:27:51Z</time></trkpt><trkpt lat="48.40775774451943" lon="-0.9881852890679295"><ele>162.16666666666666</ele><time>2026-04-08T15:27:52Z</time></trkpt><trkpt lat="48.40782982752632" lon="-0.98818229922441"><ele>162.0</ele><time>2026-04-08T15:27:53Z</time></trkpt><trkpt lat="48.40791625580109" lon="-0.9882422225131053"><ele>162.0</ele><time>2026-04-08T15:27:54Z</time></trkpt><trkpt lat="48.40800704647904" lon="-0.9883084392384776"><ele>162.0</ele><time>2026-04-08T15:27:55Z</time></trkpt><trkpt lat="48.40810870401639" lon="-0.9883680075810566"><ele>162.0</ele><time>2026-04-08T15:27:56Z</time></trkpt><trkpt lat="48.408242997897325" lon="-0.9883150635944182"><ele>162.0</ele><time>2026-04-08T15:27:57Z</time></trkpt><trkpt lat="48.40837720710588" lon="-0.9883169587010494"><ele>162.66666666666666</ele><time>2026-04-08T15:27:58Z</time></trkpt><trkpt lat="48.408532086537704" lon="-0.9882920623128041"><ele>163.33333333333331</ele><time>2026-04-08T15:27:59Z</time></trkpt><trkpt lat="48.4086894233797" lon="-0.9882861656737425"><ele>164.0</ele><time>2026-04-08T15:28:00Z</time></trkpt><trkpt lat="48.40884412911212" lon="-0.9882917354134142"><ele>165.33333333333331</ele><time>2026-04-08T15:28:01Z</time></trkpt><trkpt lat="48.40899925302034" lon="-0.9883266689248889"><ele>166.66666666666666</ele><time>2026-04-08T15:28:02Z</time></trkpt><trkpt lat="48.409162842685916" lon="-0.9883594704910351"><ele>168.0</ele><time>2026-04-08T15:28:03Z</time></trkpt><trkpt lat="48.409320966240706" lon="-0.9884063505050638"><ele>168.0</ele><time>2026-04-08T15:28:04Z</time></trkpt><trkpt lat="48.40948606468419" lon="-0.9884719844233748"><ele>168.0</ele><time>2026-04-08T15:28:05Z</time></trkpt><trkpt lat="48.409657720101436" lon="-0.9885318626389621"><ele>168.0</ele><time>2026-04-08T15:28:06Z</time></trkpt><trkpt lat="48.40982816272962" lon="-0.9886266877998017"><ele>169.66666666666666</ele><time>2026-04-08T15:28:07Z</time></trkpt><trkpt lat="48.40999444360383" lon="-0.9887454793921486"><ele>171.33333333333331</ele><time>2026-04-08T15:28:08Z</time></trkpt><trkpt lat="48.41015381000981" lon="-0.9888902756814327"><ele>173.0</ele><time>2026-04-08T15:28:09Z</time></trkpt><trkpt lat="48.41030831666458" lon="-0.9890409671731921"><ele>173.0</ele><time>2026-04-08T15:28:10Z</time></trkpt><trkpt lat="48.410452167505746" lon="-0.9891981089012873"><ele>173.0</ele><time>2026-04-08T15:28:11Z</time></trkpt><trkpt lat="48.410584374984346" lon="-0.9893434584732083"><ele>173.0</ele><time>2026-04-08T15:28:12Z</time></trkpt><trkpt lat="48.41070859662221" lon="-0.9894814135195028"><ele>173.66666666666666</ele><time>2026-04-08T15:28:13Z</time></trkpt><trkpt lat="48.41083181546051" lon="-0.9896209659052755"><ele>174.33333333333334</ele><time>2026-04-08T15:28:14Z</time></trkpt><trkpt lat="48.41096462242117" lon="-0.9897683807313822"><ele>175.0</ele><time>2026-04-08T15:28:15Z</time></trkpt><trkpt lat="48.41110521687458" lon="-0.9899233010147083"><ele>174.33333333333334</ele><time>2026-04-08T15:28:16Z</time></trkpt><trkpt lat="48.41125557024456" lon="-0.9900823811825301"><ele>173.66666666666666</ele><time>2026-04-08T15:28:17Z</time></trkpt><trkpt lat="48.41141202337302" lon="-0.9902387500005805"><ele>173.0</ele><time>2026-04-08T15:28:18Z</time></trkpt><trkpt lat="48.41156934919778" lon="-0.9904046808376235"><ele>173.0</ele><time>2026-04-08T15:28:19Z</time></trkpt><trkpt lat="48.411728821949076" lon="-0.9905747849688006"><ele>173.0</ele><time>2026-04-08T15:28:20Z</time></trkpt><trkpt lat="48.4118965509134" lon="-0.990761970325172"><ele>173.0</ele><time>2026-04-08T15:28:21Z</time></trkpt><trkpt lat="48.412065720098425" lon="-0.9909581147753505"><ele>171.0</ele><time>2026-04-08T15:28:22Z</time></trkpt><trkpt lat="48.412244575443445" lon="-0.9911542477193348"><ele>169.0</ele><time>2026-04-08T15:28:23Z</time></trkpt><trkpt lat="48.41242823992077" lon="-0.9913516565136217"><ele>167.0</ele><time>2026-04-08T15:28:24Z</time></trkpt><trkpt lat="48.4126082551003" lon="-0.9915487328135021"><ele>165.5</ele><time>2026-04-08T15:28:25Z</time></trkpt><trkpt lat="48.41279469763415" lon="-0.9917407716018245"><ele>164.0</ele><time>2026-04-08T15:28:26Z</time></trkpt><trkpt lat="48.41297747432318" lon="-0.9919419301369073"><ele>165.5</ele><time>2026-04-08T15:28:27Z</time></trkpt><trkpt lat="48.413163257001415" lon="-0.9921428428308726"><ele>167.0</ele><time>2026-04-08T15:28:28Z</time></trkpt><trkpt lat="48.41334890360222" lon="-0.9923423047364406"><ele>166.0</ele><time>2026-04-08T15:28:29Z</time></trkpt><trkpt lat="48.41353623802352" lon="-0.9925425083760522"><ele>165.0</ele><time>2026-04-08T15:28:30Z</time></trkpt><trkpt lat="48.41372278264289" lon="-0.9927417644931965"><ele>165.5</ele><time>2026-04-08T15:28:31Z</time></trkpt><trkpt lat="48.41392245668176" lon="-0.9929315160008926"><ele>166.0</ele><time>2026-04-08T15:28:32Z</time></trkpt><trkpt lat="48.41409815978719" lon="-0.9931174033273017"><ele>166.0</ele><time>2026-04-08T15:28:33Z</time></trkpt><trkpt lat="48.41428001506874" lon="-0.993310072778156"><ele>166.0</ele><time>2026-04-08T15:28:34Z</time></trkpt><trkpt lat="48.41446020774364" lon="-0.9935013053096567"><ele>166.0</ele><time>2026-04-08T15:28:35Z</time></trkpt><trkpt lat="48.41463692715177" lon="-0.9936888608038099"><ele>167.33333333333334</ele><time>2026-04-08T15:28:36Z</time></trkpt><trkpt lat="48.41481668842796" lon="-0.9938798199374608"><ele>168.66666666666666</ele><time>2026-04-08T15:28:37Z</time></trkpt><trkpt lat="48.41499362150203" lon="-0.994066817682927"><ele>170.0</ele><time>2026-04-08T15:28:38Z</time></trkpt><trkpt lat="48.41516988789869" lon="-0.99425141441752"><ele>170.0</ele><time>2026-04-08T15:28:39Z</time></trkpt><trkpt lat="48.41534785103256" lon="-0.9944377881875719"><ele>170.0</ele><time>2026-04-08T15:28:40Z</time></trkpt><trkpt lat="48.41552421833283" lon="-0.9946224913609543"><ele>170.0</ele><time>2026-04-08T15:28:41Z</time></trkpt><trkpt lat="48.41570161785768" lon="-0.9948085449387574"><ele>170.0</ele><time>2026-04-08T15:28:42Z</time></trkpt><trkpt lat="48.41587285570025" lon="-0.9950130330456037"><ele>170.0</ele><time>2026-04-08T15:28:43Z</time></trkpt><trkpt lat="48.41605081510796" lon="-0.9952033036660065"><ele>170.0</ele><time>2026-04-08T15:28:44Z</time></trkpt><trkpt lat="48.41623831381007" lon="-0.995374045717743"><ele>169.33333333333331</ele><time>2026-04-08T15:28:45Z</time></trkpt><trkpt lat="48.41641691435706" lon="-0.9955638713999824"><ele>168.66666666666666</ele><time>2026-04-08T15:28:46Z</time></trkpt><trkpt lat="48.416589474804034" lon="-0.9957751059051038"><ele>168.0</ele><time>2026-04-08T15:28:47Z</time></trkpt><trkpt lat="48.41677122579886" lon="-0.995966119764405"><ele>168.0</ele><time>2026-04-08T15:28:48Z</time></trkpt><trkpt lat="48.41695339365168" lon="-0.9961541199963381"><ele>168.0</ele><time>2026-04-08T15:28:49Z</time></trkpt><trkpt lat="48.41713537655573" lon="-0.9963429081984452"><ele>168.0</ele><time>2026-04-08T15:28:50Z</time></trkpt><trkpt lat="48.417319409581616" lon="-0.9965270298648476"><ele>169.33333333333334</ele><time>2026-04-08T15:28:51Z</time></trkpt><trkpt lat="48.41750011726901" lon="-0.9967193368970276"><ele>170.66666666666669</ele><time>2026-04-08T15:28:52Z</time></trkpt><trkpt lat="48.41768190301129" lon="-0.9969134027687477"><ele>172.0</ele><time>2026-04-08T15:28:53Z</time></trkpt><trkpt lat="48.41786145880825" lon="-0.9971109065120327"><ele>173.0</ele><time>2026-04-08T15:28:54Z</time></trkpt><trkpt lat="48.418041791393264" lon="-0.9973116949957385"><ele>174.0</ele><time>2026-04-08T15:28:55Z</time></trkpt><trkpt lat="48.418226370096534" lon="-0.9975038481558567"><ele>175.0</ele><time>2026-04-08T15:28:56Z</time></trkpt><trkpt lat="48.418408149679244" lon="-0.9977004451034344"><ele>175.33333333333334</ele><time>2026-04-08T15:28:57Z</time></trkpt><trkpt lat="48.41859023233875" lon="-0.9978951292338092"><ele>175.66666666666666</ele><time>2026-04-08T15:28:58Z</time></trkpt><trkpt lat="48.41877131187114" lon="-0.9980911371236345"><ele>176.0</ele><time>2026-04-08T15:28:59Z</time></trkpt><trkpt lat="48.41895211299299" lon="-0.9982875960386222"><ele>175.33333333333331</ele><time>2026-04-08T15:29:00Z</time></trkpt><trkpt lat="48.419144503298504" lon="-0.99846235553806"><ele>174.66666666666666</ele><time>2026-04-08T15:29:01Z</time></trkpt><trkpt lat="48.41932764262171" lon="-0.9986566674389271"><ele>174.0</ele><time>2026-04-08T15:29:02Z</time></trkpt><trkpt lat="48.41951018159072" lon="-0.9988503423812657"><ele>174.66666666666666</ele><time>2026-04-08T15:29:03Z</time></trkpt><trkpt lat="48.41969254731049" lon="-0.999043833493659"><ele>175.33333333333331</ele><time>2026-04-08T15:29:04Z</time></trkpt><trkpt lat="48.41987187959273" lon="-0.9992450140309997"><ele>176.0</ele><time>2026-04-08T15:29:05Z</time></trkpt><trkpt lat="48.42005561367963" lon="-0.9994365804526152"><ele>176.0</ele><time>2026-04-08T15:29:06Z</time></trkpt><trkpt lat="48.42023794701167" lon="-0.9996310104373558"><ele>176.0</ele><time>2026-04-08T15:29:07Z</time></trkpt><trkpt lat="48.42042241614065" lon="-0.9998249590884065"><ele>176.0</ele><time>2026-04-08T15:29:08Z</time></trkpt><trkpt lat="48.42060328062457" lon="-1.000016810977356"><ele>177.33333333333331</ele><time>2026-04-08T15:29:09Z</time></trkpt><trkpt lat="48.42078355213465" lon="-1.0002051199266224"><ele>178.66666666666666</ele><time>2026-04-08T15:29:10Z</time></trkpt><trkpt lat="48.420964489429124" lon="-1.0003890794287096"><ele>180.0</ele><time>2026-04-08T15:29:11Z</time></trkpt><trkpt lat="48.42114603954393" lon="-1.0005657563336001"><ele>181.33333333333334</ele><time>2026-04-08T15:29:12Z</time></trkpt><trkpt lat="48.421327166261406" lon="-1.0007426254991991"><ele>182.66666666666669</ele><time>2026-04-08T15:29:13Z</time></trkpt><trkpt lat="48.42150816011418" lon="-1.000921814677196"><ele>184.0</ele><time>2026-04-08T15:29:14Z</time></trkpt><trkpt lat="48.421689548209244" lon="-1.0011044312508428"><ele>184.0</ele><time>2026-04-08T15:29:15Z</time></trkpt><trkpt lat="48.42187270633642" lon="-1.00128840581156"><ele>184.0</ele><time>2026-04-08T15:29:16Z</time></trkpt><trkpt lat="48.42205734940245" lon="-1.0014726701367829"><ele>184.0</ele><time>2026-04-08T15:29:17Z</time></trkpt><trkpt lat="48.42224503665536" lon="-1.001656165972441"><ele>184.5</ele><time>2026-04-08T15:29:18Z</time></trkpt><trkpt lat="48.42243326826869" lon="-1.0018401306169082"><ele>185.0</ele><time>2026-04-08T15:29:19Z</time></trkpt><trkpt lat="48.422636024687854" lon="-1.0019972174364506"><ele>185.0</ele><time>2026-04-08T15:29:20Z</time></trkpt><trkpt lat="48.422846265960445" lon="-1.0021374525879938"><ele>185.0</ele><time>2026-04-08T15:29:21Z</time></trkpt><trkpt lat="48.42305295299197" lon="-1.0022790212049322"><ele>184.66666666666666</ele><time>2026-04-08T15:29:22Z</time></trkpt><trkpt lat="48.42325743331158" lon="-1.0024184532340865"><ele>184.33333333333334</ele><time>2026-04-08T15:29:23Z</time></trkpt><trkpt lat="48.42345899696717" lon="-1.0025600237594532"><ele>184.0</ele><time>2026-04-08T15:29:24Z</time></trkpt><trkpt lat="48.423659793685744" lon="-1.0027005226443417"><ele>184.33333333333334</ele><time>2026-04-08T15:29:25Z</time></trkpt><trkpt lat="48.42386290558315" lon="-1.002837231003251"><ele>184.66666666666666</ele><time>2026-04-08T15:29:26Z</time></trkpt><trkpt lat="48.42406654613871" lon="-1.0029769118736582"><ele>185.0</ele><time>2026-04-08T15:29:27Z</time></trkpt><trkpt lat="48.424271916170675" lon="-1.0031151379095624"><ele>185.0</ele><time>2026-04-08T15:29:28Z</time></trkpt><trkpt lat="48.42447925134245" lon="-1.00325213006155"><ele>185.0</ele><time>2026-04-08T15:29:29Z</time></trkpt><trkpt lat="48.424690085657254" lon="-1.0033842235339363"><ele>184.0</ele><time>2026-04-08T15:29:30Z</time></trkpt><trkpt lat="48.42490188533818" lon="-1.0035197111854968"><ele>183.0</ele><time>2026-04-08T15:29:31Z</time></trkpt><trkpt lat="48.4251107475774" lon="-1.0036610084049191"><ele>183.0</ele><time>2026-04-08T15:29:32Z</time></trkpt><trkpt lat="48.425320619876" lon="-1.003800124734123"><ele>183.0</ele><time>2026-04-08T15:29:33Z</time></trkpt><trkpt lat="48.42552795128039" lon="-1.0039492871884992"><ele>182.5</ele><time>2026-04-08T15:29:34Z</time></trkpt><trkpt lat="48.42573570470271" lon="-1.0040984849932577"><ele>182.0</ele><time>2026-04-08T15:29:35Z</time></trkpt><trkpt lat="48.425940689240136" lon="-1.0042539581772136"><ele>181.5</ele><time>2026-04-08T15:29:36Z</time></trkpt><trkpt lat="48.42615031237522" lon="-1.0044077362899708"><ele>181.0</ele><time>2026-04-08T15:29:37Z</time></trkpt><trkpt lat="48.42636456844379" lon="-1.0045566168546416"><ele>180.5</ele><time>2026-04-08T15:29:38Z</time></trkpt><trkpt lat="48.42657948613022" lon="-1.0047073989888342"><ele>180.0</ele><time>2026-04-08T15:29:39Z</time></trkpt><trkpt lat="48.426796597609574" lon="-1.0048543910249295"><ele>179.5</ele><time>2026-04-08T15:29:40Z</time></trkpt><trkpt lat="48.42701475151399" lon="-1.0050057602889992"><ele>179.0</ele><time>2026-04-08T15:29:41Z</time></trkpt><trkpt lat="48.4272288707071" lon="-1.0051721949282724"><ele>177.5</ele><time>2026-04-08T15:29:42Z</time></trkpt><trkpt lat="48.427435132717" lon="-1.0053553035101541"><ele>176.0</ele><time>2026-04-08T15:29:43Z</time></trkpt><trkpt lat="48.42763115586439" lon="-1.005551109082678"><ele>176.0</ele><time>2026-04-08T15:29:44Z</time></trkpt><trkpt lat="48.42781531094924" lon="-1.0057642852882946"><ele>176.0</ele><time>2026-04-08T15:29:45Z</time></trkpt><trkpt lat="48.427994011370394" lon="-1.0059916455164577"><ele>177.5</ele><time>2026-04-08T15:29:46Z</time></trkpt><trkpt lat="48.42816395538373" lon="-1.0062293600611105"><ele>179.0</ele><time>2026-04-08T15:29:47Z</time></trkpt><trkpt lat="48.42832601094928" lon="-1.006470522819491"><ele>178.66666666666666</ele><time>2026-04-08T15:29:48Z</time></trkpt><trkpt lat="48.42847129691981" lon="-1.006726713795665"><ele>178.33333333333334</ele><time>2026-04-08T15:29:49Z</time></trkpt><trkpt lat="48.42862328857612" lon="-1.0069740783718"><ele>178.0</ele><time>2026-04-08T15:29:50Z</time></trkpt><trkpt lat="48.428789583266166" lon="-1.0071948148748964"><ele>179.0</ele><time>2026-04-08T15:29:51Z</time></trkpt><trkpt lat="48.428970216240714" lon="-1.0073877957408388"><ele>180.0</ele><time>2026-04-08T15:29:52Z</time></trkpt><trkpt lat="48.42915532885767" lon="-1.0075603650614753"><ele>181.0</ele><time>2026-04-08T15:29:53Z</time></trkpt><trkpt lat="48.42934272485449" lon="-1.0077270424728981"><ele>181.0</ele><time>2026-04-08T15:29:54Z</time></trkpt><trkpt lat="48.42954061633586" lon="-1.0078715564776264"><ele>181.0</ele><time>2026-04-08T15:29:55Z</time></trkpt><trkpt lat="48.4297388265463" lon="-1.00801987058424"><ele>181.0</ele><time>2026-04-08T15:29:56Z</time></trkpt><trkpt lat="48.429938829844524" lon="-1.0081672547090863"><ele>182.66666666666669</ele><time>2026-04-08T15:29:57Z</time></trkpt><trkpt lat="48.43013969872034" lon="-1.008312556210872"><ele>184.33333333333334</ele><time>2026-04-08T15:29:58Z</time></trkpt><trkpt lat="48.4303390428391" lon="-1.008458388346447"><ele>186.0</ele><time>2026-04-08T15:29:59Z</time></trkpt><trkpt lat="48.43053666055909" lon="-1.0086088780829168"><ele>187.66666666666666</ele><time>2026-04-08T15:30:00Z</time></trkpt><trkpt lat="48.43073401072206" lon="-1.0087586579077918"><ele>189.33333333333331</ele><time>2026-04-08T15:30:01Z</time></trkpt><trkpt lat="48.430926174012825" lon="-1.0089149717860217"><ele>191.0</ele><time>2026-04-08T15:30:02Z</time></trkpt><trkpt lat="48.43111792354147" lon="-1.0090780347391526"><ele>191.33333333333331</ele><time>2026-04-08T15:30:03Z</time></trkpt><trkpt lat="48.43130236716823" lon="-1.0092547985832705"><ele>191.66666666666666</ele><time>2026-04-08T15:30:04Z</time></trkpt><trkpt lat="48.43148174072226" lon="-1.0094383306856591"><ele>192.0</ele><time>2026-04-08T15:30:05Z</time></trkpt><trkpt lat="48.431657350521" lon="-1.0096273012437962"><ele>196.0</ele><time>2026-04-08T15:30:06Z</time></trkpt><trkpt lat="48.43183145317197" lon="-1.0098172785795858"><ele>200.0</ele><time>2026-04-08T15:30:07Z</time></trkpt><trkpt lat="48.432007962426034" lon="-1.0100027743439308"><ele>204.0</ele><time>2026-04-08T15:30:08Z</time></trkpt><trkpt lat="48.432188247829096" lon="-1.0101815717255267"><ele>208.0</ele><time>2026-04-08T15:30:09Z</time></trkpt><trkpt lat="48.43236875089562" lon="-1.0103593147772763"><ele>212.0</ele><time>2026-04-08T15:30:10Z</time></trkpt><trkpt lat="48.4325455766202" lon="-1.0105431366177227"><ele>216.0</ele><time>2026-04-08T15:30:11Z</time></trkpt><trkpt lat="48.432722382215445" lon="-1.0107283500182223"><ele>215.66666666666669</ele><time>2026-04-08T15:30:12Z</time></trkpt><trkpt lat="48.43289812564716" lon="-1.0109197944636186"><ele>215.33333333333334</ele><time>2026-04-08T15:30:13Z</time></trkpt><trkpt lat="48.433058617075915" lon="-1.0111277734325594"><ele>215.0</ele><time>2026-04-08T15:30:14Z</time></trkpt><trkpt lat="48.43320456353382" lon="-1.01135248924508"><ele>216.66666666666669</ele><time>2026-04-08T15:30:15Z</time></trkpt><trkpt lat="48.433331234305825" lon="-1.0115911188443323"><ele>218.33333333333331</ele><time>2026-04-08T15:30:16Z</time></trkpt><trkpt lat="48.43343785407375" lon="-1.011830681744417"><ele>220.0</ele><time>2026-04-08T15:30:17Z</time></trkpt><trkpt lat="48.43352820301938" lon="-1.012068435728259"><ele>220.0</ele><time>2026-04-08T15:30:18Z</time></trkpt><trkpt lat="48.433611403926406" lon="-1.0122986813940977"><ele>220.0</ele><time>2026-04-08T15:30:19Z</time></trkpt><trkpt lat="48.4336801661118" lon="-1.0125323480451447"><ele>220.0</ele><time>2026-04-08T15:30:20Z</time></trkpt><trkpt lat="48.43373719322314" lon="-1.0127607340328035"><ele>220.5</ele><time>2026-04-08T15:30:21Z</time></trkpt><trkpt lat="48.43378648549068" lon="-1.0129821456986037"><ele>221.0</ele><time>2026-04-08T15:30:22Z</time></trkpt><trkpt lat="48.43383124275742" lon="-1.0131952015952177"><ele>221.5</ele><time>2026-04-08T15:30:23Z</time></trkpt><trkpt lat="48.433870596971765" lon="-1.0133964335751744"><ele>222.0</ele><time>2026-04-08T15:30:24Z</time></trkpt><trkpt lat="48.433902267968655" lon="-1.0135877733100398"><ele>222.2</ele><time>2026-04-08T15:30:25Z</time></trkpt><trkpt lat="48.43393407491654" lon="-1.0137640251639761"><ele>222.39999999999998</ele><time>2026-04-08T15:30:26Z</time></trkpt><trkpt lat="48.433964186392956" lon="-1.0139354354890058"><ele>222.60000000000002</ele><time>2026-04-08T15:30:27Z</time></trkpt><trkpt lat="48.43399648619909" lon="-1.0140908891077398"><ele>222.8</ele><time>2026-04-08T15:30:28Z</time></trkpt><trkpt lat="48.43402639288211" lon="-1.014232465137795"><ele>223.0</ele><time>2026-04-08T15:30:29Z</time></trkpt><trkpt lat="48.43404892986679" lon="-1.0143586469638972"><ele>222.66666666666666</ele><time>2026-04-08T15:30:30Z</time></trkpt><trkpt lat="48.43407758402125" lon="-1.0144775727253241"><ele>222.33333333333331</ele><time>2026-04-08T15:30:31Z</time></trkpt><trkpt lat="48.434124248832205" lon="-1.0145815332257515"><ele>222.0</ele><time>2026-04-08T15:30:32Z</time></trkpt><trkpt lat="48.434193818773416" lon="-1.014656717042248"><ele>221.66666666666669</ele><time>2026-04-08T15:30:33Z</time></trkpt><trkpt lat="48.43424949578606" lon="-1.0147378073387643"><ele>221.33333333333334</ele><time>2026-04-08T15:30:34Z</time></trkpt><trkpt lat="48.43425796298025" lon="-1.0148593280314273"><ele>221.0</ele><time>2026-04-08T15:30:35Z</time></trkpt><trkpt lat="48.43424054304326" lon="-1.0149815227735652"><ele>220.4</ele><time>2026-04-08T15:30:36Z</time></trkpt><trkpt lat="48.43418604601356" lon="-1.0150806278259712"><ele>219.8</ele><time>2026-04-08T15:30:37Z</time></trkpt><trkpt lat="48.43409853460626" lon="-1.0151561710143018"><ele>219.20000000000002</ele><time>2026-04-08T15:30:38Z</time></trkpt><trkpt lat="48.434020959644656" lon="-1.0152495334130436"><ele>218.60000000000002</ele><time>2026-04-08T15:30:39Z</time></trkpt><trkpt lat="48.43393897118651" lon="-1.0153811781333484"><ele>218.0</ele><time>2026-04-08T15:30:40Z</time></trkpt><trkpt lat="48.43390825674417" lon="-1.0156299345889648"><ele>218.0</ele><time>2026-04-08T15:30:41Z</time></trkpt><trkpt lat="48.43382729221374" lon="-1.015815389873124"><ele>218.0</ele><time>2026-04-08T15:30:42Z</time></trkpt><trkpt lat="48.43374605585513" lon="-1.0160237132414476"><ele>218.0</ele><time>2026-04-08T15:30:43Z</time></trkpt><trkpt lat="48.433667970227354" lon="-1.016254203419746"><ele>216.66666666666669</ele><time>2026-04-08T15:30:44Z</time></trkpt><trkpt lat="48.433610244810914" lon="-1.0165101340649427"><ele>215.33333333333331</ele><time>2026-04-08T15:30:45Z</time></trkpt><trkpt lat="48.433559771935414" lon="-1.016778833871208"><ele>214.0</ele><time>2026-04-08T15:30:46Z</time></trkpt><trkpt lat="48.433524552785016" lon="-1.01706326317644"><ele>213.33333333333331</ele><time>2026-04-08T15:30:47Z</time></trkpt><trkpt lat="48.43350807376033" lon="-1.0173550589032816"><ele>212.66666666666669</ele><time>2026-04-08T15:30:48Z</time></trkpt><trkpt lat="48.43350771209336" lon="-1.0176538368068146"><ele>212.0</ele><time>2026-04-08T15:30:49Z</time></trkpt><trkpt lat="48.433522050966964" lon="-1.017960804956323"><ele>211.66666666666669</ele><time>2026-04-08T15:30:50Z</time></trkpt><trkpt lat="48.43353846280189" lon="-1.0182747339501095"><ele>211.33333333333331</ele><time>2026-04-08T15:30:51Z</time></trkpt><trkpt lat="48.43355494191955" lon="-1.018593175996757"><ele>211.0</ele><time>2026-04-08T15:30:52Z</time></trkpt><trkpt lat="48.43357145470391" lon="-1.018916378145192"><ele>212.66666666666666</ele><time>2026-04-08T15:30:53Z</time></trkpt><trkpt lat="48.43358732853859" lon="-1.0192270741843195"><ele>214.33333333333331</ele><time>2026-04-08T15:30:54Z</time></trkpt><trkpt lat="48.43360340110086" lon="-1.0195416599176403"><ele>216.0</ele><time>2026-04-08T15:30:55Z</time></trkpt><trkpt lat="48.433619336100286" lon="-1.0198535531524284"><ele>217.0</ele><time>2026-04-08T15:30:56Z</time></trkpt><trkpt lat="48.433631287713034" lon="-1.0201711077083113"><ele>218.0</ele><time>2026-04-08T15:30:57Z</time></trkpt><trkpt lat="48.433619038760526" lon="-1.0204913490433296"><ele>219.0</ele><time>2026-04-08T15:30:58Z</time></trkpt><trkpt lat="48.43358821976399" lon="-1.0208060677854573"><ele>219.66666666666669</ele><time>2026-04-08T15:30:59Z</time></trkpt><trkpt lat="48.43353830012551" lon="-1.0211187544311107"><ele>220.33333333333334</ele><time>2026-04-08T15:31:00Z</time></trkpt><trkpt lat="48.43346730038146" lon="-1.0214202228800913"><ele>221.0</ele><time>2026-04-08T15:31:01Z</time></trkpt><trkpt lat="48.43336825060671" lon="-1.0216974560147143"><ele>221.33333333333334</ele><time>2026-04-08T15:31:02Z</time></trkpt><trkpt lat="48.43328354713449" lon="-1.0219886683754735"><ele>221.66666666666669</ele><time>2026-04-08T15:31:03Z</time></trkpt><trkpt lat="48.433195149367016" lon="-1.0222739952654838"><ele>222.0</ele><time>2026-04-08T15:31:04Z</time></trkpt><trkpt lat="48.433099858215854" lon="-1.0225643950576433"><ele>222.0</ele><time>2026-04-08T15:31:05Z</time></trkpt><trkpt lat="48.433008677371596" lon="-1.0228618731306567"><ele>222.0</ele><time>2026-04-08T15:31:06Z</time></trkpt><trkpt lat="48.432919257945045" lon="-1.0231572815165602"><ele>222.0</ele><time>2026-04-08T15:31:07Z</time></trkpt><trkpt lat="48.43282764977324" lon="-1.0234428481750986"><ele>222.0</ele><time>2026-04-08T15:31:08Z</time></trkpt><trkpt lat="48.432730139445034" lon="-1.0237275063399545"><ele>222.0</ele><time>2026-04-08T15:31:09Z</time></trkpt><trkpt lat="48.432632159275066" lon="-1.0240180251313915"><ele>222.0</ele><time>2026-04-08T15:31:10Z</time></trkpt><trkpt lat="48.432537636737166" lon="-1.0243142314389992"><ele>221.33333333333331</ele><time>2026-04-08T15:31:11Z</time></trkpt><trkpt lat="48.432440983732405" lon="-1.024610130062654"><ele>220.66666666666666</ele><time>2026-04-08T15:31:12Z</time></trkpt><trkpt lat="48.43234307572715" lon="-1.0249101759269021"><ele>220.0</ele><time>2026-04-08T15:31:13Z</time></trkpt><trkpt lat="48.43224434767905" lon="-1.0252156688913885"><ele>219.5</ele><time>2026-04-08T15:31:14Z</time></trkpt><trkpt lat="48.432141322358994" lon="-1.025520172945615"><ele>219.0</ele><time>2026-04-08T15:31:15Z</time></trkpt><trkpt lat="48.43203700982062" lon="-1.0258240053092826"><ele>216.33333333333331</ele><time>2026-04-08T15:31:16Z</time></trkpt><trkpt lat="48.431934303938604" lon="-1.0261257349501234"><ele>213.66666666666666</ele><time>2026-04-08T15:31:17Z</time></trkpt><trkpt lat="48.43183399184756" lon="-1.026426796167301"><ele>211.0</ele><time>2026-04-08T15:31:18Z</time></trkpt><trkpt lat="48.43173535337845" lon="-1.0267278537894344"><ele>210.33333333333331</ele><time>2026-04-08T15:31:19Z</time></trkpt><trkpt lat="48.43163738435552" lon="-1.0270223151803004"><ele>209.66666666666669</ele><time>2026-04-08T15:31:20Z</time></trkpt><trkpt lat="48.43154498982099" lon="-1.0272923965812093"><ele>209.0</ele><time>2026-04-08T15:31:21Z</time></trkpt><trkpt lat="48.43144826018557" lon="-1.0275459901759847"><ele>208.66666666666669</ele><time>2026-04-08T15:31:22Z</time></trkpt><trkpt lat="48.4313427562435" lon="-1.027783172479502"><ele>208.33333333333331</ele><time>2026-04-08T15:31:23Z</time></trkpt><trkpt lat="48.43123566593132" lon="-1.0280104724119408"><ele>208.0</ele><time>2026-04-08T15:31:24Z</time></trkpt><trkpt lat="48.431156806706824" lon="-1.0282460686874637"><ele>206.33333333333331</ele><time>2026-04-08T15:31:25Z</time></trkpt><trkpt lat="48.43109922768994" lon="-1.028488260991688"><ele>204.66666666666669</ele><time>2026-04-08T15:31:26Z</time></trkpt><trkpt lat="48.43105842484541" lon="-1.0287371260443092"><ele>203.0</ele><time>2026-04-08T15:31:27Z</time></trkpt><trkpt lat="48.431033208997114" lon="-1.029000581102417"><ele>203.66666666666669</ele><time>2026-04-08T15:31:28Z</time></trkpt><trkpt lat="48.43101053368843" lon="-1.029270227726925"><ele>204.33333333333331</ele><time>2026-04-08T15:31:29Z</time></trkpt><trkpt lat="48.43098143015115" lon="-1.0295401791270011"><ele>205.0</ele><time>2026-04-08T15:31:30Z</time></trkpt><trkpt lat="48.43094838241276" lon="-1.0298152369489182"><ele>205.66666666666666</ele><time>2026-04-08T15:31:31Z</time></trkpt><trkpt lat="48.430916425731425" lon="-1.0300872551682485"><ele>206.33333333333331</ele><time>2026-04-08T15:31:32Z</time></trkpt><trkpt lat="48.430893230798766" lon="-1.030350066758411"><ele>207.0</ele><time>2026-04-08T15:31:33Z</time></trkpt><trkpt lat="48.43088221370022" lon="-1.0306157955913706"><ele>207.0</ele><time>2026-04-08T15:31:34Z</time></trkpt><trkpt lat="48.43088154078413" lon="-1.0308822028039168"><ele>207.0</ele><time>2026-04-08T15:31:35Z</time></trkpt><trkpt lat="48.430890851999294" lon="-1.031150585955008"><ele>207.0</ele><time>2026-04-08T15:31:36Z</time></trkpt><trkpt lat="48.43090044208235" lon="-1.0314226914019688"><ele>206.66666666666669</ele><time>2026-04-08T15:31:37Z</time></trkpt><trkpt lat="48.43090505650148" lon="-1.0317037814154233"><ele>206.33333333333334</ele><time>2026-04-08T15:31:38Z</time></trkpt><trkpt lat="48.430904245516146" lon="-1.0319846480314379"><ele>206.0</ele><time>2026-04-08T15:31:39Z</time></trkpt><trkpt lat="48.43088904558111" lon="-1.0322571126832525"><ele>205.0</ele><time>2026-04-08T15:31:40Z</time></trkpt><trkpt lat="48.430861236053005" lon="-1.0325269948351439"><ele>204.0</ele><time>2026-04-08T15:31:41Z</time></trkpt><trkpt lat="48.43082022370864" lon="-1.0327986470036212"><ele>203.0</ele><time>2026-04-08T15:31:42Z</time></trkpt><trkpt lat="48.43076853956041" lon="-1.0330679062864678"><ele>201.66666666666669</ele><time>2026-04-08T15:31:43Z</time></trkpt><trkpt lat="48.43071316472173" lon="-1.0333388884975634"><ele>200.33333333333331</ele><time>2026-04-08T15:31:44Z</time></trkpt><trkpt lat="48.430671838291126" lon="-1.0336144614166476"><ele>199.0</ele><time>2026-04-08T15:31:45Z</time></trkpt><trkpt lat="48.43065145947808" lon="-1.033902198821219"><ele>197.66666666666666</ele><time>2026-04-08T15:31:46Z</time></trkpt><trkpt lat="48.43065055747826" lon="-1.0341957395370491"><ele>196.33333333333331</ele><time>2026-04-08T15:31:47Z</time></trkpt><trkpt lat="48.43067784944045" lon="-1.0344908201357903"><ele>195.0</ele><time>2026-04-08T15:31:48Z</time></trkpt><trkpt lat="48.43071270698636" lon="-1.0347776035746412"><ele>194.33333333333331</ele><time>2026-04-08T15:31:49Z</time></trkpt><trkpt lat="48.43075921689609" lon="-1.0350597575375944"><ele>193.66666666666666</ele><time>2026-04-08T15:31:50Z</time></trkpt><trkpt lat="48.43079821501877" lon="-1.0353503534025208"><ele>193.0</ele><time>2026-04-08T15:31:51Z</time></trkpt><trkpt lat="48.43083390527345" lon="-1.0356438575644995"><ele>192.66666666666666</ele><time>2026-04-08T15:31:52Z</time></trkpt><trkpt lat="48.430878566263054" lon="-1.0359230223584583"><ele>192.33333333333331</ele><time>2026-04-08T15:31:53Z</time></trkpt><trkpt lat="48.430935612427064" lon="-1.0361953801700918"><ele>192.0</ele><time>2026-04-08T15:31:54Z</time></trkpt><trkpt lat="48.43100584445711" lon="-1.036461303378074"><ele>191.66666666666666</ele><time>2026-04-08T15:31:55Z</time></trkpt><trkpt lat="48.43108167721998" lon="-1.0367259242650548"><ele>191.33333333333331</ele><time>2026-04-08T15:31:56Z</time></trkpt><trkpt lat="48.43116248795767" lon="-1.0369695681859687"><ele>191.0</ele><time>2026-04-08T15:31:57Z</time></trkpt><trkpt lat="48.431248775850236" lon="-1.0371800950330512"><ele>190.66666666666666</ele><time>2026-04-08T15:31:58Z</time></trkpt><trkpt lat="48.4313484532421" lon="-1.0373599106250506"><ele>190.33333333333334</ele><time>2026-04-08T15:31:59Z</time></trkpt><trkpt lat="48.431466380504745" lon="-1.0375095061002115"><ele>190.0</ele><time>2026-04-08T15:32:00Z</time></trkpt><trkpt lat="48.431600737400316" lon="-1.0376351795887646"><ele>189.66666666666669</ele><time>2026-04-08T15:32:01Z</time></trkpt><trkpt lat="48.43174336961959" lon="-1.037745303638228"><ele>189.33333333333334</ele><time>2026-04-08T15:32:02Z</time></trkpt><trkpt lat="48.431890139433555" lon="-1.0378612529066658"><ele>189.0</ele><time>2026-04-08T15:32:03Z</time></trkpt><trkpt lat="48.43204247894023" lon="-1.0379858094355705"><ele>188.0</ele><time>2026-04-08T15:32:04Z</time></trkpt><trkpt lat="48.43220556569527" lon="-1.03811410468103"><ele>187.0</ele><time>2026-04-08T15:32:05Z</time></trkpt><trkpt lat="48.432375241331286" lon="-1.0382526295339491"><ele>186.0</ele><time>2026-04-08T15:32:06Z</time></trkpt><trkpt lat="48.43253614922572" lon="-1.0384019982424777"><ele>186.0</ele><time>2026-04-08T15:32:07Z</time></trkpt><trkpt lat="48.432693333837804" lon="-1.0385571715521889"><ele>186.0</ele><time>2026-04-08T15:32:08Z</time></trkpt><trkpt lat="48.43285218983595" lon="-1.038717939078763"><ele>186.0</ele><time>2026-04-08T15:32:09Z</time></trkpt><trkpt lat="48.433012338798484" lon="-1.0388814087718543"><ele>184.66666666666666</ele><time>2026-04-08T15:32:10Z</time></trkpt><trkpt lat="48.43317541304547" lon="-1.0390447345802396"><ele>183.33333333333331</ele><time>2026-04-08T15:32:11Z</time></trkpt><trkpt lat="48.433339513704084" lon="-1.0392089389062782"><ele>182.0</ele><time>2026-04-08T15:32:12Z</time></trkpt><trkpt lat="48.43350297871738" lon="-1.0393721380029965"><ele>181.66666666666666</ele><time>2026-04-08T15:32:13Z</time></trkpt><trkpt lat="48.43367084624526" lon="-1.0395277590417895"><ele>181.33333333333334</ele><time>2026-04-08T15:32:14Z</time></trkpt><trkpt lat="48.433837090465694" lon="-1.0396822275980926"><ele>181.0</ele><time>2026-04-08T15:32:15Z</time></trkpt><trkpt lat="48.4340036615677" lon="-1.0398392606537252"><ele>180.66666666666669</ele><time>2026-04-08T15:32:16Z</time></trkpt><trkpt lat="48.43417047016336" lon="-1.0399946751293103"><ele>180.33333333333334</ele><time>2026-04-08T15:32:17Z</time></trkpt><trkpt lat="48.43433689568719" lon="-1.0401457307241395"><ele>180.0</ele><time>2026-04-08T15:32:18Z</time></trkpt><trkpt lat="48.43450334844522" lon="-1.0402937759226587"><ele>178.33333333333334</ele><time>2026-04-08T15:32:19Z</time></trkpt><trkpt lat="48.434674295764154" lon="-1.0404415290974787"><ele>176.66666666666669</ele><time>2026-04-08T15:32:20Z</time></trkpt><trkpt lat="48.43484138639042" lon="-1.0405962478677708"><ele>175.0</ele><time>2026-04-08T15:32:21Z</time></trkpt><trkpt lat="48.435006144079864" lon="-1.0407492043881241"><ele>175.0</ele><time>2026-04-08T15:32:22Z</time></trkpt><trkpt lat="48.43516721553251" lon="-1.0409075737646067"><ele>175.0</ele><time>2026-04-08T15:32:23Z</time></trkpt><trkpt lat="48.43532443390415" lon="-1.0410707855122785"><ele>175.0</ele><time>2026-04-08T15:32:24Z</time></trkpt><trkpt lat="48.435478745858966" lon="-1.0412348481496176"><ele>173.66666666666669</ele><time>2026-04-08T15:32:25Z</time></trkpt><trkpt lat="48.4356364908156" lon="-1.041409307100998"><ele>172.33333333333334</ele><time>2026-04-08T15:32:26Z</time></trkpt><trkpt lat="48.4357939702335" lon="-1.0415940372627759"><ele>171.0</ele><time>2026-04-08T15:32:27Z</time></trkpt><trkpt lat="48.43595346102988" lon="-1.0417830003647168"><ele>170.66666666666666</ele><time>2026-04-08T15:32:28Z</time></trkpt><trkpt lat="48.43611882541736" lon="-1.04197249388992"><ele>170.33333333333331</ele><time>2026-04-08T15:32:29Z</time></trkpt><trkpt lat="48.436286461560414" lon="-1.0421675037543752"><ele>170.0</ele><time>2026-04-08T15:32:30Z</time></trkpt><trkpt lat="48.43644742567454" lon="-1.0423837118988186"><ele>169.0</ele><time>2026-04-08T15:32:31Z</time></trkpt><trkpt lat="48.436589072293295" lon="-1.042635786021437"><ele>168.0</ele><time>2026-04-08T15:32:32Z</time></trkpt><trkpt lat="48.43671430949414" lon="-1.0429020432702378"><ele>167.0</ele><time>2026-04-08T15:32:33Z</time></trkpt><trkpt lat="48.436836042431146" lon="-1.0431633735625623"><ele>167.0</ele><time>2026-04-08T15:32:34Z</time></trkpt><trkpt lat="48.43695683893888" lon="-1.0434237158264639"><ele>167.0</ele><time>2026-04-08T15:32:35Z</time></trkpt><trkpt lat="48.437075737204125" lon="-1.0436848597520725"><ele>167.0</ele><time>2026-04-08T15:32:36Z</time></trkpt><trkpt lat="48.43719731382543" lon="-1.043943679117381"><ele>167.0</ele><time>2026-04-08T15:32:37Z</time></trkpt><trkpt lat="48.43731156492209" lon="-1.044210828844343"><ele>167.0</ele><time>2026-04-08T15:32:38Z</time></trkpt><trkpt lat="48.43740964912085" lon="-1.0444957258828986"><ele>167.0</ele><time>2026-04-08T15:32:39Z</time></trkpt><trkpt lat="48.437486794381726" lon="-1.0447910729434573"><ele>166.66666666666666</ele><time>2026-04-08T15:32:40Z</time></trkpt><trkpt lat="48.43756291374883" lon="-1.0450886572908906"><ele>166.33333333333334</ele><time>2026-04-08T15:32:41Z</time></trkpt><trkpt lat="48.43763560281387" lon="-1.0453907000296152"><ele>166.0</ele><time>2026-04-08T15:32:42Z</time></trkpt><trkpt lat="48.437707601605624" lon="-1.0456871327650956"><ele>165.66666666666669</ele><time>2026-04-08T15:32:43Z</time></trkpt><trkpt lat="48.43777772284479" lon="-1.0459796759396351"><ele>165.33333333333334</ele><time>2026-04-08T15:32:44Z</time></trkpt><trkpt lat="48.43785197133946" lon="-1.0462530050039553"><ele>165.0</ele><time>2026-04-08T15:32:45Z</time></trkpt><trkpt lat="48.4379216049571" lon="-1.0465336476658993"><ele>164.33333333333334</ele><time>2026-04-08T15:32:46Z</time></trkpt><trkpt lat="48.437992584476106" lon="-1.046804158617045"><ele>163.66666666666669</ele><time>2026-04-08T15:32:47Z</time></trkpt><trkpt lat="48.43805797214964" lon="-1.047075463091778"><ele>163.0</ele><time>2026-04-08T15:32:48Z</time></trkpt><trkpt lat="48.438123785757035" lon="-1.0473386088910408"><ele>161.0</ele><time>2026-04-08T15:32:49Z</time></trkpt><trkpt lat="48.43819587751133" lon="-1.0475929309828453"><ele>159.0</ele><time>2026-04-08T15:32:50Z</time></trkpt><trkpt lat="48.43828476946503" lon="-1.04782782808379"><ele>157.0</ele><time>2026-04-08T15:32:51Z</time></trkpt><trkpt lat="48.438410934529564" lon="-1.0480262529079496"><ele>157.0</ele><time>2026-04-08T15:32:52Z</time></trkpt><trkpt lat="48.43855865582569" lon="-1.04820338086131"><ele>157.0</ele><time>2026-04-08T15:32:53Z</time></trkpt><trkpt lat="48.438708130497254" lon="-1.0483753566716447"><ele>157.0</ele><time>2026-04-08T15:32:54Z</time></trkpt><trkpt lat="48.4388484529521" lon="-1.0485381764102406"><ele>157.66666666666669</ele><time>2026-04-08T15:32:55Z</time></trkpt><trkpt lat="48.43898002001124" lon="-1.0487135295970578"><ele>158.33333333333334</ele><time>2026-04-08T15:32:56Z</time></trkpt><trkpt lat="48.43910430085685" lon="-1.0488924809756517"><ele>159.0</ele><time>2026-04-08T15:32:57Z</time></trkpt><trkpt lat="48.439223545858475" lon="-1.0490787203123928"><ele>158.33333333333334</ele><time>2026-04-08T15:32:58Z</time></trkpt><trkpt lat="48.43930665889581" lon="-1.0492996536661399"><ele>157.66666666666669</ele><time>2026-04-08T15:32:59Z</time></trkpt><trkpt lat="48.439351088081196" lon="-1.0495458343190889"><ele>157.0</ele><time>2026-04-08T15:33:00Z</time></trkpt><trkpt lat="48.439381130840594" lon="-1.0497976188610931"><ele>157.0</ele><time>2026-04-08T15:33:01Z</time></trkpt><trkpt lat="48.43937709739782" lon="-1.050052926447095"><ele>157.0</ele><time>2026-04-08T15:33:02Z</time></trkpt><trkpt lat="48.4393383488141" lon="-1.050303985845442"><ele>157.0</ele><time>2026-04-08T15:33:03Z</time></trkpt><trkpt lat="48.439278056944" lon="-1.0505350742583353"><ele>157.0</ele><time>2026-04-08T15:33:04Z</time></trkpt><trkpt lat="48.43921957914652" lon="-1.0507457316917541"><ele>157.0</ele><time>2026-04-08T15:33:05Z</time></trkpt><trkpt lat="48.43916954824836" lon="-1.0509516155446166"><ele>157.0</ele><time>2026-04-08T15:33:06Z</time></trkpt><trkpt lat="48.43912045052186" lon="-1.0511428343133276"><ele>157.0</ele><time>2026-04-08T15:33:07Z</time></trkpt><trkpt lat="48.43907620854652" lon="-1.0513245679517254"><ele>158.0</ele><time>2026-04-08T15:33:08Z</time></trkpt><trkpt lat="48.439028441554775" lon="-1.051493824683319"><ele>159.0</ele><time>2026-04-08T15:33:09Z</time></trkpt><trkpt lat="48.4389827039137" lon="-1.051655034446601"><ele>160.0</ele><time>2026-04-08T15:33:10Z</time></trkpt><trkpt lat="48.43893871809267" lon="-1.051821773679404"><ele>161.0</ele><time>2026-04-08T15:33:11Z</time></trkpt><trkpt lat="48.43889348018736" lon="-1.0519849459802764"><ele>161.0</ele><time>2026-04-08T15:33:12Z</time></trkpt><trkpt lat="48.43884975354243" lon="-1.0521514838130603"><ele>161.0</ele><time>2026-04-08T15:33:13Z</time></trkpt><trkpt lat="48.43880317046552" lon="-1.052322193859442"><ele>161.0</ele><time>2026-04-08T15:33:14Z</time></trkpt><trkpt lat="48.4387593087997" lon="-1.0524912112002252"><ele>161.0</ele><time>2026-04-08T15:33:15Z</time></trkpt><trkpt lat="48.43871364216792" lon="-1.0526630303678444"><ele>159.5</ele><time>2026-04-08T15:33:16Z</time></trkpt><trkpt lat="48.438667371071965" lon="-1.0528428345113205"><ele>158.0</ele><time>2026-04-08T15:33:17Z</time></trkpt><trkpt lat="48.43861723371605" lon="-1.0530239398761883"><ele>156.5</ele><time>2026-04-08T15:33:18Z</time></trkpt><trkpt lat="48.43857070467856" lon="-1.0532031656274818"><ele>155.0</ele><time>2026-04-08T15:33:19Z</time></trkpt><trkpt lat="48.43852893958094" lon="-1.0533723279137712"><ele>155.0</ele><time>2026-04-08T15:33:20Z</time></trkpt><trkpt lat="48.4384868345541" lon="-1.0535325203605796"><ele>155.0</ele><time>2026-04-08T15:33:21Z</time></trkpt><trkpt lat="48.43844266389418" lon="-1.053701617219162"><ele>155.0</ele><time>2026-04-08T15:33:22Z</time></trkpt><trkpt lat="48.43840067413508" lon="-1.0538650086760584"><ele>155.0</ele><time>2026-04-08T15:33:23Z</time></trkpt><trkpt lat="48.43835786845042" lon="-1.0540283908623334"><ele>154.8</ele><time>2026-04-08T15:33:24Z</time></trkpt><trkpt lat="48.438309076763936" lon="-1.0541816903909544"><ele>154.6</ele><time>2026-04-08T15:33:25Z</time></trkpt><trkpt lat="48.4382841483426" lon="-1.0543461614511829"><ele>154.4</ele><time>2026-04-08T15:33:26Z</time></trkpt><trkpt lat="48.43828151042524" lon="-1.0545116824421419"><ele>154.2</ele><time>2026-04-08T15:33:27Z</time></trkpt><trkpt lat="48.438295946399656" lon="-1.0546754252052852"><ele>154.0</ele><time>2026-04-08T15:33:28Z</time></trkpt><trkpt lat="48.4383402412826" lon="-1.0548387208708752"><ele>153.5</ele><time>2026-04-08T15:33:29Z</time></trkpt><trkpt lat="48.43839125006904" lon="-1.0550016562031632"><ele>153.0</ele><time>2026-04-08T15:33:30Z</time></trkpt><trkpt lat="48.43845010509132" lon="-1.0551472287716381"><ele>152.5</ele><time>2026-04-08T15:33:31Z</time></trkpt><trkpt lat="48.43850504690252" lon="-1.0552919823105613"><ele>152.0</ele><time>2026-04-08T15:33:32Z</time></trkpt><trkpt lat="48.438575537234996" lon="-1.0554209414843683"><ele>152.0</ele><time>2026-04-08T15:33:33Z</time></trkpt><trkpt lat="48.43861925570839" lon="-1.0555773017802366"><ele>152.0</ele><time>2026-04-08T15:33:34Z</time></trkpt><trkpt lat="48.43868478730164" lon="-1.055712937818531"><ele>152.0</ele><time>2026-04-08T15:33:35Z</time></trkpt><trkpt lat="48.43873513712786" lon="-1.0558493653489975"><ele>152.0</ele><time>2026-04-08T15:33:36Z</time></trkpt><trkpt lat="48.43876178650114" lon="-1.055985440987109"><ele>152.0</ele><time>2026-04-08T15:33:37Z</time></trkpt><trkpt lat="48.438774691688174" lon="-1.0561228980840727"><ele>152.16666666666666</ele><time>2026-04-08T15:33:38Z</time></trkpt><trkpt lat="48.43876556747602" lon="-1.0562596426105815"><ele>152.33333333333331</ele><time>2026-04-08T15:33:39Z</time></trkpt><trkpt lat="48.43874534447912" lon="-1.0563954919548337"><ele>152.5</ele><time>2026-04-08T15:33:40Z</time></trkpt><trkpt lat="48.438742967182364" lon="-1.0565421385705895"><ele>152.66666666666666</ele><time>2026-04-08T15:33:41Z</time></trkpt><trkpt lat="48.43871293879714" lon="-1.0566582470144188"><ele>152.83333333333334</ele><time>2026-04-08T15:33:42Z</time></trkpt><trkpt lat="48.43870187728684" lon="-1.056774047866954"><ele>153.0</ele><time>2026-04-08T15:33:43Z</time></trkpt><trkpt lat="48.43869759982809" lon="-1.0568823167693704"><ele>153.5</ele><time>2026-04-08T15:33:44Z</time></trkpt><trkpt lat="48.43869124934245" lon="-1.056989680763517"><ele>154.0</ele><time>2026-04-08T15:33:45Z</time></trkpt><trkpt lat="48.43868053898433" lon="-1.0571018492251205"><ele>154.5</ele><time>2026-04-08T15:33:46Z</time></trkpt><trkpt lat="48.438672229244" lon="-1.057212625722461"><ele>155.0</ele><time>2026-04-08T15:33:47Z</time></trkpt><trkpt lat="48.43866566982957" lon="-1.057324367456976"><ele>155.5</ele><time>2026-04-08T15:33:48Z</time></trkpt><trkpt lat="48.438660690123946" lon="-1.0574394105053373"><ele>156.0</ele><time>2026-04-08T15:33:49Z</time></trkpt><trkpt lat="48.438652911765494" lon="-1.057556891656252"><ele>156.42857142857144</ele><time>2026-04-08T15:33:50Z</time></trkpt><trkpt lat="48.43864817060011" lon="-1.0576741611970473"><ele>156.85714285714283</ele><time>2026-04-08T15:33:51Z</time></trkpt><trkpt lat="48.438649100780374" lon="-1.0577793475923383"><ele>157.28571428571428</ele><time>2026-04-08T15:33:52Z</time></trkpt><trkpt lat="48.438670154180215" lon="-1.0578812833233526"><ele>157.71428571428572</ele><time>2026-04-08T15:33:53Z</time></trkpt><trkpt lat="48.43867662559801" lon="-1.0579963137411343"><ele>158.14285714285717</ele><time>2026-04-08T15:33:54Z</time></trkpt><trkpt lat="48.43868331454056" lon="-1.0581152106802159"><ele>158.57142857142856</ele><time>2026-04-08T15:33:55Z</time></trkpt><trkpt lat="48.43868960470824" lon="-1.0582270189786285"><ele>159.0</ele><time>2026-04-08T15:33:56Z</time></trkpt><trkpt lat="48.43869659545224" lon="-1.0583403644863734"><ele>159.16666666666666</ele><time>2026-04-08T15:33:57Z</time></trkpt><trkpt lat="48.438705532345615" lon="-1.0584549761641189"><ele>159.33333333333334</ele><time>2026-04-08T15:33:58Z</time></trkpt><trkpt lat="48.43871732377376" lon="-1.0585636191458823"><ele>159.5</ele><time>2026-04-08T15:33:59Z</time></trkpt><trkpt lat="48.43873075705956" lon="-1.058663441216613"><ele>159.66666666666669</ele><time>2026-04-08T15:34:00Z</time></trkpt><trkpt lat="48.4387458154746" lon="-1.0587558650128057"><ele>159.83333333333334</ele><time>2026-04-08T15:34:01Z</time></trkpt><trkpt lat="48.4387765278725" lon="-1.0589282196763967"><ele>160.0</ele><time>2026-04-08T15:34:03Z</time></trkpt><trkpt lat="48.43880769697118" lon="-1.059095223181469"><ele>160.66666666666669</ele><time>2026-04-08T15:34:05Z</time></trkpt><trkpt lat="48.43884266541832" lon="-1.0592768510467967"><ele>161.33333333333334</ele><time>2026-04-08T15:34:07Z</time></trkpt><trkpt lat="48.43886211474203" lon="-1.0593731890835174"><ele>162.0</ele><time>2026-04-08T15:34:08Z</time></trkpt><trkpt lat="48.43888145840782" lon="-1.0594690037705974"><ele>162.66666666666666</ele><time>2026-04-08T15:34:09Z</time></trkpt><trkpt lat="48.438900937145" lon="-1.0595654875036113"><ele>163.33333333333331</ele><time>2026-04-08T15:34:10Z</time></trkpt><trkpt lat="48.43892067324199" lon="-1.0596600701970618"><ele>164.0</ele><time>2026-04-08T15:34:11Z</time></trkpt><trkpt lat="48.438932555229435" lon="-1.0597652457383018"><ele>163.99999999999997</ele><time>2026-04-08T15:34:12Z</time></trkpt><trkpt lat="48.43895029068754" lon="-1.0598661003448222"><ele>164.0</ele><time>2026-04-08T15:34:13Z</time></trkpt><trkpt lat="48.43896948503944" lon="-1.0599700810282455"><ele>164.0</ele><time>2026-04-08T15:34:14Z</time></trkpt><trkpt lat="48.43900545876492" lon="-1.0600654644243985"><ele>164.0</ele><time>2026-04-08T15:34:15Z</time></trkpt><trkpt lat="48.43901156760563" lon="-1.0601771488515517"><ele>164.0</ele><time>2026-04-08T15:34:16Z</time></trkpt><trkpt lat="48.43903379397656" lon="-1.0602793119397216"><ele>163.99999999999997</ele><time>2026-04-08T15:34:17Z</time></trkpt><trkpt lat="48.439056705401995" lon="-1.0603848284376174"><ele>164.0</ele><time>2026-04-08T15:34:18Z</time></trkpt><trkpt lat="48.43909226258718" lon="-1.060498642684029"><ele>164.0</ele><time>2026-04-08T15:34:19Z</time></trkpt><trkpt lat="48.43911555330985" lon="-1.0606195342680254"><ele>164.0</ele><time>2026-04-08T15:34:20Z</time></trkpt><trkpt lat="48.4391391899606" lon="-1.0607422214179216"><ele>164.0</ele><time>2026-04-08T15:34:21Z</time></trkpt><trkpt lat="48.439162858291525" lon="-1.0608694287876483"><ele>164.0</ele><time>2026-04-08T15:34:22Z</time></trkpt><trkpt lat="48.4391865203219" lon="-1.0609971197491388"><ele>164.0</ele><time>2026-04-08T15:34:23Z</time></trkpt><trkpt lat="48.439210047063504" lon="-1.061128765231022"><ele>164.0</ele><time>2026-04-08T15:34:24Z</time></trkpt><trkpt lat="48.43923305928173" lon="-1.0612590770305597"><ele>164.6</ele><time>2026-04-08T15:34:25Z</time></trkpt><trkpt lat="48.439256288123836" lon="-1.0613924328828483"><ele>165.2</ele><time>2026-04-08T15:34:26Z</time></trkpt><trkpt lat="48.43928011376219" lon="-1.061530657293595"><ele>165.79999999999998</ele><time>2026-04-08T15:34:27Z</time></trkpt><trkpt lat="48.439302438960524" lon="-1.061660176804742"><ele>166.39999999999998</ele><time>2026-04-08T15:34:28Z</time></trkpt><trkpt lat="48.439325572377534" lon="-1.061790962467922"><ele>167.0</ele><time>2026-04-08T15:34:29Z</time></trkpt><trkpt lat="48.439349258692516" lon="-1.06192558074297"><ele>167.6</ele><time>2026-04-08T15:34:30Z</time></trkpt><trkpt lat="48.43937346759301" lon="-1.062063169062316"><ele>168.2</ele><time>2026-04-08T15:34:31Z</time></trkpt><trkpt lat="48.43939886916872" lon="-1.062207535814612"><ele>168.8</ele><time>2026-04-08T15:34:32Z</time></trkpt><trkpt lat="48.4394230675026" lon="-1.0623450640819005"><ele>169.4</ele><time>2026-04-08T15:34:33Z</time></trkpt><trkpt lat="48.43944737226191" lon="-1.0624831972043693"><ele>170.0</ele><time>2026-04-08T15:34:34Z</time></trkpt><trkpt lat="48.43947156515246" lon="-1.062620694539152"><ele>170.4</ele><time>2026-04-08T15:34:35Z</time></trkpt><trkpt lat="48.43949630460382" lon="-1.062761298050407"><ele>170.8</ele><time>2026-04-08T15:34:36Z</time></trkpt><trkpt lat="48.43951938398596" lon="-1.0628953737293827"><ele>171.2</ele><time>2026-04-08T15:34:37Z</time></trkpt><trkpt lat="48.43954197825048" lon="-1.063025758142073"><ele>171.6</ele><time>2026-04-08T15:34:38Z</time></trkpt><trkpt lat="48.439564100126" lon="-1.0631534165298995"><ele>172.0</ele><time>2026-04-08T15:34:39Z</time></trkpt><trkpt lat="48.43958559213785" lon="-1.0632804323129346"><ele>172.16666666666669</ele><time>2026-04-08T15:34:40Z</time></trkpt><trkpt lat="48.43959915473747" lon="-1.0634062200691"><ele>172.33333333333334</ele><time>2026-04-08T15:34:41Z</time></trkpt><trkpt lat="48.43961748879282" lon="-1.0635327752989134"><ele>172.5</ele><time>2026-04-08T15:34:42Z</time></trkpt><trkpt lat="48.439639216956024" lon="-1.063656432582434"><ele>172.66666666666666</ele><time>2026-04-08T15:34:43Z</time></trkpt><trkpt lat="48.439663891971854" lon="-1.0637845144736422"><ele>172.83333333333331</ele><time>2026-04-08T15:34:44Z</time></trkpt><trkpt lat="48.439689226417826" lon="-1.063914311965738"><ele>173.0</ele><time>2026-04-08T15:34:45Z</time></trkpt><trkpt lat="48.439711849281615" lon="-1.064049115138359"><ele>173.0</ele><time>2026-04-08T15:34:46Z</time></trkpt><trkpt lat="48.43975768191643" lon="-1.064174302526483"><ele>173.0</ele><time>2026-04-08T15:34:47Z</time></trkpt><trkpt lat="48.439773573369415" lon="-1.0643184083495678"><ele>173.0</ele><time>2026-04-08T15:34:48Z</time></trkpt><trkpt lat="48.43981830121201" lon="-1.0644412161071573"><ele>173.0</ele><time>2026-04-08T15:34:49Z</time></trkpt><trkpt lat="48.439868169874266" lon="-1.0645634332779454"><ele>173.0</ele><time>2026-04-08T15:34:50Z</time></trkpt><trkpt lat="48.439920007288706" lon="-1.0646792631255269"><ele>173.0</ele><time>2026-04-08T15:34:51Z</time></trkpt><trkpt lat="48.43999901906194" lon="-1.0647823461435035"><ele>173.0</ele><time>2026-04-08T15:34:52Z</time></trkpt><trkpt lat="48.44005691422528" lon="-1.064914942509445"><ele>173.0</ele><time>2026-04-08T15:34:53Z</time></trkpt><trkpt lat="48.440116835463705" lon="-1.0650521791582257"><ele>173.0</ele><time>2026-04-08T15:34:54Z</time></trkpt><trkpt lat="48.44018251330116" lon="-1.0651988711419402"><ele>173.0</ele><time>2026-04-08T15:34:55Z</time></trkpt><trkpt lat="48.440251952357976" lon="-1.0653534391790767"><ele>173.25</ele><time>2026-04-08T15:34:56Z</time></trkpt><trkpt lat="48.44031910032773" lon="-1.0655029073644549"><ele>173.5</ele><time>2026-04-08T15:34:57Z</time></trkpt><trkpt lat="48.44038521856713" lon="-1.0656500834213314"><ele>173.75</ele><time>2026-04-08T15:34:58Z</time></trkpt><trkpt lat="48.440450610272904" lon="-1.0657971297501259"><ele>174.0</ele><time>2026-04-08T15:34:59Z</time></trkpt><trkpt lat="48.4405148941846" lon="-1.06594876674042"><ele>173.5</ele><time>2026-04-08T15:35:00Z</time></trkpt><trkpt lat="48.44057927681528" lon="-1.0661026813561794"><ele>173.0</ele><time>2026-04-08T15:35:01Z</time></trkpt><trkpt lat="48.44064716913679" lon="-1.066256273636124"><ele>172.5</ele><time>2026-04-08T15:35:02Z</time></trkpt><trkpt lat="48.4407189057773" lon="-1.066406592073259"><ele>172.0</ele><time>2026-04-08T15:35:03Z</time></trkpt><trkpt lat="48.44078882434127" lon="-1.0665563024344178"><ele>172.2</ele><time>2026-04-08T15:35:04Z</time></trkpt><trkpt lat="48.44085273628904" lon="-1.0666966194896286"><ele>172.39999999999998</ele><time>2026-04-08T15:35:05Z</time></trkpt><trkpt lat="48.44091032666311" lon="-1.0668362858433187"><ele>172.60000000000002</ele><time>2026-04-08T15:35:06Z</time></trkpt><trkpt lat="48.44095375542281" lon="-1.0669654275040859"><ele>172.8</ele><time>2026-04-08T15:35:07Z</time></trkpt><trkpt lat="48.440976573882935" lon="-1.0670990085709438"><ele>173.0</ele><time>2026-04-08T15:35:08Z</time></trkpt><trkpt lat="48.441037844609816" lon="-1.0671894744667259"><ele>173.0</ele><time>2026-04-08T15:35:09Z</time></trkpt><trkpt lat="48.44112297938117" lon="-1.0672409431421095"><ele>173.0</ele><time>2026-04-08T15:35:10Z</time></trkpt><trkpt lat="48.44122223803728" lon="-1.0672711941338295"><ele>173.0</ele><time>2026-04-08T15:35:11Z</time></trkpt><trkpt lat="48.441335817920205" lon="-1.0672699216462729"><ele>173.0</ele><time>2026-04-08T15:35:12Z</time></trkpt><trkpt lat="48.441453963317116" lon="-1.0672554884195573"><ele>173.0</ele><time>2026-04-08T15:35:13Z</time></trkpt><trkpt lat="48.441576347408045" lon="-1.067211667953973"><ele>173.0</ele><time>2026-04-08T15:35:14Z</time></trkpt><trkpt lat="48.4417059745166" lon="-1.0671894878574797"><ele>173.0</ele><time>2026-04-08T15:35:15Z</time></trkpt><trkpt lat="48.44183739315742" lon="-1.0671670012152397"><ele>173.0</ele><time>2026-04-08T15:35:16Z</time></trkpt><trkpt lat="48.44197150173154" lon="-1.0671440543060613"><ele>173.0</ele><time>2026-04-08T15:35:17Z</time></trkpt><trkpt lat="48.44210869054191" lon="-1.0671178223100632"><ele>173.33333333333331</ele><time>2026-04-08T15:35:18Z</time></trkpt><trkpt lat="48.44225666498297" lon="-1.0671141231876062"><ele>173.66666666666666</ele><time>2026-04-08T15:35:19Z</time></trkpt><trkpt lat="48.442409713000394" lon="-1.0670794621292163"><ele>174.0</ele><time>2026-04-08T15:35:20Z</time></trkpt><trkpt lat="48.44257165324559" lon="-1.0670410160962738"><ele>174.0</ele><time>2026-04-08T15:35:21Z</time></trkpt><trkpt lat="48.442738233837865" lon="-1.0670066496894013"><ele>174.0</ele><time>2026-04-08T15:35:22Z</time></trkpt><trkpt lat="48.44291373044663" lon="-1.0669509579901995"><ele>174.0</ele><time>2026-04-08T15:35:23Z</time></trkpt><trkpt lat="48.4430902397701" lon="-1.066913978005742"><ele>173.66666666666666</ele><time>2026-04-08T15:35:24Z</time></trkpt><trkpt lat="48.44326742412756" lon="-1.066898893006708"><ele>173.33333333333331</ele><time>2026-04-08T15:35:25Z</time></trkpt><trkpt lat="48.443448214889514" lon="-1.0668458445743716"><ele>173.0</ele><time>2026-04-08T15:35:26Z</time></trkpt><trkpt lat="48.44363699799982" lon="-1.0668052305553113"><ele>173.66666666666666</ele><time>2026-04-08T15:35:27Z</time></trkpt><trkpt lat="48.44383951960451" lon="-1.0667751907652026"><ele>174.33333333333334</ele><time>2026-04-08T15:35:28Z</time></trkpt><trkpt lat="48.444033879106634" lon="-1.0667614387760924"><ele>175.0</ele><time>2026-04-08T15:35:29Z</time></trkpt><trkpt lat="48.44423076300769" lon="-1.0667373255815256"><ele>175.0</ele><time>2026-04-08T15:35:30Z</time></trkpt><trkpt lat="48.44443200935464" lon="-1.0667749089249157"><ele>175.0</ele><time>2026-04-08T15:35:31Z</time></trkpt><trkpt lat="48.444630411176036" lon="-1.0668008459273217"><ele>175.0</ele><time>2026-04-08T15:35:32Z</time></trkpt><trkpt lat="48.44483036097615" lon="-1.0668473479233154"><ele>176.0</ele><time>2026-04-08T15:35:33Z</time></trkpt><trkpt lat="48.44502700802307" lon="-1.0669089714387865"><ele>177.0</ele><time>2026-04-08T15:35:34Z</time></trkpt><trkpt lat="48.44522102742886" lon="-1.0669816819589664"><ele>178.0</ele><time>2026-04-08T15:35:35Z</time></trkpt><trkpt lat="48.44541388096445" lon="-1.067064607231642"><ele>177.66666666666669</ele><time>2026-04-08T15:35:36Z</time></trkpt><trkpt lat="48.44560375415993" lon="-1.0671643845715442"><ele>177.33333333333334</ele><time>2026-04-08T15:35:37Z</time></trkpt><trkpt lat="48.445798653467534" lon="-1.0672713083589214"><ele>177.0</ele><time>2026-04-08T15:35:38Z</time></trkpt><trkpt lat="48.44598313537618" lon="-1.0674022710503226"><ele>177.0</ele><time>2026-04-08T15:35:39Z</time></trkpt><trkpt lat="48.44616179337697" lon="-1.0675517880239478"><ele>177.0</ele><time>2026-04-08T15:35:40Z</time></trkpt><trkpt lat="48.446333994051734" lon="-1.0677289058020154"><ele>177.0</ele><time>2026-04-08T15:35:41Z</time></trkpt><trkpt lat="48.44650314057954" lon="-1.0679379120389452"><ele>176.0</ele><time>2026-04-08T15:35:42Z</time></trkpt><trkpt lat="48.44667154684042" lon="-1.0681090242553453"><ele>175.0</ele><time>2026-04-08T15:35:43Z</time></trkpt><trkpt lat="48.44683802310321" lon="-1.068252664886693"><ele>174.0</ele><time>2026-04-08T15:35:44Z</time></trkpt><trkpt lat="48.44699832162394" lon="-1.0683840953143182"><ele>172.33333333333334</ele><time>2026-04-08T15:35:45Z</time></trkpt><trkpt lat="48.447151460377356" lon="-1.0685098684907488"><ele>170.66666666666669</ele><time>2026-04-08T15:35:46Z</time></trkpt><trkpt lat="48.44729808718442" lon="-1.0686333189001738"><ele>169.0</ele><time>2026-04-08T15:35:47Z</time></trkpt><trkpt lat="48.44744370461098" lon="-1.0687506253266883"><ele>169.0</ele><time>2026-04-08T15:35:48Z</time></trkpt><trkpt lat="48.44758998213672" lon="-1.0688358185741593"><ele>169.0</ele><time>2026-04-08T15:35:49Z</time></trkpt><trkpt lat="48.44772645877848" lon="-1.0689328484228793"><ele>169.0</ele><time>2026-04-08T15:35:50Z</time></trkpt><trkpt lat="48.447843756379754" lon="-1.069030942258981"><ele>169.0</ele><time>2026-04-08T15:35:51Z</time></trkpt><trkpt lat="48.4479448059127" lon="-1.0690900083225263"><ele>168.5</ele><time>2026-04-08T15:35:52Z</time></trkpt><trkpt lat="48.44803954769629" lon="-1.069157563720078"><ele>168.0</ele><time>2026-04-08T15:35:53Z</time></trkpt><trkpt lat="48.448133131700935" lon="-1.0692112771776312"><ele>167.5</ele><time>2026-04-08T15:35:54Z</time></trkpt><trkpt lat="48.44821709922869" lon="-1.0692555140536009"><ele>167.0</ele><time>2026-04-08T15:35:55Z</time></trkpt><trkpt lat="48.44828687932546" lon="-1.0692851855169545"><ele>166.5</ele><time>2026-04-08T15:35:56Z</time></trkpt><trkpt lat="48.44835458525187" lon="-1.0693136196452917"><ele>166.0</ele><time>2026-04-08T15:35:57Z</time></trkpt><trkpt lat="48.448419316287605" lon="-1.0693330591068348"><ele>166.0</ele><time>2026-04-08T15:36:00Z</time></trkpt><trkpt lat="48.44839077962275" lon="-1.0696041719170495"><ele>166.0</ele><time>2026-04-08T15:36:08Z</time></trkpt><trkpt lat="48.44835270415501" lon="-1.0697188053369355"><ele>166.0</ele><time>2026-04-08T15:36:09Z</time></trkpt><trkpt lat="48.448315861836946" lon="-1.0698359198169884"><ele>166.0</ele><time>2026-04-08T15:36:10Z</time></trkpt><trkpt lat="48.448269585521125" lon="-1.069974570964716"><ele>166.0</ele><time>2026-04-08T15:36:11Z</time></trkpt><trkpt lat="48.448224414117156" lon="-1.0701126052961805"><ele>166.0</ele><time>2026-04-08T15:36:12Z</time></trkpt><trkpt lat="48.44818240852888" lon="-1.0702537239150263"><ele>166.0</ele><time>2026-04-08T15:36:13Z</time></trkpt><trkpt lat="48.448134441085415" lon="-1.070403574357166"><ele>166.0</ele><time>2026-04-08T15:36:14Z</time></trkpt><trkpt lat="48.44809319334498" lon="-1.0705519403441535"><ele>166.0</ele><time>2026-04-08T15:36:15Z</time></trkpt><trkpt lat="48.44804036119903" lon="-1.0707073692182751"><ele>165.8</ele><time>2026-04-08T15:36:16Z</time></trkpt><trkpt lat="48.44799782133575" lon="-1.0708646484005564"><ele>165.60000000000002</ele><time>2026-04-08T15:36:17Z</time></trkpt><trkpt lat="48.447954599616544" lon="-1.0709973027495685"><ele>165.4</ele><time>2026-04-08T15:36:18Z</time></trkpt><trkpt lat="48.44791124718078" lon="-1.0711320406177747"><ele>165.2</ele><time>2026-04-08T15:36:19Z</time></trkpt><trkpt lat="48.44788294816417" lon="-1.0712603088949495"><ele>165.0</ele><time>2026-04-08T15:36:20Z</time></trkpt><trkpt lat="48.44784417813391" lon="-1.0713653613080365"><ele>165.0</ele><time>2026-04-08T15:36:21Z</time></trkpt><trkpt lat="48.44781187256335" lon="-1.0714546242621377"><ele>165.0</ele><time>2026-04-08T15:36:22Z</time></trkpt><trkpt lat="48.44779520231971" lon="-1.0715604739135314"><ele>165.0</ele><time>2026-04-08T15:36:23Z</time></trkpt><trkpt lat="48.44772562128217" lon="-1.0716370130555488"><ele>165.0</ele><time>2026-04-08T15:36:24Z</time></trkpt><trkpt lat="48.447664752378614" lon="-1.071742094875917"><ele>165.0</ele><time>2026-04-08T15:36:25Z</time></trkpt><trkpt lat="48.44759065479473" lon="-1.0718533027932373"><ele>165.0</ele><time>2026-04-08T15:36:26Z</time></trkpt><trkpt lat="48.44749466909863" lon="-1.071965546495189"><ele>164.25</ele><time>2026-04-08T15:36:27Z</time></trkpt><trkpt lat="48.44738334328468" lon="-1.0720916198492076"><ele>163.5</ele><time>2026-04-08T15:36:28Z</time></trkpt><trkpt lat="48.447260307051586" lon="-1.0722016043648108"><ele>162.75</ele><time>2026-04-08T15:36:29Z</time></trkpt><trkpt lat="48.44713266427482" lon="-1.0723147588332695"><ele>162.0</ele><time>2026-04-08T15:36:30Z</time></trkpt><trkpt lat="48.446991140522506" lon="-1.0724303496414265"><ele>160.66666666666666</ele><time>2026-04-08T15:36:31Z</time></trkpt><trkpt lat="48.44684558676488" lon="-1.072551212225692"><ele>159.33333333333331</ele><time>2026-04-08T15:36:32Z</time></trkpt><trkpt lat="48.446703626882986" lon="-1.0726737675869593"><ele>158.0</ele><time>2026-04-08T15:36:33Z</time></trkpt><trkpt lat="48.446556018072485" lon="-1.0727893006896039"><ele>158.0</ele><time>2026-04-08T15:36:34Z</time></trkpt><trkpt lat="48.44641685851701" lon="-1.0729253579924474"><ele>158.0</ele><time>2026-04-08T15:36:35Z</time></trkpt><trkpt lat="48.446288911512454" lon="-1.0730939325999036"><ele>158.0</ele><time>2026-04-08T15:36:36Z</time></trkpt><trkpt lat="48.44617749423314" lon="-1.0732894016749812"><ele>157.33333333333331</ele><time>2026-04-08T15:36:37Z</time></trkpt><trkpt lat="48.446076745718514" lon="-1.073495944294485"><ele>156.66666666666666</ele><time>2026-04-08T15:36:38Z</time></trkpt><trkpt lat="48.44598782665549" lon="-1.0737118054802341"><ele>156.0</ele><time>2026-04-08T15:36:39Z</time></trkpt><trkpt lat="48.445900102524604" lon="-1.0739409188739457"><ele>155.33333333333334</ele><time>2026-04-08T15:36:40Z</time></trkpt><trkpt lat="48.44580660369349" lon="-1.0741577949745957"><ele>154.66666666666669</ele><time>2026-04-08T15:36:41Z</time></trkpt><trkpt lat="48.44571454189852" lon="-1.074379609885492"><ele>154.0</ele><time>2026-04-08T15:36:42Z</time></trkpt><trkpt lat="48.44561157769341" lon="-1.0745973360863519"><ele>154.0</ele><time>2026-04-08T15:36:43Z</time></trkpt><trkpt lat="48.44551840427473" lon="-1.074822550239495"><ele>154.0</ele><time>2026-04-08T15:36:44Z</time></trkpt><trkpt lat="48.445437050535574" lon="-1.0750660791276716"><ele>154.0</ele><time>2026-04-08T15:36:45Z</time></trkpt><trkpt lat="48.44534190875976" lon="-1.0752992984371599"><ele>154.33333333333334</ele><time>2026-04-08T15:36:46Z</time></trkpt><trkpt lat="48.445244340931836" lon="-1.0755342805187083"><ele>154.66666666666666</ele><time>2026-04-08T15:36:47Z</time></trkpt><trkpt lat="48.44512432219203" lon="-1.0757506629344848"><ele>155.0</ele><time>2026-04-08T15:36:48Z</time></trkpt><trkpt lat="48.44501100150017" lon="-1.0759710049977036"><ele>154.33333333333331</ele><time>2026-04-08T15:36:49Z</time></trkpt><trkpt lat="48.44488410670352" lon="-1.0761897773055578"><ele>153.66666666666666</ele><time>2026-04-08T15:36:50Z</time></trkpt><trkpt lat="48.444756453139156" lon="-1.0763915270844335"><ele>153.0</ele><time>2026-04-08T15:36:51Z</time></trkpt><trkpt lat="48.444612543385865" lon="-1.07659071020139"><ele>152.66666666666666</ele><time>2026-04-08T15:36:52Z</time></trkpt><trkpt lat="48.444478776748745" lon="-1.0767820694769947"><ele>152.33333333333331</ele><time>2026-04-08T15:36:53Z</time></trkpt><trkpt lat="48.444343980318976" lon="-1.0769607689512135"><ele>152.0</ele><time>2026-04-08T15:36:54Z</time></trkpt><trkpt lat="48.44421329742876" lon="-1.0771319500919543"><ele>152.0</ele><time>2026-04-08T15:36:55Z</time></trkpt><trkpt lat="48.44408934317857" lon="-1.0772986126133863"><ele>152.0</ele><time>2026-04-08T15:36:56Z</time></trkpt><trkpt lat="48.44396969847866" lon="-1.0774677352076434"><ele>152.0</ele><time>2026-04-08T15:36:57Z</time></trkpt><trkpt lat="48.443850430027254" lon="-1.0776386868411925"><ele>150.66666666666666</ele><time>2026-04-08T15:36:58Z</time></trkpt><trkpt lat="48.443749878629376" lon="-1.0778179597936732"><ele>149.33333333333334</ele><time>2026-04-08T15:36:59Z</time></trkpt><trkpt lat="48.443667484681015" lon="-1.0780113234529525"><ele>148.0</ele><time>2026-04-08T15:37:00Z</time></trkpt><trkpt lat="48.443615587686836" lon="-1.0782262652822012"><ele>148.33333333333334</ele><time>2026-04-08T15:37:01Z</time></trkpt><trkpt lat="48.44358153213566" lon="-1.0784602567093884"><ele>148.66666666666666</ele><time>2026-04-08T15:37:02Z</time></trkpt><trkpt lat="48.443562613597614" lon="-1.078704761721079"><ele>149.0</ele><time>2026-04-08T15:37:03Z</time></trkpt><trkpt lat="48.44355726296012" lon="-1.07896513407276"><ele>148.66666666666666</ele><time>2026-04-08T15:37:04Z</time></trkpt><trkpt lat="48.443555552908464" lon="-1.0792344738251085"><ele>148.33333333333334</ele><time>2026-04-08T15:37:05Z</time></trkpt><trkpt lat="48.44357397414536" lon="-1.0795176496304122"><ele>148.0</ele><time>2026-04-08T15:37:06Z</time></trkpt><trkpt lat="48.44359861875066" lon="-1.0798081017135686"><ele>148.33333333333334</ele><time>2026-04-08T15:37:07Z</time></trkpt><trkpt lat="48.443613305723446" lon="-1.0801070050883055"><ele>148.66666666666666</ele><time>2026-04-08T15:37:08Z</time></trkpt><trkpt lat="48.44361541884259" lon="-1.0804123240794437"><ele>149.0</ele><time>2026-04-08T15:37:09Z</time></trkpt><trkpt lat="48.443632136454816" lon="-1.0807260675105932"><ele>150.0</ele><time>2026-04-08T15:37:10Z</time></trkpt><trkpt lat="48.443626021058236" lon="-1.0810382496294142"><ele>151.0</ele><time>2026-04-08T15:37:11Z</time></trkpt><trkpt lat="48.44361123225755" lon="-1.0813538657872357"><ele>152.0</ele><time>2026-04-08T15:37:12Z</time></trkpt><trkpt lat="48.44359344788022" lon="-1.081663465862356"><ele>153.66666666666666</ele><time>2026-04-08T15:37:13Z</time></trkpt><trkpt lat="48.443574110135934" lon="-1.081969648452297"><ele>155.33333333333334</ele><time>2026-04-08T15:37:14Z</time></trkpt><trkpt lat="48.4435548299467" lon="-1.0822725143227598"><ele>157.0</ele><time>2026-04-08T15:37:15Z</time></trkpt><trkpt lat="48.44353578255005" lon="-1.0825717234155467"><ele>158.0</ele><time>2026-04-08T15:37:16Z</time></trkpt><trkpt lat="48.44351750533106" lon="-1.0828680125554366"><ele>159.0</ele><time>2026-04-08T15:37:17Z</time></trkpt><trkpt lat="48.44350217728396" lon="-1.0831661438767135"><ele>160.0</ele><time>2026-04-08T15:37:18Z</time></trkpt><trkpt lat="48.44350155433376" lon="-1.0834666636130397"><ele>160.0</ele><time>2026-04-08T15:37:19Z</time></trkpt><trkpt lat="48.44352517574732" lon="-1.083762356946847"><ele>160.0</ele><time>2026-04-08T15:37:20Z</time></trkpt><trkpt lat="48.443568481347356" lon="-1.0840655917971027"><ele>160.0</ele><time>2026-04-08T15:37:21Z</time></trkpt><trkpt lat="48.44361803168113" lon="-1.084371515962905"><ele>159.33333333333334</ele><time>2026-04-08T15:37:22Z</time></trkpt><trkpt lat="48.44366739099132" lon="-1.084685313559081"><ele>158.66666666666666</ele><time>2026-04-08T15:37:23Z</time></trkpt><trkpt lat="48.443715675219245" lon="-1.084993757673243"><ele>158.0</ele><time>2026-04-08T15:37:24Z</time></trkpt><trkpt lat="48.44376391924089" lon="-1.0852987826977383"><ele>157.66666666666666</ele><time>2026-04-08T15:37:25Z</time></trkpt><trkpt lat="48.44381124431708" lon="-1.085602615547286"><ele>157.33333333333334</ele><time>2026-04-08T15:37:26Z</time></trkpt><trkpt lat="48.4438571647956" lon="-1.0859056761742034"><ele>157.0</ele><time>2026-04-08T15:37:27Z</time></trkpt><trkpt lat="48.44388717708595" lon="-1.0862188629740255"><ele>157.0</ele><time>2026-04-08T15:37:28Z</time></trkpt><trkpt lat="48.44389610469176" lon="-1.086532984086907"><ele>157.0</ele><time>2026-04-08T15:37:29Z</time></trkpt><trkpt lat="48.443891778537804" lon="-1.0868263318904663"><ele>157.0</ele><time>2026-04-08T15:37:30Z</time></trkpt><trkpt lat="48.443879233907424" lon="-1.0871004256727788"><ele>156.66666666666669</ele><time>2026-04-08T15:37:31Z</time></trkpt><trkpt lat="48.44387824105226" lon="-1.0873606098262367"><ele>156.33333333333334</ele><time>2026-04-08T15:37:32Z</time></trkpt><trkpt lat="48.4438486552269" lon="-1.0876146605739867"><ele>156.0</ele><time>2026-04-08T15:37:33Z</time></trkpt><trkpt lat="48.44378837816259" lon="-1.0878563485987465"><ele>156.0</ele><time>2026-04-08T15:37:34Z</time></trkpt><trkpt lat="48.4437080597562" lon="-1.0880867509273475"><ele>156.0</ele><time>2026-04-08T15:37:35Z</time></trkpt><trkpt lat="48.443610328202325" lon="-1.088303533001766"><ele>156.0</ele><time>2026-04-08T15:37:36Z</time></trkpt><trkpt lat="48.443497129021736" lon="-1.0885063016584986"><ele>156.66666666666666</ele><time>2026-04-08T15:37:37Z</time></trkpt><trkpt lat="48.443378130388396" lon="-1.0887064992299675"><ele>157.33333333333331</ele><time>2026-04-08T15:37:38Z</time></trkpt><trkpt lat="48.443262597162395" lon="-1.088918177627403"><ele>158.0</ele><time>2026-04-08T15:37:39Z</time></trkpt><trkpt lat="48.44314801058407" lon="-1.0891361033131237"><ele>158.33333333333331</ele><time>2026-04-08T15:37:40Z</time></trkpt><trkpt lat="48.44303403346395" lon="-1.0893550702009704"><ele>158.66666666666666</ele><time>2026-04-08T15:37:41Z</time></trkpt><trkpt lat="48.442924079159305" lon="-1.0895677407521822"><ele>159.0</ele><time>2026-04-08T15:37:42Z</time></trkpt><trkpt lat="48.442818236958445" lon="-1.0897594913017712"><ele>158.5</ele><time>2026-04-08T15:37:43Z</time></trkpt><trkpt lat="48.44272193134195" lon="-1.0899412226358276"><ele>158.0</ele><time>2026-04-08T15:37:44Z</time></trkpt><trkpt lat="48.442638177802735" lon="-1.0901198391061768"><ele>157.5</ele><time>2026-04-08T15:37:45Z</time></trkpt><trkpt lat="48.44256398835612" lon="-1.0902705176651823"><ele>157.0</ele><time>2026-04-08T15:37:46Z</time></trkpt><trkpt lat="48.44249706566457" lon="-1.0904088935007694"><ele>157.0</ele><time>2026-04-08T15:37:47Z</time></trkpt><trkpt lat="48.442443223885824" lon="-1.0905583050882617"><ele>157.0</ele><time>2026-04-08T15:37:48Z</time></trkpt><trkpt lat="48.44238762233298" lon="-1.0907063062075812"><ele>157.0</ele><time>2026-04-08T15:37:49Z</time></trkpt><trkpt lat="48.44232590796766" lon="-1.0908324317433187"><ele>157.0</ele><time>2026-04-08T15:37:50Z</time></trkpt><trkpt lat="48.44237989676511" lon="-1.0910878704190219"><ele>157.5</ele><time>2026-04-08T15:37:51Z</time></trkpt><trkpt lat="48.442370434764655" lon="-1.0912857339831241"><ele>158.0</ele><time>2026-04-08T15:37:52Z</time></trkpt><trkpt lat="48.44239035415329" lon="-1.0914973516022617"><ele>158.5</ele><time>2026-04-08T15:37:53Z</time></trkpt><trkpt lat="48.44239404023291" lon="-1.091719832890071"><ele>159.0</ele><time>2026-04-08T15:37:54Z</time></trkpt><trkpt lat="48.44239886605966" lon="-1.091937683406925"><ele>159.25</ele><time>2026-04-08T15:37:55Z</time></trkpt><trkpt lat="48.44240798564654" lon="-1.0921481784528972"><ele>159.5</ele><time>2026-04-08T15:37:56Z</time></trkpt><trkpt lat="48.44242197786129" lon="-1.0923608919905972"><ele>159.75</ele><time>2026-04-08T15:37:57Z</time></trkpt><trkpt lat="48.44243967020032" lon="-1.0925733840345608"><ele>160.0</ele><time>2026-04-08T15:37:58Z</time></trkpt><trkpt lat="48.44245873081594" lon="-1.0927928805056841"><ele>160.5</ele><time>2026-04-08T15:37:59Z</time></trkpt><trkpt lat="48.44247814002516" lon="-1.0930135324588734"><ele>161.0</ele><time>2026-04-08T15:38:00Z</time></trkpt><trkpt lat="48.44249774295233" lon="-1.093235394655234"><ele>161.5</ele><time>2026-04-08T15:38:01Z</time></trkpt><trkpt lat="48.44251627770737" lon="-1.093463060656414"><ele>162.0</ele><time>2026-04-08T15:38:02Z</time></trkpt><trkpt lat="48.442533504281606" lon="-1.093693259839198"><ele>162.66666666666666</ele><time>2026-04-08T15:38:03Z</time></trkpt><trkpt lat="48.442549759908914" lon="-1.0939212392806035"><ele>163.33333333333331</ele><time>2026-04-08T15:38:04Z</time></trkpt><trkpt lat="48.442565005480105" lon="-1.0941555793200066"><ele>164.0</ele><time>2026-04-08T15:38:05Z</time></trkpt><trkpt lat="48.4425801183463" lon="-1.0943911142324065"><ele>164.25</ele><time>2026-04-08T15:38:06Z</time></trkpt><trkpt lat="48.44259390504517" lon="-1.0946254465312717"><ele>164.5</ele><time>2026-04-08T15:38:07Z</time></trkpt><trkpt lat="48.44260703831163" lon="-1.0948443790746996"><ele>164.75</ele><time>2026-04-08T15:38:08Z</time></trkpt><trkpt lat="48.442619127262915" lon="-1.0950581808140518"><ele>165.0</ele><time>2026-04-08T15:38:09Z</time></trkpt><trkpt lat="48.4426300173537" lon="-1.095272752091893"><ele>165.25</ele><time>2026-04-08T15:38:10Z</time></trkpt><trkpt lat="48.4426405740948" lon="-1.0954807552682189"><ele>165.5</ele><time>2026-04-08T15:38:11Z</time></trkpt><trkpt lat="48.44265093832535" lon="-1.0956849653183134"><ele>165.75</ele><time>2026-04-08T15:38:12Z</time></trkpt><trkpt lat="48.44266105243053" lon="-1.095877231423417"><ele>166.0</ele><time>2026-04-08T15:38:13Z</time></trkpt><trkpt lat="48.44267072259702" lon="-1.0960514917886552"><ele>166.20000000000002</ele><time>2026-04-08T15:38:14Z</time></trkpt><trkpt lat="48.44267175536334" lon="-1.0962147175400283"><ele>166.4</ele><time>2026-04-08T15:38:15Z</time></trkpt><trkpt lat="48.442684287799075" lon="-1.0963742439253175"><ele>166.6</ele><time>2026-04-08T15:38:16Z</time></trkpt><trkpt lat="48.44269847387016" lon="-1.0965312736673387"><ele>166.8</ele><time>2026-04-08T15:38:17Z</time></trkpt><trkpt lat="48.44271200460106" lon="-1.0966840183792579"><ele>167.0</ele><time>2026-04-08T15:38:18Z</time></trkpt><trkpt lat="48.442729611928804" lon="-1.0968360705470146"><ele>167.39999999999998</ele><time>2026-04-08T15:38:19Z</time></trkpt><trkpt lat="48.442752818928774" lon="-1.0969874232690546"><ele>167.79999999999998</ele><time>2026-04-08T15:38:20Z</time></trkpt><trkpt lat="48.44277611226564" lon="-1.0971363929624105"><ele>168.2</ele><time>2026-04-08T15:38:21Z</time></trkpt><trkpt lat="48.44280839450716" lon="-1.0972859659620728"><ele>168.6</ele><time>2026-04-08T15:38:22Z</time></trkpt><trkpt lat="48.44285640205694" lon="-1.0974305835951135"><ele>169.0</ele><time>2026-04-08T15:38:23Z</time></trkpt><trkpt lat="48.442900530115985" lon="-1.0975791408720366"><ele>169.2</ele><time>2026-04-08T15:38:24Z</time></trkpt><trkpt lat="48.442946804848035" lon="-1.0977293121419243"><ele>169.39999999999998</ele><time>2026-04-08T15:38:25Z</time></trkpt><trkpt lat="48.44299527846787" lon="-1.0978781779323419"><ele>169.6</ele><time>2026-04-08T15:38:26Z</time></trkpt><trkpt lat="48.44304521631749" lon="-1.098025182852826"><ele>169.8</ele><time>2026-04-08T15:38:27Z</time></trkpt><trkpt lat="48.44309255874361" lon="-1.0981754913225608"><ele>170.0</ele><time>2026-04-08T15:38:28Z</time></trkpt><trkpt lat="48.4431348094653" lon="-1.0983279085477122"><ele>170.0</ele><time>2026-04-08T15:38:29Z</time></trkpt><trkpt lat="48.44317135234769" lon="-1.0984838620292265"><ele>170.0</ele><time>2026-04-08T15:38:30Z</time></trkpt><trkpt lat="48.44320000188317" lon="-1.0986445489815568"><ele>170.0</ele><time>2026-04-08T15:38:31Z</time></trkpt><trkpt lat="48.44322549088562" lon="-1.0988071531671844"><ele>170.0</ele><time>2026-04-08T15:38:32Z</time></trkpt><trkpt lat="48.4432472309953" lon="-1.0989738355457535"><ele>170.0</ele><time>2026-04-08T15:38:33Z</time></trkpt><trkpt lat="48.44327102551021" lon="-1.099141568210844"><ele>170.0</ele><time>2026-04-08T15:38:34Z</time></trkpt><trkpt lat="48.44328761033248" lon="-1.0993111388006513"><ele>170.0</ele><time>2026-04-08T15:38:35Z</time></trkpt><trkpt lat="48.44330926958284" lon="-1.0994769997947602"><ele>170.0</ele><time>2026-04-08T15:38:36Z</time></trkpt><trkpt lat="48.443326564930715" lon="-1.0996430112848334"><ele>170.0</ele><time>2026-04-08T15:38:37Z</time></trkpt><trkpt lat="48.44336190025577" lon="-1.0998020323211364"><ele>170.0</ele><time>2026-04-08T15:38:38Z</time></trkpt><trkpt lat="48.44337113926743" lon="-1.0999646908695577"><ele>170.2</ele><time>2026-04-08T15:38:39Z</time></trkpt><trkpt lat="48.443390528464796" lon="-1.1001242453322377"><ele>170.4</ele><time>2026-04-08T15:38:40Z</time></trkpt><trkpt lat="48.44341362063558" lon="-1.1002812132732818"><ele>170.60000000000002</ele><time>2026-04-08T15:38:41Z</time></trkpt><trkpt lat="48.443433818265106" lon="-1.1004366312175073"><ele>170.8</ele><time>2026-04-08T15:38:42Z</time></trkpt><trkpt lat="48.44345232378557" lon="-1.1005939114565213"><ele>171.0</ele><time>2026-04-08T15:38:43Z</time></trkpt><trkpt lat="48.44346678224098" lon="-1.100751526800202"><ele>171.4</ele><time>2026-04-08T15:38:44Z</time></trkpt><trkpt lat="48.443482115918115" lon="-1.1009102845669962"><ele>171.8</ele><time>2026-04-08T15:38:45Z</time></trkpt><trkpt lat="48.443498324689024" lon="-1.1010687365033163"><ele>172.20000000000002</ele><time>2026-04-08T15:38:46Z</time></trkpt><trkpt lat="48.44351806174061" lon="-1.1012269722199581"><ele>172.60000000000002</ele><time>2026-04-08T15:38:47Z</time></trkpt><trkpt lat="48.44353610895818" lon="-1.101389206778008"><ele>173.0</ele><time>2026-04-08T15:38:48Z</time></trkpt><trkpt lat="48.44355136179364" lon="-1.1015535536314733"><ele>173.4</ele><time>2026-04-08T15:38:49Z</time></trkpt><trkpt lat="48.443565073538075" lon="-1.1017208508927898"><ele>173.8</ele><time>2026-04-08T15:38:50Z</time></trkpt><trkpt lat="48.44357723759626" lon="-1.1018867906182317"><ele>174.2</ele><time>2026-04-08T15:38:51Z</time></trkpt><trkpt lat="48.44358537906374" lon="-1.1020499041853782"><ele>174.6</ele><time>2026-04-08T15:38:52Z</time></trkpt><trkpt lat="48.44359519087996" lon="-1.102216758611027"><ele>175.0</ele><time>2026-04-08T15:38:53Z</time></trkpt><trkpt lat="48.44360310228216" lon="-1.1023889893150338"><ele>174.6</ele><time>2026-04-08T15:38:54Z</time></trkpt><trkpt lat="48.4436013109142" lon="-1.1025588102886743"><ele>174.2</ele><time>2026-04-08T15:38:55Z</time></trkpt><trkpt lat="48.44359450318774" lon="-1.102722334465994"><ele>173.8</ele><time>2026-04-08T15:38:56Z</time></trkpt><trkpt lat="48.443588353636144" lon="-1.1028788088701076"><ele>173.4</ele><time>2026-04-08T15:38:57Z</time></trkpt><trkpt lat="48.44357260307122" lon="-1.1030327760199217"><ele>173.0</ele><time>2026-04-08T15:38:58Z</time></trkpt><trkpt lat="48.4435590713874" lon="-1.1031900934659618"><ele>173.4</ele><time>2026-04-08T15:38:59Z</time></trkpt><trkpt lat="48.443549553964395" lon="-1.103347214884035"><ele>173.8</ele><time>2026-04-08T15:39:00Z</time></trkpt><trkpt lat="48.44353740082752" lon="-1.1034988369928032"><ele>174.2</ele><time>2026-04-08T15:39:01Z</time></trkpt><trkpt lat="48.44352489862458" lon="-1.1036454576512802"><ele>174.6</ele><time>2026-04-08T15:39:02Z</time></trkpt><trkpt lat="48.44351357584595" lon="-1.1037835759579864"><ele>175.0</ele><time>2026-04-08T15:39:03Z</time></trkpt><trkpt lat="48.44351142733476" lon="-1.1039169895369059"><ele>175.0</ele><time>2026-04-08T15:39:04Z</time></trkpt><trkpt lat="48.44350119499193" lon="-1.1040510965872576"><ele>175.0</ele><time>2026-04-08T15:39:05Z</time></trkpt><trkpt lat="48.443496402014794" lon="-1.1041885685526716"><ele>175.0</ele><time>2026-04-08T15:39:06Z</time></trkpt><trkpt lat="48.44349205776873" lon="-1.1043233139053328"><ele>175.0</ele><time>2026-04-08T15:39:07Z</time></trkpt><trkpt lat="48.44348254363855" lon="-1.10445613439526"><ele>175.0</ele><time>2026-04-08T15:39:08Z</time></trkpt><trkpt lat="48.44347922610085" lon="-1.1045766842655358"><ele>175.0</ele><time>2026-04-08T15:39:09Z</time></trkpt><trkpt lat="48.4434894913794" lon="-1.1046911969720064"><ele>175.5</ele><time>2026-04-08T15:39:10Z</time></trkpt><trkpt lat="48.4435165468573" lon="-1.1047965775452366"><ele>176.0</ele><time>2026-04-08T15:39:11Z</time></trkpt><trkpt lat="48.443536795178304" lon="-1.1048953535017623"><ele>176.5</ele><time>2026-04-08T15:39:12Z</time></trkpt><trkpt lat="48.443558585081796" lon="-1.10499072203894"><ele>177.0</ele><time>2026-04-08T15:39:13Z</time></trkpt><trkpt lat="48.44358634997997" lon="-1.1050899828482785"><ele>177.5</ele><time>2026-04-08T15:39:14Z</time></trkpt><trkpt lat="48.44361618058973" lon="-1.1051754009694472"><ele>178.0</ele><time>2026-04-08T15:39:15Z</time></trkpt><trkpt lat="48.44367289316505" lon="-1.1053274063947751"><ele>178.25</ele><time>2026-04-08T15:39:17Z</time></trkpt><trkpt lat="48.44376224523884" lon="-1.105386436385886"><ele>178.5</ele><time>2026-04-08T15:39:19Z</time></trkpt><trkpt lat="48.44388680773645" lon="-1.1053871071936028"><ele>178.75</ele><time>2026-04-08T15:39:21Z</time></trkpt><trkpt lat="48.44400308135648" lon="-1.1053985142416862"><ele>179.0</ele><time>2026-04-08T15:39:23Z</time></trkpt><trkpt lat="48.444122258951516" lon="-1.1054283851400732"><ele>178.6</ele><time>2026-04-08T15:39:25Z</time></trkpt><trkpt lat="48.4441859367821" lon="-1.105436132533176"><ele>178.2</ele><time>2026-04-08T15:39:26Z</time></trkpt><trkpt lat="48.444310470432626" lon="-1.1053684972914846"><ele>177.79999999999998</ele><time>2026-04-08T15:39:28Z</time></trkpt><trkpt lat="48.4444252473831" lon="-1.1052999812380382"><ele>177.39999999999998</ele><time>2026-04-08T15:39:30Z</time></trkpt><trkpt lat="48.44446842390948" lon="-1.1052228041219865"><ele>177.0</ele><time>2026-04-08T15:39:31Z</time></trkpt><trkpt lat="48.44450496276245" lon="-1.1051424283437146"><ele>177.0</ele><time>2026-04-08T15:39:32Z</time></trkpt><trkpt lat="48.444546547707695" lon="-1.1050376321534214"><ele>177.0</ele><time>2026-04-08T15:39:33Z</time></trkpt><trkpt lat="48.44456842263496" lon="-1.1049110093286132"><ele>177.0</ele><time>2026-04-08T15:39:34Z</time></trkpt><trkpt lat="48.444587140475065" lon="-1.1047787872181376"><ele>177.0</ele><time>2026-04-08T15:39:35Z</time></trkpt><trkpt lat="48.44459875284083" lon="-1.104648373778584"><ele>177.0</ele><time>2026-04-08T15:39:36Z</time></trkpt><trkpt lat="48.44458830311887" lon="-1.1045273263521755"><ele>177.0</ele><time>2026-04-08T15:39:37Z</time></trkpt><trkpt lat="48.444594253529914" lon="-1.104397873813152"><ele>177.0</ele><time>2026-04-08T15:39:38Z</time></trkpt><trkpt lat="48.4445871009128" lon="-1.104272306497632"><ele>177.0</ele><time>2026-04-08T15:39:39Z</time></trkpt><trkpt lat="48.44457975249923" lon="-1.1041499143693823"><ele>177.0</ele><time>2026-04-08T15:39:40Z</time></trkpt><trkpt lat="48.444575967246415" lon="-1.104027038561827"><ele>177.0</ele><time>2026-04-08T15:39:41Z</time></trkpt><trkpt lat="48.4445723284201" lon="-1.1039054127731207"><ele>177.0</ele><time>2026-04-08T15:39:42Z</time></trkpt><trkpt lat="48.444599878025194" lon="-1.1037752713038944"><ele>177.0</ele><time>2026-04-08T15:39:43Z</time></trkpt><trkpt lat="48.44462568018338" lon="-1.1036458953757207"><ele>175.5</ele><time>2026-04-08T15:39:44Z</time></trkpt><trkpt lat="48.44465314458408" lon="-1.1035214125709962"><ele>174.0</ele><time>2026-04-08T15:39:45Z</time></trkpt><trkpt lat="48.44468263998945" lon="-1.1033966501057237"><ele>172.5</ele><time>2026-04-08T15:39:46Z</time></trkpt><trkpt lat="48.44471825188568" lon="-1.1032748413287432"><ele>171.0</ele><time>2026-04-08T15:39:47Z</time></trkpt><trkpt lat="48.444759132405295" lon="-1.103160856332871"><ele>169.5</ele><time>2026-04-08T15:39:48Z</time></trkpt><trkpt lat="48.44480189136413" lon="-1.1030498159336628"><ele>168.0</ele><time>2026-04-08T15:39:49Z</time></trkpt><trkpt lat="48.4448540923099" lon="-1.102943567314339"><ele>167.8</ele><time>2026-04-08T15:39:50Z</time></trkpt><trkpt lat="48.44490443454991" lon="-1.1028391956986314"><ele>167.60000000000002</ele><time>2026-04-08T15:39:51Z</time></trkpt><trkpt lat="48.444963934079375" lon="-1.1027358818232786"><ele>167.39999999999998</ele><time>2026-04-08T15:39:52Z</time></trkpt><trkpt lat="48.4450231710856" lon="-1.102632450641761"><ele>167.2</ele><time>2026-04-08T15:39:53.001Z</time></trkpt><trkpt lat="48.44507947654124" lon="-1.1025282752691257"><ele>167.0</ele><time>2026-04-08T15:39:54.001Z</time></trkpt><trkpt lat="48.445142425239446" lon="-1.1024176966163313"><ele>166.39999999999998</ele><time>2026-04-08T15:39:55.001Z</time></trkpt><trkpt lat="48.445207954270586" lon="-1.1023125621569365"><ele>165.79999999999998</ele><time>2026-04-08T15:39:56.001Z</time></trkpt><trkpt lat="48.445272740574985" lon="-1.1022042359126105"><ele>165.2</ele><time>2026-04-08T15:39:57.001Z</time></trkpt><trkpt lat="48.44534357411696" lon="-1.1020945354896867"><ele>164.6</ele><time>2026-04-08T15:39:58Z</time></trkpt><trkpt lat="48.4454154713444" lon="-1.1019821701394017"><ele>164.0</ele><time>2026-04-08T15:39:59Z</time></trkpt><trkpt lat="48.445494411841665" lon="-1.1018648674659393"><ele>162.25</ele><time>2026-04-08T15:40:00Z</time></trkpt><trkpt lat="48.44557632594653" lon="-1.1017478333232313"><ele>160.5</ele><time>2026-04-08T15:40:01Z</time></trkpt><trkpt lat="48.44566148767615" lon="-1.1016210881503183"><ele>158.75</ele><time>2026-04-08T15:40:02Z</time></trkpt><trkpt lat="48.44574577705407" lon="-1.1014954449243437"><ele>157.0</ele><time>2026-04-08T15:40:03Z</time></trkpt><trkpt lat="48.44583599104972" lon="-1.1013556034684897"><ele>157.0</ele><time>2026-04-08T15:40:04Z</time></trkpt><trkpt lat="48.44592493413755" lon="-1.1012194266132311"><ele>157.0</ele><time>2026-04-08T15:40:05Z</time></trkpt><trkpt lat="48.445996545898225" lon="-1.101070673826805"><ele>157.0</ele><time>2026-04-08T15:40:06Z</time></trkpt><trkpt lat="48.446049040261876" lon="-1.1009053544483056"><ele>157.0</ele><time>2026-04-08T15:40:07Z</time></trkpt><trkpt lat="48.44607902097019" lon="-1.10073245389486"><ele>157.25</ele><time>2026-04-08T15:40:08Z</time></trkpt><trkpt lat="48.44608707258041" lon="-1.1005571658993474"><ele>157.5</ele><time>2026-04-08T15:40:09Z</time></trkpt><trkpt lat="48.44609430276605" lon="-1.1003754993387551"><ele>157.75</ele><time>2026-04-08T15:40:10Z</time></trkpt><trkpt lat="48.44608910375782" lon="-1.100194951621704"><ele>158.0</ele><time>2026-04-08T15:40:11Z</time></trkpt><trkpt lat="48.44608830914656" lon="-1.1000109809365188"><ele>158.0</ele><time>2026-04-08T15:40:12Z</time></trkpt><trkpt lat="48.4460922639378" lon="-1.099826099420485"><ele>158.0</ele><time>2026-04-08T15:40:13Z</time></trkpt><trkpt lat="48.44610160783469" lon="-1.0996498064935658"><ele>158.0</ele><time>2026-04-08T15:40:14Z</time></trkpt><trkpt lat="48.44611467523984" lon="-1.0994775282319922"><ele>158.0</ele><time>2026-04-08T15:40:15Z</time></trkpt><trkpt lat="48.44612275539843" lon="-1.0992974655041485"><ele>158.0</ele><time>2026-04-08T15:40:16Z</time></trkpt><trkpt lat="48.446131113911584" lon="-1.0991143037815974"><ele>158.0</ele><time>2026-04-08T15:40:17Z</time></trkpt><trkpt lat="48.446140288837434" lon="-1.098923773186312"><ele>158.0</ele><time>2026-04-08T15:40:18Z</time></trkpt><trkpt lat="48.446151785200485" lon="-1.0987311606961405"><ele>158.0</ele><time>2026-04-08T15:40:19Z</time></trkpt><trkpt lat="48.446162553238274" lon="-1.098538319027534"><ele>157.5</ele><time>2026-04-08T15:40:20Z</time></trkpt><trkpt lat="48.44617044753523" lon="-1.0983492828551351"><ele>157.0</ele><time>2026-04-08T15:40:21Z</time></trkpt><trkpt lat="48.446179062003914" lon="-1.098164149524394"><ele>156.5</ele><time>2026-04-08T15:40:22Z</time></trkpt><trkpt lat="48.4461879256025" lon="-1.097978205246143"><ele>156.0</ele><time>2026-04-08T15:40:23Z</time></trkpt><trkpt lat="48.44620165283908" lon="-1.097786679380907"><ele>156.0</ele><time>2026-04-08T15:40:24Z</time></trkpt><trkpt lat="48.446216312259" lon="-1.0975913267155952"><ele>156.0</ele><time>2026-04-08T15:40:25Z</time></trkpt><trkpt lat="48.44623585482833" lon="-1.0973980674177273"><ele>156.0</ele><time>2026-04-08T15:40:26Z</time></trkpt><trkpt lat="48.44625470684759" lon="-1.0972080243525857"><ele>156.0</ele><time>2026-04-08T15:40:27Z</time></trkpt><trkpt lat="48.446275479776276" lon="-1.09702367297762"><ele>156.0</ele><time>2026-04-08T15:40:28Z</time></trkpt><trkpt lat="48.44630337398459" lon="-1.096843740389922"><ele>156.0</ele><time>2026-04-08T15:40:29Z</time></trkpt><trkpt lat="48.44633513897599" lon="-1.0966630387482792"><ele>156.0</ele><time>2026-04-08T15:40:30Z</time></trkpt><trkpt lat="48.446373980385474" lon="-1.0964843703026579"><ele>156.0</ele><time>2026-04-08T15:40:31Z</time></trkpt><trkpt lat="48.446419630470174" lon="-1.0963052554954482"><ele>156.0</ele><time>2026-04-08T15:40:32Z</time></trkpt><trkpt lat="48.446468077703834" lon="-1.0961235118707522"><ele>156.0</ele><time>2026-04-08T15:40:33Z</time></trkpt><trkpt lat="48.446523001733304" lon="-1.095941526784717"><ele>156.0</ele><time>2026-04-08T15:40:34Z</time></trkpt><trkpt lat="48.44658517193462" lon="-1.0957670335994312"><ele>156.0</ele><time>2026-04-08T15:40:35Z</time></trkpt><trkpt lat="48.44664280683572" lon="-1.0955933577301582"><ele>155.0</ele><time>2026-04-08T15:40:36Z</time></trkpt><trkpt lat="48.44669752406714" lon="-1.0954153274035026"><ele>154.0</ele><time>2026-04-08T15:40:37Z</time></trkpt><trkpt lat="48.446746712663455" lon="-1.0952283798874063"><ele>153.0</ele><time>2026-04-08T15:40:38Z</time></trkpt><trkpt lat="48.44679903736451" lon="-1.0950519108481211"><ele>152.0</ele><time>2026-04-08T15:40:39Z</time></trkpt><trkpt lat="48.44685345705524" lon="-1.094878361572065"><ele>151.5</ele><time>2026-04-08T15:40:40Z</time></trkpt><trkpt lat="48.44690411591954" lon="-1.0947009717381786"><ele>151.0</ele><time>2026-04-08T15:40:41Z</time></trkpt><trkpt lat="48.44695408126728" lon="-1.094517047837144"><ele>150.5</ele><time>2026-04-08T15:40:42Z</time></trkpt><trkpt lat="48.447009251252226" lon="-1.0943335817280022"><ele>150.0</ele><time>2026-04-08T15:40:43Z</time></trkpt><trkpt lat="48.447078603574006" lon="-1.094153892009998"><ele>149.25</ele><time>2026-04-08T15:40:44Z</time></trkpt><trkpt lat="48.447161764053526" lon="-1.0939799858926307"><ele>148.5</ele><time>2026-04-08T15:40:45Z</time></trkpt><trkpt lat="48.44724977155497" lon="-1.0938042336628726"><ele>147.75</ele><time>2026-04-08T15:40:46Z</time></trkpt><trkpt lat="48.44732819811942" lon="-1.0935985076519028"><ele>147.0</ele><time>2026-04-08T15:40:47Z</time></trkpt><trkpt lat="48.447405885276794" lon="-1.0933860610324955"><ele>147.0</ele><time>2026-04-08T15:40:48Z</time></trkpt><trkpt lat="48.44748829528396" lon="-1.0931693195820862"><ele>147.0</ele><time>2026-04-08T15:40:49Z</time></trkpt><trkpt lat="48.44758350904544" lon="-1.0929672528321492"><ele>147.0</ele><time>2026-04-08T15:40:50Z</time></trkpt><trkpt lat="48.44767172572052" lon="-1.092776423786834"><ele>147.0</ele><time>2026-04-08T15:40:51Z</time></trkpt><trkpt lat="48.447765913177804" lon="-1.0925889846446162"><ele>147.0</ele><time>2026-04-08T15:40:52Z</time></trkpt><trkpt lat="48.44787344420561" lon="-1.0924112665590333"><ele>147.0</ele><time>2026-04-08T15:40:53Z</time></trkpt><trkpt lat="48.44798323596886" lon="-1.0922333286068548"><ele>147.0</ele><time>2026-04-08T15:40:54Z</time></trkpt><trkpt lat="48.44809942795356" lon="-1.0920709810999312"><ele>147.0</ele><time>2026-04-08T15:40:55Z</time></trkpt><trkpt lat="48.448225503292825" lon="-1.0919163734274742"><ele>147.0</ele><time>2026-04-08T15:40:56Z</time></trkpt><trkpt lat="48.448349272761924" lon="-1.091753624739329"><ele>147.0</ele><time>2026-04-08T15:40:57Z</time></trkpt><trkpt lat="48.448477078042444" lon="-1.0915932219157287"><ele>147.0</ele><time>2026-04-08T15:40:58Z</time></trkpt><trkpt lat="48.44859959882411" lon="-1.0914393043638868"><ele>147.0</ele><time>2026-04-08T15:40:58.999Z</time></trkpt><trkpt lat="48.44872369076942" lon="-1.0912921747395308"><ele>147.66666666666666</ele><time>2026-04-08T15:40:59.999Z</time></trkpt><trkpt lat="48.44884612659005" lon="-1.091141923842457"><ele>148.33333333333331</ele><time>2026-04-08T15:41:00.999Z</time></trkpt><trkpt lat="48.44896694686743" lon="-1.0909897626218186"><ele>149.0</ele><time>2026-04-08T15:41:01.999Z</time></trkpt><trkpt lat="48.44908748770528" lon="-1.0908363222630093"><ele>150.0</ele><time>2026-04-08T15:41:02.999Z</time></trkpt><trkpt lat="48.44920624825635" lon="-1.0906811623802593"><ele>151.0</ele><time>2026-04-08T15:41:03.999Z</time></trkpt><trkpt lat="48.44932300165234" lon="-1.0905272038967018"><ele>152.0</ele><time>2026-04-08T15:41:04.999Z</time></trkpt><trkpt lat="48.449432879129894" lon="-1.0903790258216957"><ele>152.0</ele><time>2026-04-08T15:41:05.999Z</time></trkpt><trkpt lat="48.44953432062654" lon="-1.0902394952968053"><ele>152.0</ele><time>2026-04-08T15:41:06.999Z</time></trkpt><trkpt lat="48.44963486026343" lon="-1.0901050373579604"><ele>152.0</ele><time>2026-04-08T15:41:07.999Z</time></trkpt><trkpt lat="48.449729927953484" lon="-1.0899703333094002"><ele>152.0</ele><time>2026-04-08T15:41:08.999Z</time></trkpt><trkpt lat="48.449815503536364" lon="-1.0898300162214978"><ele>152.25</ele><time>2026-04-08T15:41:09.999Z</time></trkpt><trkpt lat="48.449898284404966" lon="-1.0896937285092965"><ele>152.5</ele><time>2026-04-08T15:41:10.999Z</time></trkpt><trkpt lat="48.449985358898125" lon="-1.089555962313258"><ele>152.75</ele><time>2026-04-08T15:41:11.999Z</time></trkpt><trkpt lat="48.45007393745006" lon="-1.0894171213252601"><ele>153.0</ele><time>2026-04-08T15:41:12.999Z</time></trkpt><trkpt lat="48.45015713365256" lon="-1.0892929353173584"><ele>153.0</ele><time>2026-04-08T15:41:13.999Z</time></trkpt><trkpt lat="48.45024780654166" lon="-1.0891876890812335"><ele>153.0</ele><time>2026-04-08T15:41:14.999Z</time></trkpt><trkpt lat="48.45034216218728" lon="-1.0890930060587187"><ele>153.0</ele><time>2026-04-08T15:41:15.999Z</time></trkpt><trkpt lat="48.450446258228624" lon="-1.0890188174769653"><ele>153.0</ele><time>2026-04-08T15:41:16.999Z</time></trkpt><trkpt lat="48.45055439868572" lon="-1.0889549437668393"><ele>153.25</ele><time>2026-04-08T15:41:17.999Z</time></trkpt><trkpt lat="48.450676224090934" lon="-1.0889411215248288"><ele>153.5</ele><time>2026-04-08T15:41:18.999Z</time></trkpt><trkpt lat="48.45080531469939" lon="-1.088901374357874"><ele>153.75</ele><time>2026-04-08T15:41:19.999Z</time></trkpt><trkpt lat="48.45096453551723" lon="-1.0888395703394043"><ele>154.0</ele><time>2026-04-08T15:41:20.999Z</time></trkpt><trkpt lat="48.45110993362282" lon="-1.0888020229558453"><ele>154.0</ele><time>2026-04-08T15:41:21.999Z</time></trkpt><trkpt lat="48.45125680036455" lon="-1.0887482908626993"><ele>154.0</ele><time>2026-04-08T15:41:22.999Z</time></trkpt><trkpt lat="48.45140936300281" lon="-1.0886778211234893"><ele>154.0</ele><time>2026-04-08T15:41:23.999Z</time></trkpt><trkpt lat="48.45156303752608" lon="-1.088602529424016"><ele>154.0</ele><time>2026-04-08T15:41:24.999Z</time></trkpt><trkpt lat="48.45172642516703" lon="-1.0885536758848557"><ele>154.0</ele><time>2026-04-08T15:41:25.999Z</time></trkpt><trkpt lat="48.45189509390986" lon="-1.0885325281819405"><ele>154.0</ele><time>2026-04-08T15:41:27Z</time></trkpt><trkpt lat="48.45205304767785" lon="-1.0885040060040463"><ele>154.0</ele><time>2026-04-08T15:41:28Z</time></trkpt><trkpt lat="48.45220697550942" lon="-1.0884762626057793"><ele>154.0</ele><time>2026-04-08T15:41:29Z</time></trkpt><trkpt lat="48.45235906590804" lon="-1.0884344786721845"><ele>154.0</ele><time>2026-04-08T15:41:30Z</time></trkpt><trkpt lat="48.45249986120369" lon="-1.0883616959060294"><ele>154.0</ele><time>2026-04-08T15:41:31Z</time></trkpt><trkpt lat="48.45263325328443" lon="-1.088266081334996"><ele>154.0</ele><time>2026-04-08T15:41:32Z</time></trkpt><trkpt lat="48.45277029206761" lon="-1.0881803601048068"><ele>154.0</ele><time>2026-04-08T15:41:33Z</time></trkpt><trkpt lat="48.452916189812065" lon="-1.0881152509606367"><ele>154.0</ele><time>2026-04-08T15:41:34Z</time></trkpt><trkpt lat="48.45306490983411" lon="-1.088064499518275"><ele>154.25</ele><time>2026-04-08T15:41:35Z</time></trkpt><trkpt lat="48.453212688128616" lon="-1.0880208151030633"><ele>154.5</ele><time>2026-04-08T15:41:36Z</time></trkpt><trkpt lat="48.45335573773713" lon="-1.0879791533313135"><ele>154.75</ele><time>2026-04-08T15:41:37Z</time></trkpt><trkpt lat="48.45349915886268" lon="-1.0879316014852758"><ele>155.0</ele><time>2026-04-08T15:41:38Z</time></trkpt><trkpt lat="48.453643620223716" lon="-1.0878842423427697"><ele>155.0</ele><time>2026-04-08T15:41:39Z</time></trkpt><trkpt lat="48.453784432459884" lon="-1.0878447569740775"><ele>155.0</ele><time>2026-04-08T15:41:40Z</time></trkpt><trkpt lat="48.45392164341726" lon="-1.087818975021054"><ele>155.0</ele><time>2026-04-08T15:41:41Z</time></trkpt><trkpt lat="48.454056157058986" lon="-1.0878042950759714"><ele>155.0</ele><time>2026-04-08T15:41:42Z</time></trkpt><trkpt lat="48.45419118780982" lon="-1.0878095151472398"><ele>155.5</ele><time>2026-04-08T15:41:43Z</time></trkpt><trkpt lat="48.454320877678356" lon="-1.087829347546342"><ele>156.0</ele><time>2026-04-08T15:41:44Z</time></trkpt><trkpt lat="48.454442251472955" lon="-1.087851527113768"><ele>156.5</ele><time>2026-04-08T15:41:45Z</time></trkpt><trkpt lat="48.45456273774989" lon="-1.0878795397251082"><ele>157.0</ele><time>2026-04-08T15:41:46Z</time></trkpt><trkpt lat="48.454685146825454" lon="-1.0878959560769497"><ele>156.0</ele><time>2026-04-08T15:41:47Z</time></trkpt><trkpt lat="48.45481295246583" lon="-1.0878924452031624"><ele>155.0</ele><time>2026-04-08T15:41:48Z</time></trkpt><trkpt lat="48.45494586647402" lon="-1.0878776956366076"><ele>154.0</ele><time>2026-04-08T15:41:49Z</time></trkpt><trkpt lat="48.45509042593466" lon="-1.087839376519059"><ele>153.0</ele><time>2026-04-08T15:41:50Z</time></trkpt><trkpt lat="48.455242887347076" lon="-1.0877716202706884"><ele>153.0</ele><time>2026-04-08T15:41:51Z</time></trkpt><trkpt lat="48.45540908763617" lon="-1.0877170201949418"><ele>153.0</ele><time>2026-04-08T15:41:52Z</time></trkpt><trkpt lat="48.45558912854601" lon="-1.0876854004146719"><ele>153.0</ele><time>2026-04-08T15:41:53Z</time></trkpt><trkpt lat="48.45576814009254" lon="-1.087625466513871"><ele>152.66666666666666</ele><time>2026-04-08T15:41:54Z</time></trkpt><trkpt lat="48.45593660167515" lon="-1.0875714978649482"><ele>152.33333333333331</ele><time>2026-04-08T15:41:55Z</time></trkpt><trkpt lat="48.45609952439939" lon="-1.087522376554795"><ele>152.0</ele><time>2026-04-08T15:41:56Z</time></trkpt><trkpt lat="48.45625452751523" lon="-1.087470392963621"><ele>151.0</ele><time>2026-04-08T15:41:57Z</time></trkpt><trkpt lat="48.45641301359236" lon="-1.0874118491763085"><ele>150.0</ele><time>2026-04-08T15:41:58Z</time></trkpt><trkpt lat="48.45657543689832" lon="-1.0873492979250574"><ele>149.0</ele><time>2026-04-08T15:41:59Z</time></trkpt><trkpt lat="48.45673927650719" lon="-1.0872848996937154"><ele>149.0</ele><time>2026-04-08T15:42:00Z</time></trkpt><trkpt lat="48.456906239361174" lon="-1.087211393346495"><ele>149.0</ele><time>2026-04-08T15:42:01Z</time></trkpt><trkpt lat="48.45707395910437" lon="-1.0871257637000673"><ele>149.0</ele><time>2026-04-08T15:42:02Z</time></trkpt><trkpt lat="48.45724559985758" lon="-1.0870325242689063"><ele>147.33333333333331</ele><time>2026-04-08T15:42:03Z</time></trkpt><trkpt lat="48.457414782732926" lon="-1.086939355071053"><ele>145.66666666666666</ele><time>2026-04-08T15:42:03.999Z</time></trkpt><trkpt lat="48.4575805253028" lon="-1.086848267757029"><ele>144.0</ele><time>2026-04-08T15:42:04.999Z</time></trkpt><trkpt lat="48.45774331610734" lon="-1.0867650639642856"><ele>144.0</ele><time>2026-04-08T15:42:05.999Z</time></trkpt><trkpt lat="48.457904674484524" lon="-1.0866924847606316"><ele>144.0</ele><time>2026-04-08T15:42:06.999Z</time></trkpt><trkpt lat="48.458065898698365" lon="-1.0866243081852287"><ele>144.0</ele><time>2026-04-08T15:42:07.999Z</time></trkpt><trkpt lat="48.4582243217527" lon="-1.0865638215364473"><ele>142.33333333333334</ele><time>2026-04-08T15:42:08.999Z</time></trkpt><trkpt lat="48.45837923212339" lon="-1.0865116620721378"><ele>140.66666666666669</ele><time>2026-04-08T15:42:09.999Z</time></trkpt><trkpt lat="48.45852984693585" lon="-1.0864543148349113"><ele>139.0</ele><time>2026-04-08T15:42:10.999Z</time></trkpt><trkpt lat="48.45867696780826" lon="-1.0863942671781768"><ele>138.0</ele><time>2026-04-08T15:42:11.999Z</time></trkpt><trkpt lat="48.458821829292084" lon="-1.0863297761284922"><ele>137.0</ele><time>2026-04-08T15:42:12.999Z</time></trkpt><trkpt lat="48.45896413354706" lon="-1.0862604944109746"><ele>136.0</ele><time>2026-04-08T15:42:13.999Z</time></trkpt><trkpt lat="48.45910511470551" lon="-1.0861851856770108"><ele>136.0</ele><time>2026-04-08T15:42:14.999Z</time></trkpt><trkpt lat="48.45924552090236" lon="-1.0861072314695948"><ele>136.0</ele><time>2026-04-08T15:42:15.999Z</time></trkpt><trkpt lat="48.459385917910424" lon="-1.0860499276299815"><ele>136.0</ele><time>2026-04-08T15:42:16.999Z</time></trkpt><trkpt lat="48.45953097022394" lon="-1.0860123194416844"><ele>136.0</ele><time>2026-04-08T15:42:17.999Z</time></trkpt><trkpt lat="48.459677847911436" lon="-1.085994371218592"><ele>135.0</ele><time>2026-04-08T15:42:18.999Z</time></trkpt><trkpt lat="48.45982479926417" lon="-1.0859828558255786"><ele>134.0</ele><time>2026-04-08T15:42:19.999Z</time></trkpt><trkpt lat="48.45997271380857" lon="-1.0859579196001694"><ele>133.0</ele><time>2026-04-08T15:42:20.999Z</time></trkpt><trkpt lat="48.46012018595903" lon="-1.0859167266065288"><ele>132.0</ele><time>2026-04-08T15:42:22Z</time></trkpt><trkpt lat="48.46026347475032" lon="-1.0858690903825292"><ele>132.0</ele><time>2026-04-08T15:42:23Z</time></trkpt><trkpt lat="48.460409138197555" lon="-1.0858320234283412"><ele>132.0</ele><time>2026-04-08T15:42:24Z</time></trkpt><trkpt lat="48.46055891841853" lon="-1.0857995230053705"><ele>132.0</ele><time>2026-04-08T15:42:25Z</time></trkpt><trkpt lat="48.46071341589404" lon="-1.0857830314373749"><ele>130.25</ele><time>2026-04-08T15:42:26Z</time></trkpt><trkpt lat="48.46086254278301" lon="-1.0857775393476352"><ele>128.5</ele><time>2026-04-08T15:42:27Z</time></trkpt><trkpt lat="48.461010109831214" lon="-1.0857620929795706"><ele>126.75</ele><time>2026-04-08T15:42:28Z</time></trkpt><trkpt lat="48.461156312866414" lon="-1.0857441402711852"><ele>125.0</ele><time>2026-04-08T15:42:29Z</time></trkpt><trkpt lat="48.4613004930687" lon="-1.0857325898152443"><ele>124.25</ele><time>2026-04-08T15:42:30Z</time></trkpt><trkpt lat="48.461445002751454" lon="-1.0857187257981857"><ele>123.5</ele><time>2026-04-08T15:42:31Z</time></trkpt><trkpt lat="48.46158615693997" lon="-1.085706860206855"><ele>122.75</ele><time>2026-04-08T15:42:32Z</time></trkpt><trkpt lat="48.46172179057588" lon="-1.0856960619474483"><ele>122.0</ele><time>2026-04-08T15:42:33Z</time></trkpt><trkpt lat="48.461845905385616" lon="-1.0856769531835833"><ele>122.0</ele><time>2026-04-08T15:42:34Z</time></trkpt><trkpt lat="48.46195820560867" lon="-1.0856590176619496"><ele>122.0</ele><time>2026-04-08T15:42:35Z</time></trkpt><trkpt lat="48.462072055789655" lon="-1.0856415599652731"><ele>122.0</ele><time>2026-04-08T15:42:36Z</time></trkpt><trkpt lat="48.46218324875461" lon="-1.085616805698202"><ele>122.0</ele><time>2026-04-08T15:42:37Z</time></trkpt><trkpt lat="48.46228797705511" lon="-1.0855647926300642"><ele>121.6</ele><time>2026-04-08T15:42:38Z</time></trkpt><trkpt lat="48.462376891344874" lon="-1.0854569206021552"><ele>121.19999999999999</ele><time>2026-04-08T15:42:39Z</time></trkpt><trkpt lat="48.462458788206" lon="-1.085347291784776"><ele>120.8</ele><time>2026-04-08T15:42:40Z</time></trkpt><trkpt lat="48.462531645784814" lon="-1.0852265306711524"><ele>120.4</ele><time>2026-04-08T15:42:41Z</time></trkpt><trkpt lat="48.462603410107086" lon="-1.0850863493934788"><ele>120.0</ele><time>2026-04-08T15:42:42Z</time></trkpt><trkpt lat="48.46266733796969" lon="-1.0849586825112127"><ele>120.83333333333333</ele><time>2026-04-08T15:42:43Z</time></trkpt><trkpt lat="48.46272716851375" lon="-1.084840041923583"><ele>121.66666666666666</ele><time>2026-04-08T15:42:44Z</time></trkpt><trkpt lat="48.462783546676334" lon="-1.084728246800811"><ele>122.5</ele><time>2026-04-08T15:42:45Z</time></trkpt><trkpt lat="48.462835943943716" lon="-1.084621915630043"><ele>123.33333333333333</ele><time>2026-04-08T15:42:46Z</time></trkpt><trkpt lat="48.462873938670924" lon="-1.0845377505164417"><ele>124.16666666666666</ele><time>2026-04-08T15:42:47Z</time></trkpt><trkpt lat="48.46291475230685" lon="-1.084434546042105"><ele>125.0</ele><time>2026-04-08T15:42:49Z</time></trkpt><trkpt lat="48.46294640229938" lon="-1.0843312268262926"><ele>125.0</ele><time>2026-04-08T15:43:02Z</time></trkpt><trkpt lat="48.462914415362455" lon="-1.0844391949122434"><ele>125.0</ele><time>2026-04-08T15:43:10Z</time></trkpt><trkpt lat="48.46284893071668" lon="-1.084595540097065"><ele>125.0</ele><time>2026-04-08T15:43:12Z</time></trkpt><trkpt lat="48.46279975483753" lon="-1.0846969263344957"><ele>125.0</ele><time>2026-04-08T15:43:13Z</time></trkpt><trkpt lat="48.462713433533466" lon="-1.0849208278184233"><ele>123.75</ele><time>2026-04-08T15:43:14Z</time></trkpt><trkpt lat="48.4626342864853" lon="-1.0850530793706565"><ele>122.5</ele><time>2026-04-08T15:43:15Z</time></trkpt><trkpt lat="48.4625566508189" lon="-1.0851807766162362"><ele>121.25</ele><time>2026-04-08T15:43:16Z</time></trkpt><trkpt lat="48.46248148533463" lon="-1.0853188671532776"><ele>120.0</ele><time>2026-04-08T15:43:17Z</time></trkpt><trkpt lat="48.46239849787952" lon="-1.08544258809347"><ele>120.0</ele><time>2026-04-08T15:43:18Z</time></trkpt><trkpt lat="48.46231628161045" lon="-1.0855341583021927"><ele>120.0</ele><time>2026-04-08T15:43:19Z</time></trkpt><trkpt lat="48.46222075360023" lon="-1.085601830798715"><ele>120.0</ele><time>2026-04-08T15:43:20Z</time></trkpt><trkpt lat="48.462116772065436" lon="-1.0856399542902053"><ele>120.0</ele><time>2026-04-08T15:43:21Z</time></trkpt><trkpt lat="48.46200051617661" lon="-1.0856571635234367"><ele>120.0</ele><time>2026-04-08T15:43:22Z</time></trkpt><trkpt lat="48.461874533452736" lon="-1.085667378168821"><ele>120.5</ele><time>2026-04-08T15:43:23Z</time></trkpt><trkpt lat="48.46173627846674" lon="-1.085674735300986"><ele>121.0</ele><time>2026-04-08T15:43:24Z</time></trkpt><trkpt lat="48.461593972140385" lon="-1.0856868720853938"><ele>121.5</ele><time>2026-04-08T15:43:25Z</time></trkpt><trkpt lat="48.46144331145194" lon="-1.0857052755834955"><ele>122.0</ele><time>2026-04-08T15:43:26Z</time></trkpt><trkpt lat="48.46130058850857" lon="-1.0857235845089925"><ele>121.33333333333333</ele><time>2026-04-08T15:43:27Z</time></trkpt><trkpt lat="48.461151640224834" lon="-1.0857352985847228"><ele>120.66666666666666</ele><time>2026-04-08T15:43:28Z</time></trkpt><trkpt lat="48.461000683929946" lon="-1.085753445319554"><ele>120.0</ele><time>2026-04-08T15:43:29Z</time></trkpt><trkpt lat="48.46084736071149" lon="-1.085822188127553"><ele>121.66666666666666</ele><time>2026-04-08T15:43:30Z</time></trkpt><trkpt lat="48.460686241694184" lon="-1.0858353522472617"><ele>123.33333333333333</ele><time>2026-04-08T15:43:31Z</time></trkpt><trkpt lat="48.460521933098164" lon="-1.08584978082418"><ele>125.0</ele><time>2026-04-08T15:43:32Z</time></trkpt><trkpt lat="48.460354989721445" lon="-1.0858885687943267"><ele>127.33333333333333</ele><time>2026-04-08T15:43:33Z</time></trkpt><trkpt lat="48.46018736871333" lon="-1.085939560247592"><ele>129.66666666666666</ele><time>2026-04-08T15:43:34Z</time></trkpt><trkpt lat="48.46003147219264" lon="-1.0859839800693045"><ele>132.0</ele><time>2026-04-08T15:43:35Z</time></trkpt><trkpt lat="48.45987519223693" lon="-1.0860089361750402"><ele>132.0</ele><time>2026-04-08T15:43:36Z</time></trkpt><trkpt lat="48.45971837660108" lon="-1.0860224836116026"><ele>132.0</ele><time>2026-04-08T15:43:37Z</time></trkpt><trkpt lat="48.45956478805456" lon="-1.086042998062678"><ele>132.0</ele><time>2026-04-08T15:43:38Z</time></trkpt><trkpt lat="48.459414235968524" lon="-1.086073878567068"><ele>133.33333333333334</ele><time>2026-04-08T15:43:39Z</time></trkpt><trkpt lat="48.459266008173934" lon="-1.0861336488118443"><ele>134.66666666666669</ele><time>2026-04-08T15:43:40Z</time></trkpt><trkpt lat="48.45911661181027" lon="-1.0862244889633634"><ele>136.0</ele><time>2026-04-08T15:43:41Z</time></trkpt><trkpt lat="48.45895715591026" lon="-1.0863163839259544"><ele>136.0</ele><time>2026-04-08T15:43:42Z</time></trkpt><trkpt lat="48.45879051601055" lon="-1.0863945143758191"><ele>136.0</ele><time>2026-04-08T15:43:43Z</time></trkpt><trkpt lat="48.45861597416586" lon="-1.0864626836990985"><ele>136.0</ele><time>2026-04-08T15:43:44Z</time></trkpt><trkpt lat="48.45843903646341" lon="-1.0865266202586144"><ele>136.66666666666669</ele><time>2026-04-08T15:43:45Z</time></trkpt><trkpt lat="48.458262713972005" lon="-1.0865921772358613"><ele>137.33333333333334</ele><time>2026-04-08T15:43:46Z</time></trkpt><trkpt lat="48.45808398648707" lon="-1.0866598958926796"><ele>138.0</ele><time>2026-04-08T15:43:47Z</time></trkpt><trkpt lat="48.45790476414847" lon="-1.0867334471599366"><ele>140.0</ele><time>2026-04-08T15:43:48Z</time></trkpt><trkpt lat="48.45772825655204" lon="-1.08681370178451"><ele>142.0</ele><time>2026-04-08T15:43:49Z</time></trkpt><trkpt lat="48.45755156965006" lon="-1.0869031473856092"><ele>144.0</ele><time>2026-04-08T15:43:50Z</time></trkpt><trkpt lat="48.45738212326644" lon="-1.086995388414425"><ele>144.0</ele><time>2026-04-08T15:43:51Z</time></trkpt><trkpt lat="48.45721964725518" lon="-1.087086533138052"><ele>144.0</ele><time>2026-04-08T15:43:52Z</time></trkpt><trkpt lat="48.45705628541059" lon="-1.087178547611494"><ele>144.0</ele><time>2026-04-08T15:43:53Z</time></trkpt><trkpt lat="48.4568894924218" lon="-1.0872421590910484"><ele>145.66666666666666</ele><time>2026-04-08T15:43:54Z</time></trkpt><trkpt lat="48.45672720211954" lon="-1.0873140599554505"><ele>147.33333333333331</ele><time>2026-04-08T15:43:55Z</time></trkpt><trkpt lat="48.456569969729024" lon="-1.0873996460253645"><ele>149.0</ele><time>2026-04-08T15:43:56Z</time></trkpt><trkpt lat="48.4564051175548" lon="-1.0874353569168662"><ele>150.0</ele><time>2026-04-08T15:43:57Z</time></trkpt><trkpt lat="48.45623764686539" lon="-1.0874909650537372"><ele>151.0</ele><time>2026-04-08T15:43:58Z</time></trkpt><trkpt lat="48.45607089329616" lon="-1.0875667670334037"><ele>152.0</ele><time>2026-04-08T15:43:59Z</time></trkpt><trkpt lat="48.455898280944844" lon="-1.087620591096707"><ele>152.0</ele><time>2026-04-08T15:44:00Z</time></trkpt><trkpt lat="48.45572394508585" lon="-1.0876731516041633"><ele>152.0</ele><time>2026-04-08T15:44:01Z</time></trkpt><trkpt lat="48.455558109552975" lon="-1.087722677202965"><ele>152.0</ele><time>2026-04-08T15:44:02Z</time></trkpt><trkpt lat="48.455397249251206" lon="-1.0877573439150814"><ele>152.33333333333331</ele><time>2026-04-08T15:44:03Z</time></trkpt><trkpt lat="48.455243739210275" lon="-1.0878174226096315"><ele>152.66666666666666</ele><time>2026-04-08T15:44:04Z</time></trkpt><trkpt lat="48.45509859628124" lon="-1.0878804851699155"><ele>153.0</ele><time>2026-04-08T15:44:05Z</time></trkpt><trkpt lat="48.45495620279513" lon="-1.0879265966270757"><ele>153.0</ele><time>2026-04-08T15:44:06Z</time></trkpt><trkpt lat="48.454825408882115" lon="-1.0879499574490001"><ele>153.0</ele><time>2026-04-08T15:44:07Z</time></trkpt><trkpt lat="48.45469958574648" lon="-1.0879576100111439"><ele>153.0</ele><time>2026-04-08T15:44:08Z</time></trkpt><trkpt lat="48.45458053225142" lon="-1.0879493712029367"><ele>153.0</ele><time>2026-04-08T15:44:09Z</time></trkpt><trkpt lat="48.45446386037385" lon="-1.0879195393613499"><ele>154.0</ele><time>2026-04-08T15:44:09.999Z</time></trkpt><trkpt lat="48.45433772037522" lon="-1.087886407148369"><ele>155.0</ele><time>2026-04-08T15:44:10.999Z</time></trkpt><trkpt lat="48.45420282036731" lon="-1.0878635588207166"><ele>156.0</ele><time>2026-04-08T15:44:11.999Z</time></trkpt><trkpt lat="48.45406266699209" lon="-1.0878550980343547"><ele>157.0</ele><time>2026-04-08T15:44:12.999Z</time></trkpt><trkpt lat="48.45391458965459" lon="-1.0878589913276588"><ele>156.33333333333334</ele><time>2026-04-08T15:44:13.999Z</time></trkpt><trkpt lat="48.45376165494609" lon="-1.0878832677364623"><ele>155.66666666666666</ele><time>2026-04-08T15:44:14.999Z</time></trkpt><trkpt lat="48.453605062928354" lon="-1.0879299217899137"><ele>155.0</ele><time>2026-04-08T15:44:15.999Z</time></trkpt><trkpt lat="48.45344638895914" lon="-1.0879799575576192"><ele>155.0</ele><time>2026-04-08T15:44:16.999Z</time></trkpt><trkpt lat="48.4532898733244" lon="-1.0880283404275282"><ele>155.0</ele><time>2026-04-08T15:44:17.999Z</time></trkpt><trkpt lat="48.45313531418219" lon="-1.088072548981806"><ele>155.0</ele><time>2026-04-08T15:44:18.999Z</time></trkpt><trkpt lat="48.45298710166004" lon="-1.0881152735525421"><ele>154.75</ele><time>2026-04-08T15:44:19.999Z</time></trkpt><trkpt lat="48.45284556796212" lon="-1.088165193196997"><ele>154.5</ele><time>2026-04-08T15:44:20.999Z</time></trkpt><trkpt lat="48.45271408733492" lon="-1.0882330766705925"><ele>154.25</ele><time>2026-04-08T15:44:21.999Z</time></trkpt><trkpt lat="48.45259130831059" lon="-1.0883155878353579"><ele>154.0</ele><time>2026-04-08T15:44:22.999Z</time></trkpt><trkpt lat="48.45247553350244" lon="-1.0884229821732718"><ele>154.0</ele><time>2026-04-08T15:44:23.999Z</time></trkpt><trkpt lat="48.45234003248086" lon="-1.0884957013930108"><ele>154.0</ele><time>2026-04-08T15:44:24.999Z</time></trkpt><trkpt lat="48.45219130900175" lon="-1.0885298272887938"><ele>154.0</ele><time>2026-04-08T15:44:25.999Z</time></trkpt><trkpt lat="48.45203592985226" lon="-1.0885554145592746"><ele>154.0</ele><time>2026-04-08T15:44:26.999Z</time></trkpt><trkpt lat="48.451878087203035" lon="-1.08857539652571"><ele>154.0</ele><time>2026-04-08T15:44:27.999Z</time></trkpt><trkpt lat="48.45171511014812" lon="-1.0886024384909205"><ele>154.0</ele><time>2026-04-08T15:44:28.999Z</time></trkpt><trkpt lat="48.45155020584513" lon="-1.0886503573031887"><ele>154.0</ele><time>2026-04-08T15:44:30Z</time></trkpt><trkpt lat="48.451388001429954" lon="-1.088711176174297"><ele>154.0</ele><time>2026-04-08T15:44:31Z</time></trkpt><trkpt lat="48.451244211050366" lon="-1.0888143728389788"><ele>154.0</ele><time>2026-04-08T15:44:32Z</time></trkpt><trkpt lat="48.45109782386828" lon="-1.0888784689905915"><ele>154.0</ele><time>2026-04-08T15:44:33Z</time></trkpt><trkpt lat="48.450953485623344" lon="-1.0889311223545426"><ele>154.0</ele><time>2026-04-08T15:44:34Z</time></trkpt><trkpt lat="48.45081461499862" lon="-1.0889750917020247"><ele>154.0</ele><time>2026-04-08T15:44:35Z</time></trkpt><trkpt lat="48.45067752998332" lon="-1.0889922530902163"><ele>154.0</ele><time>2026-04-08T15:44:36Z</time></trkpt><trkpt lat="48.4505701130254" lon="-1.0890298323372403"><ele>154.0</ele><time>2026-04-08T15:44:37Z</time></trkpt><trkpt lat="48.450468439412305" lon="-1.0890659553673112"><ele>154.0</ele><time>2026-04-08T15:44:38Z</time></trkpt><trkpt lat="48.450368971049215" lon="-1.0891130822612298"><ele>154.0</ele><time>2026-04-08T15:44:39Z</time></trkpt><trkpt lat="48.450274563624305" lon="-1.0891887225912764"><ele>154.0</ele><time>2026-04-08T15:44:40Z</time></trkpt><trkpt lat="48.450186735227945" lon="-1.0892944893124543"><ele>154.0</ele><time>2026-04-08T15:44:41Z</time></trkpt><trkpt lat="48.45009976238594" lon="-1.0894142417864667"><ele>153.75</ele><time>2026-04-08T15:44:42Z</time></trkpt><trkpt lat="48.45001184809181" lon="-1.089554908912609"><ele>153.5</ele><time>2026-04-08T15:44:43Z</time></trkpt><trkpt lat="48.44991988892322" lon="-1.0897143337849187"><ele>153.25</ele><time>2026-04-08T15:44:44Z</time></trkpt><trkpt lat="48.44982479813745" lon="-1.089875353317456"><ele>153.0</ele><time>2026-04-08T15:44:45Z</time></trkpt><trkpt lat="48.44972833593206" lon="-1.0900225021009788"><ele>152.75</ele><time>2026-04-08T15:44:46Z</time></trkpt><trkpt lat="48.449631813160174" lon="-1.0901627648669643"><ele>152.5</ele><time>2026-04-08T15:44:47Z</time></trkpt><trkpt lat="48.44953367944835" lon="-1.0903054418068674"><ele>152.25</ele><time>2026-04-08T15:44:48Z</time></trkpt><trkpt lat="48.44943125327502" lon="-1.0904425956475154"><ele>152.0</ele><time>2026-04-08T15:44:49Z</time></trkpt><trkpt lat="48.449326800852276" lon="-1.0905788211245815"><ele>152.0</ele><time>2026-04-08T15:44:50Z</time></trkpt><trkpt lat="48.449221448333965" lon="-1.0907197689258623"><ele>152.0</ele><time>2026-04-08T15:44:51Z</time></trkpt><trkpt lat="48.44911128477376" lon="-1.0908615106099582"><ele>152.0</ele><time>2026-04-08T15:44:52Z</time></trkpt><trkpt lat="48.44899570530172" lon="-1.0910051763951958"><ele>152.0</ele><time>2026-04-08T15:44:53Z</time></trkpt><trkpt lat="48.448878758477434" lon="-1.0911531659032225"><ele>151.33333333333331</ele><time>2026-04-08T15:44:54Z</time></trkpt><trkpt lat="48.44876028028509" lon="-1.0913065086791418"><ele>150.66666666666666</ele><time>2026-04-08T15:44:55Z</time></trkpt><trkpt lat="48.448636447932834" lon="-1.091457890362701"><ele>150.0</ele><time>2026-04-08T15:44:56Z</time></trkpt><trkpt lat="48.448516794279485" lon="-1.091623379984086"><ele>149.0</ele><time>2026-04-08T15:44:57Z</time></trkpt><trkpt lat="48.44839212479401" lon="-1.0917927979343822"><ele>148.0</ele><time>2026-04-08T15:44:58Z</time></trkpt><trkpt lat="48.44826814122549" lon="-1.0919555226281428"><ele>147.0</ele><time>2026-04-08T15:44:59Z</time></trkpt><trkpt lat="48.44814497999761" lon="-1.092121950208856"><ele>147.0</ele><time>2026-04-08T15:45:00Z</time></trkpt><trkpt lat="48.44802717115372" lon="-1.0922929753602388"><ele>147.0</ele><time>2026-04-08T15:45:01Z</time></trkpt><trkpt lat="48.44791043879973" lon="-1.0924680845216594"><ele>147.0</ele><time>2026-04-08T15:45:02Z</time></trkpt><trkpt lat="48.447804712732705" lon="-1.0926451690673005"><ele>147.0</ele><time>2026-04-08T15:45:03Z</time></trkpt><trkpt lat="48.447702166064" lon="-1.0928195672968102"><ele>147.0</ele><time>2026-04-08T15:45:04Z</time></trkpt><trkpt lat="48.44760734545722" lon="-1.0929980956283054"><ele>147.0</ele><time>2026-04-08T15:45:05Z</time></trkpt><trkpt lat="48.44752142225356" lon="-1.0931906189523866"><ele>147.0</ele><time>2026-04-08T15:45:06Z</time></trkpt><trkpt lat="48.447445604408315" lon="-1.0933901368843002"><ele>147.0</ele><time>2026-04-08T15:45:07Z</time></trkpt><trkpt lat="48.44737078166903" lon="-1.0935898726519178"><ele>147.0</ele><time>2026-04-08T15:45:08Z</time></trkpt><trkpt lat="48.447295284248966" lon="-1.0937920485845198"><ele>147.0</ele><time>2026-04-08T15:45:09Z</time></trkpt><trkpt lat="48.447204564190244" lon="-1.0939761584410852"><ele>147.0</ele><time>2026-04-08T15:45:10Z</time></trkpt><trkpt lat="48.44712062142748" lon="-1.094157941312714"><ele>147.0</ele><time>2026-04-08T15:45:11Z</time></trkpt><trkpt lat="48.44705082340231" lon="-1.0943434192031503"><ele>147.0</ele><time>2026-04-08T15:45:12Z</time></trkpt><trkpt lat="48.446994962885746" lon="-1.0945373194663328"><ele>147.75</ele><time>2026-04-08T15:45:13Z</time></trkpt><trkpt lat="48.4469407191588" lon="-1.0947355064937743"><ele>148.5</ele><time>2026-04-08T15:45:14Z</time></trkpt><trkpt lat="48.446885612206664" lon="-1.0949382499084168"><ele>149.25</ele><time>2026-04-08T15:45:15Z</time></trkpt><trkpt lat="48.44682311212696" lon="-1.0951435072200368"><ele>150.0</ele><time>2026-04-08T15:45:16Z</time></trkpt><trkpt lat="48.446757394233074" lon="-1.0953494870363998"><ele>150.66666666666666</ele><time>2026-04-08T15:45:17Z</time></trkpt><trkpt lat="48.44669236682219" lon="-1.0955533029083293"><ele>151.33333333333331</ele><time>2026-04-08T15:45:18Z</time></trkpt><trkpt lat="48.44662726566453" lon="-1.095757349811375"><ele>152.0</ele><time>2026-04-08T15:45:19Z</time></trkpt><trkpt lat="48.44656242739778" lon="-1.0959607771921536"><ele>153.0</ele><time>2026-04-08T15:45:20Z</time></trkpt><trkpt lat="48.446498877105505" lon="-1.096163902949694"><ele>154.0</ele><time>2026-04-08T15:45:21Z</time></trkpt><trkpt lat="48.44643855823517" lon="-1.096368843209153"><ele>155.0</ele><time>2026-04-08T15:45:22Z</time></trkpt><trkpt lat="48.44638566373465" lon="-1.0965799912051986"><ele>156.0</ele><time>2026-04-08T15:45:23Z</time></trkpt><trkpt lat="48.44634320859059" lon="-1.0967970183510727"><ele>156.0</ele><time>2026-04-08T15:45:24Z</time></trkpt><trkpt lat="48.44630630613383" lon="-1.0970282248402452"><ele>156.0</ele><time>2026-04-08T15:45:25Z</time></trkpt><trkpt lat="48.446277676289775" lon="-1.097263980069885"><ele>156.0</ele><time>2026-04-08T15:45:26Z</time></trkpt><trkpt lat="48.446256885165276" lon="-1.0975031944010474"><ele>156.0</ele><time>2026-04-08T15:45:27Z</time></trkpt><trkpt lat="48.446238577905305" lon="-1.0977504677573302"><ele>156.0</ele><time>2026-04-08T15:45:28Z</time></trkpt><trkpt lat="48.4462218417898" lon="-1.0980021884868432"><ele>156.0</ele><time>2026-04-08T15:45:29Z</time></trkpt><trkpt lat="48.446206108187475" lon="-1.098258241121007"><ele>155.66666666666666</ele><time>2026-04-08T15:45:30Z</time></trkpt><trkpt lat="48.44619217559751" lon="-1.0985138529021503"><ele>155.33333333333331</ele><time>2026-04-08T15:45:31Z</time></trkpt><trkpt lat="48.44617919114323" lon="-1.0987618949119993"><ele>155.0</ele><time>2026-04-08T15:45:32Z</time></trkpt><trkpt lat="48.44616684100863" lon="-1.0990074512667891"><ele>155.75</ele><time>2026-04-08T15:45:33Z</time></trkpt><trkpt lat="48.44615526614178" lon="-1.0992375932567198"><ele>156.5</ele><time>2026-04-08T15:45:34Z</time></trkpt><trkpt lat="48.44614431674965" lon="-1.099455298943181"><ele>157.25</ele><time>2026-04-08T15:45:35Z</time></trkpt><trkpt lat="48.44613772176137" lon="-1.0996678293782385"><ele>158.0</ele><time>2026-04-08T15:45:36Z</time></trkpt><trkpt lat="48.44613244618358" lon="-1.099876177679301"><ele>158.0</ele><time>2026-04-08T15:45:37Z</time></trkpt><trkpt lat="48.44613387071231" lon="-1.1000749397286904"><ele>158.0</ele><time>2026-04-08T15:45:38Z</time></trkpt><trkpt lat="48.44614114342253" lon="-1.1002784408390172"><ele>158.0</ele><time>2026-04-08T15:45:39Z</time></trkpt><trkpt lat="48.44613410767075" lon="-1.1004750965798196"><ele>158.0</ele><time>2026-04-08T15:45:40Z</time></trkpt><trkpt lat="48.44613866829856" lon="-1.1006601542649586"><ele>157.8</ele><time>2026-04-08T15:45:41Z</time></trkpt><trkpt lat="48.44612986786522" lon="-1.1008246868289078"><ele>157.60000000000002</ele><time>2026-04-08T15:45:42Z</time></trkpt><trkpt lat="48.446108606983124" lon="-1.1009826470190398"><ele>157.39999999999998</ele><time>2026-04-08T15:45:43Z</time></trkpt><trkpt lat="48.44607098748546" lon="-1.1011393320973961"><ele>157.2</ele><time>2026-04-08T15:45:44Z</time></trkpt><trkpt lat="48.445994493418205" lon="-1.101256881933001"><ele>157.0</ele><time>2026-04-08T15:45:45Z</time></trkpt><trkpt lat="48.44591522184791" lon="-1.1013812834375158"><ele>157.0</ele><time>2026-04-08T15:45:46Z</time></trkpt><trkpt lat="48.44582381813453" lon="-1.1015131937320077"><ele>157.0</ele><time>2026-04-08T15:45:47Z</time></trkpt><trkpt lat="48.44573556728245" lon="-1.1016422666684706"><ele>157.0</ele><time>2026-04-08T15:45:48Z</time></trkpt><trkpt lat="48.445647872659315" lon="-1.1017716737023922"><ele>157.0</ele><time>2026-04-08T15:45:49Z</time></trkpt><trkpt lat="48.445559091063465" lon="-1.1019028173431302"><ele>157.0</ele><time>2026-04-08T15:45:50Z</time></trkpt><trkpt lat="48.44546541239574" lon="-1.1020416166395526"><ele>157.0</ele><time>2026-04-08T15:45:51Z</time></trkpt><trkpt lat="48.445374658071096" lon="-1.1021825990105003"><ele>157.0</ele><time>2026-04-08T15:45:52Z</time></trkpt><trkpt lat="48.445292294370915" lon="-1.1023399620361822"><ele>157.0</ele><time>2026-04-08T15:45:53Z</time></trkpt><trkpt lat="48.44520767324915" lon="-1.102482474090248"><ele>159.5</ele><time>2026-04-08T15:45:54Z</time></trkpt><trkpt lat="48.44511154147852" lon="-1.1026185258310235"><ele>162.0</ele><time>2026-04-08T15:45:55Z</time></trkpt><trkpt lat="48.445022253501904" lon="-1.1027612580119126"><ele>164.5</ele><time>2026-04-08T15:45:56Z</time></trkpt><trkpt lat="48.444947454467275" lon="-1.1028923943693414"><ele>167.0</ele><time>2026-04-08T15:45:57Z</time></trkpt><trkpt lat="48.444883177718445" lon="-1.1030132648569873"><ele>167.0</ele><time>2026-04-08T15:45:58Z</time></trkpt><trkpt lat="48.44482146945577" lon="-1.1031286934396425"><ele>167.0</ele><time>2026-04-08T15:45:59Z</time></trkpt><trkpt lat="48.44476254971229" lon="-1.103250307082614"><ele>167.0</ele><time>2026-04-08T15:46:00Z</time></trkpt><trkpt lat="48.444709877429375" lon="-1.1033788660723833"><ele>167.0</ele><time>2026-04-08T15:46:01Z</time></trkpt><trkpt lat="48.44468272233455" lon="-1.1035281348931318"><ele>167.0</ele><time>2026-04-08T15:46:02Z</time></trkpt><trkpt lat="48.444647116583205" lon="-1.1036559904181216"><ele>168.0</ele><time>2026-04-08T15:46:03Z</time></trkpt><trkpt lat="48.44462200469243" lon="-1.1037745578985314"><ele>169.0</ele><time>2026-04-08T15:46:04Z</time></trkpt><trkpt lat="48.44460232664403" lon="-1.1039002277967984"><ele>170.0</ele><time>2026-04-08T15:46:05Z</time></trkpt><trkpt lat="48.44460013638082" lon="-1.1040205469396738"><ele>171.0</ele><time>2026-04-08T15:46:06Z</time></trkpt><trkpt lat="48.44460588419071" lon="-1.1041481562272006"><ele>172.0</ele><time>2026-04-08T15:46:07Z</time></trkpt><trkpt lat="48.44461192938765" lon="-1.104277450243704"><ele>173.0</ele><time>2026-04-08T15:46:08Z</time></trkpt><trkpt lat="48.444617191489485" lon="-1.1044130727096735"><ele>173.66666666666666</ele><time>2026-04-08T15:46:09Z</time></trkpt><trkpt lat="48.44462205793463" lon="-1.1045502906256066"><ele>174.33333333333331</ele><time>2026-04-08T15:46:10Z</time></trkpt><trkpt lat="48.44461779578481" lon="-1.1046815921551492"><ele>175.0</ele><time>2026-04-08T15:46:11Z</time></trkpt><trkpt lat="48.44460795525657" lon="-1.1048067325673627"><ele>175.66666666666666</ele><time>2026-04-08T15:46:12Z</time></trkpt><trkpt lat="48.44459332676868" lon="-1.1049228232657577"><ele>176.33333333333334</ele><time>2026-04-08T15:46:13Z</time></trkpt><trkpt lat="48.44457372532857" lon="-1.1050360171187843"><ele>177.0</ele><time>2026-04-08T15:46:14Z</time></trkpt><trkpt lat="48.44455530893831" lon="-1.105137880674754"><ele>177.0</ele><time>2026-04-08T15:46:15Z</time></trkpt><trkpt lat="48.444507004238666" lon="-1.1052308651948042"><ele>177.0</ele><time>2026-04-08T15:46:16Z</time></trkpt><trkpt lat="48.44445701174189" lon="-1.105304825712053"><ele>177.0</ele><time>2026-04-08T15:46:17Z</time></trkpt><trkpt lat="48.444399528322" lon="-1.1053563027644686"><ele>177.0</ele><time>2026-04-08T15:46:18Z</time></trkpt><trkpt lat="48.44429336012745" lon="-1.1054007142688511"><ele>177.0</ele><time>2026-04-08T15:46:20Z</time></trkpt><trkpt lat="48.44420930684503" lon="-1.1054741772012968"><ele>177.0</ele><time>2026-04-08T15:46:22Z</time></trkpt><trkpt lat="48.44419478943751" lon="-1.1056009797240827"><ele>176.8</ele><time>2026-04-08T15:46:24Z</time></trkpt><trkpt lat="48.444227808451835" lon="-1.1057844555288137"><ele>176.6</ele><time>2026-04-08T15:46:26Z</time></trkpt><trkpt lat="48.44423846053016" lon="-1.1058873680330077"><ele>176.4</ele><time>2026-04-08T15:46:27Z</time></trkpt><trkpt lat="48.444249641716056" lon="-1.10599701623852"><ele>176.20000000000002</ele><time>2026-04-08T15:46:28Z</time></trkpt><trkpt lat="48.444382696631486" lon="-1.1061397952301324"><ele>176.0</ele><time>2026-04-08T15:46:30Z</time></trkpt><trkpt lat="48.44443644430934" lon="-1.1062365326198422"><ele>176.0</ele><time>2026-04-08T15:46:31Z</time></trkpt><trkpt lat="48.44449992792098" lon="-1.1063465656748728"><ele>176.0</ele><time>2026-04-08T15:46:32Z</time></trkpt><trkpt lat="48.44457151759747" lon="-1.1064630217394575"><ele>176.0</ele><time>2026-04-08T15:46:33Z</time></trkpt><trkpt lat="48.444647722429465" lon="-1.1065834966439427"><ele>176.0</ele><time>2026-04-08T15:46:34Z</time></trkpt><trkpt lat="48.444694880441205" lon="-1.106750552543848"><ele>176.0</ele><time>2026-04-08T15:46:35Z</time></trkpt><trkpt lat="48.44477715513028" lon="-1.106863724395863"><ele>174.5</ele><time>2026-04-08T15:46:36Z</time></trkpt><trkpt lat="48.44486359826787" lon="-1.1069772538378222"><ele>173.0</ele><time>2026-04-08T15:46:37Z</time></trkpt><trkpt lat="48.44495574185091" lon="-1.1070864091326353"><ele>171.5</ele><time>2026-04-08T15:46:38Z</time></trkpt><trkpt lat="48.44505376968899" lon="-1.1071886837591227"><ele>170.0</ele><time>2026-04-08T15:46:39Z</time></trkpt><trkpt lat="48.44518365097669" lon="-1.1072138535372398"><ele>170.0</ele><time>2026-04-08T15:46:40Z</time></trkpt><trkpt lat="48.44528406599665" lon="-1.1073090978729616"><ele>170.0</ele><time>2026-04-08T15:46:41Z</time></trkpt><trkpt lat="48.445388697576746" lon="-1.107404700309262"><ele>170.0</ele><time>2026-04-08T15:46:42Z</time></trkpt><trkpt lat="48.44549321741725" lon="-1.107496432268974"><ele>170.0</ele><time>2026-04-08T15:46:43Z</time></trkpt><trkpt lat="48.445599948732365" lon="-1.1075898778865008"><ele>168.2</ele><time>2026-04-08T15:46:44Z</time></trkpt><trkpt lat="48.44570316008482" lon="-1.1076754399265758"><ele>166.4</ele><time>2026-04-08T15:46:45Z</time></trkpt><trkpt lat="48.44580155590334" lon="-1.1077532477555811"><ele>164.60000000000002</ele><time>2026-04-08T15:46:46Z</time></trkpt><trkpt lat="48.445892503882185" lon="-1.1078247777460903"><ele>162.8</ele><time>2026-04-08T15:46:47Z</time></trkpt><trkpt lat="48.44598281113343" lon="-1.1078981098190046"><ele>161.0</ele><time>2026-04-08T15:46:48Z</time></trkpt><trkpt lat="48.44605743602485" lon="-1.1079637831100613"><ele>161.0</ele><time>2026-04-08T15:46:49Z</time></trkpt><trkpt lat="48.44612299945035" lon="-1.1080322045992375"><ele>161.0</ele><time>2026-04-08T15:46:50Z</time></trkpt><trkpt lat="48.44620907777229" lon="-1.1080188343596358"><ele>161.0</ele><time>2026-04-08T15:46:51Z</time></trkpt><trkpt lat="48.44629379372865" lon="-1.107957438922651"><ele>161.0</ele><time>2026-04-08T15:46:52Z</time></trkpt><trkpt lat="48.44637921727334" lon="-1.10791906009065"><ele>161.0</ele><time>2026-04-08T15:46:53Z</time></trkpt><trkpt lat="48.446479152323874" lon="-1.107859242743506"><ele>158.75</ele><time>2026-04-08T15:46:54Z</time></trkpt><trkpt lat="48.44659029205623" lon="-1.1077774256721757"><ele>156.5</ele><time>2026-04-08T15:46:55Z</time></trkpt><trkpt lat="48.446706290636506" lon="-1.1076960341793796"><ele>154.25</ele><time>2026-04-08T15:46:56Z</time></trkpt><trkpt lat="48.446820152774826" lon="-1.1075639853301595"><ele>152.0</ele><time>2026-04-08T15:46:57Z</time></trkpt><trkpt lat="48.44695090909864" lon="-1.107431092831498"><ele>153.0</ele><time>2026-04-08T15:46:58Z</time></trkpt><trkpt lat="48.44709437375468" lon="-1.107286401715315"><ele>154.0</ele><time>2026-04-08T15:46:59Z</time></trkpt><trkpt lat="48.447238093890356" lon="-1.107141966390981"><ele>155.0</ele><time>2026-04-08T15:47:00Z</time></trkpt><trkpt lat="48.44737826432308" lon="-1.1070001577315536"><ele>151.33333333333331</ele><time>2026-04-08T15:47:01Z</time></trkpt><trkpt lat="48.44752047883452" lon="-1.1068495525083344"><ele>147.66666666666666</ele><time>2026-04-08T15:47:02Z</time></trkpt><trkpt lat="48.447660219660975" lon="-1.1066920985642479"><ele>144.0</ele><time>2026-04-08T15:47:03Z</time></trkpt><trkpt lat="48.44780533425431" lon="-1.1065391556483237"><ele>143.66666666666666</ele><time>2026-04-08T15:47:04Z</time></trkpt><trkpt lat="48.4479184555583" lon="-1.1063403616644003"><ele>143.33333333333331</ele><time>2026-04-08T15:47:05Z</time></trkpt><trkpt lat="48.448023814844056" lon="-1.106134106631582"><ele>143.0</ele><time>2026-04-08T15:47:06Z</time></trkpt><trkpt lat="48.448129990480204" lon="-1.1059271297109023"><ele>141.0</ele><time>2026-04-08T15:47:07Z</time></trkpt><trkpt lat="48.448234769345035" lon="-1.1057224400673829"><ele>139.0</ele><time>2026-04-08T15:47:08Z</time></trkpt><trkpt lat="48.44834251123152" lon="-1.105517520193625"><ele>137.0</ele><time>2026-04-08T15:47:09Z</time></trkpt><trkpt lat="48.448446369418875" lon="-1.105317265796598"><ele>137.0</ele><time>2026-04-08T15:47:10Z</time></trkpt><trkpt lat="48.448549965203256" lon="-1.1051153614884013"><ele>137.0</ele><time>2026-04-08T15:47:11Z</time></trkpt><trkpt lat="48.448651514261805" lon="-1.104912490623385"><ele>137.0</ele><time>2026-04-08T15:47:12Z</time></trkpt><trkpt lat="48.448752423325395" lon="-1.1047372522582801"><ele>136.25</ele><time>2026-04-08T15:47:13Z</time></trkpt><trkpt lat="48.44884315254561" lon="-1.1045619235013369"><ele>135.5</ele><time>2026-04-08T15:47:14Z</time></trkpt><trkpt lat="48.44892815472485" lon="-1.1043983396810089"><ele>134.75</ele><time>2026-04-08T15:47:15Z</time></trkpt><trkpt lat="48.44901678767014" lon="-1.10424621115055"><ele>134.0</ele><time>2026-04-08T15:47:16Z</time></trkpt><trkpt lat="48.44911234402412" lon="-1.1041131224922471"><ele>133.5</ele><time>2026-04-08T15:47:17Z</time></trkpt><trkpt lat="48.449219100927095" lon="-1.104008678235373"><ele>133.0</ele><time>2026-04-08T15:47:18Z</time></trkpt><trkpt lat="48.44933341661037" lon="-1.1039507205935437"><ele>132.5</ele><time>2026-04-08T15:47:19Z</time></trkpt><trkpt lat="48.44947253529574" lon="-1.1039161228664345"><ele>132.0</ele><time>2026-04-08T15:47:20Z</time></trkpt><trkpt lat="48.4496183853148" lon="-1.1038879202811276"><ele>132.66666666666666</ele><time>2026-04-08T15:47:21Z</time></trkpt><trkpt lat="48.449770669409446" lon="-1.103846428086094"><ele>133.33333333333331</ele><time>2026-04-08T15:47:22Z</time></trkpt><trkpt lat="48.4499255182435" lon="-1.103800690906272"><ele>134.0</ele><time>2026-04-08T15:47:23Z</time></trkpt><trkpt lat="48.45008959376882" lon="-1.1037626267141267"><ele>134.0</ele><time>2026-04-08T15:47:24Z</time></trkpt><trkpt lat="48.450254306354026" lon="-1.1037261942406769"><ele>134.0</ele><time>2026-04-08T15:47:25Z</time></trkpt><trkpt lat="48.450422556343554" lon="-1.1036923302564192"><ele>134.0</ele><time>2026-04-08T15:47:26Z</time></trkpt><trkpt lat="48.45058899959041" lon="-1.1036470559893257"><ele>137.0</ele><time>2026-04-08T15:47:27Z</time></trkpt><trkpt lat="48.45075238126057" lon="-1.1035969942803068"><ele>140.0</ele><time>2026-04-08T15:47:28Z</time></trkpt><trkpt lat="48.450913159897006" lon="-1.1035421565338466"><ele>143.0</ele><time>2026-04-08T15:47:29Z</time></trkpt><trkpt lat="48.45107018950702" lon="-1.1034906174253227"><ele>143.0</ele><time>2026-04-08T15:47:30Z</time></trkpt><trkpt lat="48.45122845159285" lon="-1.1034299049664262"><ele>143.0</ele><time>2026-04-08T15:47:31Z</time></trkpt><trkpt lat="48.45138641205295" lon="-1.1033576247962442"><ele>143.0</ele><time>2026-04-08T15:47:32Z</time></trkpt><trkpt lat="48.45153959051751" lon="-1.1032733261770604"><ele>145.33333333333331</ele><time>2026-04-08T15:47:33Z</time></trkpt><trkpt lat="48.451696877623576" lon="-1.1031886875303158"><ele>147.66666666666666</ele><time>2026-04-08T15:47:34Z</time></trkpt><trkpt lat="48.45185402034415" lon="-1.1031062113242958"><ele>150.0</ele><time>2026-04-08T15:47:35Z</time></trkpt><trkpt lat="48.45201002078836" lon="-1.1030168997631828"><ele>151.33333333333334</ele><time>2026-04-08T15:47:36Z</time></trkpt><trkpt lat="48.45217156633385" lon="-1.1029287655688744"><ele>152.66666666666669</ele><time>2026-04-08T15:47:37Z</time></trkpt><trkpt lat="48.45234361864176" lon="-1.1028325225191205"><ele>154.0</ele><time>2026-04-08T15:47:38Z</time></trkpt><trkpt lat="48.45252707809628" lon="-1.1027297944716057"><ele>154.0</ele><time>2026-04-08T15:47:39Z</time></trkpt><trkpt lat="48.45272257214723" lon="-1.1026278106444114"><ele>154.0</ele><time>2026-04-08T15:47:40Z</time></trkpt><trkpt lat="48.45291387895368" lon="-1.1025269081286428"><ele>154.0</ele><time>2026-04-08T15:47:41Z</time></trkpt><trkpt lat="48.45309815667805" lon="-1.1024309261588185"><ele>155.0</ele><time>2026-04-08T15:47:42Z</time></trkpt><trkpt lat="48.45328203331879" lon="-1.102322260482273"><ele>156.0</ele><time>2026-04-08T15:47:43Z</time></trkpt><trkpt lat="48.45346433921888" lon="-1.1022182051566127"><ele>157.0</ele><time>2026-04-08T15:47:44Z</time></trkpt><trkpt lat="48.453644652804776" lon="-1.1021078749047803"><ele>157.66666666666669</ele><time>2026-04-08T15:47:45Z</time></trkpt><trkpt lat="48.45382351994169" lon="-1.1020034415278468"><ele>158.33333333333334</ele><time>2026-04-08T15:47:46Z</time></trkpt><trkpt lat="48.45400173468872" lon="-1.1018990056123685"><ele>159.0</ele><time>2026-04-08T15:47:47Z</time></trkpt><trkpt lat="48.454178743183824" lon="-1.1017988001300008"><ele>159.0</ele><time>2026-04-08T15:47:48Z</time></trkpt><trkpt lat="48.454358232724935" lon="-1.1017006107218414"><ele>159.0</ele><time>2026-04-08T15:47:49Z</time></trkpt><trkpt lat="48.454540999287715" lon="-1.101603793123651"><ele>159.0</ele><time>2026-04-08T15:47:50Z</time></trkpt><trkpt lat="48.45472193232772" lon="-1.1015082777528027"><ele>160.0</ele><time>2026-04-08T15:47:51Z</time></trkpt><trkpt lat="48.45489352062665" lon="-1.1014132484990453"><ele>161.0</ele><time>2026-04-08T15:47:52Z</time></trkpt><trkpt lat="48.455060513657266" lon="-1.1013269421417429"><ele>162.0</ele><time>2026-04-08T15:47:53Z</time></trkpt><trkpt lat="48.455224968776605" lon="-1.101245452607914"><ele>162.0</ele><time>2026-04-08T15:47:54Z</time></trkpt><trkpt lat="48.45538915111509" lon="-1.1011612889828564"><ele>162.0</ele><time>2026-04-08T15:47:55Z</time></trkpt><trkpt lat="48.45555569270744" lon="-1.1010957986494694"><ele>162.0</ele><time>2026-04-08T15:47:56Z</time></trkpt><trkpt lat="48.45572743989088" lon="-1.1010473120653592"><ele>163.0</ele><time>2026-04-08T15:47:57Z</time></trkpt><trkpt lat="48.45590563583461" lon="-1.1010216063511091"><ele>164.0</ele><time>2026-04-08T15:47:58Z</time></trkpt><trkpt lat="48.456088971589466" lon="-1.1010133865973282"><ele>165.0</ele><time>2026-04-08T15:47:59Z</time></trkpt><trkpt lat="48.456272343410625" lon="-1.101012824432181"><ele>165.33333333333334</ele><time>2026-04-08T15:48:00Z</time></trkpt><trkpt lat="48.456445305644415" lon="-1.1010229762054893"><ele>165.66666666666669</ele><time>2026-04-08T15:48:01Z</time></trkpt><trkpt lat="48.45661833567997" lon="-1.101027034284531"><ele>166.0</ele><time>2026-04-08T15:48:02Z</time></trkpt><trkpt lat="48.45678943386954" lon="-1.1010294243764334"><ele>166.0</ele><time>2026-04-08T15:48:03Z</time></trkpt><trkpt lat="48.456959549185996" lon="-1.1010279686453592"><ele>166.0</ele><time>2026-04-08T15:48:04Z</time></trkpt><trkpt lat="48.457127715384225" lon="-1.1009894614111955"><ele>166.0</ele><time>2026-04-08T15:48:05Z</time></trkpt><trkpt lat="48.45729886826706" lon="-1.1009830742018858"><ele>166.33333333333334</ele><time>2026-04-08T15:48:06Z</time></trkpt><trkpt lat="48.45746897229198" lon="-1.1009312046529183"><ele>166.66666666666666</ele><time>2026-04-08T15:48:07Z</time></trkpt><trkpt lat="48.4576420147065" lon="-1.1008859927742605"><ele>167.0</ele><time>2026-04-08T15:48:08Z</time></trkpt><trkpt lat="48.45781629948794" lon="-1.1008367504903045"><ele>167.0</ele><time>2026-04-08T15:48:09Z</time></trkpt><trkpt lat="48.45798614738694" lon="-1.100786979205188"><ele>167.0</ele><time>2026-04-08T15:48:10Z</time></trkpt><trkpt lat="48.45815595068563" lon="-1.100746984013325"><ele>167.0</ele><time>2026-04-08T15:48:11Z</time></trkpt><trkpt lat="48.458323861875975" lon="-1.1006825189772904"><ele>167.0</ele><time>2026-04-08T15:48:12Z</time></trkpt><trkpt lat="48.4584952518463" lon="-1.100644660098853"><ele>167.0</ele><time>2026-04-08T15:48:13Z</time></trkpt><trkpt lat="48.458658493600666" lon="-1.100612367385985"><ele>167.0</ele><time>2026-04-08T15:48:14Z</time></trkpt><trkpt lat="48.458821211698314" lon="-1.100602300988559"><ele>167.33333333333331</ele><time>2026-04-08T15:48:15Z</time></trkpt><trkpt lat="48.458984327142545" lon="-1.1005705951016667"><ele>167.66666666666666</ele><time>2026-04-08T15:48:16Z</time></trkpt><trkpt lat="48.45914987652563" lon="-1.100513051545657"><ele>168.0</ele><time>2026-04-08T15:48:17Z</time></trkpt><trkpt lat="48.45931639149348" lon="-1.1004764677386876"><ele>168.0</ele><time>2026-04-08T15:48:18Z</time></trkpt><trkpt lat="48.45947855637561" lon="-1.100460886014416"><ele>168.0</ele><time>2026-04-08T15:48:19Z</time></trkpt><trkpt lat="48.45963728078908" lon="-1.1004050274041153"><ele>168.0</ele><time>2026-04-08T15:48:20Z</time></trkpt><trkpt lat="48.45979413679508" lon="-1.1003485114607956"><ele>168.33333333333334</ele><time>2026-04-08T15:48:21Z</time></trkpt><trkpt lat="48.45995168035139" lon="-1.1002862283025512"><ele>168.66666666666669</ele><time>2026-04-08T15:48:22Z</time></trkpt><trkpt lat="48.46011089465233" lon="-1.1002283276962592"><ele>169.0</ele><time>2026-04-08T15:48:23Z</time></trkpt><trkpt lat="48.46027639376063" lon="-1.1001784140609632"><ele>169.0</ele><time>2026-04-08T15:48:24Z</time></trkpt><trkpt lat="48.46043286883076" lon="-1.1001203856111172"><ele>169.0</ele><time>2026-04-08T15:48:25Z</time></trkpt><trkpt lat="48.4605874852673" lon="-1.1001093921428655"><ele>169.0</ele><time>2026-04-08T15:48:26Z</time></trkpt><trkpt lat="48.46073879365839" lon="-1.100125261392895"><ele>169.0</ele><time>2026-04-08T15:48:27Z</time></trkpt><trkpt lat="48.46088490066008" lon="-1.1001756902208706"><ele>169.0</ele><time>2026-04-08T15:48:28Z</time></trkpt><trkpt lat="48.461030323261454" lon="-1.1002498591737198"><ele>169.0</ele><time>2026-04-08T15:48:29Z</time></trkpt><trkpt lat="48.46118701570723" lon="-1.1003234057472964"><ele>166.33333333333334</ele><time>2026-04-08T15:48:30Z</time></trkpt><trkpt lat="48.4613464896738" lon="-1.1004235826677218"><ele>163.66666666666666</ele><time>2026-04-08T15:48:31Z</time></trkpt><trkpt lat="48.46152203693578" lon="-1.1004804223965932"><ele>161.0</ele><time>2026-04-08T15:48:32Z</time></trkpt><trkpt lat="48.461697009375754" lon="-1.1005886431874305"><ele>161.0</ele><time>2026-04-08T15:48:33Z</time></trkpt><trkpt lat="48.461886038028446" lon="-1.1006707874191766"><ele>161.0</ele><time>2026-04-08T15:48:34Z</time></trkpt><trkpt lat="48.462086214743024" lon="-1.1007566583213688"><ele>161.0</ele><time>2026-04-08T15:48:35Z</time></trkpt><trkpt lat="48.4622874859605" lon="-1.1008213256107748"><ele>162.0</ele><time>2026-04-08T15:48:36Z</time></trkpt><trkpt lat="48.462495508356504" lon="-1.1008788263992109"><ele>163.0</ele><time>2026-04-08T15:48:37Z</time></trkpt><trkpt lat="48.462712160531204" lon="-1.1008897406507794"><ele>164.0</ele><time>2026-04-08T15:48:38Z</time></trkpt><trkpt lat="48.46291990499" lon="-1.100912071388507"><ele>164.33333333333331</ele><time>2026-04-08T15:48:39Z</time></trkpt><trkpt lat="48.46313058999394" lon="-1.100916147551028"><ele>164.66666666666666</ele><time>2026-04-08T15:48:40Z</time></trkpt><trkpt lat="48.463346935734876" lon="-1.1009022407298448"><ele>165.0</ele><time>2026-04-08T15:48:41Z</time></trkpt><trkpt lat="48.46356237532203" lon="-1.100888391822815"><ele>165.0</ele><time>2026-04-08T15:48:42Z</time></trkpt><trkpt lat="48.46377437019521" lon="-1.1008696025544928"><ele>165.0</ele><time>2026-04-08T15:48:43Z</time></trkpt><trkpt lat="48.46398649060655" lon="-1.1008469260608575"><ele>165.0</ele><time>2026-04-08T15:48:44Z</time></trkpt><trkpt lat="48.46418900662726" lon="-1.1008249112115718"><ele>165.0</ele><time>2026-04-08T15:48:45Z</time></trkpt><trkpt lat="48.464387222625035" lon="-1.100803363833176"><ele>165.0</ele><time>2026-04-08T15:48:46Z</time></trkpt><trkpt lat="48.46457447678583" lon="-1.1007733584190993"><ele>165.0</ele><time>2026-04-08T15:48:47Z</time></trkpt><trkpt lat="48.46476143491157" lon="-1.1007359234641956"><ele>164.0</ele><time>2026-04-08T15:48:48Z</time></trkpt><trkpt lat="48.46493655359295" lon="-1.1007070859949464"><ele>163.0</ele><time>2026-04-08T15:48:49Z</time></trkpt><trkpt lat="48.46510662405555" lon="-1.1006920859181422"><ele>162.0</ele><time>2026-04-08T15:48:50Z</time></trkpt><trkpt lat="48.46527511659142" lon="-1.1007326765099776"><ele>163.33333333333334</ele><time>2026-04-08T15:48:51Z</time></trkpt><trkpt lat="48.465443583609684" lon="-1.1007617569788364"><ele>164.66666666666669</ele><time>2026-04-08T15:48:52Z</time></trkpt><trkpt lat="48.46561301011481" lon="-1.100806240560963"><ele>166.0</ele><time>2026-04-08T15:48:53Z</time></trkpt><trkpt lat="48.465785562580194" lon="-1.1008430695426663"><ele>166.33333333333334</ele><time>2026-04-08T15:48:54Z</time></trkpt><trkpt lat="48.46595744797677" lon="-1.100884023808392"><ele>166.66666666666666</ele><time>2026-04-08T15:48:55Z</time></trkpt><trkpt lat="48.46613418125808" lon="-1.100924628097509"><ele>167.0</ele><time>2026-04-08T15:48:56Z</time></trkpt><trkpt lat="48.46631513562054" lon="-1.1009657199845002"><ele>167.33333333333331</ele><time>2026-04-08T15:48:57Z</time></trkpt><trkpt lat="48.46649703348838" lon="-1.101007625537496"><ele>167.66666666666666</ele><time>2026-04-08T15:48:58Z</time></trkpt><trkpt lat="48.466670827990264" lon="-1.1010389092902972"><ele>168.0</ele><time>2026-04-08T15:48:59Z</time></trkpt><trkpt lat="48.466839990951286" lon="-1.1010722268858857"><ele>168.0</ele><time>2026-04-08T15:49:00Z</time></trkpt><trkpt lat="48.46700634026045" lon="-1.1010787938512931"><ele>168.0</ele><time>2026-04-08T15:49:01Z</time></trkpt><trkpt lat="48.467165328232845" lon="-1.1011012499508845"><ele>168.0</ele><time>2026-04-08T15:49:02Z</time></trkpt><trkpt lat="48.467316402328386" lon="-1.1010952799961324"><ele>167.5</ele><time>2026-04-08T15:49:03Z</time></trkpt><trkpt lat="48.46746584168868" lon="-1.1010793005111776"><ele>167.0</ele><time>2026-04-08T15:49:04Z</time></trkpt><trkpt lat="48.467606353081074" lon="-1.1010565811544912"><ele>166.5</ele><time>2026-04-08T15:49:05Z</time></trkpt><trkpt lat="48.467743280941804" lon="-1.1010347057746033"><ele>166.0</ele><time>2026-04-08T15:49:06Z</time></trkpt><trkpt lat="48.4678753872237" lon="-1.1010136006749562"><ele>166.8</ele><time>2026-04-08T15:49:07Z</time></trkpt><trkpt lat="48.46799734203336" lon="-1.100994117371969"><ele>167.60000000000002</ele><time>2026-04-08T15:49:08Z</time></trkpt><trkpt lat="48.46810847160469" lon="-1.1009770230977574"><ele>168.4</ele><time>2026-04-08T15:49:09Z</time></trkpt><trkpt lat="48.4682119705365" lon="-1.1009627933141415"><ele>169.2</ele><time>2026-04-08T15:49:10Z</time></trkpt><trkpt lat="48.46830946239883" lon="-1.1009748292291726"><ele>170.0</ele><time>2026-04-08T15:49:11Z</time></trkpt><trkpt lat="48.46839398697748" lon="-1.1009682275300259"><ele>170.0</ele><time>2026-04-08T15:49:12Z</time></trkpt><trkpt lat="48.46846370456665" lon="-1.1009709589429753"><ele>170.0</ele><time>2026-04-08T15:49:13Z</time></trkpt><trkpt lat="48.46855525664658" lon="-1.1009726071302013"><ele>170.0</ele><time>2026-04-08T15:49:15Z</time></trkpt><trkpt lat="48.46861942856066" lon="-1.1009685634689144"><ele>170.0</ele><time>2026-04-08T15:49:21Z</time></trkpt><trkpt lat="48.46872474895929" lon="-1.1011688973831564"><ele>170.0</ele><time>2026-04-08T15:49:24Z</time></trkpt><trkpt lat="48.46875148529329" lon="-1.1012769519474284"><ele>170.6</ele><time>2026-04-08T15:49:25Z</time></trkpt><trkpt lat="48.46877717375439" lon="-1.1014017709465318"><ele>171.2</ele><time>2026-04-08T15:49:26Z</time></trkpt><trkpt lat="48.46880886233864" lon="-1.1015433832939336"><ele>171.8</ele><time>2026-04-08T15:49:27Z</time></trkpt><trkpt lat="48.46884092970569" lon="-1.1016928655967404"><ele>172.4</ele><time>2026-04-08T15:49:28Z</time></trkpt><trkpt lat="48.46887004471904" lon="-1.1018355296156446"><ele>173.0</ele><time>2026-04-08T15:49:29Z</time></trkpt><trkpt lat="48.46892392350024" lon="-1.1019784001989614"><ele>173.25</ele><time>2026-04-08T15:49:30Z</time></trkpt><trkpt lat="48.46896343782778" lon="-1.1021326338368178"><ele>173.5</ele><time>2026-04-08T15:49:31Z</time></trkpt><trkpt lat="48.4690316577703" lon="-1.1022746861653308"><ele>173.75</ele><time>2026-04-08T15:49:32Z</time></trkpt><trkpt lat="48.46910383616291" lon="-1.1024103460170942"><ele>174.0</ele><time>2026-04-08T15:49:33Z</time></trkpt><trkpt lat="48.46919244329721" lon="-1.1025336183856624"><ele>174.0</ele><time>2026-04-08T15:49:34Z</time></trkpt><trkpt lat="48.46929842927361" lon="-1.1026564971941513"><ele>174.0</ele><time>2026-04-08T15:49:35Z</time></trkpt><trkpt lat="48.469431934031405" lon="-1.102739068383483"><ele>174.0</ele><time>2026-04-08T15:49:36Z</time></trkpt><trkpt lat="48.4695555387055" lon="-1.1028392646878795"><ele>174.0</ele><time>2026-04-08T15:49:37Z</time></trkpt><trkpt lat="48.46967386378667" lon="-1.102970998152121"><ele>173.66666666666666</ele><time>2026-04-08T15:49:38Z</time></trkpt><trkpt lat="48.4698069804946" lon="-1.1030854877444738"><ele>173.33333333333331</ele><time>2026-04-08T15:49:39Z</time></trkpt><trkpt lat="48.469930702057816" lon="-1.1032412292184683"><ele>173.0</ele><time>2026-04-08T15:49:40Z</time></trkpt><trkpt lat="48.470037195883116" lon="-1.1034195095115533"><ele>172.33333333333331</ele><time>2026-04-08T15:49:41Z</time></trkpt><trkpt lat="48.47015731886373" lon="-1.103564650101122"><ele>171.66666666666666</ele><time>2026-04-08T15:49:42Z</time></trkpt><trkpt lat="48.47028088129644" lon="-1.1037056127650808"><ele>171.0</ele><time>2026-04-08T15:49:43Z</time></trkpt><trkpt lat="48.47040940135744" lon="-1.1038419297439892"><ele>170.66666666666666</ele><time>2026-04-08T15:49:44Z</time></trkpt><trkpt lat="48.47053610226765" lon="-1.1039949165309466"><ele>170.33333333333331</ele><time>2026-04-08T15:49:45Z</time></trkpt><trkpt lat="48.47067018163914" lon="-1.1041377389143643"><ele>170.0</ele><time>2026-04-08T15:49:46Z</time></trkpt><trkpt lat="48.470807718530544" lon="-1.1042775397080797"><ele>169.0</ele><time>2026-04-08T15:49:47Z</time></trkpt><trkpt lat="48.47094450492452" lon="-1.1044127383764193"><ele>168.0</ele><time>2026-04-08T15:49:48Z</time></trkpt><trkpt lat="48.471090671085406" lon="-1.1045174561581224"><ele>167.0</ele><time>2026-04-08T15:49:49Z</time></trkpt><trkpt lat="48.471226095287186" lon="-1.1046577313387955"><ele>166.33333333333331</ele><time>2026-04-08T15:49:50Z</time></trkpt><trkpt lat="48.47137447446137" lon="-1.104768401420508"><ele>165.66666666666666</ele><time>2026-04-08T15:49:51Z</time></trkpt><trkpt lat="48.471519703993195" lon="-1.10488789078065"><ele>165.0</ele><time>2026-04-08T15:49:52Z</time></trkpt><trkpt lat="48.471668675012786" lon="-1.1050047098874136"><ele>165.0</ele><time>2026-04-08T15:49:53Z</time></trkpt><trkpt lat="48.47180916281605" lon="-1.1051443730323185"><ele>165.0</ele><time>2026-04-08T15:49:54Z</time></trkpt><trkpt lat="48.47193968315381" lon="-1.1052819480762488"><ele>165.0</ele><time>2026-04-08T15:49:55Z</time></trkpt><trkpt lat="48.47207151792853" lon="-1.1054231145307114"><ele>165.66666666666666</ele><time>2026-04-08T15:49:56Z</time></trkpt><trkpt lat="48.47219511279003" lon="-1.1055789476030613"><ele>166.33333333333331</ele><time>2026-04-08T15:49:57Z</time></trkpt><trkpt lat="48.4723165183438" lon="-1.1057384182392125"><ele>167.0</ele><time>2026-04-08T15:49:58Z</time></trkpt><trkpt lat="48.472439093528735" lon="-1.1058979851785806"><ele>167.0</ele><time>2026-04-08T15:49:59Z</time></trkpt><trkpt lat="48.47255696489477" lon="-1.1060578527836677"><ele>167.0</ele><time>2026-04-08T15:50:00Z</time></trkpt><trkpt lat="48.47266997864712" lon="-1.1062411047688174"><ele>167.0</ele><time>2026-04-08T15:50:01Z</time></trkpt><trkpt lat="48.47277546363866" lon="-1.1064427651110138"><ele>167.0</ele><time>2026-04-08T15:50:02Z</time></trkpt><trkpt lat="48.47287396010425" lon="-1.1066584520734704"><ele>167.0</ele><time>2026-04-08T15:50:03Z</time></trkpt><trkpt lat="48.47295882847305" lon="-1.1068926583227279"><ele>167.0</ele><time>2026-04-08T15:50:04Z</time></trkpt><trkpt lat="48.473038722678574" lon="-1.1071344949782278"><ele>166.66666666666666</ele><time>2026-04-08T15:50:05Z</time></trkpt><trkpt lat="48.47312507755233" lon="-1.1073496067480022"><ele>166.33333333333334</ele><time>2026-04-08T15:50:06Z</time></trkpt><trkpt lat="48.473220979098684" lon="-1.107545455734828"><ele>166.0</ele><time>2026-04-08T15:50:07Z</time></trkpt><trkpt lat="48.4733312188343" lon="-1.1077248789291139"><ele>166.0</ele><time>2026-04-08T15:50:08Z</time></trkpt><trkpt lat="48.473451892857256" lon="-1.1078915136484795"><ele>166.0</ele><time>2026-04-08T15:50:09Z</time></trkpt><trkpt lat="48.47357624132106" lon="-1.1080563859762689"><ele>166.0</ele><time>2026-04-08T15:50:10Z</time></trkpt><trkpt lat="48.47370217867099" lon="-1.1082213022377025"><ele>166.33333333333334</ele><time>2026-04-08T15:50:11Z</time></trkpt><trkpt lat="48.47382687739983" lon="-1.1083917383276347"><ele>166.66666666666666</ele><time>2026-04-08T15:50:12Z</time></trkpt><trkpt lat="48.47396492145008" lon="-1.108542329878259"><ele>167.0</ele><time>2026-04-08T15:50:13Z</time></trkpt><trkpt lat="48.474093263146976" lon="-1.1087075348711852"><ele>167.0</ele><time>2026-04-08T15:50:14Z</time></trkpt><trkpt lat="48.47420997974396" lon="-1.108867829042702"><ele>167.0</ele><time>2026-04-08T15:50:15Z</time></trkpt><trkpt lat="48.47431649142573" lon="-1.1090230851767775"><ele>167.0</ele><time>2026-04-08T15:50:16Z</time></trkpt><trkpt lat="48.47441230322876" lon="-1.109167449398512"><ele>167.0</ele><time>2026-04-08T15:50:17Z</time></trkpt><trkpt lat="48.4744957815946" lon="-1.1093006245991888"><ele>167.2</ele><time>2026-04-08T15:50:18Z</time></trkpt><trkpt lat="48.47456995090202" lon="-1.1094121024355845"><ele>167.39999999999998</ele><time>2026-04-08T15:50:19Z</time></trkpt><trkpt lat="48.47464078692775" lon="-1.109497991298089"><ele>167.60000000000002</ele><time>2026-04-08T15:50:20Z</time></trkpt><trkpt lat="48.47469844736381" lon="-1.1095785451999252"><ele>167.8</ele><time>2026-04-08T15:50:21Z</time></trkpt><trkpt lat="48.47476944422217" lon="-1.1096133809630124"><ele>168.0</ele><time>2026-04-08T15:50:22Z</time></trkpt><trkpt lat="48.474884636937226" lon="-1.1096135606560538"><ele>168.25</ele><time>2026-04-08T15:50:24Z</time></trkpt><trkpt lat="48.474981208660346" lon="-1.1096117491374884"><ele>168.5</ele><time>2026-04-08T15:50:26Z</time></trkpt><trkpt lat="48.475021799729554" lon="-1.1098749039777152"><ele>168.75</ele><time>2026-04-08T15:50:27Z</time></trkpt><trkpt lat="48.47503594452447" lon="-1.110027668508258"><ele>169.0</ele><time>2026-04-08T15:50:28Z</time></trkpt><trkpt lat="48.475068364101524" lon="-1.110203889307681"><ele>169.0</ele><time>2026-04-08T15:50:29Z</time></trkpt><trkpt lat="48.47512284914538" lon="-1.1103885082688705"><ele>169.0</ele><time>2026-04-08T15:50:30Z</time></trkpt><trkpt lat="48.47519227489623" lon="-1.1105895462703457"><ele>169.0</ele><time>2026-04-08T15:50:31Z</time></trkpt><trkpt lat="48.47525778669691" lon="-1.1108198209312035"><ele>169.0</ele><time>2026-04-08T15:50:32Z</time></trkpt><trkpt lat="48.47532236006267" lon="-1.1110180248445147"><ele>169.0</ele><time>2026-04-08T15:50:33Z</time></trkpt><trkpt lat="48.47539192155973" lon="-1.1112169117116804"><ele>169.0</ele><time>2026-04-08T15:50:34Z</time></trkpt><trkpt lat="48.47546259565826" lon="-1.1114101404172367"><ele>169.0</ele><time>2026-04-08T15:50:35Z</time></trkpt><trkpt lat="48.47553623475103" lon="-1.1116065437447784"><ele>168.33333333333334</ele><time>2026-04-08T15:50:36Z</time></trkpt><trkpt lat="48.475617022724755" lon="-1.1118169623198388"><ele>167.66666666666666</ele><time>2026-04-08T15:50:37Z</time></trkpt><trkpt lat="48.47570117350469" lon="-1.1120421521855588"><ele>167.0</ele><time>2026-04-08T15:50:38Z</time></trkpt><trkpt lat="48.47579101384822" lon="-1.112276456006779"><ele>166.33333333333331</ele><time>2026-04-08T15:50:39Z</time></trkpt><trkpt lat="48.475881714061444" lon="-1.112505657268614"><ele>165.66666666666666</ele><time>2026-04-08T15:50:40Z</time></trkpt><trkpt lat="48.4759760495284" lon="-1.1127356320173845"><ele>165.0</ele><time>2026-04-08T15:50:41Z</time></trkpt><trkpt lat="48.47607690017866" lon="-1.112974932531413"><ele>165.0</ele><time>2026-04-08T15:50:42Z</time></trkpt><trkpt lat="48.476192520727935" lon="-1.1132046204677275"><ele>165.0</ele><time>2026-04-08T15:50:43Z</time></trkpt><trkpt lat="48.476311917752575" lon="-1.1134282296828046"><ele>165.0</ele><time>2026-04-08T15:50:44Z</time></trkpt><trkpt lat="48.476426592693684" lon="-1.1136577685505773"><ele>165.33333333333334</ele><time>2026-04-08T15:50:45Z</time></trkpt><trkpt lat="48.476555157816286" lon="-1.1138744130986395"><ele>165.66666666666669</ele><time>2026-04-08T15:50:46Z</time></trkpt><trkpt lat="48.47664741859811" lon="-1.1141345893699353"><ele>166.0</ele><time>2026-04-08T15:50:47Z</time></trkpt><trkpt lat="48.47674545550112" lon="-1.1143893206556594"><ele>165.33333333333334</ele><time>2026-04-08T15:50:48Z</time></trkpt><trkpt lat="48.476837503007914" lon="-1.1146522435768758"><ele>164.66666666666666</ele><time>2026-04-08T15:50:49Z</time></trkpt><trkpt lat="48.47691930055287" lon="-1.1149037218098383"><ele>164.0</ele><time>2026-04-08T15:50:50Z</time></trkpt><trkpt lat="48.47699987214902" lon="-1.1151455488064708"><ele>164.33333333333331</ele><time>2026-04-08T15:50:51Z</time></trkpt><trkpt lat="48.47707809651154" lon="-1.1153911991646446"><ele>164.66666666666666</ele><time>2026-04-08T15:50:52Z</time></trkpt><trkpt lat="48.477157595626416" lon="-1.1156369255206282"><ele>165.0</ele><time>2026-04-08T15:50:53Z</time></trkpt><trkpt lat="48.47723592544807" lon="-1.1158797782695449"><ele>165.0</ele><time>2026-04-08T15:50:54Z</time></trkpt><trkpt lat="48.47731047370255" lon="-1.1161089056534292"><ele>165.0</ele><time>2026-04-08T15:50:55Z</time></trkpt><trkpt lat="48.47738081897619" lon="-1.1163286169432953"><ele>165.0</ele><time>2026-04-08T15:50:56Z</time></trkpt><trkpt lat="48.47744272657729" lon="-1.116538958610801"><ele>165.0</ele><time>2026-04-08T15:50:57Z</time></trkpt><trkpt lat="48.47751011024375" lon="-1.1167333054588104"><ele>165.0</ele><time>2026-04-08T15:50:58Z</time></trkpt><trkpt lat="48.47754843887463" lon="-1.1169388014023447"><ele>165.0</ele><time>2026-04-08T15:50:59Z</time></trkpt><trkpt lat="48.47759437050538" lon="-1.117132701178955"><ele>165.0</ele><time>2026-04-08T15:51:00Z</time></trkpt><trkpt lat="48.4776380583359" lon="-1.1173259944334977"><ele>164.5</ele><time>2026-04-08T15:51:01Z</time></trkpt><trkpt lat="48.47768183064946" lon="-1.1175240922300433"><ele>164.0</ele><time>2026-04-08T15:51:02Z</time></trkpt><trkpt lat="48.47772751720739" lon="-1.1177259675011917"><ele>163.5</ele><time>2026-04-08T15:51:03Z</time></trkpt><trkpt lat="48.477772042907645" lon="-1.11792202515699"><ele>163.0</ele><time>2026-04-08T15:51:04Z</time></trkpt><trkpt lat="48.4778124155485" lon="-1.1181156810725896"><ele>162.75</ele><time>2026-04-08T15:51:05Z</time></trkpt><trkpt lat="48.477853178206004" lon="-1.1183007863735677"><ele>162.5</ele><time>2026-04-08T15:51:06Z</time></trkpt><trkpt lat="48.477894146883585" lon="-1.1184794148380865"><ele>162.25</ele><time>2026-04-08T15:51:07Z</time></trkpt><trkpt lat="48.477935649189355" lon="-1.1186493304908907"><ele>162.0</ele><time>2026-04-08T15:51:08Z</time></trkpt><trkpt lat="48.4779744908511" lon="-1.1188081574652553"><ele>162.0</ele><time>2026-04-08T15:51:09Z</time></trkpt><trkpt lat="48.47801553347596" lon="-1.11896199495549"><ele>162.0</ele><time>2026-04-08T15:51:10Z</time></trkpt><trkpt lat="48.478056657238426" lon="-1.1191102762556822"><ele>162.0</ele><time>2026-04-08T15:51:11Z</time></trkpt><trkpt lat="48.47812333943335" lon="-1.1192244075178672"><ele>162.0</ele><time>2026-04-08T15:51:12Z</time></trkpt><trkpt lat="48.478183290040164" lon="-1.1193401644560466"><ele>162.0</ele><time>2026-04-08T15:51:13Z</time></trkpt><trkpt lat="48.47824497648125" lon="-1.1194450463724164"><ele>161.5</ele><time>2026-04-08T15:51:14Z</time></trkpt><trkpt lat="48.47830617913476" lon="-1.1195389098377069"><ele>161.0</ele><time>2026-04-08T15:51:15Z</time></trkpt><trkpt lat="48.4783699647923" lon="-1.1196201309125928"><ele>160.5</ele><time>2026-04-08T15:51:16Z</time></trkpt><trkpt lat="48.47843362203404" lon="-1.119691200979281"><ele>160.0</ele><time>2026-04-08T15:51:17Z</time></trkpt><trkpt lat="48.47848938844087" lon="-1.1197710246347092"><ele>159.5</ele><time>2026-04-08T15:51:18Z</time></trkpt><trkpt lat="48.4785626228756" lon="-1.1198191022965367"><ele>159.0</ele><time>2026-04-08T15:51:19Z</time></trkpt><trkpt lat="48.4786359167928" lon="-1.1198682629359844"><ele>159.0</ele><time>2026-04-08T15:51:20Z</time></trkpt><trkpt lat="48.478713496509016" lon="-1.1199209450416592"><ele>159.0</ele><time>2026-04-08T15:51:21Z</time></trkpt><trkpt lat="48.47879935783108" lon="-1.11998136041226"><ele>159.0</ele><time>2026-04-08T15:51:22Z</time></trkpt><trkpt lat="48.47889794045304" lon="-1.1200199770821788"><ele>159.0</ele><time>2026-04-08T15:51:23Z</time></trkpt><trkpt lat="48.47899859036247" lon="-1.12008543355188"><ele>159.0</ele><time>2026-04-08T15:51:24Z</time></trkpt><trkpt lat="48.47910273437772" lon="-1.1201531623049992"><ele>159.75</ele><time>2026-04-08T15:51:25Z</time></trkpt><trkpt lat="48.479218204687086" lon="-1.120228953538905"><ele>160.5</ele><time>2026-04-08T15:51:26Z</time></trkpt><trkpt lat="48.47932709009766" lon="-1.12030056784576"><ele>161.25</ele><time>2026-04-08T15:51:27Z</time></trkpt><trkpt lat="48.47943695191652" lon="-1.1203728243467677"><ele>162.0</ele><time>2026-04-08T15:51:28Z</time></trkpt><trkpt lat="48.479550546499084" lon="-1.1204475358086916"><ele>162.5</ele><time>2026-04-08T15:51:29Z</time></trkpt><trkpt lat="48.47966324851875" lon="-1.1205216603801047"><ele>163.0</ele><time>2026-04-08T15:51:30Z</time></trkpt><trkpt lat="48.47977389081879" lon="-1.1205947745630012"><ele>163.5</ele><time>2026-04-08T15:51:31Z</time></trkpt><trkpt lat="48.47988806588851" lon="-1.1206683792024277"><ele>164.0</ele><time>2026-04-08T15:51:32Z</time></trkpt><trkpt lat="48.4800013507114" lon="-1.1207414097909663"><ele>164.2</ele><time>2026-04-08T15:51:33Z</time></trkpt><trkpt lat="48.48011024717654" lon="-1.1208116114971314"><ele>164.39999999999998</ele><time>2026-04-08T15:51:34Z</time></trkpt><trkpt lat="48.48020818137714" lon="-1.1208743697186128"><ele>164.6</ele><time>2026-04-08T15:51:35Z</time></trkpt><trkpt lat="48.480295080367824" lon="-1.1209317741470408"><ele>164.8</ele><time>2026-04-08T15:51:36Z</time></trkpt><trkpt lat="48.48037439208104" lon="-1.1209841666176223"><ele>165.0</ele><time>2026-04-08T15:51:37Z</time></trkpt><trkpt lat="48.4804516206702" lon="-1.1210351830399434"><ele>165.66666666666666</ele><time>2026-04-08T15:51:38Z</time></trkpt><trkpt lat="48.48052205822237" lon="-1.1210840116535212"><ele>166.33333333333334</ele><time>2026-04-08T15:51:39Z</time></trkpt><trkpt lat="48.480588920829916" lon="-1.1211310803068824"><ele>167.0</ele><time>2026-04-08T15:51:40Z</time></trkpt><trkpt lat="48.480662575194934" lon="-1.1211829291423323"><ele>167.66666666666669</ele><time>2026-04-08T15:51:41Z</time></trkpt><trkpt lat="48.480734670740524" lon="-1.1212296828311188"><ele>168.33333333333334</ele><time>2026-04-08T15:51:42Z</time></trkpt><trkpt lat="48.480797718140145" lon="-1.121271255614697"><ele>169.0</ele><time>2026-04-08T15:51:43Z</time></trkpt><trkpt lat="48.48086192041913" lon="-1.1213121580046224"><ele>169.0</ele><time>2026-04-08T15:51:44Z</time></trkpt><trkpt lat="48.48091718372" lon="-1.1213618602074682"><ele>169.0</ele><time>2026-04-08T15:51:45Z</time></trkpt><trkpt lat="48.48102049996157" lon="-1.121418516589975"><ele>169.0</ele><time>2026-04-08T15:51:47Z</time></trkpt><trkpt lat="48.481109823163386" lon="-1.1214121253745946"><ele>169.0</ele><time>2026-04-08T15:51:49Z</time></trkpt><trkpt lat="48.4811802782985" lon="-1.1216045880629517"><ele>169.0</ele><time>2026-04-08T15:51:51Z</time></trkpt><trkpt lat="48.481247131074234" lon="-1.1217157228612555"><ele>169.83333333333334</ele><time>2026-04-08T15:51:53Z</time></trkpt><trkpt lat="48.48133124811775" lon="-1.1217654796305767"><ele>170.66666666666669</ele><time>2026-04-08T15:51:55Z</time></trkpt><trkpt lat="48.4813744695117" lon="-1.121890469483437"><ele>171.5</ele><time>2026-04-08T15:51:57Z</time></trkpt><trkpt lat="48.48139598909519" lon="-1.1220561948899508"><ele>172.33333333333334</ele><time>2026-04-08T15:51:59Z</time></trkpt><trkpt lat="48.48140819499774" lon="-1.1221558253381905"><ele>173.16666666666666</ele><time>2026-04-08T15:52:00Z</time></trkpt><trkpt lat="48.48142232905234" lon="-1.122256715814663"><ele>174.0</ele><time>2026-04-08T15:52:01Z</time></trkpt><trkpt lat="48.48143740861114" lon="-1.1223649543853922"><ele>174.33333333333334</ele><time>2026-04-08T15:52:02Z</time></trkpt><trkpt lat="48.481452387058944" lon="-1.1224724676989255"><ele>174.66666666666666</ele><time>2026-04-08T15:52:03Z</time></trkpt><trkpt lat="48.481465708544924" lon="-1.1225680874309"><ele>175.0</ele><time>2026-04-08T15:52:04Z</time></trkpt><trkpt lat="48.481489332239065" lon="-1.1227319147417127"><ele>175.33333333333331</ele><time>2026-04-08T15:52:06Z</time></trkpt><trkpt lat="48.48150313534587" lon="-1.1228274157837728"><ele>175.66666666666666</ele><time>2026-04-08T15:52:08Z</time></trkpt><trkpt lat="48.48158758466434" lon="-1.1228291635575607"><ele>176.0</ele><time>2026-04-08T15:52:19Z</time></trkpt><trkpt lat="48.481641091944105" lon="-1.12274520947451"><ele>176.0</ele><time>2026-04-08T15:52:20Z</time></trkpt><trkpt lat="48.481698639737445" lon="-1.1226840933408304"><ele>176.0</ele><time>2026-04-08T15:52:21Z</time></trkpt><trkpt lat="48.48176483261151" lon="-1.1226331393565385"><ele>176.0</ele><time>2026-04-08T15:52:22Z</time></trkpt><trkpt lat="48.48182923882278" lon="-1.1225900490766838"><ele>176.0</ele><time>2026-04-08T15:52:23Z</time></trkpt><trkpt lat="48.48190172586895" lon="-1.1225367697749928"><ele>176.0</ele><time>2026-04-08T15:52:24Z</time></trkpt><trkpt lat="48.48200006189278" lon="-1.1224700835252839"><ele>176.0</ele><time>2026-04-08T15:52:25Z</time></trkpt><trkpt lat="48.48207971600282" lon="-1.1223969428467502"><ele>174.60000000000002</ele><time>2026-04-08T15:52:26Z</time></trkpt><trkpt lat="48.482160314764094" lon="-1.1223272435006244"><ele>173.2</ele><time>2026-04-08T15:52:27Z</time></trkpt><trkpt lat="48.4822426091739" lon="-1.1222538940721833"><ele>171.8</ele><time>2026-04-08T15:52:28Z</time></trkpt><trkpt lat="48.48232244706468" lon="-1.1221804868792917"><ele>170.39999999999998</ele><time>2026-04-08T15:52:29Z</time></trkpt><trkpt lat="48.48241344503414" lon="-1.122099127688851"><ele>169.0</ele><time>2026-04-08T15:52:30Z</time></trkpt><trkpt lat="48.48251491597532" lon="-1.1220109178241857"><ele>169.0</ele><time>2026-04-08T15:52:31Z</time></trkpt><trkpt lat="48.48261954589636" lon="-1.121920152481697"><ele>169.0</ele><time>2026-04-08T15:52:32Z</time></trkpt><trkpt lat="48.482720570976085" lon="-1.1218377654049747"><ele>169.0</ele><time>2026-04-08T15:52:33Z</time></trkpt><trkpt lat="48.48281451882501" lon="-1.121731696404107"><ele>169.0</ele><time>2026-04-08T15:52:34Z</time></trkpt><trkpt lat="48.48291116378163" lon="-1.1216471213902266"><ele>168.25</ele><time>2026-04-08T15:52:35Z</time></trkpt><trkpt lat="48.483011560933896" lon="-1.1215592627595667"><ele>167.5</ele><time>2026-04-08T15:52:36Z</time></trkpt><trkpt lat="48.483114830240936" lon="-1.1214681912780915"><ele>166.75</ele><time>2026-04-08T15:52:37Z</time></trkpt><trkpt lat="48.48321685563046" lon="-1.121377941323703"><ele>166.0</ele><time>2026-04-08T15:52:38Z</time></trkpt><trkpt lat="48.48331797983785" lon="-1.1212884884947356"><ele>166.0</ele><time>2026-04-08T15:52:39Z</time></trkpt><trkpt lat="48.483417801823" lon="-1.1212001876235322"><ele>166.0</ele><time>2026-04-08T15:52:40Z</time></trkpt><trkpt lat="48.48352247138587" lon="-1.1211075985785586"><ele>166.0</ele><time>2026-04-08T15:52:41Z</time></trkpt><trkpt lat="48.48362997300702" lon="-1.1210125044078871"><ele>166.0</ele><time>2026-04-08T15:52:42Z</time></trkpt><trkpt lat="48.483739446476314" lon="-1.120915665933164"><ele>165.25</ele><time>2026-04-08T15:52:43Z</time></trkpt><trkpt lat="48.48384756823421" lon="-1.1208200232287053"><ele>164.5</ele><time>2026-04-08T15:52:44Z</time></trkpt><trkpt lat="48.48395770075667" lon="-1.1207227349489766"><ele>163.75</ele><time>2026-04-08T15:52:45Z</time></trkpt><trkpt lat="48.48407513089802" lon="-1.1206430241482679"><ele>163.0</ele><time>2026-04-08T15:52:46Z</time></trkpt><trkpt lat="48.48418190727751" lon="-1.1205365181878164"><ele>163.0</ele><time>2026-04-08T15:52:47Z</time></trkpt><trkpt lat="48.48429433574579" lon="-1.1204416976345606"><ele>163.0</ele><time>2026-04-08T15:52:48Z</time></trkpt><trkpt lat="48.48440640441651" lon="-1.1203485343801554"><ele>163.0</ele><time>2026-04-08T15:52:49Z</time></trkpt><trkpt lat="48.484519000076354" lon="-1.120253007819029"><ele>163.0</ele><time>2026-04-08T15:52:50Z</time></trkpt><trkpt lat="48.48463083534232" lon="-1.1201587766663472"><ele>162.75</ele><time>2026-04-08T15:52:51Z</time></trkpt><trkpt lat="48.48473927289332" lon="-1.1200690814920766"><ele>162.5</ele><time>2026-04-08T15:52:52Z</time></trkpt><trkpt lat="48.48484217105877" lon="-1.119979176008151"><ele>162.25</ele><time>2026-04-08T15:52:53Z</time></trkpt><trkpt lat="48.48494816188407" lon="-1.119886890525708"><ele>162.0</ele><time>2026-04-08T15:52:54Z</time></trkpt><trkpt lat="48.48505216720644" lon="-1.1197946928036815"><ele>163.0</ele><time>2026-04-08T15:52:55Z</time></trkpt><trkpt lat="48.48515624301539" lon="-1.1197027191069364"><ele>164.0</ele><time>2026-04-08T15:52:56Z</time></trkpt><trkpt lat="48.485263283987344" lon="-1.1196091575875529"><ele>165.0</ele><time>2026-04-08T15:52:57Z</time></trkpt><trkpt lat="48.48536947010277" lon="-1.1195137665113795"><ele>166.0</ele><time>2026-04-08T15:52:58Z</time></trkpt><trkpt lat="48.485475569369854" lon="-1.1194166816358317"><ele>166.0</ele><time>2026-04-08T15:52:59Z</time></trkpt><trkpt lat="48.48557885583503" lon="-1.11931825730126"><ele>166.0</ele><time>2026-04-08T15:53:00Z</time></trkpt><trkpt lat="48.48568700859734" lon="-1.1192318420317706"><ele>166.0</ele><time>2026-04-08T15:53:01Z</time></trkpt><trkpt lat="48.48579444177883" lon="-1.1191421014145448"><ele>166.0</ele><time>2026-04-08T15:53:02Z</time></trkpt><trkpt lat="48.485892135102574" lon="-1.1190508561868155"><ele>165.8</ele><time>2026-04-08T15:53:03Z</time></trkpt><trkpt lat="48.4859861478338" lon="-1.1189645445562961"><ele>165.60000000000002</ele><time>2026-04-08T15:53:04Z</time></trkpt><trkpt lat="48.48607893164274" lon="-1.118881350787636"><ele>165.4</ele><time>2026-04-08T15:53:05Z</time></trkpt><trkpt lat="48.48616960026509" lon="-1.118792308633614"><ele>165.2</ele><time>2026-04-08T15:53:06Z</time></trkpt><trkpt lat="48.486258330858256" lon="-1.1186898333658368"><ele>165.0</ele><time>2026-04-08T15:53:07Z</time></trkpt><trkpt lat="48.48634213786063" lon="-1.1185796906939636"><ele>165.0</ele><time>2026-04-08T15:53:08Z</time></trkpt><trkpt lat="48.486417152603785" lon="-1.118459730880984"><ele>165.0</ele><time>2026-04-08T15:53:09Z</time></trkpt><trkpt lat="48.486495043910054" lon="-1.1183289772666412"><ele>165.0</ele><time>2026-04-08T15:53:10Z</time></trkpt><trkpt lat="48.48657799850046" lon="-1.118192364727557"><ele>165.0</ele><time>2026-04-08T15:53:11Z</time></trkpt><trkpt lat="48.48666018298001" lon="-1.1180528922061121"><ele>164.25</ele><time>2026-04-08T15:53:12Z</time></trkpt><trkpt lat="48.48673860325804" lon="-1.117916947371813"><ele>163.5</ele><time>2026-04-08T15:53:13Z</time></trkpt><trkpt lat="48.486818279232615" lon="-1.117780806427276"><ele>162.75</ele><time>2026-04-08T15:53:14Z</time></trkpt><trkpt lat="48.48690093484784" lon="-1.1176502744681767"><ele>162.0</ele><time>2026-04-08T15:53:15Z</time></trkpt><trkpt lat="48.48696966595476" lon="-1.1175209452550925"><ele>161.0</ele><time>2026-04-08T15:53:16Z</time></trkpt><trkpt lat="48.48704721749015" lon="-1.1173892517978468"><ele>160.0</ele><time>2026-04-08T15:53:17Z</time></trkpt><trkpt lat="48.48712560486866" lon="-1.1172551731158613"><ele>159.0</ele><time>2026-04-08T15:53:18Z</time></trkpt><trkpt lat="48.48721091651321" lon="-1.1171176943246115"><ele>158.0</ele><time>2026-04-08T15:53:19Z</time></trkpt><trkpt lat="48.487284996040884" lon="-1.1169877380737963"><ele>158.0</ele><time>2026-04-08T15:53:20Z</time></trkpt><trkpt lat="48.4873532001386" lon="-1.1168673103917877"><ele>158.0</ele><time>2026-04-08T15:53:21Z</time></trkpt><trkpt lat="48.487414427016326" lon="-1.1167584502673509"><ele>158.0</ele><time>2026-04-08T15:53:22Z</time></trkpt><trkpt lat="48.48747056069217" lon="-1.116667759715638"><ele>158.0</ele><time>2026-04-08T15:53:23Z</time></trkpt><trkpt lat="48.4875162817072" lon="-1.1165928095265631"><ele>158.0</ele><time>2026-04-08T15:53:24Z</time></trkpt><trkpt lat="48.48757462674748" lon="-1.1164729770074668"><ele>158.0</ele><time>2026-04-08T15:53:26Z</time></trkpt><trkpt lat="48.48757617671184" lon="-1.1163755583705093"><ele>157.66666666666666</ele><time>2026-04-08T15:53:28Z</time></trkpt><trkpt lat="48.487541816703384" lon="-1.1162955282707967"><ele>157.33333333333331</ele><time>2026-04-08T15:53:30Z</time></trkpt><trkpt lat="48.48751817481252" lon="-1.1161947145020017"><ele>157.0</ele><time>2026-04-08T15:53:32Z</time></trkpt><trkpt lat="48.48751506873559" lon="-1.1160349535352123"><ele>156.66666666666666</ele><time>2026-04-08T15:53:34Z</time></trkpt><trkpt lat="48.48749916299189" lon="-1.115940633407717"><ele>156.33333333333334</ele><time>2026-04-08T15:53:35Z</time></trkpt><trkpt lat="48.487475999290155" lon="-1.1158499214336592"><ele>156.0</ele><time>2026-04-08T15:53:36Z</time></trkpt><trkpt lat="48.48745431332258" lon="-1.1156970528775034"><ele>156.0</ele><time>2026-04-08T15:53:38Z</time></trkpt><trkpt lat="48.48754868269602" lon="-1.1156281361971798"><ele>156.0</ele><time>2026-04-08T15:53:42Z</time></trkpt><trkpt lat="48.48758085542504" lon="-1.115742299073408"><ele>156.0</ele><time>2026-04-08T15:53:53Z</time></trkpt><trkpt lat="48.48760858350041" lon="-1.1158285236536956"><ele>156.0</ele><time>2026-04-08T15:53:59Z</time></trkpt><trkpt lat="48.487608986010045" lon="-1.1159610501903596"><ele>156.0</ele><time>2026-04-08T15:58:27Z</time></trkpt><trkpt lat="48.48760521855205" lon="-1.1161184843964642"><ele>156.0</ele><time>2026-04-08T15:58:29Z</time></trkpt><trkpt lat="48.487579234365036" lon="-1.1162272621868115"><ele>156.0</ele><time>2026-04-08T15:58:31Z</time></trkpt><trkpt lat="48.48760888337768" lon="-1.11633020033658"><ele>156.0</ele><time>2026-04-08T15:58:33Z</time></trkpt><trkpt lat="48.48764827529329" lon="-1.1164391248671932"><ele>156.0</ele><time>2026-04-08T15:58:56Z</time></trkpt><trkpt lat="48.487608029849326" lon="-1.116582093877782"><ele>156.0</ele><time>2026-04-08T15:58:58Z</time></trkpt><trkpt lat="48.48755663415366" lon="-1.1166612692299873"><ele>156.0</ele><time>2026-04-08T15:58:59Z</time></trkpt><trkpt lat="48.487495321675716" lon="-1.116738678573001"><ele>156.0</ele><time>2026-04-08T15:59:00Z</time></trkpt><trkpt lat="48.48743686205061" lon="-1.1168036029729096"><ele>156.4</ele><time>2026-04-08T15:59:01Z</time></trkpt><trkpt lat="48.48738133986227" lon="-1.1168887767343236"><ele>156.8</ele><time>2026-04-08T15:59:02Z</time></trkpt><trkpt lat="48.487326325711244" lon="-1.1169911968952728"><ele>157.20000000000002</ele><time>2026-04-08T15:59:03Z</time></trkpt><trkpt lat="48.487261386547786" lon="-1.117100467840829"><ele>157.6</ele><time>2026-04-08T15:59:04Z</time></trkpt><trkpt lat="48.48719189607545" lon="-1.1172170722999115"><ele>158.0</ele><time>2026-04-08T15:59:05Z</time></trkpt><trkpt lat="48.4871138743766" lon="-1.1173402351856427"><ele>158.8</ele><time>2026-04-08T15:59:06Z</time></trkpt><trkpt lat="48.48704116316326" lon="-1.11746141564243"><ele>159.60000000000002</ele><time>2026-04-08T15:59:07Z</time></trkpt><trkpt lat="48.4869686550279" lon="-1.1175797968493657"><ele>160.39999999999998</ele><time>2026-04-08T15:59:08Z</time></trkpt><trkpt lat="48.486891010959475" lon="-1.1176938712973887"><ele>161.2</ele><time>2026-04-08T15:59:09Z</time></trkpt><trkpt lat="48.48682717980851" lon="-1.1178057741610201"><ele>162.0</ele><time>2026-04-08T15:59:10Z</time></trkpt><trkpt lat="48.48676503878797" lon="-1.1179295683470654"><ele>162.0</ele><time>2026-04-08T15:59:11Z</time></trkpt><trkpt lat="48.486685824932984" lon="-1.1180364573299013"><ele>162.0</ele><time>2026-04-08T15:59:12Z</time></trkpt><trkpt lat="48.48661695481019" lon="-1.118150059503661"><ele>162.0</ele><time>2026-04-08T15:59:13Z</time></trkpt><trkpt lat="48.486556242736135" lon="-1.118251504032628"><ele>162.0</ele><time>2026-04-08T15:59:14Z</time></trkpt><trkpt lat="48.48649678428703" lon="-1.1183796225860965"><ele>162.0</ele><time>2026-04-08T15:59:15Z</time></trkpt><trkpt lat="48.486417278594324" lon="-1.1184759397349107"><ele>162.6</ele><time>2026-04-08T15:59:16Z</time></trkpt><trkpt lat="48.486357649745855" lon="-1.1186059908861405"><ele>163.2</ele><time>2026-04-08T15:59:17Z</time></trkpt><trkpt lat="48.486283101840236" lon="-1.1187132534531241"><ele>163.8</ele><time>2026-04-08T15:59:18Z</time></trkpt><trkpt lat="48.486204949544586" lon="-1.1188165898354427"><ele>164.4</ele><time>2026-04-08T15:59:19Z</time></trkpt><trkpt lat="48.48611010735025" lon="-1.11891042684729"><ele>165.0</ele><time>2026-04-08T15:59:20Z</time></trkpt><trkpt lat="48.4860120388755" lon="-1.1190035940228484"><ele>165.25</ele><time>2026-04-08T15:59:21Z</time></trkpt><trkpt lat="48.48589871827943" lon="-1.1190986212207337"><ele>165.5</ele><time>2026-04-08T15:59:22Z</time></trkpt><trkpt lat="48.4857885018213" lon="-1.1191938548346019"><ele>165.75</ele><time>2026-04-08T15:59:23Z</time></trkpt><trkpt lat="48.48568207766542" lon="-1.1192864226933659"><ele>166.0</ele><time>2026-04-08T15:59:24Z</time></trkpt><trkpt lat="48.485573861364244" lon="-1.1193821706856546"><ele>166.0</ele><time>2026-04-08T15:59:25Z</time></trkpt><trkpt lat="48.48546452813554" lon="-1.1194789069753557"><ele>166.0</ele><time>2026-04-08T15:59:26Z</time></trkpt><trkpt lat="48.485355572871526" lon="-1.1195753088257687"><ele>166.0</ele><time>2026-04-08T15:59:27Z</time></trkpt><trkpt lat="48.485247292212925" lon="-1.119670913636478"><ele>166.0</ele><time>2026-04-08T15:59:28Z</time></trkpt><trkpt lat="48.485136850125954" lon="-1.119764102355867"><ele>166.75</ele><time>2026-04-08T15:59:29Z</time></trkpt><trkpt lat="48.48502555875556" lon="-1.1198580077293345"><ele>167.5</ele><time>2026-04-08T15:59:30Z</time></trkpt><trkpt lat="48.48491619046499" lon="-1.1199502904140723"><ele>168.25</ele><time>2026-04-08T15:59:31Z</time></trkpt><trkpt lat="48.48479375168894" lon="-1.1200262588538148"><ele>169.0</ele><time>2026-04-08T15:59:32Z</time></trkpt><trkpt lat="48.484684392079004" lon="-1.120132932363714"><ele>167.5</ele><time>2026-04-08T15:59:33Z</time></trkpt><trkpt lat="48.4845686658376" lon="-1.1202251247589161"><ele>166.0</ele><time>2026-04-08T15:59:34Z</time></trkpt><trkpt lat="48.48445339294757" lon="-1.1203182676086443"><ele>164.5</ele><time>2026-04-08T15:59:35Z</time></trkpt><trkpt lat="48.484349632239784" lon="-1.1204367592621012"><ele>163.0</ele><time>2026-04-08T15:59:36Z</time></trkpt><trkpt lat="48.48423524788631" lon="-1.1205367320742377"><ele>163.0</ele><time>2026-04-08T15:59:37Z</time></trkpt><trkpt lat="48.48411503452606" lon="-1.1206167980051385"><ele>163.0</ele><time>2026-04-08T15:59:38Z</time></trkpt><trkpt lat="48.4840063434115" lon="-1.1207255856877196"><ele>163.0</ele><time>2026-04-08T15:59:39Z</time></trkpt><trkpt lat="48.48389168080567" lon="-1.1208210681842457"><ele>163.0</ele><time>2026-04-08T15:59:40Z</time></trkpt><trkpt lat="48.483778856923585" lon="-1.1209198641812956"><ele>163.75</ele><time>2026-04-08T15:59:41Z</time></trkpt><trkpt lat="48.48366495924431" lon="-1.121019720470207"><ele>164.5</ele><time>2026-04-08T15:59:42Z</time></trkpt><trkpt lat="48.483554662462474" lon="-1.121125341747602"><ele>165.25</ele><time>2026-04-08T15:59:43Z</time></trkpt><trkpt lat="48.483435796115124" lon="-1.1212333182359202"><ele>166.0</ele><time>2026-04-08T15:59:44Z</time></trkpt><trkpt lat="48.48332138158864" lon="-1.1213285628567025"><ele>166.0</ele><time>2026-04-08T15:59:45Z</time></trkpt><trkpt lat="48.48320953535493" lon="-1.1214243168780593"><ele>166.0</ele><time>2026-04-08T15:59:46Z</time></trkpt><trkpt lat="48.48309954758954" lon="-1.1215179164654598"><ele>166.0</ele><time>2026-04-08T15:59:47Z</time></trkpt><trkpt lat="48.482989587506246" lon="-1.1216132335542237"><ele>166.0</ele><time>2026-04-08T15:59:48Z</time></trkpt><trkpt lat="48.48288115610203" lon="-1.1217095632705534"><ele>166.75</ele><time>2026-04-08T15:59:49Z</time></trkpt><trkpt lat="48.48277434866186" lon="-1.1218076151078822"><ele>167.5</ele><time>2026-04-08T15:59:50Z</time></trkpt><trkpt lat="48.48267299332778" lon="-1.1219101880741942"><ele>168.25</ele><time>2026-04-08T15:59:51Z</time></trkpt><trkpt lat="48.482563791648715" lon="-1.1219922992965408"><ele>169.0</ele><time>2026-04-08T15:59:52Z</time></trkpt><trkpt lat="48.482466379936064" lon="-1.1220797788160777"><ele>169.0</ele><time>2026-04-08T15:59:53Z</time></trkpt><trkpt lat="48.48237119181148" lon="-1.1221594218580353"><ele>169.0</ele><time>2026-04-08T15:59:54Z</time></trkpt><trkpt lat="48.4822770756553" lon="-1.1222396606242666"><ele>169.0</ele><time>2026-04-08T15:59:55Z</time></trkpt><trkpt lat="48.48218229756495" lon="-1.1223210243795443"><ele>169.0</ele><time>2026-04-08T15:59:56Z</time></trkpt><trkpt lat="48.48209294862467" lon="-1.1224017557410637"><ele>169.0</ele><time>2026-04-08T15:59:57Z</time></trkpt><trkpt lat="48.48201018299825" lon="-1.1224765635850247"><ele>170.39999999999998</ele><time>2026-04-08T15:59:58Z</time></trkpt><trkpt lat="48.48193255177668" lon="-1.1225461339338312"><ele>171.8</ele><time>2026-04-08T15:59:59Z</time></trkpt><trkpt lat="48.48186281176687" lon="-1.1226074483255646"><ele>173.2</ele><time>2026-04-08T16:00:00Z</time></trkpt><trkpt lat="48.48179947058003" lon="-1.1226574123741573"><ele>174.60000000000002</ele><time>2026-04-08T16:00:01Z</time></trkpt><trkpt lat="48.481702202231894" lon="-1.1227706382395215"><ele>176.0</ele><time>2026-04-08T16:00:03Z</time></trkpt><trkpt lat="48.4816060914131" lon="-1.1228345785751188"><ele>176.0</ele><time>2026-04-08T16:00:05Z</time></trkpt><trkpt lat="48.48155059319298" lon="-1.1229232865880714"><ele>176.0</ele><time>2026-04-08T16:00:07Z</time></trkpt><trkpt lat="48.48143433118845" lon="-1.1227511181432073"><ele>176.0</ele><time>2026-04-08T16:00:10Z</time></trkpt><trkpt lat="48.48142196166613" lon="-1.1225861606142167"><ele>176.0</ele><time>2026-04-08T16:00:12Z</time></trkpt><trkpt lat="48.48140369843055" lon="-1.1224840109929084"><ele>176.0</ele><time>2026-04-08T16:00:13Z</time></trkpt><trkpt lat="48.481396964087544" lon="-1.122370829222877"><ele>175.66666666666666</ele><time>2026-04-08T16:00:14Z</time></trkpt><trkpt lat="48.48139620375959" lon="-1.122257891570196"><ele>175.33333333333331</ele><time>2026-04-08T16:00:15Z</time></trkpt><trkpt lat="48.48138764860368" lon="-1.122152361443354"><ele>175.0</ele><time>2026-04-08T16:00:16Z</time></trkpt><trkpt lat="48.48137700679362" lon="-1.1220501859883474"><ele>174.66666666666666</ele><time>2026-04-08T16:00:17Z</time></trkpt><trkpt lat="48.48134085059431" lon="-1.1218904587172838"><ele>174.33333333333334</ele><time>2026-04-08T16:00:19Z</time></trkpt><trkpt lat="48.48129670590222" lon="-1.1217782628093758"><ele>174.0</ele><time>2026-04-08T16:00:21Z</time></trkpt><trkpt lat="48.481208286668554" lon="-1.1217376390773501"><ele>174.0</ele><time>2026-04-08T16:00:23Z</time></trkpt><trkpt lat="48.481144172172826" lon="-1.1215875386817198"><ele>174.0</ele><time>2026-04-08T16:00:25Z</time></trkpt><trkpt lat="48.48110009292235" lon="-1.121509485248025"><ele>174.0</ele><time>2026-04-08T16:00:26Z</time></trkpt><trkpt lat="48.48102855723709" lon="-1.121445939745676"><ele>174.0</ele><time>2026-04-08T16:00:27Z</time></trkpt><trkpt lat="48.48095774762774" lon="-1.1214082079531584"><ele>174.0</ele><time>2026-04-08T16:00:28Z</time></trkpt><trkpt lat="48.480886095646774" lon="-1.1213642657705167"><ele>174.0</ele><time>2026-04-08T16:00:29Z</time></trkpt><trkpt lat="48.48081806604966" lon="-1.1213203284155595"><ele>173.16666666666666</ele><time>2026-04-08T16:00:30Z</time></trkpt><trkpt lat="48.48075673467431" lon="-1.1212824707602278"><ele>172.33333333333334</ele><time>2026-04-08T16:00:31Z</time></trkpt><trkpt lat="48.4806862059595" lon="-1.1212360404433965"><ele>171.5</ele><time>2026-04-08T16:00:32Z</time></trkpt><trkpt lat="48.480608977238035" lon="-1.121173967247916"><ele>170.66666666666669</ele><time>2026-04-08T16:00:33Z</time></trkpt><trkpt lat="48.480509368885336" lon="-1.1211303337479923"><ele>169.83333333333334</ele><time>2026-04-08T16:00:34Z</time></trkpt><trkpt lat="48.48041558980503" lon="-1.1210660404093393"><ele>169.0</ele><time>2026-04-08T16:00:35Z</time></trkpt><trkpt lat="48.48032782385731" lon="-1.1210080631636488"><ele>168.0</ele><time>2026-04-08T16:00:36Z</time></trkpt><trkpt lat="48.48023249675246" lon="-1.120945091107438"><ele>167.0</ele><time>2026-04-08T16:00:37Z</time></trkpt><trkpt lat="48.4801253774844" lon="-1.1208758135376442"><ele>166.0</ele><time>2026-04-08T16:00:38Z</time></trkpt><trkpt lat="48.480018379325216" lon="-1.1208068356521168"><ele>165.0</ele><time>2026-04-08T16:00:39Z</time></trkpt><trkpt lat="48.4799094659211" lon="-1.1207366230901694"><ele>164.75</ele><time>2026-04-08T16:00:40Z</time></trkpt><trkpt lat="48.47980573547305" lon="-1.1206697518157651"><ele>164.5</ele><time>2026-04-08T16:00:41Z</time></trkpt><trkpt lat="48.47970073522285" lon="-1.1206009360059261"><ele>164.25</ele><time>2026-04-08T16:00:42Z</time></trkpt><trkpt lat="48.47959515499146" lon="-1.1205314955114736"><ele>164.0</ele><time>2026-04-08T16:00:43Z</time></trkpt><trkpt lat="48.479488753804056" lon="-1.1204615150934178"><ele>163.5</ele><time>2026-04-08T16:00:44Z</time></trkpt><trkpt lat="48.479382908910125" lon="-1.1203919005761664"><ele>163.0</ele><time>2026-04-08T16:00:45Z</time></trkpt><trkpt lat="48.479273670287405" lon="-1.1203200539748894"><ele>162.5</ele><time>2026-04-08T16:00:46Z</time></trkpt><trkpt lat="48.479169224267345" lon="-1.1202513594834702"><ele>162.0</ele><time>2026-04-08T16:00:47Z</time></trkpt><trkpt lat="48.47906867145571" lon="-1.1201852245250241"><ele>162.0</ele><time>2026-04-08T16:00:48Z</time></trkpt><trkpt lat="48.478969860574814" lon="-1.120121272284754"><ele>162.0</ele><time>2026-04-08T16:00:49Z</time></trkpt><trkpt lat="48.478877327882465" lon="-1.1200610947869811"><ele>162.0</ele><time>2026-04-08T16:00:50Z</time></trkpt><trkpt lat="48.47878939012097" lon="-1.1200039055560616"><ele>162.0</ele><time>2026-04-08T16:00:51Z</time></trkpt><trkpt lat="48.47871199034517" lon="-1.119931343538114"><ele>162.0</ele><time>2026-04-08T16:00:52Z</time></trkpt><trkpt lat="48.47862907827643" lon="-1.1199006183089826"><ele>161.5</ele><time>2026-04-08T16:00:53Z</time></trkpt><trkpt lat="48.478548953449355" lon="-1.119846893390312"><ele>161.0</ele><time>2026-04-08T16:00:54Z</time></trkpt><trkpt lat="48.47847829911704" lon="-1.1197941600886645"><ele>160.5</ele><time>2026-04-08T16:00:55Z</time></trkpt><trkpt lat="48.47841070485268" lon="-1.119732897842651"><ele>160.0</ele><time>2026-04-08T16:00:56Z</time></trkpt><trkpt lat="48.47835804416892" lon="-1.119644440051649"><ele>159.5</ele><time>2026-04-08T16:00:57Z</time></trkpt><trkpt lat="48.47829919235132" lon="-1.1195696437654876"><ele>159.0</ele><time>2026-04-08T16:00:58Z</time></trkpt><trkpt lat="48.47824200530863" lon="-1.1194808047304639"><ele>159.0</ele><time>2026-04-08T16:00:59Z</time></trkpt><trkpt lat="48.478167521324536" lon="-1.1193921875808082"><ele>159.0</ele><time>2026-04-08T16:01:00Z</time></trkpt><trkpt lat="48.478107685379804" lon="-1.1192776816803625"><ele>159.0</ele><time>2026-04-08T16:01:01Z</time></trkpt><trkpt lat="48.47805112653995" lon="-1.1191500872892954"><ele>159.0</ele><time>2026-04-08T16:01:02Z</time></trkpt><trkpt lat="48.478003727148774" lon="-1.1190081102766007"><ele>159.0</ele><time>2026-04-08T16:01:03Z</time></trkpt><trkpt lat="48.47796984495291" lon="-1.1188653198916918"><ele>159.4</ele><time>2026-04-08T16:01:04Z</time></trkpt><trkpt lat="48.47793278743792" lon="-1.1187192037357427"><ele>159.8</ele><time>2026-04-08T16:01:05Z</time></trkpt><trkpt lat="48.47789058848414" lon="-1.1185641246179245"><ele>160.20000000000002</ele><time>2026-04-08T16:01:06Z</time></trkpt><trkpt lat="48.47785138235733" lon="-1.1184039645396326"><ele>160.60000000000002</ele><time>2026-04-08T16:01:07Z</time></trkpt><trkpt lat="48.47781102986805" lon="-1.1182340335716858"><ele>161.0</ele><time>2026-04-08T16:01:08Z</time></trkpt><trkpt lat="48.47777174470992" lon="-1.1180676838148607"><ele>161.5</ele><time>2026-04-08T16:01:09Z</time></trkpt><trkpt lat="48.47773293995166" lon="-1.1178928964817834"><ele>162.0</ele><time>2026-04-08T16:01:10Z</time></trkpt><trkpt lat="48.47771002655966" lon="-1.1177120767067223"><ele>162.5</ele><time>2026-04-08T16:01:11Z</time></trkpt><trkpt lat="48.47767355021715" lon="-1.1175478181159741"><ele>163.0</ele><time>2026-04-08T16:01:12Z</time></trkpt><trkpt lat="48.47761756380746" lon="-1.1173926388868443"><ele>163.5</ele><time>2026-04-08T16:01:13Z</time></trkpt><trkpt lat="48.47758075430045" lon="-1.1172238388584725"><ele>164.0</ele><time>2026-04-08T16:01:14Z</time></trkpt><trkpt lat="48.47754527702251" lon="-1.1170519711003553"><ele>164.5</ele><time>2026-04-08T16:01:15Z</time></trkpt><trkpt lat="48.47752366087666" lon="-1.1168752069658154"><ele>165.0</ele><time>2026-04-08T16:01:16Z</time></trkpt><trkpt lat="48.477480276743265" lon="-1.1167053224704184"><ele>165.0</ele><time>2026-04-08T16:01:17Z</time></trkpt><trkpt lat="48.477429834819155" lon="-1.1165371678351195"><ele>165.0</ele><time>2026-04-08T16:01:18Z</time></trkpt><trkpt lat="48.47737931846062" lon="-1.116367058371028"><ele>165.0</ele><time>2026-04-08T16:01:19Z</time></trkpt><trkpt lat="48.477323280215366" lon="-1.116195003007844"><ele>165.0</ele><time>2026-04-08T16:01:20Z</time></trkpt><trkpt lat="48.477270675259334" lon="-1.116017310243233"><ele>165.0</ele><time>2026-04-08T16:01:21Z</time></trkpt><trkpt lat="48.47721503604554" lon="-1.1158349376488719"><ele>165.0</ele><time>2026-04-08T16:01:22Z</time></trkpt><trkpt lat="48.47715066572633" lon="-1.115637867499331"><ele>165.0</ele><time>2026-04-08T16:01:23Z</time></trkpt><trkpt lat="48.477068891455076" lon="-1.1154331132093356"><ele>165.0</ele><time>2026-04-08T16:01:24Z</time></trkpt><trkpt lat="48.4769957608537" lon="-1.1152037562209889"><ele>164.66666666666666</ele><time>2026-04-08T16:01:25Z</time></trkpt><trkpt lat="48.476920457416355" lon="-1.1149709311195557"><ele>164.33333333333331</ele><time>2026-04-08T16:01:26Z</time></trkpt><trkpt lat="48.476836599168074" lon="-1.114726828539275"><ele>164.0</ele><time>2026-04-08T16:01:27Z</time></trkpt><trkpt lat="48.47674441423393" lon="-1.1144584880237696"><ele>164.0</ele><time>2026-04-08T16:01:28Z</time></trkpt><trkpt lat="48.47665331098893" lon="-1.1142083641983163"><ele>164.0</ele><time>2026-04-08T16:01:29Z</time></trkpt><trkpt lat="48.476556683316836" lon="-1.1139663892189433"><ele>164.0</ele><time>2026-04-08T16:01:30Z</time></trkpt><trkpt lat="48.47644352583266" lon="-1.1137331349220736"><ele>163.66666666666666</ele><time>2026-04-08T16:01:31Z</time></trkpt><trkpt lat="48.47631911514799" lon="-1.1135019907946309"><ele>163.33333333333334</ele><time>2026-04-08T16:01:32Z</time></trkpt><trkpt lat="48.47619134612087" lon="-1.1132677019486261"><ele>163.0</ele><time>2026-04-08T16:01:33Z</time></trkpt><trkpt lat="48.47608317947989" lon="-1.1130066077485288"><ele>163.66666666666669</ele><time>2026-04-08T16:01:34Z</time></trkpt><trkpt lat="48.475972179037285" lon="-1.1127495617762624"><ele>164.33333333333334</ele><time>2026-04-08T16:01:35Z</time></trkpt><trkpt lat="48.475867476610915" lon="-1.1124908486053195"><ele>165.0</ele><time>2026-04-08T16:01:36Z</time></trkpt><trkpt lat="48.47576182317149" lon="-1.112231586548475"><ele>165.66666666666666</ele><time>2026-04-08T16:01:37Z</time></trkpt><trkpt lat="48.47565501178053" lon="-1.1119675768097397"><ele>166.33333333333331</ele><time>2026-04-08T16:01:38Z</time></trkpt><trkpt lat="48.47555619928426" lon="-1.1116991140838"><ele>167.0</ele><time>2026-04-08T16:01:39Z</time></trkpt><trkpt lat="48.47545840563736" lon="-1.1114423804639302"><ele>167.0</ele><time>2026-04-08T16:01:40Z</time></trkpt><trkpt lat="48.47536679650069" lon="-1.1111883271821739"><ele>167.0</ele><time>2026-04-08T16:01:41Z</time></trkpt><trkpt lat="48.47527958305204" lon="-1.1109477173535618"><ele>167.0</ele><time>2026-04-08T16:01:42Z</time></trkpt><trkpt lat="48.475204381253256" lon="-1.1107208243126263"><ele>167.66666666666666</ele><time>2026-04-08T16:01:43Z</time></trkpt><trkpt lat="48.47512871781763" lon="-1.1105007871497807"><ele>168.33333333333334</ele><time>2026-04-08T16:01:44Z</time></trkpt><trkpt lat="48.475052291995134" lon="-1.110285411555533"><ele>169.0</ele><time>2026-04-08T16:01:45Z</time></trkpt><trkpt lat="48.47499657283776" lon="-1.1100712978776077"><ele>169.0</ele><time>2026-04-08T16:01:46Z</time></trkpt><trkpt lat="48.47496311534984" lon="-1.109846209150167"><ele>169.0</ele><time>2026-04-08T16:01:47Z</time></trkpt><trkpt lat="48.47495488126579" lon="-1.1096004487250737"><ele>169.0</ele><time>2026-04-08T16:01:48Z</time></trkpt><trkpt lat="48.47495907887028" lon="-1.109358160535123"><ele>169.0</ele><time>2026-04-08T16:01:49Z</time></trkpt><trkpt lat="48.47497873800468" lon="-1.1091115072514546"><ele>169.0</ele><time>2026-04-08T16:01:50Z</time></trkpt><trkpt lat="48.47502425764485" lon="-1.1088418557656117"><ele>169.0</ele><time>2026-04-08T16:01:51Z</time></trkpt><trkpt lat="48.475080266643516" lon="-1.1085576387951404"><ele>168.0</ele><time>2026-04-08T16:01:52Z</time></trkpt><trkpt lat="48.47514063494848" lon="-1.1082744276191197"><ele>167.0</ele><time>2026-04-08T16:01:53Z</time></trkpt><trkpt lat="48.47519785683191" lon="-1.1079775188873826"><ele>166.0</ele><time>2026-04-08T16:01:54Z</time></trkpt><trkpt lat="48.47525691350426" lon="-1.1076809420483384"><ele>165.66666666666669</ele><time>2026-04-08T16:01:55Z</time></trkpt><trkpt lat="48.47531085203374" lon="-1.1073834791293056"><ele>165.33333333333334</ele><time>2026-04-08T16:01:56Z</time></trkpt><trkpt lat="48.47537860984062" lon="-1.1070805589816073"><ele>165.0</ele><time>2026-04-08T16:01:57Z</time></trkpt><trkpt lat="48.47543685695517" lon="-1.1067657938445323"><ele>163.66666666666666</ele><time>2026-04-08T16:01:58Z</time></trkpt><trkpt lat="48.47550387316111" lon="-1.1064540872915178"><ele>162.33333333333331</ele><time>2026-04-08T16:01:59Z</time></trkpt><trkpt lat="48.475579645961965" lon="-1.1061432313475188"><ele>161.0</ele><time>2026-04-08T16:02:00Z</time></trkpt><trkpt lat="48.4756509665347" lon="-1.1058300423733216"><ele>161.0</ele><time>2026-04-08T16:02:01Z</time></trkpt><trkpt lat="48.47572671750731" lon="-1.1055148774753691"><ele>161.0</ele><time>2026-04-08T16:02:02Z</time></trkpt><trkpt lat="48.475794225500614" lon="-1.1051982861946115"><ele>161.0</ele><time>2026-04-08T16:02:03Z</time></trkpt><trkpt lat="48.4758672345576" lon="-1.104883139299149"><ele>161.0</ele><time>2026-04-08T16:02:04Z</time></trkpt><trkpt lat="48.4759418272763" lon="-1.1045742569111079"><ele>161.0</ele><time>2026-04-08T16:02:05Z</time></trkpt><trkpt lat="48.476001203241864" lon="-1.1042707826979958"><ele>161.0</ele><time>2026-04-08T16:02:06Z</time></trkpt><trkpt lat="48.476063964038" lon="-1.103968540002033"><ele>162.33333333333331</ele><time>2026-04-08T16:02:07Z</time></trkpt><trkpt lat="48.476128690403655" lon="-1.1036693685565808"><ele>163.66666666666666</ele><time>2026-04-08T16:02:08Z</time></trkpt><trkpt lat="48.47618829359622" lon="-1.1033719862468179"><ele>165.0</ele><time>2026-04-08T16:02:09Z</time></trkpt><trkpt lat="48.47624936478747" lon="-1.1030753078056652"><ele>166.0</ele><time>2026-04-08T16:02:10Z</time></trkpt><trkpt lat="48.47631118980508" lon="-1.102782334815309"><ele>167.0</ele><time>2026-04-08T16:02:11Z</time></trkpt><trkpt lat="48.47637263889507" lon="-1.1024899356776992"><ele>168.0</ele><time>2026-04-08T16:02:12Z</time></trkpt><trkpt lat="48.47643417071146" lon="-1.102196217564283"><ele>168.33333333333334</ele><time>2026-04-08T16:02:13Z</time></trkpt><trkpt lat="48.47649694540019" lon="-1.1019030204708462"><ele>168.66666666666669</ele><time>2026-04-08T16:02:14Z</time></trkpt><trkpt lat="48.4765588573544" lon="-1.1016074595294625"><ele>169.0</ele><time>2026-04-08T16:02:15Z</time></trkpt><trkpt lat="48.47661989864199" lon="-1.1013109563273717"><ele>170.0</ele><time>2026-04-08T16:02:16Z</time></trkpt><trkpt lat="48.47668323706469" lon="-1.1010117646430155"><ele>171.0</ele><time>2026-04-08T16:02:17Z</time></trkpt><trkpt lat="48.47674687580072" lon="-1.100711946710282"><ele>172.0</ele><time>2026-04-08T16:02:18Z</time></trkpt><trkpt lat="48.47680982450619" lon="-1.1004111563163854"><ele>173.0</ele><time>2026-04-08T16:02:19Z</time></trkpt><trkpt lat="48.476874044085605" lon="-1.1001102070910267"><ele>174.0</ele><time>2026-04-08T16:02:20Z</time></trkpt><trkpt lat="48.47693730886226" lon="-1.0998086410298813"><ele>175.0</ele><time>2026-04-08T16:02:21Z</time></trkpt><trkpt lat="48.47700037865519" lon="-1.099508096979389"><ele>175.33333333333334</ele><time>2026-04-08T16:02:22Z</time></trkpt><trkpt lat="48.47706302829781" lon="-1.099204183237857"><ele>175.66666666666666</ele><time>2026-04-08T16:02:23Z</time></trkpt><trkpt lat="48.47712480764453" lon="-1.098901209185425"><ele>176.0</ele><time>2026-04-08T16:02:24Z</time></trkpt><trkpt lat="48.47718799268958" lon="-1.098596745066094"><ele>176.0</ele><time>2026-04-08T16:02:25Z</time></trkpt><trkpt lat="48.47724871876499" lon="-1.0982942495724137"><ele>176.0</ele><time>2026-04-08T16:02:26Z</time></trkpt><trkpt lat="48.47731652952114" lon="-1.0979881638890179"><ele>176.0</ele><time>2026-04-08T16:02:27Z</time></trkpt><trkpt lat="48.477380703707695" lon="-1.097681754978584"><ele>177.66666666666666</ele><time>2026-04-08T16:02:28Z</time></trkpt><trkpt lat="48.477442675233874" lon="-1.0973761154672228"><ele>179.33333333333334</ele><time>2026-04-08T16:02:29Z</time></trkpt><trkpt lat="48.47750421338434" lon="-1.0970681661553796"><ele>181.0</ele><time>2026-04-08T16:02:30Z</time></trkpt><trkpt lat="48.47756714563597" lon="-1.0967626036278266"><ele>182.33333333333334</ele><time>2026-04-08T16:02:31Z</time></trkpt><trkpt lat="48.47763281447757" lon="-1.0964586245575008"><ele>183.66666666666666</ele><time>2026-04-08T16:02:32Z</time></trkpt><trkpt lat="48.47769738922867" lon="-1.0961556717523542"><ele>185.0</ele><time>2026-04-08T16:02:33Z</time></trkpt><trkpt lat="48.4777603006315" lon="-1.0958516526037039"><ele>185.33333333333331</ele><time>2026-04-08T16:02:34Z</time></trkpt><trkpt lat="48.47782211629455" lon="-1.0955447508625953"><ele>185.66666666666666</ele><time>2026-04-08T16:02:35Z</time></trkpt><trkpt lat="48.47788793105535" lon="-1.0952375257371658"><ele>186.0</ele><time>2026-04-08T16:02:36Z</time></trkpt><trkpt lat="48.477953684642166" lon="-1.0949310133086665"><ele>185.66666666666666</ele><time>2026-04-08T16:02:37Z</time></trkpt><trkpt lat="48.47801721172879" lon="-1.0946266021806759"><ele>185.33333333333331</ele><time>2026-04-08T16:02:38Z</time></trkpt><trkpt lat="48.47808316240309" lon="-1.0943216536238893"><ele>185.0</ele><time>2026-04-08T16:02:39Z</time></trkpt><trkpt lat="48.478149865163026" lon="-1.0940152371746232"><ele>184.66666666666666</ele><time>2026-04-08T16:02:40Z</time></trkpt><trkpt lat="48.4782179540432" lon="-1.093703671200288"><ele>184.33333333333334</ele><time>2026-04-08T16:02:41Z</time></trkpt><trkpt lat="48.478278775800774" lon="-1.0933871208450976"><ele>184.0</ele><time>2026-04-08T16:02:42Z</time></trkpt><trkpt lat="48.47834115401887" lon="-1.0930634015644143"><ele>183.33333333333334</ele><time>2026-04-08T16:02:43Z</time></trkpt><trkpt lat="48.478403767119254" lon="-1.0927402805751865"><ele>182.66666666666666</ele><time>2026-04-08T16:02:44.001Z</time></trkpt><trkpt lat="48.47846477474175" lon="-1.0924279096734717"><ele>182.0</ele><time>2026-04-08T16:02:45.001Z</time></trkpt><trkpt lat="48.47852956648285" lon="-1.0921213957176377"><ele>181.33333333333331</ele><time>2026-04-08T16:02:46.001Z</time></trkpt><trkpt lat="48.47859922999401" lon="-1.0918108533617539"><ele>180.66666666666666</ele><time>2026-04-08T16:02:47.001Z</time></trkpt><trkpt lat="48.47866492858127" lon="-1.0914967068904804"><ele>180.0</ele><time>2026-04-08T16:02:48.001Z</time></trkpt><trkpt lat="48.47872818956478" lon="-1.0911816920040889"><ele>178.66666666666666</ele><time>2026-04-08T16:02:49.001Z</time></trkpt><trkpt lat="48.47879122355137" lon="-1.0908673425926572"><ele>177.33333333333331</ele><time>2026-04-08T16:02:50.001Z</time></trkpt><trkpt lat="48.478853273302065" lon="-1.0905517926337467"><ele>176.0</ele><time>2026-04-08T16:02:51.001Z</time></trkpt><trkpt lat="48.47891537277099" lon="-1.090241843374872"><ele>175.33333333333331</ele><time>2026-04-08T16:02:52.001Z</time></trkpt><trkpt lat="48.47897551663044" lon="-1.0899423990213482"><ele>174.66666666666666</ele><time>2026-04-08T16:02:53.001Z</time></trkpt><trkpt lat="48.47903226424978" lon="-1.0896489175190485"><ele>174.0</ele><time>2026-04-08T16:02:54.001Z</time></trkpt><trkpt lat="48.479089060508585" lon="-1.0893563594199742"><ele>173.0</ele><time>2026-04-08T16:02:55.001Z</time></trkpt><trkpt lat="48.479148020338265" lon="-1.0890661379710294"><ele>172.0</ele><time>2026-04-08T16:02:56.001Z</time></trkpt><trkpt lat="48.47921162946985" lon="-1.0887880553867941"><ele>171.0</ele><time>2026-04-08T16:02:57.001Z</time></trkpt><trkpt lat="48.47926469875843" lon="-1.0885227952582057"><ele>171.0</ele><time>2026-04-08T16:02:58.001Z</time></trkpt><trkpt lat="48.47932091532869" lon="-1.0882602653615112"><ele>171.0</ele><time>2026-04-08T16:02:59.001Z</time></trkpt><trkpt lat="48.479374166927904" lon="-1.0880096681461449"><ele>171.0</ele><time>2026-04-08T16:03:00.001Z</time></trkpt><trkpt lat="48.47942453708935" lon="-1.0877677193276907"><ele>170.66666666666666</ele><time>2026-04-08T16:03:01.001Z</time></trkpt><trkpt lat="48.47947018177233" lon="-1.0875282416556995"><ele>170.33333333333331</ele><time>2026-04-08T16:03:02.001Z</time></trkpt><trkpt lat="48.479507668645034" lon="-1.0872831339282334"><ele>170.0</ele><time>2026-04-08T16:03:03.001Z</time></trkpt><trkpt lat="48.479524475615015" lon="-1.0870328184346008"><ele>169.66666666666666</ele><time>2026-04-08T16:03:04Z</time></trkpt><trkpt lat="48.479522283101154" lon="-1.0867887900061404"><ele>169.33333333333334</ele><time>2026-04-08T16:03:05Z</time></trkpt><trkpt lat="48.47950525801416" lon="-1.086543659321977"><ele>169.0</ele><time>2026-04-08T16:03:06Z</time></trkpt><trkpt lat="48.47946890151325" lon="-1.0863103288844973"><ele>168.0</ele><time>2026-04-08T16:03:07Z</time></trkpt><trkpt lat="48.47943179336886" lon="-1.0860790690125741"><ele>167.0</ele><time>2026-04-08T16:03:08Z</time></trkpt><trkpt lat="48.479403640830206" lon="-1.0858417677097838"><ele>166.0</ele><time>2026-04-08T16:03:09Z</time></trkpt><trkpt lat="48.47937373043705" lon="-1.0856020695850042"><ele>166.33333333333334</ele><time>2026-04-08T16:03:10Z</time></trkpt><trkpt lat="48.47936501832621" lon="-1.0853552418933523"><ele>166.66666666666666</ele><time>2026-04-08T16:03:11Z</time></trkpt><trkpt lat="48.47938657186455" lon="-1.085098531625577"><ele>167.0</ele><time>2026-04-08T16:03:12Z</time></trkpt><trkpt lat="48.47943197506668" lon="-1.0848586687808432"><ele>167.0</ele><time>2026-04-08T16:03:13Z</time></trkpt><trkpt lat="48.47946742127572" lon="-1.0846177588320036"><ele>167.0</ele><time>2026-04-08T16:03:14Z</time></trkpt><trkpt lat="48.4795126780252" lon="-1.0843882434862686"><ele>167.0</ele><time>2026-04-08T16:03:15Z</time></trkpt><trkpt lat="48.479553982475196" lon="-1.0841661808247942"><ele>167.66666666666666</ele><time>2026-04-08T16:03:16Z</time></trkpt><trkpt lat="48.47959419532624" lon="-1.0839408761966147"><ele>168.33333333333334</ele><time>2026-04-08T16:03:17Z</time></trkpt><trkpt lat="48.47961616180692" lon="-1.0836944881143973"><ele>169.0</ele><time>2026-04-08T16:03:18Z</time></trkpt><trkpt lat="48.47963184685639" lon="-1.083452140493501"><ele>168.0</ele><time>2026-04-08T16:03:19Z</time></trkpt><trkpt lat="48.47964375437404" lon="-1.0832177918213102"><ele>167.0</ele><time>2026-04-08T16:03:20Z</time></trkpt><trkpt lat="48.479645331453355" lon="-1.0829900754601127"><ele>166.0</ele><time>2026-04-08T16:03:21Z</time></trkpt><trkpt lat="48.47962940350955" lon="-1.0827814881663007"><ele>165.0</ele><time>2026-04-08T16:03:22Z</time></trkpt><trkpt lat="48.479599750058846" lon="-1.0825652365440517"><ele>162.0</ele><time>2026-04-08T16:03:23Z</time></trkpt><trkpt lat="48.479540846114524" lon="-1.082342819834174"><ele>159.0</ele><time>2026-04-08T16:03:24Z</time></trkpt><trkpt lat="48.47946880875318" lon="-1.0821228287711269"><ele>156.0</ele><time>2026-04-08T16:03:25Z</time></trkpt><trkpt lat="48.479394173402866" lon="-1.081913961543312"><ele>156.0</ele><time>2026-04-08T16:03:26Z</time></trkpt><trkpt lat="48.47931749239088" lon="-1.081723368343856"><ele>156.0</ele><time>2026-04-08T16:03:27Z</time></trkpt><trkpt lat="48.47925863208607" lon="-1.0815207178910742"><ele>156.0</ele><time>2026-04-08T16:03:28Z</time></trkpt><trkpt lat="48.479181603040935" lon="-1.0813287323739047"><ele>156.0</ele><time>2026-04-08T16:03:29Z</time></trkpt><trkpt lat="48.47908425535311" lon="-1.0811158165832562"><ele>153.33333333333334</ele><time>2026-04-08T16:03:30Z</time></trkpt><trkpt lat="48.478991444599764" lon="-1.080894098297151"><ele>150.66666666666669</ele><time>2026-04-08T16:03:31Z</time></trkpt><trkpt lat="48.47892952605857" lon="-1.08066319744692"><ele>148.0</ele><time>2026-04-08T16:03:32Z</time></trkpt><trkpt lat="48.47889746567038" lon="-1.0804286947286916"><ele>145.66666666666669</ele><time>2026-04-08T16:03:33Z</time></trkpt><trkpt lat="48.47887680404121" lon="-1.0801767803247326"><ele>143.33333333333334</ele><time>2026-04-08T16:03:34Z</time></trkpt><trkpt lat="48.478880690451376" lon="-1.0799222479744692"><ele>141.0</ele><time>2026-04-08T16:03:35Z</time></trkpt><trkpt lat="48.47888567809865" lon="-1.079673045108302"><ele>138.66666666666666</ele><time>2026-04-08T16:03:36Z</time></trkpt><trkpt lat="48.4788873430123" lon="-1.0794134169353804"><ele>136.33333333333331</ele><time>2026-04-08T16:03:37Z</time></trkpt><trkpt lat="48.47889018090382" lon="-1.0791552982850356"><ele>134.0</ele><time>2026-04-08T16:03:38Z</time></trkpt><trkpt lat="48.47889231442973" lon="-1.0788957019721859"><ele>132.66666666666666</ele><time>2026-04-08T16:03:39Z</time></trkpt><trkpt lat="48.47889391397805" lon="-1.0786441766259265"><ele>131.33333333333334</ele><time>2026-04-08T16:03:40Z</time></trkpt><trkpt lat="48.47889286637085" lon="-1.0783934174478778"><ele>130.0</ele><time>2026-04-08T16:03:41Z</time></trkpt><trkpt lat="48.47889602901871" lon="-1.078152363591344"><ele>129.5</ele><time>2026-04-08T16:03:42Z</time></trkpt><trkpt lat="48.478912953470086" lon="-1.0779268861571663"><ele>129.0</ele><time>2026-04-08T16:03:43Z</time></trkpt><trkpt lat="48.47895058000317" lon="-1.0777080217721016"><ele>128.5</ele><time>2026-04-08T16:03:44Z</time></trkpt><trkpt lat="48.47900425991542" lon="-1.0774995161933822"><ele>128.0</ele><time>2026-04-08T16:03:45Z</time></trkpt><trkpt lat="48.47908836710502" lon="-1.0772974522302194"><ele>128.0</ele><time>2026-04-08T16:03:46Z</time></trkpt><trkpt lat="48.47920299085321" lon="-1.077125613813035"><ele>128.0</ele><time>2026-04-08T16:03:47Z</time></trkpt><trkpt lat="48.479329773268525" lon="-1.0769603991259975"><ele>128.0</ele><time>2026-04-08T16:03:48Z</time></trkpt><trkpt lat="48.47947120948061" lon="-1.0767935921531997"><ele>126.33333333333333</ele><time>2026-04-08T16:03:49Z</time></trkpt><trkpt lat="48.47960867208592" lon="-1.0766288055894007"><ele>124.66666666666666</ele><time>2026-04-08T16:03:50Z</time></trkpt><trkpt lat="48.47973935254638" lon="-1.0764661479449753"><ele>123.0</ele><time>2026-04-08T16:03:51Z</time></trkpt><trkpt lat="48.47986718777955" lon="-1.0763107149896287"><ele>121.66666666666666</ele><time>2026-04-08T16:03:52Z</time></trkpt><trkpt lat="48.47999327232584" lon="-1.0761536013984316"><ele>120.33333333333333</ele><time>2026-04-08T16:03:53.001Z</time></trkpt><trkpt lat="48.480117063072825" lon="-1.0759958077765672"><ele>119.0</ele><time>2026-04-08T16:03:54.001Z</time></trkpt><trkpt lat="48.48023997794804" lon="-1.0758464223401152"><ele>117.5</ele><time>2026-04-08T16:03:55.001Z</time></trkpt><trkpt lat="48.48036904556332" lon="-1.0757211532815862"><ele>116.0</ele><time>2026-04-08T16:03:56.001Z</time></trkpt><trkpt lat="48.480505396396374" lon="-1.0756207378537612"><ele>114.5</ele><time>2026-04-08T16:03:57.001Z</time></trkpt><trkpt lat="48.48063756170323" lon="-1.075540550850479"><ele>113.0</ele><time>2026-04-08T16:03:58.001Z</time></trkpt><trkpt lat="48.48076998412515" lon="-1.0754780905224188"><ele>112.75</ele><time>2026-04-08T16:03:59.001Z</time></trkpt><trkpt lat="48.48088836205812" lon="-1.0753888414212551"><ele>112.5</ele><time>2026-04-08T16:04:00.001Z</time></trkpt><trkpt lat="48.48099311327047" lon="-1.0752735191818448"><ele>112.25</ele><time>2026-04-08T16:04:01.001Z</time></trkpt><trkpt lat="48.48108761515835" lon="-1.0751275839414836"><ele>112.0</ele><time>2026-04-08T16:04:02.001Z</time></trkpt><trkpt lat="48.48116640487663" lon="-1.0749693126693856"><ele>111.25</ele><time>2026-04-08T16:04:03.001Z</time></trkpt><trkpt lat="48.481210710944964" lon="-1.0747830668440594"><ele>110.5</ele><time>2026-04-08T16:04:04.001Z</time></trkpt><trkpt lat="48.48122089059847" lon="-1.0746037606189136"><ele>109.75</ele><time>2026-04-08T16:04:05.001Z</time></trkpt><trkpt lat="48.48118403311727" lon="-1.0744221352833263"><ele>109.0</ele><time>2026-04-08T16:04:06.001Z</time></trkpt><trkpt lat="48.48113833786564" lon="-1.074242941464108"><ele>108.0</ele><time>2026-04-08T16:04:07.001Z</time></trkpt><trkpt lat="48.48106214644499" lon="-1.0740727033783748"><ele>107.0</ele><time>2026-04-08T16:04:08.001Z</time></trkpt><trkpt lat="48.4809416297331" lon="-1.0739087964712655"><ele>106.0</ele><time>2026-04-08T16:04:09.001Z</time></trkpt><trkpt lat="48.480804539402634" lon="-1.0737635826486773"><ele>106.0</ele><time>2026-04-08T16:04:10.001Z</time></trkpt><trkpt lat="48.480672299348775" lon="-1.0736162680368422"><ele>106.0</ele><time>2026-04-08T16:04:11.001Z</time></trkpt><trkpt lat="48.48053473813682" lon="-1.0734673772802643"><ele>106.0</ele><time>2026-04-08T16:04:12.001Z</time></trkpt><trkpt lat="48.480403791168484" lon="-1.073297353192985"><ele>109.0</ele><time>2026-04-08T16:04:13.001Z</time></trkpt><trkpt lat="48.48026933293363" lon="-1.0731259646698756"><ele>112.0</ele><time>2026-04-08T16:04:14.001Z</time></trkpt><trkpt lat="48.48012566008713" lon="-1.0729928489417249"><ele>115.0</ele><time>2026-04-08T16:04:15.001Z</time></trkpt><trkpt lat="48.48000132812438" lon="-1.0728235715509582"><ele>115.0</ele><time>2026-04-08T16:04:16.001Z</time></trkpt><trkpt lat="48.47986533054872" lon="-1.0726851435320093"><ele>115.0</ele><time>2026-04-08T16:04:17.001Z</time></trkpt><trkpt lat="48.47974874346116" lon="-1.0725073867344224"><ele>115.0</ele><time>2026-04-08T16:04:18.001Z</time></trkpt><trkpt lat="48.47964656429841" lon="-1.072320463330065"><ele>116.33333333333334</ele><time>2026-04-08T16:04:19.001Z</time></trkpt><trkpt lat="48.47956078062137" lon="-1.0721078747382595"><ele>117.66666666666666</ele><time>2026-04-08T16:04:20.001Z</time></trkpt><trkpt lat="48.4794884970574" lon="-1.071872762458331"><ele>119.0</ele><time>2026-04-08T16:04:21.001Z</time></trkpt><trkpt lat="48.47943576601828" lon="-1.0716202749860733"><ele>119.33333333333333</ele><time>2026-04-08T16:04:22.001Z</time></trkpt><trkpt lat="48.47939737176885" lon="-1.0713578908576944"><ele>119.66666666666666</ele><time>2026-04-08T16:04:23.001Z</time></trkpt><trkpt lat="48.47935170358051" lon="-1.0710918294858522"><ele>120.0</ele><time>2026-04-08T16:04:24.001Z</time></trkpt><trkpt lat="48.47930394095708" lon="-1.0708165504271907"><ele>120.66666666666666</ele><time>2026-04-08T16:04:25.001Z</time></trkpt><trkpt lat="48.47925972432089" lon="-1.0705380686880834"><ele>121.33333333333333</ele><time>2026-04-08T16:04:26.001Z</time></trkpt><trkpt lat="48.479223975541856" lon="-1.0702621435992383"><ele>122.0</ele><time>2026-04-08T16:04:27.001Z</time></trkpt><trkpt lat="48.47919523169674" lon="-1.069982627031624"><ele>122.33333333333333</ele><time>2026-04-08T16:04:28.001Z</time></trkpt><trkpt lat="48.47918075844775" lon="-1.069702966942815"><ele>122.66666666666666</ele><time>2026-04-08T16:04:29.001Z</time></trkpt><trkpt lat="48.479184219987296" lon="-1.0694202920663616"><ele>123.0</ele><time>2026-04-08T16:04:30.001Z</time></trkpt><trkpt lat="48.47920494648055" lon="-1.0691360545650117"><ele>124.33333333333334</ele><time>2026-04-08T16:04:31.001Z</time></trkpt><trkpt lat="48.47924735619382" lon="-1.0688507512017358"><ele>125.66666666666667</ele><time>2026-04-08T16:04:32.001Z</time></trkpt><trkpt lat="48.47929819292067" lon="-1.0685634060246962"><ele>127.0</ele><time>2026-04-08T16:04:33.001Z</time></trkpt><trkpt lat="48.47934504058174" lon="-1.0682706440097545"><ele>127.33333333333334</ele><time>2026-04-08T16:04:34.001Z</time></trkpt><trkpt lat="48.4793863939192" lon="-1.0679756281055308"><ele>127.66666666666666</ele><time>2026-04-08T16:04:35.001Z</time></trkpt><trkpt lat="48.47941342113251" lon="-1.0676726725883372"><ele>128.0</ele><time>2026-04-08T16:04:36.001Z</time></trkpt><trkpt lat="48.47939392696401" lon="-1.0673713015324997"><ele>128.0</ele><time>2026-04-08T16:04:37.001Z</time></trkpt><trkpt lat="48.479375614170806" lon="-1.067058738812688"><ele>128.0</ele><time>2026-04-08T16:04:38.001Z</time></trkpt><trkpt lat="48.47935561243266" lon="-1.0667473176985132"><ele>128.0</ele><time>2026-04-08T16:04:39.001Z</time></trkpt><trkpt lat="48.47933480340827" lon="-1.0664251457891565"><ele>128.0</ele><time>2026-04-08T16:04:40.001Z</time></trkpt><trkpt lat="48.47931343678516" lon="-1.0660943409085057"><ele>128.0</ele><time>2026-04-08T16:04:41.001Z</time></trkpt><trkpt lat="48.47929206881175" lon="-1.0657548449278502"><ele>128.0</ele><time>2026-04-08T16:04:42.001Z</time></trkpt><trkpt lat="48.47927039453432" lon="-1.0654096813789007"><ele>130.0</ele><time>2026-04-08T16:04:43.001Z</time></trkpt><trkpt lat="48.47925035721548" lon="-1.065090775609556"><ele>132.0</ele><time>2026-04-08T16:04:44.001Z</time></trkpt><trkpt lat="48.479229457394474" lon="-1.0647833695408058"><ele>134.0</ele><time>2026-04-08T16:04:45.001Z</time></trkpt><trkpt lat="48.479208818351594" lon="-1.064482899552374"><ele>135.33333333333331</ele><time>2026-04-08T16:04:46.001Z</time></trkpt><trkpt lat="48.47919285652488" lon="-1.0641775849662003"><ele>136.66666666666666</ele><time>2026-04-08T16:04:47.001Z</time></trkpt><trkpt lat="48.47921844919073" lon="-1.063883798195299"><ele>138.0</ele><time>2026-04-08T16:04:48.001Z</time></trkpt><trkpt lat="48.479260157064616" lon="-1.063592900298833"><ele>139.66666666666666</ele><time>2026-04-08T16:04:49.001Z</time></trkpt><trkpt lat="48.479302596113236" lon="-1.0633022182040057"><ele>141.33333333333331</ele><time>2026-04-08T16:04:50.001Z</time></trkpt><trkpt lat="48.47933428902299" lon="-1.0630163345737347"><ele>143.0</ele><time>2026-04-08T16:04:51.001Z</time></trkpt><trkpt lat="48.479328178767396" lon="-1.0627252756271623"><ele>143.33333333333331</ele><time>2026-04-08T16:04:52.001Z</time></trkpt><trkpt lat="48.47933785111551" lon="-1.0624315992359796"><ele>143.66666666666666</ele><time>2026-04-08T16:04:53.001Z</time></trkpt><trkpt lat="48.4793490541913" lon="-1.0621380511884018"><ele>144.0</ele><time>2026-04-08T16:04:54.001Z</time></trkpt><trkpt lat="48.47933041848973" lon="-1.061869723673561"><ele>144.33333333333334</ele><time>2026-04-08T16:04:55.001Z</time></trkpt><trkpt lat="48.47931875056545" lon="-1.0615854670411338"><ele>144.66666666666669</ele><time>2026-04-08T16:04:56.001Z</time></trkpt><trkpt lat="48.47930614785002" lon="-1.0612784366632555"><ele>145.0</ele><time>2026-04-08T16:04:57.001Z</time></trkpt><trkpt lat="48.47929235773902" lon="-1.0609304940229118"><ele>145.66666666666669</ele><time>2026-04-08T16:04:58.001Z</time></trkpt><trkpt lat="48.479279577083" lon="-1.0606035564662624"><ele>146.33333333333334</ele><time>2026-04-08T16:04:59.001Z</time></trkpt><trkpt lat="48.47926877919372" lon="-1.0602983833965614"><ele>147.0</ele><time>2026-04-08T16:05:00.001Z</time></trkpt><trkpt lat="48.47925496133131" lon="-1.0600095794269473"><ele>146.66666666666666</ele><time>2026-04-08T16:05:01.001Z</time></trkpt><trkpt lat="48.47923170769058" lon="-1.059739866432524"><ele>146.33333333333331</ele><time>2026-04-08T16:05:02.001Z</time></trkpt><trkpt lat="48.47917900300446" lon="-1.059485781739441"><ele>146.0</ele><time>2026-04-08T16:05:03.001Z</time></trkpt><trkpt lat="48.47909722418927" lon="-1.0592501097520959"><ele>146.0</ele><time>2026-04-08T16:05:04.001Z</time></trkpt><trkpt lat="48.478989069503015" lon="-1.059034295606474"><ele>146.0</ele><time>2026-04-08T16:05:05.001Z</time></trkpt><trkpt lat="48.478864032558725" lon="-1.0588233989278788"><ele>146.0</ele><time>2026-04-08T16:05:06.001Z</time></trkpt><trkpt lat="48.478733901020014" lon="-1.0586059431615809"><ele>147.66666666666666</ele><time>2026-04-08T16:05:07.001Z</time></trkpt><trkpt lat="48.478600718371055" lon="-1.0583829219453031"><ele>149.33333333333334</ele><time>2026-04-08T16:05:08.001Z</time></trkpt><trkpt lat="48.4784629982572" lon="-1.0581523028618962"><ele>151.0</ele><time>2026-04-08T16:05:09.001Z</time></trkpt><trkpt lat="48.4783294746599" lon="-1.0579287106016706"><ele>151.0</ele><time>2026-04-08T16:05:10.001Z</time></trkpt><trkpt lat="48.47820154224325" lon="-1.0577144818491808"><ele>151.0</ele><time>2026-04-08T16:05:11.001Z</time></trkpt><trkpt lat="48.47807223040413" lon="-1.057497942837708"><ele>151.0</ele><time>2026-04-08T16:05:12.001Z</time></trkpt><trkpt lat="48.477948440242756" lon="-1.0572901104522776"><ele>153.0</ele><time>2026-04-08T16:05:13.001Z</time></trkpt><trkpt lat="48.47782602643875" lon="-1.0570800538413807"><ele>155.0</ele><time>2026-04-08T16:05:14.001Z</time></trkpt><trkpt lat="48.47771046457065" lon="-1.0568593099963632"><ele>157.0</ele><time>2026-04-08T16:05:15.001Z</time></trkpt><trkpt lat="48.47760144236625" lon="-1.0566215281197908"><ele>157.33333333333334</ele><time>2026-04-08T16:05:16.001Z</time></trkpt><trkpt lat="48.477515082591516" lon="-1.0563471117788716"><ele>157.66666666666666</ele><time>2026-04-08T16:05:17.001Z</time></trkpt><trkpt lat="48.4774637953006" lon="-1.0560848595348171"><ele>158.0</ele><time>2026-04-08T16:05:18.001Z</time></trkpt><trkpt lat="48.47743821383067" lon="-1.055810255763904"><ele>158.0</ele><time>2026-04-08T16:05:19.001Z</time></trkpt><trkpt lat="48.477438005891294" lon="-1.0555398357332462"><ele>158.0</ele><time>2026-04-08T16:05:20.001Z</time></trkpt><trkpt lat="48.477463490107155" lon="-1.0552605451620114"><ele>158.0</ele><time>2026-04-08T16:05:21Z</time></trkpt><trkpt lat="48.477504982151494" lon="-1.0549610067140585"><ele>158.0</ele><time>2026-04-08T16:05:22Z</time></trkpt><trkpt lat="48.47756189647697" lon="-1.0546426749915776"><ele>158.0</ele><time>2026-04-08T16:05:23Z</time></trkpt><trkpt lat="48.47764661457576" lon="-1.0543418985723751"><ele>158.0</ele><time>2026-04-08T16:05:24Z</time></trkpt><trkpt lat="48.477717300913646" lon="-1.0540410356350018"><ele>158.33333333333331</ele><time>2026-04-08T16:05:25Z</time></trkpt><trkpt lat="48.477790005140406" lon="-1.0537335769041793"><ele>158.66666666666666</ele><time>2026-04-08T16:05:26Z</time></trkpt><trkpt lat="48.477861622131094" lon="-1.0534261083213967"><ele>159.0</ele><time>2026-04-08T16:05:27Z</time></trkpt><trkpt lat="48.47793209067813" lon="-1.0531157685926724"><ele>159.0</ele><time>2026-04-08T16:05:28Z</time></trkpt><trkpt lat="48.477999147456984" lon="-1.0528094709091222"><ele>159.0</ele><time>2026-04-08T16:05:29Z</time></trkpt><trkpt lat="48.478070233479436" lon="-1.0525064282779708"><ele>159.0</ele><time>2026-04-08T16:05:30Z</time></trkpt><trkpt lat="48.47814419445432" lon="-1.052192922776402"><ele>159.0</ele><time>2026-04-08T16:05:31Z</time></trkpt><trkpt lat="48.4782224653774" lon="-1.0519009395961725"><ele>159.0</ele><time>2026-04-08T16:05:32Z</time></trkpt><trkpt lat="48.478289146682286" lon="-1.051632879720361"><ele>159.0</ele><time>2026-04-08T16:05:33Z</time></trkpt><trkpt lat="48.4783545385466" lon="-1.0513658241755341"><ele>159.33333333333334</ele><time>2026-04-08T16:05:34Z</time></trkpt><trkpt lat="48.47841953623921" lon="-1.0510959817369496"><ele>159.66666666666669</ele><time>2026-04-08T16:05:35Z</time></trkpt><trkpt lat="48.478486071222775" lon="-1.0508301617221074"><ele>160.0</ele><time>2026-04-08T16:05:36Z</time></trkpt><trkpt lat="48.47855654143445" lon="-1.0505400330366386"><ele>160.0</ele><time>2026-04-08T16:05:37Z</time></trkpt><trkpt lat="48.47862539362805" lon="-1.0502606912502406"><ele>160.0</ele><time>2026-04-08T16:05:38Z</time></trkpt><trkpt lat="48.478706924440054" lon="-1.0499538036196046"><ele>160.0</ele><time>2026-04-08T16:05:39Z</time></trkpt><trkpt lat="48.47879216582876" lon="-1.0496351543372913"><ele>160.0</ele><time>2026-04-08T16:05:40Z</time></trkpt><trkpt lat="48.47886374475032" lon="-1.0493135275731544"><ele>160.0</ele><time>2026-04-08T16:05:41Z</time></trkpt><trkpt lat="48.4789234751845" lon="-1.0489970283178796"><ele>160.0</ele><time>2026-04-08T16:05:42Z</time></trkpt><trkpt lat="48.47897307940571" lon="-1.0486938706944597"><ele>160.66666666666669</ele><time>2026-04-08T16:05:43Z</time></trkpt><trkpt lat="48.47903211966002" lon="-1.0484081208823557"><ele>161.33333333333334</ele><time>2026-04-08T16:05:44Z</time></trkpt><trkpt lat="48.47907961927706" lon="-1.048130500856277"><ele>162.0</ele><time>2026-04-08T16:05:45Z</time></trkpt><trkpt lat="48.47913032103085" lon="-1.0478472713907194"><ele>162.33333333333334</ele><time>2026-04-08T16:05:46Z</time></trkpt><trkpt lat="48.4791732808897" lon="-1.0475542389476362"><ele>162.66666666666669</ele><time>2026-04-08T16:05:47Z</time></trkpt><trkpt lat="48.47919228777498" lon="-1.0472618697336333"><ele>163.0</ele><time>2026-04-08T16:05:48Z</time></trkpt><trkpt lat="48.47920585858037" lon="-1.0469724349842198"><ele>163.66666666666669</ele><time>2026-04-08T16:05:49Z</time></trkpt><trkpt lat="48.47922637482397" lon="-1.0466856409510423"><ele>164.33333333333334</ele><time>2026-04-08T16:05:50Z</time></trkpt><trkpt lat="48.47924576676222" lon="-1.0464017849084413"><ele>165.0</ele><time>2026-04-08T16:05:51Z</time></trkpt><trkpt lat="48.47926480704722" lon="-1.04612079879181"><ele>165.66666666666666</ele><time>2026-04-08T16:05:52Z</time></trkpt><trkpt lat="48.47928329866637" lon="-1.0458479097288984"><ele>166.33333333333331</ele><time>2026-04-08T16:05:53Z</time></trkpt><trkpt lat="48.47930268944408" lon="-1.0455614491209613"><ele>167.0</ele><time>2026-04-08T16:05:54Z</time></trkpt><trkpt lat="48.47932357768541" lon="-1.045266807257599"><ele>167.66666666666666</ele><time>2026-04-08T16:05:55Z</time></trkpt><trkpt lat="48.479344533964635" lon="-1.0449712058106608"><ele>168.33333333333334</ele><time>2026-04-08T16:05:56Z</time></trkpt><trkpt lat="48.47936554883391" lon="-1.0446747780001495"><ele>169.0</ele><time>2026-04-08T16:05:57Z</time></trkpt><trkpt lat="48.4793866325702" lon="-1.0443773787898973"><ele>171.33333333333334</ele><time>2026-04-08T16:05:58Z</time></trkpt><trkpt lat="48.47940777420601" lon="-1.0440791628878736"><ele>173.66666666666666</ele><time>2026-04-08T16:05:59Z</time></trkpt><trkpt lat="48.47943015828151" lon="-1.0437634213649991"><ele>176.0</ele><time>2026-04-08T16:06:00Z</time></trkpt><trkpt lat="48.479451949467006" lon="-1.043456035959716"><ele>176.66666666666666</ele><time>2026-04-08T16:06:01Z</time></trkpt><trkpt lat="48.479473994639065" lon="-1.043145065641816"><ele>177.33333333333334</ele><time>2026-04-08T16:06:02Z</time></trkpt><trkpt lat="48.47949596034454" lon="-1.042835216274773"><ele>178.0</ele><time>2026-04-08T16:06:03Z</time></trkpt><trkpt lat="48.47952023491497" lon="-1.0425207793464781"><ele>178.33333333333334</ele><time>2026-04-08T16:06:04Z</time></trkpt><trkpt lat="48.47958079816467" lon="-1.042204511772939"><ele>178.66666666666666</ele><time>2026-04-08T16:06:05Z</time></trkpt><trkpt lat="48.47960555268929" lon="-1.041888779582967"><ele>179.0</ele><time>2026-04-08T16:06:06Z</time></trkpt><trkpt lat="48.4796308644994" lon="-1.0415685875457719"><ele>178.33333333333331</ele><time>2026-04-08T16:06:07Z</time></trkpt><trkpt lat="48.479662664049" lon="-1.0412610412651813"><ele>177.66666666666666</ele><time>2026-04-08T16:06:08Z</time></trkpt><trkpt lat="48.479695162449104" lon="-1.0409491710082146"><ele>177.0</ele><time>2026-04-08T16:06:09Z</time></trkpt><trkpt lat="48.47973320188484" lon="-1.040624530022829"><ele>177.0</ele><time>2026-04-08T16:06:10Z</time></trkpt><trkpt lat="48.479772972683364" lon="-1.0403040561932928"><ele>177.0</ele><time>2026-04-08T16:06:11Z</time></trkpt><trkpt lat="48.479786188490905" lon="-1.0400028512233932"><ele>177.0</ele><time>2026-04-08T16:06:12Z</time></trkpt><trkpt lat="48.47980032531448" lon="-1.0396913370543803"><ele>177.33333333333334</ele><time>2026-04-08T16:06:13Z</time></trkpt><trkpt lat="48.47982482218912" lon="-1.0394023749430283"><ele>177.66666666666669</ele><time>2026-04-08T16:06:14Z</time></trkpt><trkpt lat="48.479836753456105" lon="-1.0391106957239278"><ele>178.0</ele><time>2026-04-08T16:06:15Z</time></trkpt><trkpt lat="48.479843858544896" lon="-1.0388256892416423"><ele>178.33333333333334</ele><time>2026-04-08T16:06:16Z</time></trkpt><trkpt lat="48.47984637185367" lon="-1.0385658481724331"><ele>178.66666666666666</ele><time>2026-04-08T16:06:17Z</time></trkpt><trkpt lat="48.47985634472405" lon="-1.0383186135065452"><ele>179.0</ele><time>2026-04-08T16:06:18Z</time></trkpt><trkpt lat="48.47986388335504" lon="-1.0380727316167826"><ele>180.0</ele><time>2026-04-08T16:06:19Z</time></trkpt><trkpt lat="48.47987323412101" lon="-1.0378359811530837"><ele>181.0</ele><time>2026-04-08T16:06:20Z</time></trkpt><trkpt lat="48.47987584680973" lon="-1.037593587656406"><ele>182.0</ele><time>2026-04-08T16:06:21Z</time></trkpt><trkpt lat="48.47988777423471" lon="-1.0373526537809503"><ele>184.66666666666666</ele><time>2026-04-08T16:06:22Z</time></trkpt><trkpt lat="48.47990162456396" lon="-1.03711673343567"><ele>187.33333333333334</ele><time>2026-04-08T16:06:23Z</time></trkpt><trkpt lat="48.479920168887624" lon="-1.0368857995958896"><ele>190.0</ele><time>2026-04-08T16:06:24Z</time></trkpt><trkpt lat="48.47993512810597" lon="-1.0366732274733288"><ele>191.0</ele><time>2026-04-08T16:06:25Z</time></trkpt><trkpt lat="48.47994570688164" lon="-1.0364730871983523"><ele>192.0</ele><time>2026-04-08T16:06:26Z</time></trkpt><trkpt lat="48.479959250971554" lon="-1.0362739276782331"><ele>193.0</ele><time>2026-04-08T16:06:27Z</time></trkpt><trkpt lat="48.47997701715749" lon="-1.036080825642658"><ele>194.0</ele><time>2026-04-08T16:06:28Z</time></trkpt><trkpt lat="48.480012021313826" lon="-1.0359099526807567"><ele>194.2</ele><time>2026-04-08T16:06:29Z</time></trkpt><trkpt lat="48.48004331446702" lon="-1.0357350046842255"><ele>194.39999999999998</ele><time>2026-04-08T16:06:30Z</time></trkpt><trkpt lat="48.48007494405518" lon="-1.0355897962930798"><ele>194.6</ele><time>2026-04-08T16:06:31Z</time></trkpt><trkpt lat="48.48009693852368" lon="-1.03544441473406"><ele>194.8</ele><time>2026-04-08T16:06:32Z</time></trkpt><trkpt lat="48.4801159369628" lon="-1.0353047751612174"><ele>195.0</ele><time>2026-04-08T16:06:33Z</time></trkpt><trkpt lat="48.48012791116604" lon="-1.035181554414975"><ele>195.0</ele><time>2026-04-08T16:06:34Z</time></trkpt><trkpt lat="48.48014445334459" lon="-1.0350567398353132"><ele>195.0</ele><time>2026-04-08T16:06:35Z</time></trkpt><trkpt lat="48.48014853420501" lon="-1.0349552297099818"><ele>195.0</ele><time>2026-04-08T16:06:36Z</time></trkpt><trkpt lat="48.48016312507323" lon="-1.034846297785346"><ele>195.0</ele><time>2026-04-08T16:06:37Z</time></trkpt><trkpt lat="48.480169803096366" lon="-1.034683454626637"><ele>195.0</ele><time>2026-04-08T16:06:39Z</time></trkpt><trkpt lat="48.480178727099116" lon="-1.034560188615407"><ele>195.0</ele><time>2026-04-08T16:06:41Z</time></trkpt><trkpt lat="48.480172663260525" lon="-1.0344593969455405"><ele>195.0</ele><time>2026-04-08T16:06:43Z</time></trkpt><trkpt lat="48.48009439085304" lon="-1.0343337685651006"><ele>195.0</ele><time>2026-04-08T16:07:06Z</time></trkpt><trkpt lat="48.48001160159102" lon="-1.0342845340741014"><ele>195.0</ele><time>2026-04-08T16:07:08Z</time></trkpt><trkpt lat="48.479888140350035" lon="-1.0342869944930837"><ele>195.0</ele><time>2026-04-08T16:07:10Z</time></trkpt><trkpt lat="48.47982640508283" lon="-1.0342424708786508"><ele>195.0</ele><time>2026-04-08T16:07:11Z</time></trkpt><trkpt lat="48.47971476259661" lon="-1.0341628708878654"><ele>194.8</ele><time>2026-04-08T16:07:13Z</time></trkpt><trkpt lat="48.479645729887864" lon="-1.0341139804687167"><ele>194.6</ele><time>2026-04-08T16:07:14Z</time></trkpt><trkpt lat="48.479536127027245" lon="-1.0340340274897513"><ele>194.39999999999998</ele><time>2026-04-08T16:07:16Z</time></trkpt><trkpt lat="48.479430970891876" lon="-1.033960034376399"><ele>194.2</ele><time>2026-04-08T16:07:18Z</time></trkpt><trkpt lat="48.47936270675442" lon="-1.0339123116368947"><ele>194.0</ele><time>2026-04-08T16:07:19Z</time></trkpt><trkpt lat="48.47924786488242" lon="-1.0338312219663837"><ele>194.00000000000003</ele><time>2026-04-08T16:07:21Z</time></trkpt><trkpt lat="48.47918016757643" lon="-1.0337817408507368"><ele>194.0</ele><time>2026-04-08T16:07:22Z</time></trkpt><trkpt lat="48.4791012673805" lon="-1.0337226671529278"><ele>194.0</ele><time>2026-04-08T16:07:23Z</time></trkpt><trkpt lat="48.47902633893232" lon="-1.0336648010695715"><ele>194.0</ele><time>2026-04-08T16:07:24Z</time></trkpt><trkpt lat="48.47896740267639" lon="-1.033618153442452"><ele>194.00000000000003</ele><time>2026-04-08T16:07:25Z</time></trkpt><trkpt lat="48.4789073074876" lon="-1.0335705893541953"><ele>194.0</ele><time>2026-04-08T16:07:26Z</time></trkpt><trkpt lat="48.478837009484565" lon="-1.033521121211197"><ele>193.75</ele><time>2026-04-08T16:07:27Z</time></trkpt><trkpt lat="48.4787334772364" lon="-1.0334425802647058"><ele>193.5</ele><time>2026-04-08T16:07:29Z</time></trkpt><trkpt lat="48.478662986405496" lon="-1.0333645385865635"><ele>193.25</ele><time>2026-04-08T16:07:31Z</time></trkpt><trkpt lat="48.478733973011636" lon="-1.033151719466586"><ele>193.0</ele><time>2026-04-08T16:07:32Z</time></trkpt><trkpt lat="48.47875228484166" lon="-1.032965069283039"><ele>193.0</ele><time>2026-04-08T16:07:34Z</time></trkpt><trkpt lat="48.4787129616419" lon="-1.0327969730855975"><ele>193.0</ele><time>2026-04-08T16:07:35Z</time></trkpt><trkpt lat="48.478710536320975" lon="-1.0326544033818006"><ele>193.0</ele><time>2026-04-08T16:07:36Z</time></trkpt><trkpt lat="48.478699656948834" lon="-1.032489497686074"><ele>193.0</ele><time>2026-04-08T16:07:37Z</time></trkpt><trkpt lat="48.47868139739462" lon="-1.032331676971118"><ele>193.0</ele><time>2026-04-08T16:07:38Z</time></trkpt><trkpt lat="48.478616288887764" lon="-1.0321668146849476"><ele>193.0</ele><time>2026-04-08T16:07:39Z</time></trkpt><trkpt lat="48.47858991387242" lon="-1.0320029779867348"><ele>193.0</ele><time>2026-04-08T16:07:40Z</time></trkpt><trkpt lat="48.478569590965044" lon="-1.031837072499997"><ele>193.0</ele><time>2026-04-08T16:07:41Z</time></trkpt><trkpt lat="48.47853706989231" lon="-1.0316754978928688"><ele>193.0</ele><time>2026-04-08T16:07:42Z</time></trkpt><trkpt lat="48.47850917081412" lon="-1.0315151011735415"><ele>193.0</ele><time>2026-04-08T16:07:43Z</time></trkpt><trkpt lat="48.478483361426356" lon="-1.0313525977592344"><ele>192.5</ele><time>2026-04-08T16:07:44Z</time></trkpt><trkpt lat="48.47843975703369" lon="-1.0311913287067043"><ele>192.0</ele><time>2026-04-08T16:07:45Z</time></trkpt><trkpt lat="48.47842083237615" lon="-1.031012135685383"><ele>191.5</ele><time>2026-04-08T16:07:46Z</time></trkpt><trkpt lat="48.47841515120763" lon="-1.0308298652086312"><ele>191.0</ele><time>2026-04-08T16:07:47Z</time></trkpt><trkpt lat="48.47841957991146" lon="-1.0306452169500193"><ele>191.0</ele><time>2026-04-08T16:07:48Z</time></trkpt><trkpt lat="48.4784351713359" lon="-1.0304591356905963"><ele>191.0</ele><time>2026-04-08T16:07:49Z</time></trkpt><trkpt lat="48.47845692163128" lon="-1.0302775611596988"><ele>191.0</ele><time>2026-04-08T16:07:50Z</time></trkpt><trkpt lat="48.478490925992745" lon="-1.0301252156746605"><ele>191.0</ele><time>2026-04-08T16:07:51Z</time></trkpt><trkpt lat="48.478511398629315" lon="-1.0299747640917059"><ele>191.0</ele><time>2026-04-08T16:07:52Z</time></trkpt><trkpt lat="48.47852590655194" lon="-1.0298274708348167"><ele>191.0</ele><time>2026-04-08T16:07:53Z</time></trkpt><trkpt lat="48.47853622233387" lon="-1.0296796999032347"><ele>191.0</ele><time>2026-04-08T16:07:54Z</time></trkpt><trkpt lat="48.478560890221786" lon="-1.0295308873941242"><ele>191.0</ele><time>2026-04-08T16:07:55Z</time></trkpt><trkpt lat="48.47857354165204" lon="-1.02939071935313"><ele>191.0</ele><time>2026-04-08T16:07:56Z</time></trkpt><trkpt lat="48.478584264551515" lon="-1.0292483040751845"><ele>191.4</ele><time>2026-04-08T16:07:57Z</time></trkpt><trkpt lat="48.47859410153954" lon="-1.0291064847462421"><ele>191.8</ele><time>2026-04-08T16:07:58Z</time></trkpt><trkpt lat="48.47860710815227" lon="-1.0289668516408954"><ele>192.20000000000002</ele><time>2026-04-08T16:07:59Z</time></trkpt><trkpt lat="48.47862010856463" lon="-1.0288314398488903"><ele>192.60000000000002</ele><time>2026-04-08T16:08:00Z</time></trkpt><trkpt lat="48.47863124039074" lon="-1.0286952625180976"><ele>193.0</ele><time>2026-04-08T16:08:01Z</time></trkpt><trkpt lat="48.478641832557194" lon="-1.0285586899875763"><ele>192.99999999999997</ele><time>2026-04-08T16:08:02Z</time></trkpt><trkpt lat="48.47864964863562" lon="-1.0284198110138845"><ele>193.0</ele><time>2026-04-08T16:08:03Z</time></trkpt><trkpt lat="48.4786583710868" lon="-1.0282903812656523"><ele>193.0</ele><time>2026-04-08T16:08:04Z</time></trkpt><trkpt lat="48.47866028291608" lon="-1.0281680119816525"><ele>193.0</ele><time>2026-04-08T16:08:05Z</time></trkpt><trkpt lat="48.478662872249615" lon="-1.028058003410081"><ele>192.99999999999997</ele><time>2026-04-08T16:08:06Z</time></trkpt><trkpt lat="48.47867178687647" lon="-1.0279582391235422"><ele>193.0</ele><time>2026-04-08T16:08:07Z</time></trkpt><trkpt lat="48.4786831579986" lon="-1.0277728060023301"><ele>193.2</ele><time>2026-04-08T16:08:09Z</time></trkpt><trkpt lat="48.47869597167763" lon="-1.0276025024029523"><ele>193.4</ele><time>2026-04-08T16:08:11Z</time></trkpt><trkpt lat="48.478715502719446" lon="-1.0274243675591361"><ele>193.6</ele><time>2026-04-08T16:08:13Z</time></trkpt><trkpt lat="48.478717011582845" lon="-1.0273128925814814"><ele>193.79999999999998</ele><time>2026-04-08T16:08:14Z</time></trkpt><trkpt lat="48.478728202874144" lon="-1.0271736096040136"><ele>194.0</ele><time>2026-04-08T16:08:15Z</time></trkpt><trkpt lat="48.47873979529902" lon="-1.0270273411819173"><ele>194.39999999999998</ele><time>2026-04-08T16:08:16Z</time></trkpt><trkpt lat="48.478753497391914" lon="-1.026854454043308"><ele>194.8</ele><time>2026-04-08T16:08:17Z</time></trkpt><trkpt lat="48.47876472349037" lon="-1.0267069941350868"><ele>195.2</ele><time>2026-04-08T16:08:18Z</time></trkpt><trkpt lat="48.47877655487493" lon="-1.02653446544733"><ele>195.60000000000002</ele><time>2026-04-08T16:08:19Z</time></trkpt><trkpt lat="48.478782004513405" lon="-1.026368774994452"><ele>196.0</ele><time>2026-04-08T16:08:20Z</time></trkpt><trkpt lat="48.47879444178278" lon="-1.026175287356017"><ele>196.0</ele><time>2026-04-08T16:08:21Z</time></trkpt><trkpt lat="48.47880936804936" lon="-1.0259817255470673"><ele>196.0</ele><time>2026-04-08T16:08:22Z</time></trkpt><trkpt lat="48.47882540287937" lon="-1.0257930262958002"><ele>196.0</ele><time>2026-04-08T16:08:23Z</time></trkpt><trkpt lat="48.47884377738625" lon="-1.0255767942653682"><ele>196.0</ele><time>2026-04-08T16:08:24Z</time></trkpt><trkpt lat="48.478865082741635" lon="-1.0253260730979874"><ele>196.33333333333331</ele><time>2026-04-08T16:08:25Z</time></trkpt><trkpt lat="48.478881826322755" lon="-1.0250712847178807"><ele>196.66666666666669</ele><time>2026-04-08T16:08:26Z</time></trkpt><trkpt lat="48.478893290583464" lon="-1.0248192492788448"><ele>197.0</ele><time>2026-04-08T16:08:27Z</time></trkpt><trkpt lat="48.478899761978944" lon="-1.0245607281489"><ele>197.33333333333334</ele><time>2026-04-08T16:08:28Z</time></trkpt><trkpt lat="48.47889766508483" lon="-1.0242973939289595"><ele>197.66666666666669</ele><time>2026-04-08T16:08:29Z</time></trkpt><trkpt lat="48.47888635805123" lon="-1.0240273310853496"><ele>198.0</ele><time>2026-04-08T16:08:30Z</time></trkpt><trkpt lat="48.47887068904789" lon="-1.0237457976740143"><ele>198.0</ele><time>2026-04-08T16:08:31Z</time></trkpt><trkpt lat="48.4788533090289" lon="-1.023468146647519"><ele>198.0</ele><time>2026-04-08T16:08:32Z</time></trkpt><trkpt lat="48.478836065989334" lon="-1.0231926846839636"><ele>198.0</ele><time>2026-04-08T16:08:33Z</time></trkpt><trkpt lat="48.47882069943841" lon="-1.0229156335573981"><ele>198.0</ele><time>2026-04-08T16:08:34Z</time></trkpt><trkpt lat="48.478809727936934" lon="-1.0226361232431511"><ele>198.0</ele><time>2026-04-08T16:08:35Z</time></trkpt><trkpt lat="48.478801425627005" lon="-1.0223646465413256"><ele>198.0</ele><time>2026-04-08T16:08:36Z</time></trkpt><trkpt lat="48.47880484308543" lon="-1.0220747019133416"><ele>197.66666666666669</ele><time>2026-04-08T16:08:37Z</time></trkpt><trkpt lat="48.4788204771965" lon="-1.021785367767833"><ele>197.33333333333334</ele><time>2026-04-08T16:08:38Z</time></trkpt><trkpt lat="48.4788365324184" lon="-1.021504555088806"><ele>197.0</ele><time>2026-04-08T16:08:39Z</time></trkpt><trkpt lat="48.478854713975544" lon="-1.0212233883049395"><ele>198.0</ele><time>2026-04-08T16:08:40Z</time></trkpt><trkpt lat="48.47887050876117" lon="-1.0209771215305332"><ele>199.0</ele><time>2026-04-08T16:08:41Z</time></trkpt><trkpt lat="48.478884671248224" lon="-1.0207391038709157"><ele>200.0</ele><time>2026-04-08T16:08:42Z</time></trkpt><trkpt lat="48.47888997111208" lon="-1.0205022208524503"><ele>200.66666666666669</ele><time>2026-04-08T16:08:43Z</time></trkpt><trkpt lat="48.47888006121898" lon="-1.0202617806128906"><ele>201.33333333333331</ele><time>2026-04-08T16:08:44Z</time></trkpt><trkpt lat="48.47884992008278" lon="-1.0200120835579218"><ele>202.0</ele><time>2026-04-08T16:08:45Z</time></trkpt><trkpt lat="48.478802693000006" lon="-1.0197608345354194"><ele>202.66666666666666</ele><time>2026-04-08T16:08:46Z</time></trkpt><trkpt lat="48.47874750309906" lon="-1.0194983897348289"><ele>203.33333333333331</ele><time>2026-04-08T16:08:47Z</time></trkpt><trkpt lat="48.478689721361526" lon="-1.0192256136517859"><ele>204.0</ele><time>2026-04-08T16:08:48Z</time></trkpt><trkpt lat="48.47863003738315" lon="-1.0189410754755217"><ele>204.0</ele><time>2026-04-08T16:08:49Z</time></trkpt><trkpt lat="48.47856993617298" lon="-1.0186470769930909"><ele>204.0</ele><time>2026-04-08T16:08:50Z</time></trkpt><trkpt lat="48.478509362935306" lon="-1.0183443279103823"><ele>204.0</ele><time>2026-04-08T16:08:51Z</time></trkpt><trkpt lat="48.478454498568524" lon="-1.0180414647704685"><ele>204.0</ele><time>2026-04-08T16:08:52Z</time></trkpt><trkpt lat="48.47841729687443" lon="-1.01773994920717"><ele>204.0</ele><time>2026-04-08T16:08:53Z</time></trkpt><trkpt lat="48.478399303024624" lon="-1.017429543506785"><ele>204.0</ele><time>2026-04-08T16:08:54Z</time></trkpt><trkpt lat="48.478401832291354" lon="-1.0171205382752413"><ele>204.0</ele><time>2026-04-08T16:08:55Z</time></trkpt><trkpt lat="48.47842275875913" lon="-1.0168125929656977"><ele>204.0</ele><time>2026-04-08T16:08:56Z</time></trkpt><trkpt lat="48.47845216787133" lon="-1.016503263401614"><ele>204.0</ele><time>2026-04-08T16:08:57Z</time></trkpt><trkpt lat="48.47848292482365" lon="-1.0161945482417265"><ele>204.0</ele><time>2026-04-08T16:08:58Z</time></trkpt><trkpt lat="48.47852155450258" lon="-1.0158912074171993"><ele>204.0</ele><time>2026-04-08T16:08:59Z</time></trkpt><trkpt lat="48.47853811461557" lon="-1.0155836898509372"><ele>204.0</ele><time>2026-04-08T16:09:00Z</time></trkpt><trkpt lat="48.47855506832152" lon="-1.0152732485323646"><ele>203.0</ele><time>2026-04-08T16:09:01Z</time></trkpt><trkpt lat="48.47855981138198" lon="-1.014960833746983"><ele>202.0</ele><time>2026-04-08T16:09:02Z</time></trkpt><trkpt lat="48.47855680824443" lon="-1.0146577360695945"><ele>201.0</ele><time>2026-04-08T16:09:03Z</time></trkpt><trkpt lat="48.47854586815823" lon="-1.0143574078583757"><ele>200.0</ele><time>2026-04-08T16:09:04Z</time></trkpt><trkpt lat="48.478502839839116" lon="-1.0140581530216677"><ele>199.0</ele><time>2026-04-08T16:09:05Z</time></trkpt><trkpt lat="48.47846997280341" lon="-1.0137560258687282"><ele>198.0</ele><time>2026-04-08T16:09:06Z</time></trkpt><trkpt lat="48.478436242774265" lon="-1.0134491048555698"><ele>197.0</ele><time>2026-04-08T16:09:07Z</time></trkpt><trkpt lat="48.47840231337459" lon="-1.0131453017942824"><ele>196.0</ele><time>2026-04-08T16:09:08Z</time></trkpt><trkpt lat="48.47836725696848" lon="-1.0128342872918725"><ele>195.0</ele><time>2026-04-08T16:09:09Z</time></trkpt><trkpt lat="48.47833277444433" lon="-1.0125412401798382"><ele>193.66666666666666</ele><time>2026-04-08T16:09:10Z</time></trkpt><trkpt lat="48.47828438857675" lon="-1.0122523064932294"><ele>192.33333333333331</ele><time>2026-04-08T16:09:11Z</time></trkpt><trkpt lat="48.47821200956395" lon="-1.0119836737680257"><ele>191.0</ele><time>2026-04-08T16:09:12Z</time></trkpt><trkpt lat="48.47811308767877" lon="-1.0117257424829467"><ele>190.33333333333331</ele><time>2026-04-08T16:09:13Z</time></trkpt><trkpt lat="48.47799994473282" lon="-1.0114722116489603"><ele>189.66666666666666</ele><time>2026-04-08T16:09:14Z</time></trkpt><trkpt lat="48.4778888629696" lon="-1.0112260835373257"><ele>189.0</ele><time>2026-04-08T16:09:15Z</time></trkpt><trkpt lat="48.47777832158971" lon="-1.0109732398883366"><ele>187.33333333333334</ele><time>2026-04-08T16:09:16Z</time></trkpt><trkpt lat="48.47768800926956" lon="-1.0106989290761415"><ele>185.66666666666669</ele><time>2026-04-08T16:09:17Z</time></trkpt><trkpt lat="48.47760948638243" lon="-1.0104080443407772"><ele>184.0</ele><time>2026-04-08T16:09:18Z</time></trkpt><trkpt lat="48.47755588641059" lon="-1.0101219342687848"><ele>183.0</ele><time>2026-04-08T16:09:19Z</time></trkpt><trkpt lat="48.47751152079263" lon="-1.0098391622948912"><ele>182.0</ele><time>2026-04-08T16:09:20Z</time></trkpt><trkpt lat="48.47746709905696" lon="-1.0095556438018598"><ele>181.0</ele><time>2026-04-08T16:09:21Z</time></trkpt><trkpt lat="48.47743123485155" lon="-1.0092762396801895"><ele>179.66666666666669</ele><time>2026-04-08T16:09:22Z</time></trkpt><trkpt lat="48.47740746619472" lon="-1.0089979416926849"><ele>178.33333333333334</ele><time>2026-04-08T16:09:23Z</time></trkpt><trkpt lat="48.47741080759401" lon="-1.008719545985554"><ele>177.0</ele><time>2026-04-08T16:09:24Z</time></trkpt><trkpt lat="48.47743255944906" lon="-1.0084356905360714"><ele>176.0</ele><time>2026-04-08T16:09:25Z</time></trkpt><trkpt lat="48.47747389798153" lon="-1.0081501033608724"><ele>175.0</ele><time>2026-04-08T16:09:26Z</time></trkpt><trkpt lat="48.47753152384375" lon="-1.0078673608011093"><ele>174.0</ele><time>2026-04-08T16:09:27Z</time></trkpt><trkpt lat="48.47759870671778" lon="-1.007586188870711"><ele>173.0</ele><time>2026-04-08T16:09:28Z</time></trkpt><trkpt lat="48.47766475106602" lon="-1.0073053797596716"><ele>172.0</ele><time>2026-04-08T16:09:29Z</time></trkpt><trkpt lat="48.477729373598436" lon="-1.007026249041221"><ele>171.0</ele><time>2026-04-08T16:09:30Z</time></trkpt><trkpt lat="48.4777862345739" lon="-1.0067483689944214"><ele>169.33333333333334</ele><time>2026-04-08T16:09:31Z</time></trkpt><trkpt lat="48.477829869286566" lon="-1.0064681197469663"><ele>167.66666666666669</ele><time>2026-04-08T16:09:32Z</time></trkpt><trkpt lat="48.47785710213032" lon="-1.0061888872159153"><ele>166.0</ele><time>2026-04-08T16:09:33Z</time></trkpt><trkpt lat="48.47786968728287" lon="-1.0059180470351805"><ele>164.66666666666669</ele><time>2026-04-08T16:09:34Z</time></trkpt><trkpt lat="48.47786604133899" lon="-1.0056540758227985"><ele>163.33333333333334</ele><time>2026-04-08T16:09:35Z</time></trkpt><trkpt lat="48.47783914229794" lon="-1.0053959530616239"><ele>162.0</ele><time>2026-04-08T16:09:36Z</time></trkpt><trkpt lat="48.47780821693462" lon="-1.0051475937323413"><ele>160.66666666666666</ele><time>2026-04-08T16:09:37Z</time></trkpt><trkpt lat="48.47776898412688" lon="-1.004904873850419"><ele>159.33333333333331</ele><time>2026-04-08T16:09:38Z</time></trkpt><trkpt lat="48.47772579769211" lon="-1.0046698810655432"><ele>158.0</ele><time>2026-04-08T16:09:39Z</time></trkpt><trkpt lat="48.47768250968065" lon="-1.004436209557207"><ele>158.0</ele><time>2026-04-08T16:09:40Z</time></trkpt><trkpt lat="48.47763870733813" lon="-1.004199767368369"><ele>158.0</ele><time>2026-04-08T16:09:41Z</time></trkpt><trkpt lat="48.477620626835005" lon="-1.0039562981375458"><ele>158.0</ele><time>2026-04-08T16:09:42Z</time></trkpt><trkpt lat="48.477592156428926" lon="-1.003726405461016"><ele>156.33333333333331</ele><time>2026-04-08T16:09:43Z</time></trkpt><trkpt lat="48.477575410144006" lon="-1.0034967772402366"><ele>154.66666666666666</ele><time>2026-04-08T16:09:44Z</time></trkpt><trkpt lat="48.47758630865985" lon="-1.003271294072043"><ele>153.0</ele><time>2026-04-08T16:09:45Z</time></trkpt><trkpt lat="48.477616466287145" lon="-1.0030401467310888"><ele>151.0</ele><time>2026-04-08T16:09:46Z</time></trkpt><trkpt lat="48.47767417895135" lon="-1.002827008989363"><ele>149.0</ele><time>2026-04-08T16:09:47Z</time></trkpt><trkpt lat="48.477765541469395" lon="-1.0026478256783353"><ele>147.0</ele><time>2026-04-08T16:09:48Z</time></trkpt><trkpt lat="48.47786171429562" lon="-1.00247571428977"><ele>146.0</ele><time>2026-04-08T16:09:49Z</time></trkpt><trkpt lat="48.47796983822937" lon="-1.0022794945555535"><ele>145.0</ele><time>2026-04-08T16:09:50Z</time></trkpt><trkpt lat="48.47808851860231" lon="-1.00205197580863"><ele>144.0</ele><time>2026-04-08T16:09:51Z</time></trkpt><trkpt lat="48.47821744942451" lon="-1.0017577504379127"><ele>142.33333333333334</ele><time>2026-04-08T16:09:52Z</time></trkpt><trkpt lat="48.47831813770354" lon="-1.0014613547048707"><ele>140.66666666666669</ele><time>2026-04-08T16:09:53Z</time></trkpt><trkpt lat="48.47838956855369" lon="-1.0011642493887454"><ele>139.0</ele><time>2026-04-08T16:09:54Z</time></trkpt><trkpt lat="48.478469278949014" lon="-1.0008857474980302"><ele>139.0</ele><time>2026-04-08T16:09:55Z</time></trkpt><trkpt lat="48.478550388613606" lon="-1.000614964849039"><ele>139.0</ele><time>2026-04-08T16:09:56Z</time></trkpt><trkpt lat="48.47861649948393" lon="-1.0003483809421878"><ele>139.0</ele><time>2026-04-08T16:09:57Z</time></trkpt><trkpt lat="48.478677807517144" lon="-1.0000831218406752"><ele>139.0</ele><time>2026-04-08T16:09:58Z</time></trkpt><trkpt lat="48.47874001026522" lon="-0.9998377772320147"><ele>139.0</ele><time>2026-04-08T16:09:59Z</time></trkpt><trkpt lat="48.478798175503854" lon="-0.999599281850824"><ele>139.0</ele><time>2026-04-08T16:10:00Z</time></trkpt><trkpt lat="48.47874739194184" lon="-0.9992962459600141"><ele>139.0</ele><time>2026-04-08T16:10:01Z</time></trkpt><trkpt lat="48.47872162650567" lon="-0.9990316195996679"><ele>139.0</ele><time>2026-04-08T16:10:02Z</time></trkpt><trkpt lat="48.47867728597141" lon="-0.998783341324013"><ele>139.0</ele><time>2026-04-08T16:10:03Z</time></trkpt><trkpt lat="48.47859661392379" lon="-0.9985564193799137"><ele>139.0</ele><time>2026-04-08T16:10:04Z</time></trkpt><trkpt lat="48.47848347020974" lon="-0.9983426303351398"><ele>139.0</ele><time>2026-04-08T16:10:05Z</time></trkpt><trkpt lat="48.478372464082675" lon="-0.9981153083975405"><ele>139.0</ele><time>2026-04-08T16:10:06Z</time></trkpt><trkpt lat="48.478268934746644" lon="-0.9978626166883046"><ele>140.66666666666669</ele><time>2026-04-08T16:10:07Z</time></trkpt><trkpt lat="48.47817756331456" lon="-0.9975781215440412"><ele>142.33333333333334</ele><time>2026-04-08T16:10:08Z</time></trkpt><trkpt lat="48.47808971178455" lon="-0.9972855709932237"><ele>144.0</ele><time>2026-04-08T16:10:09Z</time></trkpt><trkpt lat="48.4780114024365" lon="-0.9970097448813066"><ele>143.0</ele><time>2026-04-08T16:10:10Z</time></trkpt><trkpt lat="48.47791727143038" lon="-0.996765970188229"><ele>142.0</ele><time>2026-04-08T16:10:11Z</time></trkpt><trkpt lat="48.47782301433107" lon="-0.9964998065401927"><ele>141.0</ele><time>2026-04-08T16:10:12Z</time></trkpt><trkpt lat="48.47773233265227" lon="-0.9962130070407972"><ele>141.0</ele><time>2026-04-08T16:10:13Z</time></trkpt><trkpt lat="48.47764821021748" lon="-0.995951121170392"><ele>141.0</ele><time>2026-04-08T16:10:14Z</time></trkpt><trkpt lat="48.477561733961394" lon="-0.9956968599521044"><ele>141.0</ele><time>2026-04-08T16:10:15Z</time></trkpt><trkpt lat="48.47750476081484" lon="-0.995443355260066"><ele>142.66666666666666</ele><time>2026-04-08T16:10:16Z</time></trkpt><trkpt lat="48.47747046470401" lon="-0.9951733431502591"><ele>144.33333333333331</ele><time>2026-04-08T16:10:17Z</time></trkpt><trkpt lat="48.47747158811722" lon="-0.9949097357488893"><ele>146.0</ele><time>2026-04-08T16:10:18Z</time></trkpt><trkpt lat="48.47748757694635" lon="-0.9946398906549961"><ele>147.0</ele><time>2026-04-08T16:10:19Z</time></trkpt><trkpt lat="48.47750481890865" lon="-0.9943410516310758"><ele>148.0</ele><time>2026-04-08T16:10:20Z</time></trkpt><trkpt lat="48.477524123490234" lon="-0.9940507391650547"><ele>149.0</ele><time>2026-04-08T16:10:21Z</time></trkpt><trkpt lat="48.47754172511747" lon="-0.9937643211219063"><ele>149.66666666666666</ele><time>2026-04-08T16:10:22Z</time></trkpt><trkpt lat="48.47756829681161" lon="-0.9934764219324487"><ele>150.33333333333334</ele><time>2026-04-08T16:10:23Z</time></trkpt><trkpt lat="48.47759225620871" lon="-0.9931804352254552"><ele>151.0</ele><time>2026-04-08T16:10:24Z</time></trkpt><trkpt lat="48.47761735392244" lon="-0.9928821969320141"><ele>152.66666666666669</ele><time>2026-04-08T16:10:25Z</time></trkpt><trkpt lat="48.47763711722825" lon="-0.9925848026270847"><ele>154.33333333333334</ele><time>2026-04-08T16:10:26Z</time></trkpt><trkpt lat="48.47765168019872" lon="-0.9922873428940691"><ele>156.0</ele><time>2026-04-08T16:10:27Z</time></trkpt><trkpt lat="48.47766931529606" lon="-0.9919914664806284"><ele>157.66666666666666</ele><time>2026-04-08T16:10:28Z</time></trkpt><trkpt lat="48.477683617588085" lon="-0.9917002131316092"><ele>159.33333333333331</ele><time>2026-04-08T16:10:29Z</time></trkpt><trkpt lat="48.47768551873403" lon="-0.9914134513734357"><ele>161.0</ele><time>2026-04-08T16:10:30Z</time></trkpt><trkpt lat="48.47766328524049" lon="-0.9911200151755029"><ele>161.0</ele><time>2026-04-08T16:10:31Z</time></trkpt><trkpt lat="48.4776230500848" lon="-0.9908390003280992"><ele>161.0</ele><time>2026-04-08T16:10:32Z</time></trkpt><trkpt lat="48.47756308005416" lon="-0.9905680065544706"><ele>161.0</ele><time>2026-04-08T16:10:33Z</time></trkpt><trkpt lat="48.47749450305836" lon="-0.9903033874125478"><ele>161.0</ele><time>2026-04-08T16:10:34Z</time></trkpt><trkpt lat="48.47740926305316" lon="-0.9900459317319762"><ele>161.0</ele><time>2026-04-08T16:10:35Z</time></trkpt><trkpt lat="48.477323005776995" lon="-0.9897845213618692"><ele>161.0</ele><time>2026-04-08T16:10:36Z</time></trkpt><trkpt lat="48.47723527079337" lon="-0.989502168429443"><ele>161.0</ele><time>2026-04-08T16:10:37Z</time></trkpt><trkpt lat="48.477137934674765" lon="-0.9892013671163558"><ele>161.0</ele><time>2026-04-08T16:10:38Z</time></trkpt><trkpt lat="48.47702920634727" lon="-0.9888848274021067"><ele>161.0</ele><time>2026-04-08T16:10:39Z</time></trkpt><trkpt lat="48.47691528270325" lon="-0.9885513630474909"><ele>161.0</ele><time>2026-04-08T16:10:40Z</time></trkpt><trkpt lat="48.47680171905155" lon="-0.9881999528861931"><ele>160.0</ele><time>2026-04-08T16:10:41Z</time></trkpt><trkpt lat="48.4766829591394" lon="-0.9878297887197062"><ele>159.0</ele><time>2026-04-08T16:10:42Z</time></trkpt><trkpt lat="48.47656531103443" lon="-0.9874547791813691"><ele>159.0</ele><time>2026-04-08T16:10:43Z</time></trkpt><trkpt lat="48.476441568570436" lon="-0.9870721993698344"><ele>159.0</ele><time>2026-04-08T16:10:44Z</time></trkpt><trkpt lat="48.476324738990506" lon="-0.9867079398610623"><ele>158.0</ele><time>2026-04-08T16:10:45Z</time></trkpt><trkpt lat="48.476214040195906" lon="-0.9863662452265002"><ele>157.0</ele><time>2026-04-08T16:10:46Z</time></trkpt><trkpt lat="48.476106806492865" lon="-0.9860368671766437"><ele>159.5</ele><time>2026-04-08T16:10:47Z</time></trkpt><trkpt lat="48.47600204090578" lon="-0.9857278373466921"><ele>162.0</ele><time>2026-04-08T16:10:48Z</time></trkpt><trkpt lat="48.475901244592826" lon="-0.9854234314608099"><ele>162.0</ele><time>2026-04-08T16:10:49Z</time></trkpt><trkpt lat="48.47579839260444" lon="-0.9851226206977859"><ele>162.0</ele><time>2026-04-08T16:10:50Z</time></trkpt><trkpt lat="48.47570920816669" lon="-0.9848363615188415"><ele>162.0</ele><time>2026-04-08T16:10:51Z</time></trkpt><trkpt lat="48.47563375134678" lon="-0.9845414543849247"><ele>163.33333333333334</ele><time>2026-04-08T16:10:52Z</time></trkpt><trkpt lat="48.47556363162487" lon="-0.9842419966513897"><ele>164.66666666666669</ele><time>2026-04-08T16:10:53Z</time></trkpt><trkpt lat="48.47549556312127" lon="-0.9839484640651686"><ele>166.0</ele><time>2026-04-08T16:10:54Z</time></trkpt><trkpt lat="48.47543565973007" lon="-0.9836592201430332"><ele>166.0</ele><time>2026-04-08T16:10:55Z</time></trkpt><trkpt lat="48.4753910132025" lon="-0.9833739426253914"><ele>166.0</ele><time>2026-04-08T16:10:56Z</time></trkpt><trkpt lat="48.475348549334534" lon="-0.9831021581741992"><ele>166.0</ele><time>2026-04-08T16:10:57Z</time></trkpt><trkpt lat="48.4753145478889" lon="-0.9828495155840151"><ele>166.0</ele><time>2026-04-08T16:10:58Z</time></trkpt><trkpt lat="48.47527611070091" lon="-0.9826192459167956"><ele>166.0</ele><time>2026-04-08T16:10:59Z</time></trkpt><trkpt lat="48.47525074373791" lon="-0.982400740966425"><ele>166.0</ele><time>2026-04-08T16:11:00Z</time></trkpt><trkpt lat="48.475222846441156" lon="-0.9821933095571879"><ele>166.0</ele><time>2026-04-08T16:11:01Z</time></trkpt><trkpt lat="48.47519542573433" lon="-0.98199994945948"><ele>166.5</ele><time>2026-04-08T16:11:02Z</time></trkpt><trkpt lat="48.47517331295342" lon="-0.9818221105158176"><ele>167.0</ele><time>2026-04-08T16:11:03Z</time></trkpt><trkpt lat="48.47515383474902" lon="-0.9816416537133252"><ele>167.5</ele><time>2026-04-08T16:11:04Z</time></trkpt><trkpt lat="48.47514554942328" lon="-0.9814613711325135"><ele>168.0</ele><time>2026-04-08T16:11:05Z</time></trkpt><trkpt lat="48.475145674838814" lon="-0.9812907615114794"><ele>169.25</ele><time>2026-04-08T16:11:06Z</time></trkpt><trkpt lat="48.47513429279565" lon="-0.9811124332745214"><ele>170.5</ele><time>2026-04-08T16:11:07Z</time></trkpt><trkpt lat="48.47511779375989" lon="-0.9809316842224415"><ele>171.75</ele><time>2026-04-08T16:11:08Z</time></trkpt><trkpt lat="48.47511573684956" lon="-0.9807523696083942"><ele>173.0</ele><time>2026-04-08T16:11:09Z</time></trkpt><trkpt lat="48.475115010832084" lon="-0.9805790962925434"><ele>174.2</ele><time>2026-04-08T16:11:10Z</time></trkpt><trkpt lat="48.4751151161399" lon="-0.9804081159670807"><ele>175.4</ele><time>2026-04-08T16:11:11Z</time></trkpt><trkpt lat="48.475113207538804" lon="-0.9802453790208988"><ele>176.6</ele><time>2026-04-08T16:11:12Z</time></trkpt><trkpt lat="48.47512007653368" lon="-0.9800853509763985"><ele>177.79999999999998</ele><time>2026-04-08T16:11:13Z</time></trkpt><trkpt lat="48.4751257735501" lon="-0.9799297106272266"><ele>179.0</ele><time>2026-04-08T16:11:14Z</time></trkpt><trkpt lat="48.475130580842624" lon="-0.9797922009587144"><ele>179.66666666666666</ele><time>2026-04-08T16:11:15Z</time></trkpt><trkpt lat="48.47512642094378" lon="-0.9796604211799151"><ele>180.33333333333331</ele><time>2026-04-08T16:11:16Z</time></trkpt><trkpt lat="48.475119220535376" lon="-0.979537344528892"><ele>181.0</ele><time>2026-04-08T16:11:17Z</time></trkpt><trkpt lat="48.47512497454272" lon="-0.9794115524978664"><ele>181.66666666666666</ele><time>2026-04-08T16:11:18Z</time></trkpt><trkpt lat="48.47512799114739" lon="-0.9792873305506301"><ele>182.33333333333334</ele><time>2026-04-08T16:11:19Z</time></trkpt><trkpt lat="48.47512858950406" lon="-0.9791649458013084"><ele>183.0</ele><time>2026-04-08T16:11:20Z</time></trkpt><trkpt lat="48.475140376033465" lon="-0.9790430177313116"><ele>183.0</ele><time>2026-04-08T16:11:21Z</time></trkpt><trkpt lat="48.4751549257614" lon="-0.9789106327377621"><ele>183.0</ele><time>2026-04-08T16:11:22Z</time></trkpt><trkpt lat="48.475164287406955" lon="-0.9787617217281316"><ele>183.0</ele><time>2026-04-08T16:11:23Z</time></trkpt><trkpt lat="48.475170304534295" lon="-0.9785990198325504"><ele>183.0</ele><time>2026-04-08T16:11:24Z</time></trkpt><trkpt lat="48.47517193584828" lon="-0.9784250394397063"><ele>183.0</ele><time>2026-04-08T16:11:25Z</time></trkpt><trkpt lat="48.47517205052991" lon="-0.9782380350124958"><ele>182.75</ele><time>2026-04-08T16:11:26Z</time></trkpt><trkpt lat="48.475180096042614" lon="-0.9780426511855543"><ele>182.5</ele><time>2026-04-08T16:11:27Z</time></trkpt><trkpt lat="48.47518682151015" lon="-0.9778534969200356"><ele>182.25</ele><time>2026-04-08T16:11:28Z</time></trkpt><trkpt lat="48.47519463755539" lon="-0.9776670981869682"><ele>182.0</ele><time>2026-04-08T16:11:29Z</time></trkpt><trkpt lat="48.475195674670154" lon="-0.9774811757932519"><ele>181.75</ele><time>2026-04-08T16:11:30Z</time></trkpt><trkpt lat="48.47520197263244" lon="-0.9772988511218916"><ele>181.5</ele><time>2026-04-08T16:11:31Z</time></trkpt><trkpt lat="48.475192475204025" lon="-0.9771140539395579"><ele>181.25</ele><time>2026-04-08T16:11:32Z</time></trkpt><trkpt lat="48.475197093898316" lon="-0.9769242146449421"><ele>181.0</ele><time>2026-04-08T16:11:33Z</time></trkpt><trkpt lat="48.47518833741111" lon="-0.9767327861805073"><ele>180.5</ele><time>2026-04-08T16:11:34Z</time></trkpt><trkpt lat="48.47518313922582" lon="-0.976546591782456"><ele>180.0</ele><time>2026-04-08T16:11:35Z</time></trkpt><trkpt lat="48.47517466693598" lon="-0.9763619692096662"><ele>179.5</ele><time>2026-04-08T16:11:36Z</time></trkpt><trkpt lat="48.47515892653476" lon="-0.9761903965525005"><ele>179.0</ele><time>2026-04-08T16:11:37Z</time></trkpt><trkpt lat="48.47515003749313" lon="-0.9760062229789773"><ele>177.0</ele><time>2026-04-08T16:11:38Z</time></trkpt><trkpt lat="48.47511265780273" lon="-0.9752869491423036"><ele>177.0</ele><time>2026-04-08T16:11:42Z</time></trkpt><trkpt lat="48.47510268262235" lon="-0.9751300948613331"><ele>177.0</ele><time>2026-04-08T16:11:43Z</time></trkpt><trkpt lat="48.47507120503665" lon="-0.9749765670612422"><ele>177.0</ele><time>2026-04-08T16:11:44Z</time></trkpt><trkpt lat="48.47507703963563" lon="-0.9748360409198538"><ele>177.0</ele><time>2026-04-08T16:11:45Z</time></trkpt><trkpt lat="48.475052095788" lon="-0.9747070837033603"><ele>177.0</ele><time>2026-04-08T16:11:46Z</time></trkpt><trkpt lat="48.475049393818914" lon="-0.974583201356622"><ele>177.33333333333334</ele><time>2026-04-08T16:11:47Z</time></trkpt><trkpt lat="48.474995183890115" lon="-0.9744939412115161"><ele>177.66666666666666</ele><time>2026-04-08T16:11:48Z</time></trkpt><trkpt lat="48.47494673133304" lon="-0.9744031791207965"><ele>178.0</ele><time>2026-04-08T16:11:49Z</time></trkpt><trkpt lat="48.47489416549173" lon="-0.9743175367360251"><ele>178.33333333333331</ele><time>2026-04-08T16:11:50Z</time></trkpt><trkpt lat="48.47484163878703" lon="-0.974230224943961"><ele>178.66666666666666</ele><time>2026-04-08T16:11:51Z</time></trkpt><trkpt lat="48.47482881744182" lon="-0.9741035652840401"><ele>179.0</ele><time>2026-04-08T16:11:52Z</time></trkpt><trkpt lat="48.474789156377824" lon="-0.974023979870592"><ele>179.0</ele><time>2026-04-08T16:11:53Z</time></trkpt><trkpt lat="48.47474746418537" lon="-0.9739525144488542"><ele>179.0</ele><time>2026-04-08T16:11:54Z</time></trkpt><trkpt lat="48.47466960829588" lon="-0.9738449965823791"><ele>179.0</ele><time>2026-04-08T16:11:56Z</time></trkpt><trkpt lat="48.47455724094979" lon="-0.97386622130933"><ele>179.0</ele><time>2026-04-08T16:11:58Z</time></trkpt><trkpt lat="48.4744402033277" lon="-0.9738641724436575"><ele>179.0</ele><time>2026-04-08T16:12:00Z</time></trkpt><trkpt lat="48.474375560400695" lon="-0.9738606683415427"><ele>179.0</ele><time>2026-04-08T16:12:01Z</time></trkpt><trkpt lat="48.47431104611242" lon="-0.973855744967901"><ele>179.0</ele><time>2026-04-08T16:12:02Z</time></trkpt><trkpt lat="48.47418940065398" lon="-0.9738451040174018"><ele>179.0</ele><time>2026-04-08T16:12:04Z</time></trkpt><trkpt lat="48.474094571943965" lon="-0.9738368088605311"><ele>179.0</ele><time>2026-04-08T16:12:06Z</time></trkpt><trkpt lat="48.47402865933268" lon="-0.9738310431492837"><ele>179.0</ele><time>2026-04-08T16:12:09Z</time></trkpt><trkpt lat="48.473959748197515" lon="-0.9738532603351056"><ele>179.0</ele><time>2026-04-08T16:12:13Z</time></trkpt><trkpt lat="48.473926318954746" lon="-0.973971260462625"><ele>179.0</ele><time>2026-04-08T16:12:15Z</time></trkpt><trkpt lat="48.47386690427148" lon="-0.9741062659410765"><ele>179.0</ele><time>2026-04-08T16:12:17Z</time></trkpt><trkpt lat="48.473854575121464" lon="-0.9742160482513312"><ele>179.0</ele><time>2026-04-08T16:12:18Z</time></trkpt><trkpt lat="48.47376666032688" lon="-0.9742817873252623"><ele>179.0</ele><time>2026-04-08T16:12:19Z</time></trkpt><trkpt lat="48.47368655824595" lon="-0.9743264621560456"><ele>179.0</ele><time>2026-04-08T16:12:20Z</time></trkpt><trkpt lat="48.47359913475052" lon="-0.9743559543644335"><ele>177.2</ele><time>2026-04-08T16:12:21Z</time></trkpt><trkpt lat="48.47350854234795" lon="-0.9743778301416485"><ele>175.39999999999998</ele><time>2026-04-08T16:12:22Z</time></trkpt><trkpt lat="48.47342134158631" lon="-0.974398760745409"><ele>173.6</ele><time>2026-04-08T16:12:23Z</time></trkpt><trkpt lat="48.473333143832825" lon="-0.974419930595483"><ele>171.8</ele><time>2026-04-08T16:12:24Z</time></trkpt><trkpt lat="48.473241353142406" lon="-0.9744391686247359"><ele>170.0</ele><time>2026-04-08T16:12:25Z</time></trkpt><trkpt lat="48.47314686067414" lon="-0.9744487088296776"><ele>170.0</ele><time>2026-04-08T16:12:26Z</time></trkpt><trkpt lat="48.4730564587744" lon="-0.9744508783921619"><ele>170.0</ele><time>2026-04-08T16:12:27Z</time></trkpt><trkpt lat="48.47296119727958" lon="-0.9744444861405286"><ele>170.0</ele><time>2026-04-08T16:12:28Z</time></trkpt><trkpt lat="48.47285915623491" lon="-0.9744191533117793"><ele>170.0</ele><time>2026-04-08T16:12:29Z</time></trkpt><trkpt lat="48.47276531242961" lon="-0.9743862703204735"><ele>170.0</ele><time>2026-04-08T16:12:30Z</time></trkpt><trkpt lat="48.47266879814975" lon="-0.9743439831461588"><ele>169.8</ele><time>2026-04-08T16:12:31Z</time></trkpt><trkpt lat="48.47256579764546" lon="-0.9742927303596314"><ele>169.6</ele><time>2026-04-08T16:12:32Z</time></trkpt><trkpt lat="48.472464400315495" lon="-0.9742353294223903"><ele>169.39999999999998</ele><time>2026-04-08T16:12:33Z</time></trkpt><trkpt lat="48.47236751634383" lon="-0.974167349181453"><ele>169.2</ele><time>2026-04-08T16:12:34Z</time></trkpt><trkpt lat="48.47227799129433" lon="-0.9740801548480129"><ele>169.0</ele><time>2026-04-08T16:12:35Z</time></trkpt><trkpt lat="48.472192272706025" lon="-0.9739815997088093"><ele>166.79999999999998</ele><time>2026-04-08T16:12:36Z</time></trkpt><trkpt lat="48.47210531814188" lon="-0.9738797402877979"><ele>164.6</ele><time>2026-04-08T16:12:37Z</time></trkpt><trkpt lat="48.47202397807813" lon="-0.9737823639262191"><ele>162.4</ele><time>2026-04-08T16:12:38Z</time></trkpt><trkpt lat="48.47194933231184" lon="-0.9736614188452473"><ele>160.2</ele><time>2026-04-08T16:12:39Z</time></trkpt><trkpt lat="48.47185818579139" lon="-0.9735670202889989"><ele>158.0</ele><time>2026-04-08T16:12:40Z</time></trkpt><trkpt lat="48.47175370707157" lon="-0.9734972074823257"><ele>158.0</ele><time>2026-04-08T16:12:41Z</time></trkpt><trkpt lat="48.471633974002955" lon="-0.9734694091760118"><ele>158.0</ele><time>2026-04-08T16:12:42Z</time></trkpt><trkpt lat="48.47150677579093" lon="-0.9734769864528867"><ele>158.0</ele><time>2026-04-08T16:12:43Z</time></trkpt><trkpt lat="48.47137388511199" lon="-0.9735035739005693"><ele>158.0</ele><time>2026-04-08T16:12:44Z</time></trkpt><trkpt lat="48.471235161343465" lon="-0.9735377453684165"><ele>157.5</ele><time>2026-04-08T16:12:45Z</time></trkpt><trkpt lat="48.47109504992899" lon="-0.9735754875151926"><ele>157.0</ele><time>2026-04-08T16:12:46Z</time></trkpt><trkpt lat="48.47095507687846" lon="-0.9736328147059797"><ele>156.5</ele><time>2026-04-08T16:12:47Z</time></trkpt><trkpt lat="48.47081233489899" lon="-0.9736544532893812"><ele>156.0</ele><time>2026-04-08T16:12:48Z</time></trkpt><trkpt lat="48.47066914479062" lon="-0.9736948308574059"><ele>156.0</ele><time>2026-04-08T16:12:49Z</time></trkpt><trkpt lat="48.47052547123805" lon="-0.9737309697892824"><ele>156.0</ele><time>2026-04-08T16:12:50Z</time></trkpt><trkpt lat="48.4703857757967" lon="-0.9737937470549685"><ele>156.0</ele><time>2026-04-08T16:12:51Z</time></trkpt><trkpt lat="48.470239389103824" lon="-0.9738095531447107"><ele>156.0</ele><time>2026-04-08T16:12:52Z</time></trkpt><trkpt lat="48.470099849036885" lon="-0.9738500413650958"><ele>157.0</ele><time>2026-04-08T16:12:53Z</time></trkpt><trkpt lat="48.46996191935136" lon="-0.9738890593791255"><ele>158.0</ele><time>2026-04-08T16:12:54Z</time></trkpt><trkpt lat="48.469826545122615" lon="-0.9739308717886371"><ele>159.0</ele><time>2026-04-08T16:12:55Z</time></trkpt><trkpt lat="48.469690409890575" lon="-0.9739566923664078"><ele>160.0</ele><time>2026-04-08T16:12:56Z</time></trkpt><trkpt lat="48.46954845281778" lon="-0.9739584582713504"><ele>161.25</ele><time>2026-04-08T16:12:57Z</time></trkpt><trkpt lat="48.469411636790845" lon="-0.9738912862068488"><ele>162.5</ele><time>2026-04-08T16:12:58Z</time></trkpt><trkpt lat="48.46928626180843" lon="-0.9737806763117163"><ele>163.75</ele><time>2026-04-08T16:12:59Z</time></trkpt><trkpt lat="48.46916930768214" lon="-0.97366595088433"><ele>165.0</ele><time>2026-04-08T16:13:00Z</time></trkpt><trkpt lat="48.469057401928666" lon="-0.9735516857676576"><ele>165.0</ele><time>2026-04-08T16:13:01Z</time></trkpt><trkpt lat="48.46894613360912" lon="-0.9734380714751061"><ele>165.0</ele><time>2026-04-08T16:13:02Z</time></trkpt><trkpt lat="48.46884349383074" lon="-0.9733046538400677"><ele>165.0</ele><time>2026-04-08T16:13:03Z</time></trkpt><trkpt lat="48.46872810064342" lon="-0.9731995118910767"><ele>165.0</ele><time>2026-04-08T16:13:04Z</time></trkpt><trkpt lat="48.468601993570104" lon="-0.9731182711812343"><ele>166.5</ele><time>2026-04-08T16:13:05Z</time></trkpt><trkpt lat="48.46847506281779" lon="-0.9730433083503124"><ele>168.0</ele><time>2026-04-08T16:13:06Z</time></trkpt><trkpt lat="48.46834854904101" lon="-0.9729596000429785"><ele>169.5</ele><time>2026-04-08T16:13:07Z</time></trkpt><trkpt lat="48.468223626405724" lon="-0.9728678828146123"><ele>171.0</ele><time>2026-04-08T16:13:08Z</time></trkpt><trkpt lat="48.46810079598032" lon="-0.9727729875278697"><ele>171.0</ele><time>2026-04-08T16:13:09Z</time></trkpt><trkpt lat="48.46798335520509" lon="-0.972668765684987"><ele>171.0</ele><time>2026-04-08T16:13:10Z</time></trkpt><trkpt lat="48.467865848229756" lon="-0.9725793872353862"><ele>171.0</ele><time>2026-04-08T16:13:11Z</time></trkpt><trkpt lat="48.467776840263134" lon="-0.9724353634985005"><ele>171.0</ele><time>2026-04-08T16:13:12Z</time></trkpt><trkpt lat="48.467688719754534" lon="-0.9722975388026438"><ele>173.0</ele><time>2026-04-08T16:13:13Z</time></trkpt><trkpt lat="48.46761149220418" lon="-0.9721465452391013"><ele>175.0</ele><time>2026-04-08T16:13:14Z</time></trkpt><trkpt lat="48.467535645799636" lon="-0.9719980888591047"><ele>177.0</ele><time>2026-04-08T16:13:15Z</time></trkpt><trkpt lat="48.46745735328734" lon="-0.9718413720096379"><ele>179.0</ele><time>2026-04-08T16:13:16Z</time></trkpt><trkpt lat="48.46737872562664" lon="-0.9716780073845197"><ele>179.25</ele><time>2026-04-08T16:13:17Z</time></trkpt><trkpt lat="48.46729608925427" lon="-0.9715074243440652"><ele>179.5</ele><time>2026-04-08T16:13:18Z</time></trkpt><trkpt lat="48.467215310618855" lon="-0.9713378363508605"><ele>179.75</ele><time>2026-04-08T16:13:19Z</time></trkpt><trkpt lat="48.46712650315663" lon="-0.9711596780951656"><ele>180.0</ele><time>2026-04-08T16:13:20Z</time></trkpt><trkpt lat="48.46701605696118" lon="-0.9710032100924783"><ele>182.0</ele><time>2026-04-08T16:13:21Z</time></trkpt><trkpt lat="48.4669248662458" lon="-0.9708158989961033"><ele>184.0</ele><time>2026-04-08T16:13:22Z</time></trkpt><trkpt lat="48.46683309907087" lon="-0.9706281824932362"><ele>186.0</ele><time>2026-04-08T16:13:23Z</time></trkpt><trkpt lat="48.46674066212667" lon="-0.9704401217698967"><ele>186.0</ele><time>2026-04-08T16:13:24Z</time></trkpt><trkpt lat="48.46663875543229" lon="-0.970243461783771"><ele>186.0</ele><time>2026-04-08T16:13:25Z</time></trkpt><trkpt lat="48.466523090111934" lon="-0.970047592125278"><ele>186.0</ele><time>2026-04-08T16:13:26Z</time></trkpt><trkpt lat="48.4663967029245" lon="-0.9698650080480069"><ele>186.33333333333334</ele><time>2026-04-08T16:13:27Z</time></trkpt><trkpt lat="48.46626365249504" lon="-0.9696942547858488"><ele>186.66666666666669</ele><time>2026-04-08T16:13:28Z</time></trkpt><trkpt lat="48.466118752484874" lon="-0.9695648518302901"><ele>187.0</ele><time>2026-04-08T16:13:29Z</time></trkpt><trkpt lat="48.46595719702185" lon="-0.9694355460584606"><ele>187.0</ele><time>2026-04-08T16:13:30Z</time></trkpt><trkpt lat="48.4657768496504" lon="-0.9693111658857007"><ele>187.0</ele><time>2026-04-08T16:13:31Z</time></trkpt><trkpt lat="48.4655834511612" lon="-0.9691892298743624"><ele>187.0</ele><time>2026-04-08T16:13:32Z</time></trkpt><trkpt lat="48.46538755097123" lon="-0.9690691489035396"><ele>187.33333333333334</ele><time>2026-04-08T16:13:33Z</time></trkpt><trkpt lat="48.46519877286556" lon="-0.9689534333196549"><ele>187.66666666666666</ele><time>2026-04-08T16:13:34Z</time></trkpt><trkpt lat="48.46500625302618" lon="-0.9688315950604299"><ele>188.0</ele><time>2026-04-08T16:13:35Z</time></trkpt><trkpt lat="48.46481648718346" lon="-0.9686909163649401"><ele>188.0</ele><time>2026-04-08T16:13:36Z</time></trkpt><trkpt lat="48.46463346621426" lon="-0.9685254056954993"><ele>188.0</ele><time>2026-04-08T16:13:37Z</time></trkpt><trkpt lat="48.46445413329533" lon="-0.968349258480577"><ele>188.0</ele><time>2026-04-08T16:13:38Z</time></trkpt><trkpt lat="48.464274390773866" lon="-0.9681706748613406"><ele>188.0</ele><time>2026-04-08T16:13:39Z</time></trkpt><trkpt lat="48.464094807227" lon="-0.9679933305234912"><ele>188.0</ele><time>2026-04-08T16:13:40Z</time></trkpt><trkpt lat="48.46391972355519" lon="-0.9678204281657884"><ele>188.0</ele><time>2026-04-08T16:13:41Z</time></trkpt><trkpt lat="48.463747686503275" lon="-0.9676533275828774"><ele>187.66666666666666</ele><time>2026-04-08T16:13:42Z</time></trkpt><trkpt lat="48.463571968162114" lon="-0.9674844414278579"><ele>187.33333333333334</ele><time>2026-04-08T16:13:43Z</time></trkpt><trkpt lat="48.46339170927807" lon="-0.9673221016332254"><ele>187.0</ele><time>2026-04-08T16:13:44Z</time></trkpt><trkpt lat="48.463200401226054" lon="-0.9671830977345921"><ele>187.0</ele><time>2026-04-08T16:13:45Z</time></trkpt><trkpt lat="48.463006867128826" lon="-0.9670427996111285"><ele>187.0</ele><time>2026-04-08T16:13:46Z</time></trkpt><trkpt lat="48.462798437648665" lon="-0.966931137160068"><ele>187.0</ele><time>2026-04-08T16:13:47Z</time></trkpt><trkpt lat="48.46258620286114" lon="-0.9668350850794807"><ele>186.66666666666669</ele><time>2026-04-08T16:13:48Z</time></trkpt><trkpt lat="48.46239182065812" lon="-0.966707907935454"><ele>186.33333333333334</ele><time>2026-04-08T16:13:49Z</time></trkpt><trkpt lat="48.46219064829041" lon="-0.9666095744934375"><ele>186.0</ele><time>2026-04-08T16:13:50Z</time></trkpt><trkpt lat="48.461986003032735" lon="-0.9665419096957376"><ele>185.66666666666666</ele><time>2026-04-08T16:13:51Z</time></trkpt><trkpt lat="48.46177191972023" lon="-0.9665258329785607"><ele>185.33333333333331</ele><time>2026-04-08T16:13:52Z</time></trkpt><trkpt lat="48.46156109590681" lon="-0.9665548240459975"><ele>185.0</ele><time>2026-04-08T16:13:53Z</time></trkpt><trkpt lat="48.46134555259847" lon="-0.9666159803634136"><ele>187.33333333333331</ele><time>2026-04-08T16:13:54Z</time></trkpt><trkpt lat="48.461129913574574" lon="-0.9666786848406758"><ele>189.66666666666666</ele><time>2026-04-08T16:13:55Z</time></trkpt><trkpt lat="48.460915660722556" lon="-0.966736524472501"><ele>192.0</ele><time>2026-04-08T16:13:56Z</time></trkpt><trkpt lat="48.46070298182211" lon="-0.9667692664760825"><ele>192.66666666666669</ele><time>2026-04-08T16:13:57Z</time></trkpt><trkpt lat="48.46048947111542" lon="-0.9667769882893744"><ele>193.33333333333334</ele><time>2026-04-08T16:13:58Z</time></trkpt><trkpt lat="48.46027552122857" lon="-0.966781290430983"><ele>194.0</ele><time>2026-04-08T16:13:59Z</time></trkpt><trkpt lat="48.46006470797931" lon="-0.9667728141815276"><ele>194.0</ele><time>2026-04-08T16:14:00Z</time></trkpt><trkpt lat="48.45985447502755" lon="-0.9667982279495743"><ele>194.0</ele><time>2026-04-08T16:14:01Z</time></trkpt><trkpt lat="48.459643211586105" lon="-0.96677894191288"><ele>194.0</ele><time>2026-04-08T16:14:02Z</time></trkpt><trkpt lat="48.45943259303383" lon="-0.966797478867881"><ele>194.66666666666669</ele><time>2026-04-08T16:14:03Z</time></trkpt><trkpt lat="48.4592204889494" lon="-0.9667921157927403"><ele>195.33333333333331</ele><time>2026-04-08T16:14:04Z</time></trkpt><trkpt lat="48.459007052118274" lon="-0.9667939385148562"><ele>196.0</ele><time>2026-04-08T16:14:05Z</time></trkpt><trkpt lat="48.45879273044501" lon="-0.9667998329856619"><ele>196.0</ele><time>2026-04-08T16:14:06Z</time></trkpt><trkpt lat="48.45857603577141" lon="-0.9667932020486872"><ele>196.0</ele><time>2026-04-08T16:14:07Z</time></trkpt><trkpt lat="48.458360623076125" lon="-0.9667809664663677"><ele>196.0</ele><time>2026-04-08T16:14:08Z</time></trkpt><trkpt lat="48.45815630279092" lon="-0.9667576078427462"><ele>196.0</ele><time>2026-04-08T16:14:09Z</time></trkpt><trkpt lat="48.45796161399156" lon="-0.9667238228320371"><ele>196.0</ele><time>2026-04-08T16:14:10Z</time></trkpt><trkpt lat="48.457778128006126" lon="-0.9666909012885133"><ele>196.0</ele><time>2026-04-08T16:14:11Z</time></trkpt><trkpt lat="48.45760394112253" lon="-0.9666671116512267"><ele>197.66666666666666</ele><time>2026-04-08T16:14:12Z</time></trkpt><trkpt lat="48.45743007257193" lon="-0.9666135015048201"><ele>199.33333333333331</ele><time>2026-04-08T16:14:13Z</time></trkpt><trkpt lat="48.45725758635742" lon="-0.9665260202043998"><ele>201.0</ele><time>2026-04-08T16:14:14Z</time></trkpt><trkpt lat="48.45708742801147" lon="-0.9664238683606213"><ele>201.0</ele><time>2026-04-08T16:14:15Z</time></trkpt><trkpt lat="48.456920543212995" lon="-0.9662985458053399"><ele>201.0</ele><time>2026-04-08T16:14:16Z</time></trkpt><trkpt lat="48.456755809671115" lon="-0.966151461991727"><ele>201.0</ele><time>2026-04-08T16:14:17Z</time></trkpt><trkpt lat="48.456583199428" lon="-0.966005273650933"><ele>201.0</ele><time>2026-04-08T16:14:18Z</time></trkpt><trkpt lat="48.456404609409425" lon="-0.9658705867541197"><ele>201.0</ele><time>2026-04-08T16:14:19Z</time></trkpt><trkpt lat="48.45621277186451" lon="-0.9657753522480415"><ele>201.0</ele><time>2026-04-08T16:14:20Z</time></trkpt><trkpt lat="48.456012119520274" lon="-0.965720193399238"><ele>201.0</ele><time>2026-04-08T16:14:21Z</time></trkpt><trkpt lat="48.45581293301691" lon="-0.965713120851998"><ele>201.0</ele><time>2026-04-08T16:14:22Z</time></trkpt><trkpt lat="48.455608370176066" lon="-0.9657395740351694"><ele>201.0</ele><time>2026-04-08T16:14:23Z</time></trkpt><trkpt lat="48.455412232839855" lon="-0.9657967847738831"><ele>201.0</ele><time>2026-04-08T16:14:24Z</time></trkpt><trkpt lat="48.455211673335505" lon="-0.9658549142832666"><ele>201.0</ele><time>2026-04-08T16:14:25Z</time></trkpt><trkpt lat="48.45501965722507" lon="-0.965950432486647"><ele>201.0</ele><time>2026-04-08T16:14:26Z</time></trkpt><trkpt lat="48.45482699012658" lon="-0.9660669267644539"><ele>200.66666666666669</ele><time>2026-04-08T16:14:27Z</time></trkpt><trkpt lat="48.45463893387662" lon="-0.9661970737398443"><ele>200.33333333333334</ele><time>2026-04-08T16:14:28Z</time></trkpt><trkpt lat="48.45444945576532" lon="-0.9663244858185521"><ele>200.0</ele><time>2026-04-08T16:14:29Z</time></trkpt><trkpt lat="48.45425490758157" lon="-0.9664447198585585"><ele>200.0</ele><time>2026-04-08T16:14:30Z</time></trkpt><trkpt lat="48.45406214377967" lon="-0.9665475983387284"><ele>200.0</ele><time>2026-04-08T16:14:31Z</time></trkpt><trkpt lat="48.453861628969605" lon="-0.9666366364447038"><ele>200.0</ele><time>2026-04-08T16:14:32Z</time></trkpt><trkpt lat="48.4536576123034" lon="-0.9667078282614886"><ele>198.66666666666669</ele><time>2026-04-08T16:14:33Z</time></trkpt><trkpt lat="48.45346239298713" lon="-0.9667564463182541"><ele>197.33333333333331</ele><time>2026-04-08T16:14:34Z</time></trkpt><trkpt lat="48.45327363603503" lon="-0.9667918957669858"><ele>196.0</ele><time>2026-04-08T16:14:35Z</time></trkpt><trkpt lat="48.4530911535668" lon="-0.9668229770711197"><ele>196.66666666666666</ele><time>2026-04-08T16:14:36Z</time></trkpt><trkpt lat="48.45291400359498" lon="-0.9668416516524402"><ele>197.33333333333331</ele><time>2026-04-08T16:14:37Z</time></trkpt><trkpt lat="48.452738933724376" lon="-0.9668220333170235"><ele>198.0</ele><time>2026-04-08T16:14:38Z</time></trkpt><trkpt lat="48.45256651218148" lon="-0.9667984996939764"><ele>198.0</ele><time>2026-04-08T16:14:39Z</time></trkpt><trkpt lat="48.4524080693927" lon="-0.9667530616810391"><ele>198.0</ele><time>2026-04-08T16:14:40Z</time></trkpt><trkpt lat="48.45226546951852" lon="-0.9666797569399341"><ele>198.0</ele><time>2026-04-08T16:14:41Z</time></trkpt><trkpt lat="48.45213047093506" lon="-0.9665961260432389"><ele>199.0</ele><time>2026-04-08T16:14:42Z</time></trkpt><trkpt lat="48.45199827888722" lon="-0.9665021567786667"><ele>200.0</ele><time>2026-04-08T16:14:43Z</time></trkpt><trkpt lat="48.45186733850079" lon="-0.9664095797372724"><ele>201.0</ele><time>2026-04-08T16:14:44Z</time></trkpt><trkpt lat="48.45173731954854" lon="-0.9663152901440942"><ele>202.0</ele><time>2026-04-08T16:14:45Z</time></trkpt><trkpt lat="48.45160605839531" lon="-0.9662435728715317"><ele>202.0</ele><time>2026-04-08T16:14:46Z</time></trkpt><trkpt lat="48.451466590512915" lon="-0.9661948111726263"><ele>202.0</ele><time>2026-04-08T16:14:47Z</time></trkpt><trkpt lat="48.45132635880869" lon="-0.9661629188846595"><ele>202.0</ele><time>2026-04-08T16:14:48Z</time></trkpt><trkpt lat="48.45119208977051" lon="-0.9661400122698071"><ele>202.0</ele><time>2026-04-08T16:14:49Z</time></trkpt><trkpt lat="48.45106318117346" lon="-0.966116581724434"><ele>201.75</ele><time>2026-04-08T16:14:50Z</time></trkpt><trkpt lat="48.45093227023345" lon="-0.9661266637508266"><ele>201.5</ele><time>2026-04-08T16:14:51Z</time></trkpt><trkpt lat="48.45080041629562" lon="-0.9661102249519506"><ele>201.25</ele><time>2026-04-08T16:14:52Z</time></trkpt><trkpt lat="48.45068263295556" lon="-0.9660878949382167"><ele>201.0</ele><time>2026-04-08T16:14:53Z</time></trkpt><trkpt lat="48.45056479115044" lon="-0.9660758150051771"><ele>201.20000000000002</ele><time>2026-04-08T16:14:54Z</time></trkpt><trkpt lat="48.45044884837023" lon="-0.9660636721553392"><ele>201.4</ele><time>2026-04-08T16:14:55Z</time></trkpt><trkpt lat="48.4503416574393" lon="-0.9660602304490747"><ele>201.6</ele><time>2026-04-08T16:14:56Z</time></trkpt><trkpt lat="48.45023735419608" lon="-0.9660481790769099"><ele>201.8</ele><time>2026-04-08T16:14:57Z</time></trkpt><trkpt lat="48.450128571188266" lon="-0.9660292555387006"><ele>202.0</ele><time>2026-04-08T16:14:58Z</time></trkpt><trkpt lat="48.45001820223881" lon="-0.9660211223666914"><ele>202.0</ele><time>2026-04-08T16:14:59Z</time></trkpt><trkpt lat="48.4499076372409" lon="-0.966014726441572"><ele>202.0</ele><time>2026-04-08T16:15:00Z</time></trkpt><trkpt lat="48.44980274621043" lon="-0.9660240883332785"><ele>202.0</ele><time>2026-04-08T16:15:01Z</time></trkpt><trkpt lat="48.44970220700227" lon="-0.966015057887319"><ele>202.0</ele><time>2026-04-08T16:15:02Z</time></trkpt><trkpt lat="48.44960612897583" lon="-0.9660016149350968"><ele>202.0</ele><time>2026-04-08T16:15:03Z</time></trkpt><trkpt lat="48.44951386871102" lon="-0.9659944064414144"><ele>201.6</ele><time>2026-04-08T16:15:04Z</time></trkpt><trkpt lat="48.44942331988181" lon="-0.9659943604995127"><ele>201.2</ele><time>2026-04-08T16:15:05Z</time></trkpt><trkpt lat="48.449331876482844" lon="-0.965980954567592"><ele>200.8</ele><time>2026-04-08T16:15:06Z</time></trkpt><trkpt lat="48.44924319870302" lon="-0.965951217427304"><ele>200.4</ele><time>2026-04-08T16:15:07Z</time></trkpt><trkpt lat="48.44915030724951" lon="-0.9659285980596076"><ele>200.0</ele><time>2026-04-08T16:15:08Z</time></trkpt><trkpt lat="48.44906197120606" lon="-0.9659453287194895"><ele>200.00000000000003</ele><time>2026-04-08T16:15:09Z</time></trkpt><trkpt lat="48.44898812838541" lon="-0.9659393222215515"><ele>200.0</ele><time>2026-04-08T16:15:10Z</time></trkpt><trkpt lat="48.44892131933168" lon="-0.9659103748453157"><ele>200.0</ele><time>2026-04-08T16:15:11Z</time></trkpt><trkpt lat="48.448826725755666" lon="-0.9659225474294093"><ele>200.0</ele><time>2026-04-08T16:15:13Z</time></trkpt><trkpt lat="48.44874983940316" lon="-0.9659043664883558"><ele>200.00000000000003</ele><time>2026-04-08T16:15:15Z</time></trkpt><trkpt lat="48.44866688493427" lon="-0.9658992574583996"><ele>200.0</ele><time>2026-04-08T16:15:17Z</time></trkpt><trkpt lat="48.44857112919485" lon="-0.9659472452635547"><ele>198.8</ele><time>2026-04-08T16:15:19Z</time></trkpt><trkpt lat="48.448470036595644" lon="-0.9660214765907842"><ele>197.6</ele><time>2026-04-08T16:15:21Z</time></trkpt><trkpt lat="48.44841156370982" lon="-0.966078869712806"><ele>196.39999999999998</ele><time>2026-04-08T16:15:22Z</time></trkpt><trkpt lat="48.44833706538638" lon="-0.9661623214204741"><ele>195.2</ele><time>2026-04-08T16:15:23Z</time></trkpt><trkpt lat="48.44825251125902" lon="-0.9662630988047556"><ele>194.0</ele><time>2026-04-08T16:15:24Z</time></trkpt><trkpt lat="48.448159505395274" lon="-0.96637600446053"><ele>194.0</ele><time>2026-04-08T16:15:25Z</time></trkpt><trkpt lat="48.44806232942379" lon="-0.9664943653632185"><ele>194.0</ele><time>2026-04-08T16:15:26Z</time></trkpt><trkpt lat="48.4479576787084" lon="-0.9666240810056418"><ele>194.0</ele><time>2026-04-08T16:15:27Z</time></trkpt><trkpt lat="48.447842313930785" lon="-0.9667676834704783"><ele>194.0</ele><time>2026-04-08T16:15:28Z</time></trkpt><trkpt lat="48.447716537284464" lon="-0.966927133220955"><ele>192.66666666666669</ele><time>2026-04-08T16:15:29Z</time></trkpt><trkpt lat="48.4475842559281" lon="-0.9670991501405537"><ele>191.33333333333334</ele><time>2026-04-08T16:15:30Z</time></trkpt><trkpt lat="48.44743067962557" lon="-0.9672835593192378"><ele>190.0</ele><time>2026-04-08T16:15:31Z</time></trkpt><trkpt lat="48.447257021842795" lon="-0.9674473074461704"><ele>193.66666666666669</ele><time>2026-04-08T16:15:32Z</time></trkpt><trkpt lat="48.447078576377315" lon="-0.9675822654333079"><ele>197.33333333333334</ele><time>2026-04-08T16:15:33Z</time></trkpt><trkpt lat="48.446896167378966" lon="-0.9677068666480181"><ele>201.0</ele><time>2026-04-08T16:15:34Z</time></trkpt><trkpt lat="48.446708697957796" lon="-0.9678319473474822"><ele>201.0</ele><time>2026-04-08T16:15:35Z</time></trkpt><trkpt lat="48.446520068368734" lon="-0.9679547619916352"><ele>201.0</ele><time>2026-04-08T16:15:36Z</time></trkpt><trkpt lat="48.44632838079162" lon="-0.9680746886224509"><ele>201.0</ele><time>2026-04-08T16:15:37Z</time></trkpt><trkpt lat="48.44613249930693" lon="-0.9681823443204184"><ele>202.33333333333331</ele><time>2026-04-08T16:15:38Z</time></trkpt><trkpt lat="48.44592904731122" lon="-0.9682774348104591"><ele>203.66666666666666</ele><time>2026-04-08T16:15:39Z</time></trkpt><trkpt lat="48.445722807787085" lon="-0.9683675852350699"><ele>205.0</ele><time>2026-04-08T16:15:40Z</time></trkpt><trkpt lat="48.44551537800108" lon="-0.968458596419895"><ele>206.0</ele><time>2026-04-08T16:15:41Z</time></trkpt><trkpt lat="48.4453031852487" lon="-0.9685551001132544"><ele>207.0</ele><time>2026-04-08T16:15:42Z</time></trkpt><trkpt lat="48.44508954932311" lon="-0.968652260142467"><ele>208.0</ele><time>2026-04-08T16:15:43Z</time></trkpt><trkpt lat="48.44487759401095" lon="-0.968743095569249"><ele>208.0</ele><time>2026-04-08T16:15:44Z</time></trkpt><trkpt lat="48.44466460050157" lon="-0.9688307177837227"><ele>208.0</ele><time>2026-04-08T16:15:45Z</time></trkpt><trkpt lat="48.444449260124586" lon="-0.9689110268488684"><ele>208.0</ele><time>2026-04-08T16:15:46Z</time></trkpt><trkpt lat="48.44423159314741" lon="-0.9689660481450355"><ele>208.66666666666666</ele><time>2026-04-08T16:15:47Z</time></trkpt><trkpt lat="48.44401970490078" lon="-0.969038674293067"><ele>209.33333333333331</ele><time>2026-04-08T16:15:48Z</time></trkpt><trkpt lat="48.44380678893489" lon="-0.9691080045108215"><ele>210.0</ele><time>2026-04-08T16:15:49Z</time></trkpt><trkpt lat="48.443601806840924" lon="-0.9691768894258257"><ele>211.0</ele><time>2026-04-08T16:15:50Z</time></trkpt><trkpt lat="48.44339190486777" lon="-0.9692708666020794"><ele>212.0</ele><time>2026-04-08T16:15:51Z</time></trkpt><trkpt lat="48.44317984838867" lon="-0.9693639554191844"><ele>213.0</ele><time>2026-04-08T16:15:52Z</time></trkpt><trkpt lat="48.442967149280484" lon="-0.9694551185392563"><ele>213.33333333333331</ele><time>2026-04-08T16:15:53Z</time></trkpt><trkpt lat="48.4427533803355" lon="-0.9695486829700328"><ele>213.66666666666666</ele><time>2026-04-08T16:15:54Z</time></trkpt><trkpt lat="48.44253586990373" lon="-0.9696363705958936"><ele>214.0</ele><time>2026-04-08T16:15:55Z</time></trkpt><trkpt lat="48.442316370106035" lon="-0.9697255087973156"><ele>213.5</ele><time>2026-04-08T16:15:56Z</time></trkpt><trkpt lat="48.44209399346652" lon="-0.9698147547856552"><ele>213.0</ele><time>2026-04-08T16:15:57Z</time></trkpt><trkpt lat="48.441871958633925" lon="-0.9699110002083718"><ele>213.0</ele><time>2026-04-08T16:15:58Z</time></trkpt><trkpt lat="48.44164656549313" lon="-0.9700083072714885"><ele>213.0</ele><time>2026-04-08T16:15:59Z</time></trkpt><trkpt lat="48.44142234120818" lon="-0.9701049201223974"><ele>214.0</ele><time>2026-04-08T16:16:00Z</time></trkpt><trkpt lat="48.441193755783075" lon="-0.9701967948877557"><ele>215.0</ele><time>2026-04-08T16:16:01Z</time></trkpt><trkpt lat="48.44096597297046" lon="-0.9702863405788628"><ele>215.0</ele><time>2026-04-08T16:16:02Z</time></trkpt><trkpt lat="48.44073550937343" lon="-0.9703617749813616"><ele>215.0</ele><time>2026-04-08T16:16:03Z</time></trkpt><trkpt lat="48.44050500896561" lon="-0.9704307804546604"><ele>215.0</ele><time>2026-04-08T16:16:04Z</time></trkpt><trkpt lat="48.440273863690884" lon="-0.9704406044504535"><ele>215.0</ele><time>2026-04-08T16:16:05Z</time></trkpt><trkpt lat="48.44004483512396" lon="-0.9703861363149485"><ele>215.0</ele><time>2026-04-08T16:16:06Z</time></trkpt><trkpt lat="48.43981702365158" lon="-0.970341803821049"><ele>215.0</ele><time>2026-04-08T16:16:07Z</time></trkpt><trkpt lat="48.439594404499374" lon="-0.9702849240416871"><ele>215.66666666666669</ele><time>2026-04-08T16:16:08Z</time></trkpt><trkpt lat="48.43937865232653" lon="-0.9702241133246291"><ele>216.33333333333331</ele><time>2026-04-08T16:16:09Z</time></trkpt><trkpt lat="48.43916152101945" lon="-0.9701890208538959"><ele>217.0</ele><time>2026-04-08T16:16:10Z</time></trkpt><trkpt lat="48.438939941571874" lon="-0.9702002099603073"><ele>218.33333333333331</ele><time>2026-04-08T16:16:11Z</time></trkpt><trkpt lat="48.438718503579594" lon="-0.9702415014810506"><ele>219.66666666666669</ele><time>2026-04-08T16:16:12Z</time></trkpt><trkpt lat="48.438499302047056" lon="-0.9702827388041727"><ele>221.0</ele><time>2026-04-08T16:16:13Z</time></trkpt><trkpt lat="48.43828900524562" lon="-0.9703271004837465"><ele>221.0</ele><time>2026-04-08T16:16:14Z</time></trkpt><trkpt lat="48.438082018803264" lon="-0.9703569314945845"><ele>221.0</ele><time>2026-04-08T16:16:15Z</time></trkpt><trkpt lat="48.43788015972233" lon="-0.9703710959392536"><ele>221.0</ele><time>2026-04-08T16:16:16Z</time></trkpt><trkpt lat="48.43768036901906" lon="-0.9703676980048758"><ele>223.33333333333334</ele><time>2026-04-08T16:16:17Z</time></trkpt><trkpt lat="48.437479991255074" lon="-0.9703470848351894"><ele>225.66666666666669</ele><time>2026-04-08T16:16:18Z</time></trkpt><trkpt lat="48.43727961945117" lon="-0.9703308412990564"><ele>228.0</ele><time>2026-04-08T16:16:19Z</time></trkpt><trkpt lat="48.43707620812002" lon="-0.9703179338185578"><ele>228.0</ele><time>2026-04-08T16:16:20Z</time></trkpt><trkpt lat="48.43687210129719" lon="-0.9702960456013561"><ele>228.0</ele><time>2026-04-08T16:16:21Z</time></trkpt><trkpt lat="48.43666743780915" lon="-0.9702533783468366"><ele>228.0</ele><time>2026-04-08T16:16:22Z</time></trkpt><trkpt lat="48.436472225255756" lon="-0.9701638201384817"><ele>227.66666666666669</ele><time>2026-04-08T16:16:23Z</time></trkpt><trkpt lat="48.43628471008369" lon="-0.9700318215453109"><ele>227.33333333333334</ele><time>2026-04-08T16:16:24Z</time></trkpt><trkpt lat="48.436115513487856" lon="-0.9698770209262549"><ele>227.0</ele><time>2026-04-08T16:16:25Z</time></trkpt><trkpt lat="48.43595028211074" lon="-0.9697354276956333"><ele>227.0</ele><time>2026-04-08T16:16:26Z</time></trkpt><trkpt lat="48.43579253492848" lon="-0.9696079457003745"><ele>227.0</ele><time>2026-04-08T16:16:27Z</time></trkpt><trkpt lat="48.43564323565701" lon="-0.969486896382685"><ele>227.0</ele><time>2026-04-08T16:16:28Z</time></trkpt><trkpt lat="48.43550614778786" lon="-0.9693723116900697"><ele>227.0</ele><time>2026-04-08T16:16:29Z</time></trkpt><trkpt lat="48.4353595819755" lon="-0.9693000853369788"><ele>227.0</ele><time>2026-04-08T16:16:30Z</time></trkpt><trkpt lat="48.43520388487356" lon="-0.9692935878346575"><ele>227.0</ele><time>2026-04-08T16:16:31Z</time></trkpt><trkpt lat="48.4350412073305" lon="-0.9692981739368696"><ele>227.0</ele><time>2026-04-08T16:16:32Z</time></trkpt><trkpt lat="48.434872972427534" lon="-0.969355207792306"><ele>227.0</ele><time>2026-04-08T16:16:33Z</time></trkpt><trkpt lat="48.43468941114421" lon="-0.9694368433277479"><ele>227.0</ele><time>2026-04-08T16:16:34Z</time></trkpt><trkpt lat="48.434498271475015" lon="-0.9695215619752842"><ele>226.33333333333334</ele><time>2026-04-08T16:16:35Z</time></trkpt><trkpt lat="48.43429878212443" lon="-0.9695983211065485"><ele>225.66666666666669</ele><time>2026-04-08T16:16:36Z</time></trkpt><trkpt lat="48.43409386811155" lon="-0.9696859157561096"><ele>225.0</ele><time>2026-04-08T16:16:37Z</time></trkpt><trkpt lat="48.43388595082442" lon="-0.9697828186699229"><ele>224.0</ele><time>2026-04-08T16:16:38Z</time></trkpt><trkpt lat="48.43367737690912" lon="-0.9698801577662244"><ele>223.0</ele><time>2026-04-08T16:16:39Z</time></trkpt><trkpt lat="48.433471634535834" lon="-0.969981204295933"><ele>222.0</ele><time>2026-04-08T16:16:40Z</time></trkpt><trkpt lat="48.433268641720396" lon="-0.9701003665956717"><ele>221.0</ele><time>2026-04-08T16:16:41Z</time></trkpt><trkpt lat="48.43306462569829" lon="-0.9702356797598078"><ele>220.0</ele><time>2026-04-08T16:16:42Z</time></trkpt><trkpt lat="48.432862839595" lon="-0.9703720904638682"><ele>219.0</ele><time>2026-04-08T16:16:43Z</time></trkpt><trkpt lat="48.432661589924734" lon="-0.970503623158657"><ele>219.0</ele><time>2026-04-08T16:16:44Z</time></trkpt><trkpt lat="48.432462189843314" lon="-0.9706410209943124"><ele>219.0</ele><time>2026-04-08T16:16:45Z</time></trkpt><trkpt lat="48.43227254185527" lon="-0.9708058366489537"><ele>219.0</ele><time>2026-04-08T16:16:46Z</time></trkpt><trkpt lat="48.432071521828036" lon="-0.9709311383685116"><ele>219.0</ele><time>2026-04-08T16:16:47Z</time></trkpt><trkpt lat="48.43188294482834" lon="-0.9710895150879737"><ele>219.0</ele><time>2026-04-08T16:16:48Z</time></trkpt><trkpt lat="48.4316964691573" lon="-0.9712493219743926"><ele>219.0</ele><time>2026-04-08T16:16:49Z</time></trkpt><trkpt lat="48.4315064388532" lon="-0.9713951301067476"><ele>217.33333333333331</ele><time>2026-04-08T16:16:50Z</time></trkpt><trkpt lat="48.431306897471806" lon="-0.9715066974124889"><ele>215.66666666666666</ele><time>2026-04-08T16:16:51Z</time></trkpt><trkpt lat="48.43109680581932" lon="-0.9716083104324739"><ele>214.0</ele><time>2026-04-08T16:16:52Z</time></trkpt><trkpt lat="48.43087855320672" lon="-0.9717109819076458"><ele>213.66666666666666</ele><time>2026-04-08T16:16:53Z</time></trkpt><trkpt lat="48.43067109011602" lon="-0.9718180432380582"><ele>213.33333333333331</ele><time>2026-04-08T16:16:54Z</time></trkpt><trkpt lat="48.430471410794574" lon="-0.9719180203140577"><ele>213.0</ele><time>2026-04-08T16:16:55Z</time></trkpt><trkpt lat="48.43026661188606" lon="-0.9720009271626854"><ele>211.0</ele><time>2026-04-08T16:16:56Z</time></trkpt><trkpt lat="48.43006354233986" lon="-0.9720750038804039"><ele>209.0</ele><time>2026-04-08T16:16:57Z</time></trkpt><trkpt lat="48.42987248944871" lon="-0.9721402575889972"><ele>207.0</ele><time>2026-04-08T16:16:58Z</time></trkpt><trkpt lat="48.429669482485885" lon="-0.9721790471582568"><ele>204.66666666666669</ele><time>2026-04-08T16:16:59Z</time></trkpt><trkpt lat="48.42948474898287" lon="-0.9722285023811241"><ele>202.33333333333334</ele><time>2026-04-08T16:17:00Z</time></trkpt><trkpt lat="48.42930160851414" lon="-0.9723152075262754"><ele>200.0</ele><time>2026-04-08T16:17:01Z</time></trkpt><trkpt lat="48.4291521092177" lon="-0.9724973863023204"><ele>200.66666666666669</ele><time>2026-04-08T16:17:02Z</time></trkpt><trkpt lat="48.42901054913749" lon="-0.9726969070334528"><ele>201.33333333333331</ele><time>2026-04-08T16:17:03Z</time></trkpt><trkpt lat="48.42889534431902" lon="-0.9729382225280668"><ele>202.0</ele><time>2026-04-08T16:17:04Z</time></trkpt><trkpt lat="48.42877083809925" lon="-0.9731701739285443"><ele>203.0</ele><time>2026-04-08T16:17:05Z</time></trkpt><trkpt lat="48.42861873156847" lon="-0.973361405607523"><ele>204.0</ele><time>2026-04-08T16:17:06Z</time></trkpt><trkpt lat="48.428440838039336" lon="-0.9735155005098747"><ele>205.0</ele><time>2026-04-08T16:17:07Z</time></trkpt><trkpt lat="48.428246683557674" lon="-0.9736497461811964"><ele>205.0</ele><time>2026-04-08T16:17:08Z</time></trkpt><trkpt lat="48.42805267005588" lon="-0.973737326283904"><ele>205.0</ele><time>2026-04-08T16:17:09Z</time></trkpt><trkpt lat="48.42785469259565" lon="-0.9738611716452245"><ele>205.0</ele><time>2026-04-08T16:17:10Z</time></trkpt><trkpt lat="48.42765180145817" lon="-0.9739557225535709"><ele>205.33333333333331</ele><time>2026-04-08T16:17:11Z</time></trkpt><trkpt lat="48.4274560629478" lon="-0.9740646697275667"><ele>205.66666666666669</ele><time>2026-04-08T16:17:12Z</time></trkpt><trkpt lat="48.42725472308389" lon="-0.9741372309836256"><ele>206.0</ele><time>2026-04-08T16:17:13Z</time></trkpt><trkpt lat="48.42703114644963" lon="-0.9741512796954632"><ele>206.66666666666669</ele><time>2026-04-08T16:17:14Z</time></trkpt><trkpt lat="48.426806756231294" lon="-0.9741549258873559"><ele>207.33333333333331</ele><time>2026-04-08T16:17:15Z</time></trkpt><trkpt lat="48.426589354280445" lon="-0.9741800242652003"><ele>208.0</ele><time>2026-04-08T16:17:16Z</time></trkpt><trkpt lat="48.426376469073816" lon="-0.9742517291205229"><ele>210.66666666666666</ele><time>2026-04-08T16:17:17Z</time></trkpt><trkpt lat="48.42616932289215" lon="-0.9743335149647089"><ele>213.33333333333331</ele><time>2026-04-08T16:17:18Z</time></trkpt><trkpt lat="48.42597041491938" lon="-0.9744155739029873"><ele>216.0</ele><time>2026-04-08T16:17:19Z</time></trkpt><trkpt lat="48.425794346743146" lon="-0.9745042554798258"><ele>216.0</ele><time>2026-04-08T16:17:20Z</time></trkpt><trkpt lat="48.42562007808551" lon="-0.9745714158482867"><ele>216.0</ele><time>2026-04-08T16:17:21Z</time></trkpt><trkpt lat="48.42544995359637" lon="-0.9746378732169172"><ele>216.0</ele><time>2026-04-08T16:17:22Z</time></trkpt><trkpt lat="48.425281803181036" lon="-0.9747067374923657"><ele>216.33333333333331</ele><time>2026-04-08T16:17:23Z</time></trkpt><trkpt lat="48.42511099534408" lon="-0.9747677725237022"><ele>216.66666666666666</ele><time>2026-04-08T16:17:24Z</time></trkpt><trkpt lat="48.424931268829695" lon="-0.9748226771482672"><ele>217.0</ele><time>2026-04-08T16:17:25Z</time></trkpt><trkpt lat="48.424734939326164" lon="-0.9748687337901857"><ele>216.33333333333331</ele><time>2026-04-08T16:17:26Z</time></trkpt><trkpt lat="48.42452540034038" lon="-0.9749291098618922"><ele>215.66666666666669</ele><time>2026-04-08T16:17:27Z</time></trkpt><trkpt lat="48.42431472511841" lon="-0.9749990705950604"><ele>215.0</ele><time>2026-04-08T16:17:28Z</time></trkpt><trkpt lat="48.42410670595395" lon="-0.975068569358506"><ele>215.0</ele><time>2026-04-08T16:17:29Z</time></trkpt><trkpt lat="48.42389596255462" lon="-0.9751323614209655"><ele>215.0</ele><time>2026-04-08T16:17:30Z</time></trkpt><trkpt lat="48.42368658206681" lon="-0.9752018303120936"><ele>215.0</ele><time>2026-04-08T16:17:31Z</time></trkpt><trkpt lat="48.42348293061488" lon="-0.9752969377782811"><ele>213.66666666666669</ele><time>2026-04-08T16:17:32Z</time></trkpt><trkpt lat="48.42327504335735" lon="-0.9753931794479437"><ele>212.33333333333331</ele><time>2026-04-08T16:17:33Z</time></trkpt><trkpt lat="48.42306631674723" lon="-0.9754814582537487"><ele>211.0</ele><time>2026-04-08T16:17:34Z</time></trkpt><trkpt lat="48.422856587195305" lon="-0.9755667250050226"><ele>209.33333333333331</ele><time>2026-04-08T16:17:35Z</time></trkpt><trkpt lat="48.4226448864107" lon="-0.9756431489023647"><ele>207.66666666666669</ele><time>2026-04-08T16:17:36Z</time></trkpt><trkpt lat="48.42243209174892" lon="-0.9757173326964655"><ele>206.0</ele><time>2026-04-08T16:17:37Z</time></trkpt><trkpt lat="48.4222198618138" lon="-0.9757894370884065"><ele>205.33333333333334</ele><time>2026-04-08T16:17:38Z</time></trkpt><trkpt lat="48.42200954941945" lon="-0.975873756087839"><ele>204.66666666666669</ele><time>2026-04-08T16:17:39Z</time></trkpt><trkpt lat="48.421806167042426" lon="-0.9759780374582618"><ele>204.0</ele><time>2026-04-08T16:17:40Z</time></trkpt><trkpt lat="48.42160110947457" lon="-0.9760757182306637"><ele>204.0</ele><time>2026-04-08T16:17:41Z</time></trkpt><trkpt lat="48.42140260189688" lon="-0.9761983637968863"><ele>204.0</ele><time>2026-04-08T16:17:42Z</time></trkpt><trkpt lat="48.42120604716315" lon="-0.9763110814271347"><ele>204.0</ele><time>2026-04-08T16:17:43Z</time></trkpt><trkpt lat="48.421013067108476" lon="-0.9764397304805451"><ele>203.33333333333331</ele><time>2026-04-08T16:17:44Z</time></trkpt><trkpt lat="48.42085306349213" lon="-0.976648815844647"><ele>202.66666666666666</ele><time>2026-04-08T16:17:45Z</time></trkpt><trkpt lat="48.42068868440357" lon="-0.9768509592518695"><ele>202.0</ele><time>2026-04-08T16:17:46Z</time></trkpt><trkpt lat="48.420548973879065" lon="-0.9771021464936462"><ele>200.66666666666666</ele><time>2026-04-08T16:17:47Z</time></trkpt><trkpt lat="48.42039536990096" lon="-0.9773382923235769"><ele>199.33333333333331</ele><time>2026-04-08T16:17:48Z</time></trkpt><trkpt lat="48.420235377531014" lon="-0.9775726522103687"><ele>198.0</ele><time>2026-04-08T16:17:49Z</time></trkpt><trkpt lat="48.4200591051546" lon="-0.9777897878895447"><ele>197.33333333333331</ele><time>2026-04-08T16:17:50Z</time></trkpt><trkpt lat="48.419895871333225" lon="-0.9780146237022275"><ele>196.66666666666666</ele><time>2026-04-08T16:17:51Z</time></trkpt><trkpt lat="48.41973316949669" lon="-0.9782305078024746"><ele>196.0</ele><time>2026-04-08T16:17:52Z</time></trkpt><trkpt lat="48.419560495936906" lon="-0.9784306310191896"><ele>194.0</ele><time>2026-04-08T16:17:53Z</time></trkpt><trkpt lat="48.419383888690135" lon="-0.9786270628015047"><ele>192.0</ele><time>2026-04-08T16:17:54Z</time></trkpt><trkpt lat="48.41920377061761" lon="-0.9788200397033303"><ele>190.0</ele><time>2026-04-08T16:17:55Z</time></trkpt><trkpt lat="48.41902405783254" lon="-0.9790051298579098"><ele>190.0</ele><time>2026-04-08T16:17:56Z</time></trkpt><trkpt lat="48.418849141344246" lon="-0.9791839114238776"><ele>190.0</ele><time>2026-04-08T16:17:57Z</time></trkpt><trkpt lat="48.418669890623" lon="-0.979357921313454"><ele>190.0</ele><time>2026-04-08T16:17:58Z</time></trkpt><trkpt lat="48.4184829435215" lon="-0.9795117001002275"><ele>189.66666666666669</ele><time>2026-04-08T16:17:59Z</time></trkpt><trkpt lat="48.418279312748815" lon="-0.9796328323394268"><ele>189.33333333333334</ele><time>2026-04-08T16:18:00Z</time></trkpt><trkpt lat="48.418078854948355" lon="-0.9797468139803889"><ele>189.0</ele><time>2026-04-08T16:18:01Z</time></trkpt><trkpt lat="48.417879919981495" lon="-0.9798606766604793"><ele>188.66666666666666</ele><time>2026-04-08T16:18:02Z</time></trkpt><trkpt lat="48.41768219048397" lon="-0.9799822696273672"><ele>188.33333333333331</ele><time>2026-04-08T16:18:03Z</time></trkpt><trkpt lat="48.41749418545161" lon="-0.98014751336672"><ele>188.0</ele><time>2026-04-08T16:18:04Z</time></trkpt><trkpt lat="48.417313403428196" lon="-0.9803347895392357"><ele>187.5</ele><time>2026-04-08T16:18:05Z</time></trkpt><trkpt lat="48.417134372906474" lon="-0.980535054819377"><ele>187.0</ele><time>2026-04-08T16:18:06Z</time></trkpt><trkpt lat="48.4169479915972" lon="-0.9807375112135164"><ele>187.0</ele><time>2026-04-08T16:18:07Z</time></trkpt><trkpt lat="48.416760575366254" lon="-0.9809353309757576"><ele>187.0</ele><time>2026-04-08T16:18:08Z</time></trkpt><trkpt lat="48.4165704588808" lon="-0.9811129591186054"><ele>187.0</ele><time>2026-04-08T16:18:09Z</time></trkpt><trkpt lat="48.41638967581285" lon="-0.9812886370984901"><ele>187.0</ele><time>2026-04-08T16:18:10Z</time></trkpt><trkpt lat="48.41621182659285" lon="-0.9814749019076283"><ele>187.0</ele><time>2026-04-08T16:18:11Z</time></trkpt><trkpt lat="48.416038654682865" lon="-0.9816607133513873"><ele>186.33333333333334</ele><time>2026-04-08T16:18:12Z</time></trkpt><trkpt lat="48.415867124153955" lon="-0.9818547679314413"><ele>185.66666666666666</ele><time>2026-04-08T16:18:13Z</time></trkpt><trkpt lat="48.415698109795954" lon="-0.9820531609592515"><ele>185.0</ele><time>2026-04-08T16:18:14Z</time></trkpt><trkpt lat="48.41553192067362" lon="-0.9822555335151127"><ele>184.0</ele><time>2026-04-08T16:18:15Z</time></trkpt><trkpt lat="48.415361635518664" lon="-0.9824486805979178"><ele>183.0</ele><time>2026-04-08T16:18:16Z</time></trkpt><trkpt lat="48.41519280615265" lon="-0.9826185820854569"><ele>182.0</ele><time>2026-04-08T16:18:17Z</time></trkpt><trkpt lat="48.41501875615658" lon="-0.9827770321653541"><ele>182.0</ele><time>2026-04-08T16:18:18Z</time></trkpt><trkpt lat="48.41485721010407" lon="-0.9829596982080931"><ele>182.0</ele><time>2026-04-08T16:18:19Z</time></trkpt><trkpt lat="48.41470966875078" lon="-0.9831756432677021"><ele>182.0</ele><time>2026-04-08T16:18:20Z</time></trkpt><trkpt lat="48.414589621693594" lon="-0.9834256095307129"><ele>181.66666666666666</ele><time>2026-04-08T16:18:21Z</time></trkpt><trkpt lat="48.41451391768769" lon="-0.9837083756397232"><ele>181.33333333333334</ele><time>2026-04-08T16:18:22Z</time></trkpt><trkpt lat="48.414437561895056" lon="-0.9840071891590051"><ele>181.0</ele><time>2026-04-08T16:18:23Z</time></trkpt><trkpt lat="48.41436297174783" lon="-0.9843268274661914"><ele>181.0</ele><time>2026-04-08T16:18:24Z</time></trkpt><trkpt lat="48.414287355426076" lon="-0.9846458798895161"><ele>181.0</ele><time>2026-04-08T16:18:25Z</time></trkpt><trkpt lat="48.41421536855413" lon="-0.9849552133669197"><ele>181.0</ele><time>2026-04-08T16:18:26Z</time></trkpt><trkpt lat="48.414143567676376" lon="-0.9852656806401032"><ele>180.66666666666669</ele><time>2026-04-08T16:18:27Z</time></trkpt><trkpt lat="48.41406211360614" lon="-0.9855771638639553"><ele>180.33333333333334</ele><time>2026-04-08T16:18:28Z</time></trkpt><trkpt lat="48.413948725769814" lon="-0.9858682982133048"><ele>180.0</ele><time>2026-04-08T16:18:29Z</time></trkpt><trkpt lat="48.41384252804252" lon="-0.9861652043485448"><ele>179.33333333333334</ele><time>2026-04-08T16:18:30Z</time></trkpt><trkpt lat="48.41372995145363" lon="-0.9864586023493288"><ele>178.66666666666669</ele><time>2026-04-08T16:18:31Z</time></trkpt><trkpt lat="48.41361144877729" lon="-0.9867458622376881"><ele>178.0</ele><time>2026-04-08T16:18:32Z</time></trkpt><trkpt lat="48.4134824766614" lon="-0.9870189538417868"><ele>177.66666666666669</ele><time>2026-04-08T16:18:33Z</time></trkpt><trkpt lat="48.41333462604231" lon="-0.9872690907204094"><ele>177.33333333333334</ele><time>2026-04-08T16:18:34Z</time></trkpt><trkpt lat="48.41316850934909" lon="-0.9874850261987819"><ele>177.0</ele><time>2026-04-08T16:18:35Z</time></trkpt><trkpt lat="48.412992868202984" lon="-0.987679942351345"><ele>177.33333333333334</ele><time>2026-04-08T16:18:36Z</time></trkpt><trkpt lat="48.41281506555619" lon="-0.9878662656538593"><ele>177.66666666666669</ele><time>2026-04-08T16:18:37Z</time></trkpt><trkpt lat="48.41264618397195" lon="-0.9880569945588309"><ele>178.0</ele><time>2026-04-08T16:18:38Z</time></trkpt><trkpt lat="48.4124816876316" lon="-0.9882299226827833"><ele>178.0</ele><time>2026-04-08T16:18:39Z</time></trkpt><trkpt lat="48.4123284185925" lon="-0.9883986467269337"><ele>178.0</ele><time>2026-04-08T16:18:40Z</time></trkpt><trkpt lat="48.41218023579272" lon="-0.9885616039302498"><ele>178.0</ele><time>2026-04-08T16:18:41Z</time></trkpt><trkpt lat="48.41203825148027" lon="-0.9887130207713888"><ele>178.0</ele><time>2026-04-08T16:18:42Z</time></trkpt><trkpt lat="48.41190717160152" lon="-0.9888487804340532"><ele>178.0</ele><time>2026-04-08T16:18:43Z</time></trkpt><trkpt lat="48.41178328404927" lon="-0.9889815180701915"><ele>178.0</ele><time>2026-04-08T16:18:44Z</time></trkpt><trkpt lat="48.41167432071794" lon="-0.9891025299166597"><ele>178.0</ele><time>2026-04-08T16:18:45Z</time></trkpt><trkpt lat="48.411570091093715" lon="-0.9892132424306938"><ele>178.0</ele><time>2026-04-08T16:18:46Z</time></trkpt><trkpt lat="48.411480403538285" lon="-0.9893094226262897"><ele>178.0</ele><time>2026-04-08T16:18:47Z</time></trkpt><trkpt lat="48.41139517929222" lon="-0.989399404526622"><ele>178.0</ele><time>2026-04-08T16:18:48Z</time></trkpt><trkpt lat="48.41132018292115" lon="-0.9894796767309338"><ele>178.0</ele><time>2026-04-08T16:18:49Z</time></trkpt><trkpt lat="48.411252654183706" lon="-0.9895638392880357"><ele>178.0</ele><time>2026-04-08T16:18:50Z</time></trkpt><trkpt lat="48.411196397346146" lon="-0.9896441370464758"><ele>177.4</ele><time>2026-04-08T16:18:51Z</time></trkpt><trkpt lat="48.41114686161899" lon="-0.9897168466254432"><ele>176.8</ele><time>2026-04-08T16:18:52Z</time></trkpt><trkpt lat="48.41109256684867" lon="-0.9898132097659239"><ele>176.2</ele><time>2026-04-08T16:18:54Z</time></trkpt><trkpt lat="48.4109248496125" lon="-0.9897896399986518"><ele>175.6</ele><time>2026-04-08T16:19:05Z</time></trkpt><trkpt lat="48.410861423263405" lon="-0.9897090892120535"><ele>175.0</ele><time>2026-04-08T16:19:06Z</time></trkpt><trkpt lat="48.41079193210724" lon="-0.989623999047305"><ele>175.0</ele><time>2026-04-08T16:19:07Z</time></trkpt><trkpt lat="48.41069221392037" lon="-0.9895201682616561"><ele>175.0</ele><time>2026-04-08T16:19:08Z</time></trkpt><trkpt lat="48.41058989110479" lon="-0.989409957774722"><ele>175.0</ele><time>2026-04-08T16:19:09Z</time></trkpt><trkpt lat="48.41046897147476" lon="-0.989283233860534"><ele>175.0</ele><time>2026-04-08T16:19:10Z</time></trkpt><trkpt lat="48.4103476174219" lon="-0.9891552416553722"><ele>174.33333333333334</ele><time>2026-04-08T16:19:11Z</time></trkpt><trkpt lat="48.41021984038833" lon="-0.9890208292485922"><ele>173.66666666666666</ele><time>2026-04-08T16:19:12Z</time></trkpt><trkpt lat="48.41008289015624" lon="-0.9888896794272845"><ele>173.0</ele><time>2026-04-08T16:19:13Z</time></trkpt><trkpt lat="48.40993358581159" lon="-0.9887680994820797"><ele>173.0</ele><time>2026-04-08T16:19:14Z</time></trkpt><trkpt lat="48.40977513831511" lon="-0.9886534379294337"><ele>173.0</ele><time>2026-04-08T16:19:15Z</time></trkpt><trkpt lat="48.409615472432954" lon="-0.9885491637630289"><ele>173.0</ele><time>2026-04-08T16:19:16Z</time></trkpt><trkpt lat="48.40944969193346" lon="-0.988491656484467"><ele>171.33333333333331</ele><time>2026-04-08T16:19:17Z</time></trkpt><trkpt lat="48.40928259348685" lon="-0.9884289532152434"><ele>169.66666666666666</ele><time>2026-04-08T16:19:18Z</time></trkpt><trkpt lat="48.40912380807145" lon="-0.9883599342600852"><ele>168.0</ele><time>2026-04-08T16:19:19Z</time></trkpt><trkpt lat="48.40896221646095" lon="-0.9883303137511952"><ele>166.66666666666666</ele><time>2026-04-08T16:19:20Z</time></trkpt><trkpt lat="48.40880316859792" lon="-0.9883387264260669"><ele>165.33333333333331</ele><time>2026-04-08T16:19:21Z</time></trkpt><trkpt lat="48.40864775398904" lon="-0.9883369709656143"><ele>164.0</ele><time>2026-04-08T16:19:22Z</time></trkpt><trkpt lat="48.40849782997975" lon="-0.9883425392011403"><ele>164.0</ele><time>2026-04-08T16:19:23Z</time></trkpt><trkpt lat="48.408359648449306" lon="-0.9883312563846105"><ele>164.0</ele><time>2026-04-08T16:19:24Z</time></trkpt><trkpt lat="48.408226197469865" lon="-0.9883411789883149"><ele>164.0</ele><time>2026-04-08T16:19:25Z</time></trkpt><trkpt lat="48.40811330619989" lon="-0.9883559172344697"><ele>164.0</ele><time>2026-04-08T16:19:26Z</time></trkpt><trkpt lat="48.4080140129498" lon="-0.9883784016421852"><ele>163.66666666666666</ele><time>2026-04-08T16:19:27Z</time></trkpt><trkpt lat="48.40792046391017" lon="-0.9884106680114855"><ele>163.33333333333331</ele><time>2026-04-08T16:19:28Z</time></trkpt><trkpt lat="48.407844783642375" lon="-0.98848043648272"><ele>163.0</ele><time>2026-04-08T16:19:29Z</time></trkpt><trkpt lat="48.407771959183904" lon="-0.9885332364353816"><ele>162.66666666666666</ele><time>2026-04-08T16:19:30Z</time></trkpt><trkpt lat="48.40768554383091" lon="-0.9885405423405256"><ele>162.33333333333334</ele><time>2026-04-08T16:19:31Z</time></trkpt><trkpt lat="48.40759769085063" lon="-0.9884903963748731"><ele>162.0</ele><time>2026-04-08T16:19:32Z</time></trkpt><trkpt lat="48.407501671892256" lon="-0.9884136018201943"><ele>162.0</ele><time>2026-04-08T16:19:33Z</time></trkpt><trkpt lat="48.40737889900036" lon="-0.9883850693618587"><ele>162.0</ele><time>2026-04-08T16:19:34Z</time></trkpt><trkpt lat="48.407245988778655" lon="-0.988385352252202"><ele>162.0</ele><time>2026-04-08T16:19:35Z</time></trkpt><trkpt lat="48.40711476287181" lon="-0.9883975027327033"><ele>162.0</ele><time>2026-04-08T16:19:36Z</time></trkpt><trkpt lat="48.40696245228254" lon="-0.98840484902817"><ele>162.33333333333334</ele><time>2026-04-08T16:19:37Z</time></trkpt><trkpt lat="48.406798321585114" lon="-0.9884342471055954"><ele>162.66666666666669</ele><time>2026-04-08T16:19:38Z</time></trkpt><trkpt lat="48.40660798409473" lon="-0.9884213610190569"><ele>163.0</ele><time>2026-04-08T16:19:39Z</time></trkpt><trkpt lat="48.4064112021307" lon="-0.9884333978707183"><ele>164.33333333333334</ele><time>2026-04-08T16:19:40Z</time></trkpt><trkpt lat="48.40620225915539" lon="-0.9884445662174965"><ele>165.66666666666666</ele><time>2026-04-08T16:19:41Z</time></trkpt><trkpt lat="48.40598413745102" lon="-0.9884585876771818"><ele>167.0</ele><time>2026-04-08T16:19:42Z</time></trkpt><trkpt lat="48.40576252276305" lon="-0.9884727422687418"><ele>167.0</ele><time>2026-04-08T16:19:43Z</time></trkpt><trkpt lat="48.40553460534716" lon="-0.9884867509031484"><ele>167.0</ele><time>2026-04-08T16:19:44Z</time></trkpt><trkpt lat="48.40530690469114" lon="-0.9884973834731126"><ele>167.5</ele><time>2026-04-08T16:19:45Z</time></trkpt><trkpt lat="48.40508147906689" lon="-0.988502852240944"><ele>168.0</ele><time>2026-04-08T16:19:46Z</time></trkpt><trkpt lat="48.404852792859124" lon="-0.9885096148532159"><ele>168.5</ele><time>2026-04-08T16:19:47Z</time></trkpt><trkpt lat="48.404622976768145" lon="-0.9885218301730486"><ele>169.0</ele><time>2026-04-08T16:19:48Z</time></trkpt><trkpt lat="48.40439088212657" lon="-0.9885355661803811"><ele>169.0</ele><time>2026-04-08T16:19:49Z</time></trkpt><trkpt lat="48.404154487460545" lon="-0.9885475583023529"><ele>169.0</ele><time>2026-04-08T16:19:50Z</time></trkpt><trkpt lat="48.40391971580733" lon="-0.9885592809347619"><ele>168.0</ele><time>2026-04-08T16:19:51Z</time></trkpt><trkpt lat="48.40368178493136" lon="-0.9885693931143651"><ele>167.0</ele><time>2026-04-08T16:19:52Z</time></trkpt><trkpt lat="48.40344235914811" lon="-0.9885793865558026"><ele>167.0</ele><time>2026-04-08T16:19:53Z</time></trkpt><trkpt lat="48.40319761741235" lon="-0.9885966899413922"><ele>167.0</ele><time>2026-04-08T16:19:54Z</time></trkpt><trkpt lat="48.402943429338364" lon="-0.9886100083082259"><ele>166.0</ele><time>2026-04-08T16:19:55Z</time></trkpt><trkpt lat="48.40267689302861" lon="-0.9886218145282473"><ele>165.0</ele><time>2026-04-08T16:19:56Z</time></trkpt><trkpt lat="48.402410482542194" lon="-0.9886368268401406"><ele>166.0</ele><time>2026-04-08T16:19:57Z</time></trkpt><trkpt lat="48.402145484976124" lon="-0.9886533605336397"><ele>167.0</ele><time>2026-04-08T16:19:58Z</time></trkpt><trkpt lat="48.40187809221128" lon="-0.9886643264212738"><ele>167.0</ele><time>2026-04-08T16:19:59Z</time></trkpt><trkpt lat="48.40160708136757" lon="-0.9886712110534474"><ele>167.0</ele><time>2026-04-08T16:20:00Z</time></trkpt><trkpt lat="48.401337940595155" lon="-0.9886822773033405"><ele>169.5</ele><time>2026-04-08T16:20:01Z</time></trkpt><trkpt lat="48.40107051126214" lon="-0.9886968700304968"><ele>172.0</ele><time>2026-04-08T16:20:02Z</time></trkpt><trkpt lat="48.40080105889266" lon="-0.988712096167709"><ele>172.0</ele><time>2026-04-08T16:20:03Z</time></trkpt><trkpt lat="48.40053175761969" lon="-0.9887271937629751"><ele>172.0</ele><time>2026-04-08T16:20:04Z</time></trkpt><trkpt lat="48.40026109832744" lon="-0.9887312319641207"><ele>174.0</ele><time>2026-04-08T16:20:05Z</time></trkpt><trkpt lat="48.39999446264277" lon="-0.9887412324225414"><ele>176.0</ele><time>2026-04-08T16:20:06Z</time></trkpt><trkpt lat="48.39972383772696" lon="-0.9887499324425725"><ele>176.5</ele><time>2026-04-08T16:20:07Z</time></trkpt><trkpt lat="48.39944857062426" lon="-0.9887843513198796"><ele>177.0</ele><time>2026-04-08T16:20:08Z</time></trkpt><trkpt lat="48.3991716030491" lon="-0.9887967408803259"><ele>177.0</ele><time>2026-04-08T16:20:09Z</time></trkpt><trkpt lat="48.39890246256214" lon="-0.9888089316561022"><ele>177.0</ele><time>2026-04-08T16:20:10Z</time></trkpt><trkpt lat="48.39864397572373" lon="-0.9888206398734329"><ele>177.5</ele><time>2026-04-08T16:20:11Z</time></trkpt><trkpt lat="48.398388428062816" lon="-0.9888330748706161"><ele>178.0</ele><time>2026-04-08T16:20:12Z</time></trkpt><trkpt lat="48.39813368831986" lon="-0.9888470067207814"><ele>179.5</ele><time>2026-04-08T16:20:13Z</time></trkpt><trkpt lat="48.39788818632426" lon="-0.9888602973277675"><ele>181.0</ele><time>2026-04-08T16:20:14Z</time></trkpt><trkpt lat="48.397647379273785" lon="-0.9888730472863637"><ele>181.0</ele><time>2026-04-08T16:20:15Z</time></trkpt><trkpt lat="48.39741205770336" lon="-0.9888615435729097"><ele>181.0</ele><time>2026-04-08T16:20:16Z</time></trkpt><trkpt lat="48.397176226674596" lon="-0.9888799222140471"><ele>179.0</ele><time>2026-04-08T16:20:17Z</time></trkpt><trkpt lat="48.396944435783006" lon="-0.9888906488997332"><ele>177.0</ele><time>2026-04-08T16:20:18Z</time></trkpt><trkpt lat="48.3967135030722" lon="-0.9889060150289776"><ele>177.0</ele><time>2026-04-08T16:20:19Z</time></trkpt><trkpt lat="48.396478001703" lon="-0.988912564010364"><ele>177.0</ele><time>2026-04-08T16:20:20Z</time></trkpt><trkpt lat="48.39624228085558" lon="-0.9889196018601184"><ele>176.5</ele><time>2026-04-08T16:20:21Z</time></trkpt><trkpt lat="48.39600338958698" lon="-0.9889292405154227"><ele>176.0</ele><time>2026-04-08T16:20:22Z</time></trkpt><trkpt lat="48.39576076536404" lon="-0.9889399402874031"><ele>176.0</ele><time>2026-04-08T16:20:23Z</time></trkpt><trkpt lat="48.39551409278845" lon="-0.9889562576421076"><ele>176.0</ele><time>2026-04-08T16:20:24Z</time></trkpt><trkpt lat="48.39525105952563" lon="-0.9889796796547763"><ele>175.5</ele><time>2026-04-08T16:20:25Z</time></trkpt><trkpt lat="48.394979906812516" lon="-0.9889883114353578"><ele>175.0</ele><time>2026-04-08T16:20:26Z</time></trkpt><trkpt lat="48.394700562143626" lon="-0.9890054642746058"><ele>176.5</ele><time>2026-04-08T16:20:27Z</time></trkpt><trkpt lat="48.3944164118575" lon="-0.9890154896633191"><ele>178.0</ele><time>2026-04-08T16:20:28Z</time></trkpt><trkpt lat="48.39413101258939" lon="-0.989026952299421"><ele>178.0</ele><time>2026-04-08T16:20:29Z</time></trkpt><trkpt lat="48.39384231717639" lon="-0.9890414047933711"><ele>178.0</ele><time>2026-04-08T16:20:30Z</time></trkpt><trkpt lat="48.39356623388018" lon="-0.9890527669831605"><ele>180.0</ele><time>2026-04-08T16:20:31Z</time></trkpt><trkpt lat="48.393305769468334" lon="-0.9890677161298422"><ele>182.0</ele><time>2026-04-08T16:20:32Z</time></trkpt><trkpt lat="48.39306559702514" lon="-0.9890793625321657"><ele>181.5</ele><time>2026-04-08T16:20:33Z</time></trkpt><trkpt lat="48.392831868980124" lon="-0.9890887250910673"><ele>181.0</ele><time>2026-04-08T16:20:34Z</time></trkpt><trkpt lat="48.39261473580816" lon="-0.9890999986568493"><ele>181.0</ele><time>2026-04-08T16:20:35Z</time></trkpt><trkpt lat="48.39240216945639" lon="-0.9891144483385924"><ele>181.0</ele><time>2026-04-08T16:20:36Z</time></trkpt><trkpt lat="48.39219864143521" lon="-0.9891260481360473"><ele>181.0</ele><time>2026-04-08T16:20:37Z</time></trkpt><trkpt lat="48.39200309192978" lon="-0.9891377594448287"><ele>180.33333333333334</ele><time>2026-04-08T16:20:38Z</time></trkpt><trkpt lat="48.39182195081705" lon="-0.9891489994563697"><ele>179.66666666666666</ele><time>2026-04-08T16:20:39Z</time></trkpt><trkpt lat="48.39165131135373" lon="-0.9891569479899943"><ele>179.0</ele><time>2026-04-08T16:20:40Z</time></trkpt><trkpt lat="48.39148908044913" lon="-0.9891643837134937"><ele>179.0</ele><time>2026-04-08T16:20:41Z</time></trkpt><trkpt lat="48.39133682064419" lon="-0.989169296899856"><ele>179.0</ele><time>2026-04-08T16:20:42Z</time></trkpt><trkpt lat="48.39118523844328" lon="-0.9891744207502285"><ele>179.0</ele><time>2026-04-08T16:20:43Z</time></trkpt><trkpt lat="48.39104294377242" lon="-0.9891886738833875"><ele>179.0</ele><time>2026-04-08T16:20:44Z</time></trkpt><trkpt lat="48.390909928662595" lon="-0.9891960295788897"><ele>179.5</ele><time>2026-04-08T16:20:45Z</time></trkpt><trkpt lat="48.390776867651084" lon="-0.9892017295213322"><ele>180.0</ele><time>2026-04-08T16:20:46Z</time></trkpt><trkpt lat="48.390651551111155" lon="-0.9892079150151433"><ele>180.5</ele><time>2026-04-08T16:20:47Z</time></trkpt><trkpt lat="48.390525717274954" lon="-0.9892098264155831"><ele>181.0</ele><time>2026-04-08T16:20:48Z</time></trkpt><trkpt lat="48.39040244566255" lon="-0.9892118437384735"><ele>181.0</ele><time>2026-04-08T16:20:49Z</time></trkpt><trkpt lat="48.390279643277026" lon="-0.9892204325486701"><ele>181.0</ele><time>2026-04-08T16:20:50Z</time></trkpt><trkpt lat="48.39015635065997" lon="-0.9892246722808739"><ele>181.0</ele><time>2026-04-08T16:20:51Z</time></trkpt><trkpt lat="48.39003374299532" lon="-0.9892317278936118"><ele>181.0</ele><time>2026-04-08T16:20:52Z</time></trkpt><trkpt lat="48.38990957328034" lon="-0.9892366934934009"><ele>181.0</ele><time>2026-04-08T16:20:53Z</time></trkpt><trkpt lat="48.38978447716153" lon="-0.9892414418260423"><ele>181.0</ele><time>2026-04-08T16:20:54Z</time></trkpt><trkpt lat="48.38965895816425" lon="-0.9892463027569315"><ele>181.0</ele><time>2026-04-08T16:20:55Z</time></trkpt><trkpt lat="48.38953277265075" lon="-0.9892549812575502"><ele>181.0</ele><time>2026-04-08T16:20:56Z</time></trkpt><trkpt lat="48.38941082156109" lon="-0.9892616644903299"><ele>180.75</ele><time>2026-04-08T16:20:57Z</time></trkpt><trkpt lat="48.389289425644684" lon="-0.9892694497852424"><ele>180.5</ele><time>2026-04-08T16:20:58Z</time></trkpt><trkpt lat="48.38916782094197" lon="-0.9892723092720497"><ele>180.25</ele><time>2026-04-08T16:20:59Z</time></trkpt><trkpt lat="48.38904550543966" lon="-0.989275413273454"><ele>180.0</ele><time>2026-04-08T16:21:00Z</time></trkpt><trkpt lat="48.388925998380785" lon="-0.9892820545161459"><ele>180.5</ele><time>2026-04-08T16:21:01Z</time></trkpt><trkpt lat="48.38880789124091" lon="-0.9892843823659674"><ele>181.0</ele><time>2026-04-08T16:21:02Z</time></trkpt><trkpt lat="48.38868853229787" lon="-0.9892874931055902"><ele>181.5</ele><time>2026-04-08T16:21:03Z</time></trkpt><trkpt lat="48.388567964447105" lon="-0.9892959846883331"><ele>182.0</ele><time>2026-04-08T16:21:04Z</time></trkpt><trkpt lat="48.388445595263306" lon="-0.9893019544457398"><ele>182.0</ele><time>2026-04-08T16:21:05Z</time></trkpt><trkpt lat="48.388327040165976" lon="-0.9893126054001663"><ele>182.0</ele><time>2026-04-08T16:21:06Z</time></trkpt><trkpt lat="48.38820503201309" lon="-0.9893192169478806"><ele>182.0</ele><time>2026-04-08T16:21:07Z</time></trkpt><trkpt lat="48.38808405618552" lon="-0.9893230365795748"><ele>182.0</ele><time>2026-04-08T16:21:08Z</time></trkpt><trkpt lat="48.38796258357771" lon="-0.9893283147633747"><ele>182.25</ele><time>2026-04-08T16:21:09Z</time></trkpt><trkpt lat="48.38784334321884" lon="-0.9893288820112106"><ele>182.5</ele><time>2026-04-08T16:21:10Z</time></trkpt><trkpt lat="48.38772921854434" lon="-0.9893259942031171"><ele>182.75</ele><time>2026-04-08T16:21:11Z</time></trkpt><trkpt lat="48.38761706662366" lon="-0.9893264460609678"><ele>183.0</ele><time>2026-04-08T16:21:12Z</time></trkpt><trkpt lat="48.387508346157986" lon="-0.9893301844237399"><ele>183.0</ele><time>2026-04-08T16:21:13Z</time></trkpt><trkpt lat="48.387398945720854" lon="-0.9893345388978977"><ele>183.0</ele><time>2026-04-08T16:21:14Z</time></trkpt><trkpt lat="48.38729511410566" lon="-0.9893384416567886"><ele>183.0</ele><time>2026-04-08T16:21:15Z</time></trkpt><trkpt lat="48.38718967239617" lon="-0.9893704236723054"><ele>183.0</ele><time>2026-04-08T16:21:16Z</time></trkpt><trkpt lat="48.38708935148253" lon="-0.9893753105502978"><ele>183.0</ele><time>2026-04-08T16:21:17Z</time></trkpt><trkpt lat="48.386987400918144" lon="-0.9893778981299584"><ele>182.60000000000002</ele><time>2026-04-08T16:21:18Z</time></trkpt><trkpt lat="48.386888309285325" lon="-0.9893787384693117"><ele>182.20000000000002</ele><time>2026-04-08T16:21:19Z</time></trkpt><trkpt lat="48.386789244340065" lon="-0.9893795242282222"><ele>181.8</ele><time>2026-04-08T16:21:20Z</time></trkpt><trkpt lat="48.38669059998867" lon="-0.9893792783432703"><ele>181.4</ele><time>2026-04-08T16:21:21Z</time></trkpt><trkpt lat="48.386590276342" lon="-0.9893767832679703"><ele>181.0</ele><time>2026-04-08T16:21:22Z</time></trkpt><trkpt lat="48.386490962855625" lon="-0.9893700898507741"><ele>181.0</ele><time>2026-04-08T16:21:23Z</time></trkpt><trkpt lat="48.386390945802376" lon="-0.9893522567481837"><ele>181.0</ele><time>2026-04-08T16:21:24Z</time></trkpt><trkpt lat="48.386292251324875" lon="-0.9893430852412369"><ele>181.0</ele><time>2026-04-08T16:21:25Z</time></trkpt><trkpt lat="48.38619021057601" lon="-0.9893259280607809"><ele>181.0</ele><time>2026-04-08T16:21:26Z</time></trkpt><trkpt lat="48.386091526252855" lon="-0.9892940985852343"><ele>181.0</ele><time>2026-04-08T16:21:27Z</time></trkpt><trkpt lat="48.38599179181049" lon="-0.9892600200079388"><ele>181.0</ele><time>2026-04-08T16:21:28Z</time></trkpt><trkpt lat="48.3858928588088" lon="-0.98922364203146"><ele>181.0</ele><time>2026-04-08T16:21:29Z</time></trkpt><trkpt lat="48.38579913682743" lon="-0.9891858865424994"><ele>181.0</ele><time>2026-04-08T16:21:30Z</time></trkpt><trkpt lat="48.38570796072437" lon="-0.989144017161499"><ele>181.0</ele><time>2026-04-08T16:21:31Z</time></trkpt><trkpt lat="48.385616375560566" lon="-0.9890707489920452"><ele>181.0</ele><time>2026-04-08T16:21:32Z</time></trkpt><trkpt lat="48.38552524120898" lon="-0.9890224785584182"><ele>180.0</ele><time>2026-04-08T16:21:33Z</time></trkpt><trkpt lat="48.38543628907592" lon="-0.9889671477073412"><ele>179.0</ele><time>2026-04-08T16:21:34Z</time></trkpt><trkpt lat="48.385346507844424" lon="-0.9889176588580202"><ele>178.0</ele><time>2026-04-08T16:21:35Z</time></trkpt><trkpt lat="48.38525394124369" lon="-0.9888405128067117"><ele>177.0</ele><time>2026-04-08T16:21:36Z</time></trkpt><trkpt lat="48.38517252219263" lon="-0.9887832601952704"><ele>176.0</ele><time>2026-04-08T16:21:37Z</time></trkpt><trkpt lat="48.385093879318866" lon="-0.9887480836303255"><ele>176.0</ele><time>2026-04-08T16:21:38Z</time></trkpt><trkpt lat="48.38502260652047" lon="-0.9886939203647301"><ele>176.0</ele><time>2026-04-08T16:21:39Z</time></trkpt><trkpt lat="48.3849635151199" lon="-0.988622576363377"><ele>176.0</ele><time>2026-04-08T16:21:40Z</time></trkpt><trkpt lat="48.384856957294716" lon="-0.9885680359938286"><ele>176.0</ele><time>2026-04-08T16:21:42Z</time></trkpt><trkpt lat="48.38488085349075" lon="-0.9883192843112483"><ele>176.0</ele><time>2026-04-08T16:21:48Z</time></trkpt><trkpt lat="48.384969146408935" lon="-0.9883597432274644"><ele>176.0</ele><time>2026-04-08T16:21:50Z</time></trkpt><trkpt lat="48.385036097332716" lon="-0.9884077871546345"><ele>176.0</ele><time>2026-04-08T16:21:52Z</time></trkpt><trkpt lat="48.38510166644382" lon="-0.9884508324366281"><ele>176.0</ele><time>2026-04-08T16:21:56Z</time></trkpt><trkpt lat="48.38503900372197" lon="-0.9884763733149564"><ele>176.0</ele><time>2026-04-08T16:22:49Z</time></trkpt><trkpt lat="48.384858882215774" lon="-0.9885066415303767"><ele>176.0</ele><time>2026-04-08T16:23:35Z</time></trkpt></trkseg></trk></gpx>